<?xml version="1.0" encoding="UTF-8" standalone="no" ?>
<gpx xmlns="http://www.topografix.com/GPX/1/1" xmlns:xsi="http://www.w3.org/2001/XMLSchema-instance" xsi:schemaLocation="http://www.topografix.com/GPX/1/1 http://www.topografix.com/GPX/1/1/gpx.xsd" version="1.1" creator="VisuGPX - https://www.visugpx.com">
  <metadata>
    <name>2015-05-06 Du hameau de Barraux au col de Belles Ombres</name>
    <desc><![CDATA[Itinéraire nécessitant un peu de recherche ...]]></desc>
  </metadata>
  <trk>
    <name><![CDATA[h]]></name>
    <trkseg>
      <trkpt lat="45.44404" lon="5.90753">
        <ele>1126</ele>
        <time>2015-05-06T14:49:01Z</time>
      </trkpt>
      <trkpt lat="45.44404" lon="5.90752">
        <ele>1126</ele>
        <time>2015-05-06T14:49:06Z</time>
      </trkpt>
      <trkpt lat="45.44403" lon="5.90748">
        <ele>1126</ele>
        <time>2015-05-06T14:49:11Z</time>
      </trkpt>
      <trkpt lat="45.44403" lon="5.90748">
        <ele>1126</ele>
        <time>2015-05-06T14:49:18Z</time>
      </trkpt>
      <trkpt lat="45.44403" lon="5.90749">
        <ele>1126</ele>
        <time>2015-05-06T14:49:23Z</time>
      </trkpt>
      <trkpt lat="45.44403" lon="5.90749">
        <ele>1126</ele>
        <time>2015-05-06T14:49:27Z</time>
      </trkpt>
      <trkpt lat="45.44403" lon="5.90749">
        <ele>1126</ele>
        <time>2015-05-06T14:49:33Z</time>
      </trkpt>
      <trkpt lat="45.44403" lon="5.90749">
        <ele>1126</ele>
        <time>2015-05-06T14:49:38Z</time>
      </trkpt>
      <trkpt lat="45.44403" lon="5.90749">
        <ele>1126</ele>
        <time>2015-05-06T14:49:42Z</time>
      </trkpt>
      <trkpt lat="45.44403" lon="5.90749">
        <ele>1126</ele>
        <time>2015-05-06T14:49:47Z</time>
      </trkpt>
      <trkpt lat="45.44403" lon="5.90749">
        <ele>1126</ele>
        <time>2015-05-06T14:49:53Z</time>
      </trkpt>
      <trkpt lat="45.44403" lon="5.90749">
        <ele>1126</ele>
        <time>2015-05-06T14:49:58Z</time>
      </trkpt>
      <trkpt lat="45.44403" lon="5.90749">
        <ele>1126</ele>
        <time>2015-05-06T14:50:03Z</time>
      </trkpt>
      <trkpt lat="45.44403" lon="5.90749">
        <ele>1126</ele>
        <time>2015-05-06T14:50:07Z</time>
      </trkpt>
      <trkpt lat="45.44403" lon="5.90749">
        <ele>1126</ele>
        <time>2015-05-06T14:50:13Z</time>
      </trkpt>
      <trkpt lat="45.44403" lon="5.90749">
        <ele>1126</ele>
        <time>2015-05-06T14:50:18Z</time>
      </trkpt>
      <trkpt lat="45.44403" lon="5.90749">
        <ele>1126</ele>
        <time>2015-05-06T14:50:22Z</time>
      </trkpt>
      <trkpt lat="45.44403" lon="5.90749">
        <ele>1126</ele>
        <time>2015-05-06T14:50:28Z</time>
      </trkpt>
      <trkpt lat="45.44403" lon="5.90749">
        <ele>1126</ele>
        <time>2015-05-06T14:50:33Z</time>
      </trkpt>
      <trkpt lat="45.44403" lon="5.90749">
        <ele>1126</ele>
        <time>2015-05-06T14:50:37Z</time>
      </trkpt>
      <trkpt lat="45.44403" lon="5.90749">
        <ele>1126</ele>
        <time>2015-05-06T14:50:42Z</time>
      </trkpt>
      <trkpt lat="45.44403" lon="5.90749">
        <ele>1126</ele>
        <time>2015-05-06T14:50:48Z</time>
      </trkpt>
      <trkpt lat="45.44403" lon="5.90749">
        <ele>1126</ele>
        <time>2015-05-06T14:50:52Z</time>
      </trkpt>
      <trkpt lat="45.44403" lon="5.90749">
        <ele>1126</ele>
        <time>2015-05-06T14:50:58Z</time>
      </trkpt>
      <trkpt lat="45.44403" lon="5.90749">
        <ele>1126</ele>
        <time>2015-05-06T14:51:03Z</time>
      </trkpt>
      <trkpt lat="45.44406" lon="5.90753">
        <ele>1131.138975894</ele>
        <time>2015-05-06T14:51:07Z</time>
      </trkpt>
      <trkpt lat="45.44409" lon="5.90761">
        <ele>1131.138975894</ele>
        <time>2015-05-06T14:51:11Z</time>
      </trkpt>
      <trkpt lat="45.44412" lon="5.90763">
        <ele>1134.356167162</ele>
        <time>2015-05-06T14:51:16Z</time>
      </trkpt>
      <trkpt lat="45.44419" lon="5.90771">
        <ele>1134.356167162</ele>
        <time>2015-05-06T14:51:23Z</time>
      </trkpt>
      <trkpt lat="45.44421" lon="5.90779">
        <ele>1138.19234515</ele>
        <time>2015-05-06T14:51:28Z</time>
      </trkpt>
      <trkpt lat="45.44415" lon="5.90784">
        <ele>1138.19234515</ele>
        <time>2015-05-06T14:51:33Z</time>
      </trkpt>
      <trkpt lat="45.44416" lon="5.90781">
        <ele>1142.800154507</ele>
        <time>2015-05-06T14:51:38Z</time>
      </trkpt>
      <trkpt lat="45.44414" lon="5.9078">
        <ele>1142.800154507</ele>
        <time>2015-05-06T14:51:43Z</time>
      </trkpt>
      <trkpt lat="45.44413" lon="5.9078">
        <ele>1142.800154507</ele>
        <time>2015-05-06T14:51:47Z</time>
      </trkpt>
      <trkpt lat="45.44413" lon="5.9078">
        <ele>1142.800154507</ele>
        <time>2015-05-06T14:51:52Z</time>
      </trkpt>
      <trkpt lat="45.44413" lon="5.9078">
        <ele>1142.800154507</ele>
        <time>2015-05-06T14:51:58Z</time>
      </trkpt>
      <trkpt lat="45.44413" lon="5.9078">
        <ele>1142.800154507</ele>
        <time>2015-05-06T14:52:03Z</time>
      </trkpt>
      <trkpt lat="45.44413" lon="5.9078">
        <ele>1142.800154507</ele>
        <time>2015-05-06T14:52:08Z</time>
      </trkpt>
      <trkpt lat="45.44413" lon="5.9078">
        <ele>1142.800154507</ele>
        <time>2015-05-06T14:52:13Z</time>
      </trkpt>
      <trkpt lat="45.44413" lon="5.9078">
        <ele>1142.800154507</ele>
        <time>2015-05-06T14:52:18Z</time>
      </trkpt>
      <trkpt lat="45.4441" lon="5.90782">
        <ele>1142.800154507</ele>
        <time>2015-05-06T14:52:23Z</time>
      </trkpt>
      <trkpt lat="45.44405" lon="5.90792">
        <ele>1147.704399252</ele>
        <time>2015-05-06T14:52:28Z</time>
      </trkpt>
      <trkpt lat="45.44399" lon="5.908">
        <ele>1147.704399252</ele>
        <time>2015-05-06T14:52:32Z</time>
      </trkpt>
      <trkpt lat="45.44393" lon="5.90803">
        <ele>1152.088120544</ele>
        <time>2015-05-06T14:52:37Z</time>
      </trkpt>
      <trkpt lat="45.44392" lon="5.90801">
        <ele>1152.088120544</ele>
        <time>2015-05-06T14:52:43Z</time>
      </trkpt>
      <trkpt lat="45.44391" lon="5.90808">
        <ele>1152.088120544</ele>
        <time>2015-05-06T14:52:47Z</time>
      </trkpt>
      <trkpt lat="45.44387" lon="5.90816">
        <ele>1155.96927174</ele>
        <time>2015-05-06T14:52:53Z</time>
      </trkpt>
      <trkpt lat="45.44386" lon="5.9082">
        <ele>1155.96927174</ele>
        <time>2015-05-06T14:52:58Z</time>
      </trkpt>
      <trkpt lat="45.44383" lon="5.90828">
        <ele>1159.345542788</ele>
        <time>2015-05-06T14:53:03Z</time>
      </trkpt>
      <trkpt lat="45.44384" lon="5.90833">
        <ele>1159.345542788</ele>
        <time>2015-05-06T14:53:07Z</time>
      </trkpt>
      <trkpt lat="45.44386" lon="5.90833">
        <ele>1159.345542788</ele>
        <time>2015-05-06T14:53:13Z</time>
      </trkpt>
      <trkpt lat="45.44386" lon="5.90837">
        <ele>1159.345542788</ele>
        <time>2015-05-06T14:53:18Z</time>
      </trkpt>
      <trkpt lat="45.44382" lon="5.90842">
        <ele>1163.263695723</ele>
        <time>2015-05-06T14:53:23Z</time>
      </trkpt>
      <trkpt lat="45.44384" lon="5.90851">
        <ele>1163.263695723</ele>
        <time>2015-05-06T14:53:28Z</time>
      </trkpt>
      <trkpt lat="45.44389" lon="5.90859">
        <ele>1165.719383605</ele>
        <time>2015-05-06T14:53:33Z</time>
      </trkpt>
      <trkpt lat="45.4439" lon="5.90865">
        <ele>1165.719383605</ele>
        <time>2015-05-06T14:53:38Z</time>
      </trkpt>
      <trkpt lat="45.44388" lon="5.90869">
        <ele>1165.719383605</ele>
        <time>2015-05-06T14:53:43Z</time>
      </trkpt>
      <trkpt lat="45.44388" lon="5.90865">
        <ele>1168.477417047</ele>
        <time>2015-05-06T14:53:47Z</time>
      </trkpt>
      <trkpt lat="45.44384" lon="5.9087">
        <ele>1168.477417047</ele>
        <time>2015-05-06T14:53:53Z</time>
      </trkpt>
      <trkpt lat="45.44385" lon="5.9087">
        <ele>1168.477417047</ele>
        <time>2015-05-06T14:53:58Z</time>
      </trkpt>
      <trkpt lat="45.44383" lon="5.90876">
        <ele>1170.524849421</ele>
        <time>2015-05-06T14:54:03Z</time>
      </trkpt>
      <trkpt lat="45.44383" lon="5.90876">
        <ele>1170.524849421</ele>
        <time>2015-05-06T14:54:07Z</time>
      </trkpt>
      <trkpt lat="45.44385" lon="5.90876">
        <ele>1170.524849421</ele>
        <time>2015-05-06T14:54:13Z</time>
      </trkpt>
      <trkpt lat="45.44382" lon="5.90882">
        <ele>1170.524849421</ele>
        <time>2015-05-06T14:54:16Z</time>
      </trkpt>
      <trkpt lat="45.44381" lon="5.90888">
        <ele>1172.297412401</ele>
        <time>2015-05-06T14:54:23Z</time>
      </trkpt>
      <trkpt lat="45.44378" lon="5.90895">
        <ele>1172.297412401</ele>
        <time>2015-05-06T14:54:28Z</time>
      </trkpt>
      <trkpt lat="45.44379" lon="5.90901">
        <ele>1172.542454067</ele>
        <time>2015-05-06T14:54:32Z</time>
      </trkpt>
      <trkpt lat="45.44381" lon="5.90908">
        <ele>1172.542454067</ele>
        <time>2015-05-06T14:54:38Z</time>
      </trkpt>
      <trkpt lat="45.44381" lon="5.90909">
        <ele>1172.542454067</ele>
        <time>2015-05-06T14:54:43Z</time>
      </trkpt>
      <trkpt lat="45.44381" lon="5.90915">
        <ele>1172.797367583</ele>
        <time>2015-05-06T14:54:47Z</time>
      </trkpt>
      <trkpt lat="45.44381" lon="5.90925">
        <ele>1172.797367583</ele>
        <time>2015-05-06T14:54:53Z</time>
      </trkpt>
      <trkpt lat="45.44378" lon="5.90927">
        <ele>1172.302830532</ele>
        <time>2015-05-06T14:54:58Z</time>
      </trkpt>
      <trkpt lat="45.44375" lon="5.90929">
        <ele>1172.302830532</ele>
        <time>2015-05-06T14:55:03Z</time>
      </trkpt>
      <trkpt lat="45.44372" lon="5.90931">
        <ele>1172.302830532</ele>
        <time>2015-05-06T14:55:08Z</time>
      </trkpt>
      <trkpt lat="45.44373" lon="5.90934">
        <ele>1172.302830532</ele>
        <time>2015-05-06T14:55:13Z</time>
      </trkpt>
      <trkpt lat="45.44373" lon="5.90931">
        <ele>1173.156829566</ele>
        <time>2015-05-06T14:55:17Z</time>
      </trkpt>
      <trkpt lat="45.44371" lon="5.90942">
        <ele>1173.156829566</ele>
        <time>2015-05-06T14:55:22Z</time>
      </trkpt>
      <trkpt lat="45.44374" lon="5.90936">
        <ele>1173.6413369</ele>
        <time>2015-05-06T14:55:28Z</time>
      </trkpt>
      <trkpt lat="45.44373" lon="5.90936">
        <ele>1173.6413369</ele>
        <time>2015-05-06T14:55:32Z</time>
      </trkpt>
      <trkpt lat="45.44372" lon="5.90937">
        <ele>1173.6413369</ele>
        <time>2015-05-06T14:55:38Z</time>
      </trkpt>
      <trkpt lat="45.44372" lon="5.90937">
        <ele>1173.6413369</ele>
        <time>2015-05-06T14:55:42Z</time>
      </trkpt>
      <trkpt lat="45.44371" lon="5.90943">
        <ele>1173.6413369</ele>
        <time>2015-05-06T14:55:47Z</time>
      </trkpt>
      <trkpt lat="45.44369" lon="5.90947">
        <ele>1174.467668234</ele>
        <time>2015-05-06T14:55:53Z</time>
      </trkpt>
      <trkpt lat="45.44368" lon="5.90955">
        <ele>1174.467668234</ele>
        <time>2015-05-06T14:55:58Z</time>
      </trkpt>
      <trkpt lat="45.44366" lon="5.9096">
        <ele>1175.150287358</ele>
        <time>2015-05-06T14:56:03Z</time>
      </trkpt>
      <trkpt lat="45.44368" lon="5.90968">
        <ele>1175.150287358</ele>
        <time>2015-05-06T14:56:08Z</time>
      </trkpt>
      <trkpt lat="45.44367" lon="5.90969">
        <ele>1175.150287358</ele>
        <time>2015-05-06T14:56:12Z</time>
      </trkpt>
      <trkpt lat="45.44367" lon="5.90973">
        <ele>1175.724089844</ele>
        <time>2015-05-06T14:56:18Z</time>
      </trkpt>
      <trkpt lat="45.44364" lon="5.9098">
        <ele>1175.724089844</ele>
        <time>2015-05-06T14:56:22Z</time>
      </trkpt>
      <trkpt lat="45.44363" lon="5.90981">
        <ele>1175.724089844</ele>
        <time>2015-05-06T14:56:28Z</time>
      </trkpt>
      <trkpt lat="45.44364" lon="5.90987">
        <ele>1176.671596881</ele>
        <time>2015-05-06T14:56:33Z</time>
      </trkpt>
      <trkpt lat="45.44364" lon="5.90988">
        <ele>1176.671596881</ele>
        <time>2015-05-06T14:56:38Z</time>
      </trkpt>
      <trkpt lat="45.44362" lon="5.90989">
        <ele>1176.671596881</ele>
        <time>2015-05-06T14:56:43Z</time>
      </trkpt>
      <trkpt lat="45.44362" lon="5.90989">
        <ele>1176.671596881</ele>
        <time>2015-05-06T14:56:47Z</time>
      </trkpt>
      <trkpt lat="45.44362" lon="5.90989">
        <ele>1176.671596881</ele>
        <time>2015-05-06T14:56:53Z</time>
      </trkpt>
      <trkpt lat="45.44362" lon="5.90989">
        <ele>1176.671596881</ele>
        <time>2015-05-06T14:56:57Z</time>
      </trkpt>
      <trkpt lat="45.44354" lon="5.90999">
        <ele>1177.509041138</ele>
        <time>2015-05-06T14:57:02Z</time>
      </trkpt>
      <trkpt lat="45.44353" lon="5.91003">
        <ele>1177.509041138</ele>
        <time>2015-05-06T14:57:07Z</time>
      </trkpt>
      <trkpt lat="45.44352" lon="5.91015">
        <ele>1178.549321289</ele>
        <time>2015-05-06T14:57:13Z</time>
      </trkpt>
      <trkpt lat="45.4435" lon="5.91017">
        <ele>1178.549321289</ele>
        <time>2015-05-06T14:57:16Z</time>
      </trkpt>
      <trkpt lat="45.44347" lon="5.91028">
        <ele>1179.918423085</ele>
        <time>2015-05-06T14:57:23Z</time>
      </trkpt>
      <trkpt lat="45.44351" lon="5.91032">
        <ele>1179.918423085</ele>
        <time>2015-05-06T14:57:27Z</time>
      </trkpt>
      <trkpt lat="45.44351" lon="5.91031">
        <ele>1179.918423085</ele>
        <time>2015-05-06T14:57:33Z</time>
      </trkpt>
      <trkpt lat="45.44353" lon="5.91036">
        <ele>1181.581855158</ele>
        <time>2015-05-06T14:57:38Z</time>
      </trkpt>
      <trkpt lat="45.44351" lon="5.91036">
        <ele>1181.581855158</ele>
        <time>2015-05-06T14:57:42Z</time>
      </trkpt>
      <trkpt lat="45.4435" lon="5.91043">
        <ele>1181.581855158</ele>
        <time>2015-05-06T14:57:47Z</time>
      </trkpt>
      <trkpt lat="45.44349" lon="5.91046">
        <ele>1183.223665315</ele>
        <time>2015-05-06T14:57:52Z</time>
      </trkpt>
      <trkpt lat="45.44348" lon="5.91047">
        <ele>1183.223665315</ele>
        <time>2015-05-06T14:57:58Z</time>
      </trkpt>
      <trkpt lat="45.44348" lon="5.91049">
        <ele>1183.223665315</ele>
        <time>2015-05-06T14:58:03Z</time>
      </trkpt>
      <trkpt lat="45.44348" lon="5.91049">
        <ele>1183.223665315</ele>
        <time>2015-05-06T14:58:08Z</time>
      </trkpt>
      <trkpt lat="45.44348" lon="5.91049">
        <ele>1183.223665315</ele>
        <time>2015-05-06T14:58:13Z</time>
      </trkpt>
      <trkpt lat="45.44348" lon="5.91049">
        <ele>1183.223665315</ele>
        <time>2015-05-06T14:58:18Z</time>
      </trkpt>
      <trkpt lat="45.44348" lon="5.91049">
        <ele>1183.223665315</ele>
        <time>2015-05-06T14:58:22Z</time>
      </trkpt>
      <trkpt lat="45.44348" lon="5.91049">
        <ele>1183.223665315</ele>
        <time>2015-05-06T14:58:28Z</time>
      </trkpt>
      <trkpt lat="45.44347" lon="5.91055">
        <ele>1183.223665315</ele>
        <time>2015-05-06T14:58:33Z</time>
      </trkpt>
      <trkpt lat="45.44338" lon="5.91062">
        <ele>1184.702671757</ele>
        <time>2015-05-06T14:58:37Z</time>
      </trkpt>
      <trkpt lat="45.44329" lon="5.91069">
        <ele>1186.171403675</ele>
        <time>2015-05-06T14:58:41Z</time>
      </trkpt>
      <trkpt lat="45.4433" lon="5.91071">
        <ele>1186.171403675</ele>
        <time>2015-05-06T14:58:47Z</time>
      </trkpt>
      <trkpt lat="45.44329" lon="5.91072">
        <ele>1186.171403675</ele>
        <time>2015-05-06T14:58:51Z</time>
      </trkpt>
      <trkpt lat="45.44328" lon="5.91073">
        <ele>1186.171403675</ele>
        <time>2015-05-06T14:58:57Z</time>
      </trkpt>
      <trkpt lat="45.44328" lon="5.91074">
        <ele>1186.171403675</ele>
        <time>2015-05-06T14:59:02Z</time>
      </trkpt>
      <trkpt lat="45.44328" lon="5.91074">
        <ele>1186.171403675</ele>
        <time>2015-05-06T14:59:07Z</time>
      </trkpt>
      <trkpt lat="45.44328" lon="5.91074">
        <ele>1186.171403675</ele>
        <time>2015-05-06T14:59:12Z</time>
      </trkpt>
      <trkpt lat="45.44328" lon="5.91074">
        <ele>1186.171403675</ele>
        <time>2015-05-06T14:59:17Z</time>
      </trkpt>
      <trkpt lat="45.44328" lon="5.91074">
        <ele>1186.171403675</ele>
        <time>2015-05-06T14:59:22Z</time>
      </trkpt>
      <trkpt lat="45.44328" lon="5.91074">
        <ele>1186.171403675</ele>
        <time>2015-05-06T14:59:27Z</time>
      </trkpt>
      <trkpt lat="45.44328" lon="5.91074">
        <ele>1186.171403675</ele>
        <time>2015-05-06T14:59:32Z</time>
      </trkpt>
      <trkpt lat="45.44328" lon="5.91074">
        <ele>1186.171403675</ele>
        <time>2015-05-06T14:59:37Z</time>
      </trkpt>
      <trkpt lat="45.44328" lon="5.91074">
        <ele>1186.171403675</ele>
        <time>2015-05-06T14:59:42Z</time>
      </trkpt>
      <trkpt lat="45.44328" lon="5.91074">
        <ele>1186.171403675</ele>
        <time>2015-05-06T14:59:47Z</time>
      </trkpt>
      <trkpt lat="45.44322" lon="5.91104">
        <ele>1186.791368499</ele>
        <time>2015-05-06T14:59:52Z</time>
      </trkpt>
      <trkpt lat="45.44322" lon="5.91111">
        <ele>1186.791368499</ele>
        <time>2015-05-06T14:59:57Z</time>
      </trkpt>
      <trkpt lat="45.44323" lon="5.91116">
        <ele>1186.791368499</ele>
        <time>2015-05-06T15:00:02Z</time>
      </trkpt>
      <trkpt lat="45.44323" lon="5.91116">
        <ele>1189.130955459</ele>
        <time>2015-05-06T15:00:07Z</time>
      </trkpt>
      <trkpt lat="45.44323" lon="5.91117">
        <ele>1189.130955459</ele>
        <time>2015-05-06T15:00:12Z</time>
      </trkpt>
      <trkpt lat="45.44323" lon="5.91117">
        <ele>1189.130955459</ele>
        <time>2015-05-06T15:00:17Z</time>
      </trkpt>
      <trkpt lat="45.44323" lon="5.91117">
        <ele>1189.130955459</ele>
        <time>2015-05-06T15:00:22Z</time>
      </trkpt>
      <trkpt lat="45.44323" lon="5.91117">
        <ele>1189.130955459</ele>
        <time>2015-05-06T15:00:26Z</time>
      </trkpt>
      <trkpt lat="45.44323" lon="5.91124">
        <ele>1189.130955459</ele>
        <time>2015-05-06T15:00:31Z</time>
      </trkpt>
      <trkpt lat="45.44328" lon="5.9114">
        <ele>1191.528416339</ele>
        <time>2015-05-06T15:00:38Z</time>
      </trkpt>
      <trkpt lat="45.44328" lon="5.91146">
        <ele>1191.528416339</ele>
        <time>2015-05-06T15:00:43Z</time>
      </trkpt>
      <trkpt lat="45.4433" lon="5.91152">
        <ele>1193.838852308</ele>
        <time>2015-05-06T15:00:47Z</time>
      </trkpt>
      <trkpt lat="45.4433" lon="5.91158">
        <ele>1193.838852308</ele>
        <time>2015-05-06T15:00:52Z</time>
      </trkpt>
      <trkpt lat="45.4433" lon="5.91156">
        <ele>1193.838852308</ele>
        <time>2015-05-06T15:00:57Z</time>
      </trkpt>
      <trkpt lat="45.4433" lon="5.91157">
        <ele>1193.838852308</ele>
        <time>2015-05-06T15:01:03Z</time>
      </trkpt>
      <trkpt lat="45.4433" lon="5.91157">
        <ele>1193.838852308</ele>
        <time>2015-05-06T15:01:08Z</time>
      </trkpt>
      <trkpt lat="45.4433" lon="5.91158">
        <ele>1193.838852308</ele>
        <time>2015-05-06T15:01:12Z</time>
      </trkpt>
      <trkpt lat="45.4433" lon="5.91158">
        <ele>1193.838852308</ele>
        <time>2015-05-06T15:01:18Z</time>
      </trkpt>
      <trkpt lat="45.4433" lon="5.91158">
        <ele>1193.838852308</ele>
        <time>2015-05-06T15:01:23Z</time>
      </trkpt>
      <trkpt lat="45.4433" lon="5.91158">
        <ele>1193.838852308</ele>
        <time>2015-05-06T15:01:27Z</time>
      </trkpt>
      <trkpt lat="45.4433" lon="5.91158">
        <ele>1193.838852308</ele>
        <time>2015-05-06T15:01:33Z</time>
      </trkpt>
      <trkpt lat="45.4433" lon="5.91158">
        <ele>1193.838852308</ele>
        <time>2015-05-06T15:01:38Z</time>
      </trkpt>
      <trkpt lat="45.4433" lon="5.91167">
        <ele>1196.344854308</ele>
        <time>2015-05-06T15:01:42Z</time>
      </trkpt>
      <trkpt lat="45.44354" lon="5.91176">
        <ele>1196.939541668</ele>
        <time>2015-05-06T15:01:48Z</time>
      </trkpt>
      <trkpt lat="45.44353" lon="5.91205">
        <ele>1197.2849803</ele>
        <time>2015-05-06T15:01:53Z</time>
      </trkpt>
      <trkpt lat="45.44348" lon="5.9121">
        <ele>1197.2849803</ele>
        <time>2015-05-06T15:01:58Z</time>
      </trkpt>
      <trkpt lat="45.44349" lon="5.91222">
        <ele>1197.54058478</ele>
        <time>2015-05-06T15:02:03Z</time>
      </trkpt>
      <trkpt lat="45.44358" lon="5.91211">
        <ele>1197.575089162</ele>
        <time>2015-05-06T15:02:08Z</time>
      </trkpt>
      <trkpt lat="45.44363" lon="5.91223">
        <ele>1196.837350442</ele>
        <time>2015-05-06T15:02:13Z</time>
      </trkpt>
      <trkpt lat="45.44359" lon="5.91224">
        <ele>1196.837350442</ele>
        <time>2015-05-06T15:02:18Z</time>
      </trkpt>
      <trkpt lat="45.44363" lon="5.91223">
        <ele>1197.825188633</ele>
        <time>2015-05-06T15:02:23Z</time>
      </trkpt>
      <trkpt lat="45.44365" lon="5.91226">
        <ele>1197.825188633</ele>
        <time>2015-05-06T15:02:28Z</time>
      </trkpt>
      <trkpt lat="45.44366" lon="5.91227">
        <ele>1197.825188633</ele>
        <time>2015-05-06T15:02:33Z</time>
      </trkpt>
      <trkpt lat="45.44366" lon="5.91229">
        <ele>1197.825188633</ele>
        <time>2015-05-06T15:02:38Z</time>
      </trkpt>
      <trkpt lat="45.44365" lon="5.9123">
        <ele>1197.825188633</ele>
        <time>2015-05-06T15:02:42Z</time>
      </trkpt>
      <trkpt lat="45.44366" lon="5.91231">
        <ele>1197.825188633</ele>
        <time>2015-05-06T15:02:47Z</time>
      </trkpt>
      <trkpt lat="45.44366" lon="5.91231">
        <ele>1197.825188633</ele>
        <time>2015-05-06T15:02:53Z</time>
      </trkpt>
      <trkpt lat="45.44366" lon="5.91231">
        <ele>1197.825188633</ele>
        <time>2015-05-06T15:02:58Z</time>
      </trkpt>
      <trkpt lat="45.44366" lon="5.91231">
        <ele>1197.825188633</ele>
        <time>2015-05-06T15:03:02Z</time>
      </trkpt>
      <trkpt lat="45.44366" lon="5.91231">
        <ele>1197.825188633</ele>
        <time>2015-05-06T15:03:07Z</time>
      </trkpt>
      <trkpt lat="45.44373" lon="5.91231">
        <ele>1199.723726944</ele>
        <time>2015-05-06T15:03:12Z</time>
      </trkpt>
      <trkpt lat="45.44382" lon="5.91235">
        <ele>1201.609357478</ele>
        <time>2015-05-06T15:03:17Z</time>
      </trkpt>
      <trkpt lat="45.44385" lon="5.91238">
        <ele>1201.609357478</ele>
        <time>2015-05-06T15:03:23Z</time>
      </trkpt>
      <trkpt lat="45.44383" lon="5.91237">
        <ele>1201.609357478</ele>
        <time>2015-05-06T15:03:28Z</time>
      </trkpt>
      <trkpt lat="45.44383" lon="5.91238">
        <ele>1201.609357478</ele>
        <time>2015-05-06T15:03:33Z</time>
      </trkpt>
      <trkpt lat="45.44383" lon="5.91239">
        <ele>1201.609357478</ele>
        <time>2015-05-06T15:03:37Z</time>
      </trkpt>
      <trkpt lat="45.44383" lon="5.9124">
        <ele>1201.609357478</ele>
        <time>2015-05-06T15:03:42Z</time>
      </trkpt>
      <trkpt lat="45.44383" lon="5.9124">
        <ele>1201.609357478</ele>
        <time>2015-05-06T15:03:46Z</time>
      </trkpt>
      <trkpt lat="45.44382" lon="5.9124">
        <ele>1201.609357478</ele>
        <time>2015-05-06T15:03:52Z</time>
      </trkpt>
      <trkpt lat="45.44382" lon="5.9124">
        <ele>1201.609357478</ele>
        <time>2015-05-06T15:03:57Z</time>
      </trkpt>
      <trkpt lat="45.44382" lon="5.9124">
        <ele>1204.511644815</ele>
        <time>2015-05-06T15:04:01Z</time>
      </trkpt>
      <trkpt lat="45.44382" lon="5.9124">
        <ele>1204.511644815</ele>
        <time>2015-05-06T15:04:07Z</time>
      </trkpt>
      <trkpt lat="45.44382" lon="5.9124">
        <ele>1204.511644815</ele>
        <time>2015-05-06T15:04:11Z</time>
      </trkpt>
      <trkpt lat="45.44382" lon="5.9124">
        <ele>1204.511644815</ele>
        <time>2015-05-06T15:04:18Z</time>
      </trkpt>
      <trkpt lat="45.44382" lon="5.91241">
        <ele>1204.511644815</ele>
        <time>2015-05-06T15:04:22Z</time>
      </trkpt>
      <trkpt lat="45.44383" lon="5.91241">
        <ele>1204.511644815</ele>
        <time>2015-05-06T15:04:28Z</time>
      </trkpt>
      <trkpt lat="45.44383" lon="5.91241">
        <ele>1204.511644815</ele>
        <time>2015-05-06T15:04:32Z</time>
      </trkpt>
      <trkpt lat="45.44382" lon="5.91241">
        <ele>1204.511644815</ele>
        <time>2015-05-06T15:04:38Z</time>
      </trkpt>
      <trkpt lat="45.44382" lon="5.91241">
        <ele>1204.511644815</ele>
        <time>2015-05-06T15:04:43Z</time>
      </trkpt>
      <trkpt lat="45.44382" lon="5.91241">
        <ele>1204.511644815</ele>
        <time>2015-05-06T15:04:47Z</time>
      </trkpt>
      <trkpt lat="45.44382" lon="5.91241">
        <ele>1204.511644815</ele>
        <time>2015-05-06T15:04:53Z</time>
      </trkpt>
      <trkpt lat="45.44382" lon="5.91241">
        <ele>1204.511644815</ele>
        <time>2015-05-06T15:04:57Z</time>
      </trkpt>
      <trkpt lat="45.44382" lon="5.91241">
        <ele>1204.511644815</ele>
        <time>2015-05-06T15:05:03Z</time>
      </trkpt>
      <trkpt lat="45.44382" lon="5.91241">
        <ele>1204.511644815</ele>
        <time>2015-05-06T15:05:08Z</time>
      </trkpt>
      <trkpt lat="45.44382" lon="5.91241">
        <ele>1204.511644815</ele>
        <time>2015-05-06T15:05:13Z</time>
      </trkpt>
      <trkpt lat="45.44382" lon="5.91241">
        <ele>1204.511644815</ele>
        <time>2015-05-06T15:05:18Z</time>
      </trkpt>
      <trkpt lat="45.44382" lon="5.91242">
        <ele>1204.511644815</ele>
        <time>2015-05-06T15:05:23Z</time>
      </trkpt>
      <trkpt lat="45.44381" lon="5.91242">
        <ele>1204.511644815</ele>
        <time>2015-05-06T15:05:27Z</time>
      </trkpt>
      <trkpt lat="45.4438" lon="5.91242">
        <ele>1204.511644815</ele>
        <time>2015-05-06T15:05:33Z</time>
      </trkpt>
      <trkpt lat="45.4438" lon="5.91242">
        <ele>1204.511644815</ele>
        <time>2015-05-06T15:05:37Z</time>
      </trkpt>
      <trkpt lat="45.44382" lon="5.91262">
        <ele>1208.072942194</ele>
        <time>2015-05-06T15:05:42Z</time>
      </trkpt>
      <trkpt lat="45.44383" lon="5.91273">
        <ele>1208.072942194</ele>
        <time>2015-05-06T15:05:48Z</time>
      </trkpt>
      <trkpt lat="45.4438" lon="5.91278">
        <ele>1212.692369136</ele>
        <time>2015-05-06T15:05:52Z</time>
      </trkpt>
      <trkpt lat="45.44376" lon="5.91292">
        <ele>1216.653961861</ele>
        <time>2015-05-06T15:05:58Z</time>
      </trkpt>
      <trkpt lat="45.44371" lon="5.91301">
        <ele>1216.653961861</ele>
        <time>2015-05-06T15:06:03Z</time>
      </trkpt>
      <trkpt lat="45.44373" lon="5.91313">
        <ele>1221.638489501</ele>
        <time>2015-05-06T15:06:08Z</time>
      </trkpt>
      <trkpt lat="45.44371" lon="5.91313">
        <ele>1221.638489501</ele>
        <time>2015-05-06T15:06:12Z</time>
      </trkpt>
      <trkpt lat="45.44369" lon="5.91315">
        <ele>1221.638489501</ele>
        <time>2015-05-06T15:06:18Z</time>
      </trkpt>
      <trkpt lat="45.44368" lon="5.91308">
        <ele>1227.865696018</ele>
        <time>2015-05-06T15:06:23Z</time>
      </trkpt>
      <trkpt lat="45.4437" lon="5.91312">
        <ele>1227.865696018</ele>
        <time>2015-05-06T15:06:28Z</time>
      </trkpt>
      <trkpt lat="45.44366" lon="5.91316">
        <ele>1227.865696018</ele>
        <time>2015-05-06T15:06:33Z</time>
      </trkpt>
      <trkpt lat="45.44365" lon="5.91324">
        <ele>1233.277010842</ele>
        <time>2015-05-06T15:06:38Z</time>
      </trkpt>
      <trkpt lat="45.44364" lon="5.9133">
        <ele>1233.277010842</ele>
        <time>2015-05-06T15:06:42Z</time>
      </trkpt>
      <trkpt lat="45.44364" lon="5.91334">
        <ele>1233.277010842</ele>
        <time>2015-05-06T15:06:47Z</time>
      </trkpt>
      <trkpt lat="45.44362" lon="5.91347">
        <ele>1237.917752298</ele>
        <time>2015-05-06T15:06:52Z</time>
      </trkpt>
      <trkpt lat="45.44363" lon="5.9135">
        <ele>1237.917752298</ele>
        <time>2015-05-06T15:06:57Z</time>
      </trkpt>
      <trkpt lat="45.44362" lon="5.91349">
        <ele>1237.917752298</ele>
        <time>2015-05-06T15:07:02Z</time>
      </trkpt>
      <trkpt lat="45.44361" lon="5.9135">
        <ele>1237.917752298</ele>
        <time>2015-05-06T15:07:07Z</time>
      </trkpt>
      <trkpt lat="45.44361" lon="5.9135">
        <ele>1237.917752298</ele>
        <time>2015-05-06T15:07:12Z</time>
      </trkpt>
      <trkpt lat="45.44361" lon="5.9135">
        <ele>1237.917752298</ele>
        <time>2015-05-06T15:07:17Z</time>
      </trkpt>
      <trkpt lat="45.44361" lon="5.9135">
        <ele>1237.917752298</ele>
        <time>2015-05-06T15:07:22Z</time>
      </trkpt>
      <trkpt lat="45.44361" lon="5.9135">
        <ele>1237.917752298</ele>
        <time>2015-05-06T15:07:26Z</time>
      </trkpt>
      <trkpt lat="45.44361" lon="5.9135">
        <ele>1237.917752298</ele>
        <time>2015-05-06T15:07:32Z</time>
      </trkpt>
      <trkpt lat="45.44361" lon="5.9135">
        <ele>1237.917752298</ele>
        <time>2015-05-06T15:07:37Z</time>
      </trkpt>
      <trkpt lat="45.4435" lon="5.91358">
        <ele>1243.344401894</ele>
        <time>2015-05-06T15:07:43Z</time>
      </trkpt>
      <trkpt lat="45.44348" lon="5.91359">
        <ele>1243.344401894</ele>
        <time>2015-05-06T15:07:47Z</time>
      </trkpt>
      <trkpt lat="45.44345" lon="5.91376">
        <ele>1248.430316275</ele>
        <time>2015-05-06T15:07:53Z</time>
      </trkpt>
      <trkpt lat="45.44344" lon="5.91376">
        <ele>1248.430316275</ele>
        <time>2015-05-06T15:07:57Z</time>
      </trkpt>
      <trkpt lat="45.44343" lon="5.91376">
        <ele>1248.430316275</ele>
        <time>2015-05-06T15:08:03Z</time>
      </trkpt>
      <trkpt lat="45.44341" lon="5.91377">
        <ele>1248.430316275</ele>
        <time>2015-05-06T15:08:08Z</time>
      </trkpt>
      <trkpt lat="45.44341" lon="5.91377">
        <ele>1248.430316275</ele>
        <time>2015-05-06T15:08:13Z</time>
      </trkpt>
      <trkpt lat="45.44341" lon="5.91377">
        <ele>1248.430316275</ele>
        <time>2015-05-06T15:08:18Z</time>
      </trkpt>
      <trkpt lat="45.44341" lon="5.91377">
        <ele>1248.430316275</ele>
        <time>2015-05-06T15:08:23Z</time>
      </trkpt>
      <trkpt lat="45.44341" lon="5.91377">
        <ele>1248.430316275</ele>
        <time>2015-05-06T15:08:28Z</time>
      </trkpt>
      <trkpt lat="45.44341" lon="5.91377">
        <ele>1248.430316275</ele>
        <time>2015-05-06T15:08:33Z</time>
      </trkpt>
      <trkpt lat="45.44341" lon="5.91378">
        <ele>1248.430316275</ele>
        <time>2015-05-06T15:08:38Z</time>
      </trkpt>
      <trkpt lat="45.44336" lon="5.91395">
        <ele>1253.041219688</ele>
        <time>2015-05-06T15:08:42Z</time>
      </trkpt>
      <trkpt lat="45.44331" lon="5.914">
        <ele>1253.041219688</ele>
        <time>2015-05-06T15:08:47Z</time>
      </trkpt>
      <trkpt lat="45.4433" lon="5.91408">
        <ele>1258.112404735</ele>
        <time>2015-05-06T15:08:53Z</time>
      </trkpt>
      <trkpt lat="45.44329" lon="5.91412">
        <ele>1258.112404735</ele>
        <time>2015-05-06T15:08:57Z</time>
      </trkpt>
      <trkpt lat="45.44328" lon="5.91419">
        <ele>1258.112404735</ele>
        <time>2015-05-06T15:09:03Z</time>
      </trkpt>
      <trkpt lat="45.44327" lon="5.91422">
        <ele>1263.599669141</ele>
        <time>2015-05-06T15:09:08Z</time>
      </trkpt>
      <trkpt lat="45.44328" lon="5.91423">
        <ele>1263.599669141</ele>
        <time>2015-05-06T15:09:12Z</time>
      </trkpt>
      <trkpt lat="45.44327" lon="5.91423">
        <ele>1263.599669141</ele>
        <time>2015-05-06T15:09:18Z</time>
      </trkpt>
      <trkpt lat="45.44328" lon="5.91423">
        <ele>1263.599669141</ele>
        <time>2015-05-06T15:09:23Z</time>
      </trkpt>
      <trkpt lat="45.44328" lon="5.91423">
        <ele>1263.599669141</ele>
        <time>2015-05-06T15:09:28Z</time>
      </trkpt>
      <trkpt lat="45.44328" lon="5.91423">
        <ele>1263.599669141</ele>
        <time>2015-05-06T15:09:33Z</time>
      </trkpt>
      <trkpt lat="45.44328" lon="5.91423">
        <ele>1263.599669141</ele>
        <time>2015-05-06T15:09:38Z</time>
      </trkpt>
      <trkpt lat="45.44328" lon="5.91423">
        <ele>1263.599669141</ele>
        <time>2015-05-06T15:09:43Z</time>
      </trkpt>
      <trkpt lat="45.44329" lon="5.91425">
        <ele>1263.599669141</ele>
        <time>2015-05-06T15:09:47Z</time>
      </trkpt>
      <trkpt lat="45.4433" lon="5.91431">
        <ele>1263.599669141</ele>
        <time>2015-05-06T15:09:52Z</time>
      </trkpt>
      <trkpt lat="45.44332" lon="5.9145">
        <ele>1268.25666661</ele>
        <time>2015-05-06T15:09:58Z</time>
      </trkpt>
      <trkpt lat="45.44334" lon="5.9146">
        <ele>1268.25666661</ele>
        <time>2015-05-06T15:10:03Z</time>
      </trkpt>
      <trkpt lat="45.44337" lon="5.91468">
        <ele>1273.046074531</ele>
        <time>2015-05-06T15:10:07Z</time>
      </trkpt>
      <trkpt lat="45.44332" lon="5.91474">
        <ele>1273.046074531</ele>
        <time>2015-05-06T15:10:13Z</time>
      </trkpt>
      <trkpt lat="45.44332" lon="5.91477">
        <ele>1278.251401421</ele>
        <time>2015-05-06T15:10:18Z</time>
      </trkpt>
      <trkpt lat="45.4433" lon="5.91482">
        <ele>1278.251401421</ele>
        <time>2015-05-06T15:10:22Z</time>
      </trkpt>
      <trkpt lat="45.44328" lon="5.9148">
        <ele>1278.251401421</ele>
        <time>2015-05-06T15:10:27Z</time>
      </trkpt>
      <trkpt lat="45.44326" lon="5.91478">
        <ele>1278.251401421</ele>
        <time>2015-05-06T15:10:33Z</time>
      </trkpt>
      <trkpt lat="45.44328" lon="5.9148">
        <ele>1283.682414848</ele>
        <time>2015-05-06T15:10:37Z</time>
      </trkpt>
      <trkpt lat="45.44327" lon="5.91486">
        <ele>1283.682414848</ele>
        <time>2015-05-06T15:10:42Z</time>
      </trkpt>
      <trkpt lat="45.44328" lon="5.91485">
        <ele>1283.682414848</ele>
        <time>2015-05-06T15:10:46Z</time>
      </trkpt>
      <trkpt lat="45.44327" lon="5.91485">
        <ele>1283.682414848</ele>
        <time>2015-05-06T15:10:52Z</time>
      </trkpt>
      <trkpt lat="45.44326" lon="5.91486">
        <ele>1283.682414848</ele>
        <time>2015-05-06T15:10:57Z</time>
      </trkpt>
      <trkpt lat="45.44326" lon="5.91486">
        <ele>1283.682414848</ele>
        <time>2015-05-06T15:11:02Z</time>
      </trkpt>
      <trkpt lat="45.44326" lon="5.91486">
        <ele>1283.682414848</ele>
        <time>2015-05-06T15:11:07Z</time>
      </trkpt>
      <trkpt lat="45.44326" lon="5.91487">
        <ele>1283.682414848</ele>
        <time>2015-05-06T15:11:11Z</time>
      </trkpt>
      <trkpt lat="45.44326" lon="5.91487">
        <ele>1283.682414848</ele>
        <time>2015-05-06T15:11:18Z</time>
      </trkpt>
      <trkpt lat="45.44326" lon="5.91487">
        <ele>1283.682414848</ele>
        <time>2015-05-06T15:11:23Z</time>
      </trkpt>
      <trkpt lat="45.44326" lon="5.91487">
        <ele>1283.682414848</ele>
        <time>2015-05-06T15:11:28Z</time>
      </trkpt>
      <trkpt lat="45.44326" lon="5.91487">
        <ele>1283.682414848</ele>
        <time>2015-05-06T15:11:33Z</time>
      </trkpt>
      <trkpt lat="45.44326" lon="5.91487">
        <ele>1283.682414848</ele>
        <time>2015-05-06T15:11:38Z</time>
      </trkpt>
      <trkpt lat="45.44326" lon="5.91487">
        <ele>1283.682414848</ele>
        <time>2015-05-06T15:11:42Z</time>
      </trkpt>
      <trkpt lat="45.44326" lon="5.91487">
        <ele>1283.682414848</ele>
        <time>2015-05-06T15:11:48Z</time>
      </trkpt>
      <trkpt lat="45.44326" lon="5.91487">
        <ele>1283.682414848</ele>
        <time>2015-05-06T15:11:53Z</time>
      </trkpt>
      <trkpt lat="45.44326" lon="5.91487">
        <ele>1283.682414848</ele>
        <time>2015-05-06T15:11:57Z</time>
      </trkpt>
      <trkpt lat="45.44321" lon="5.91502">
        <ele>1289.313606285</ele>
        <time>2015-05-06T15:12:02Z</time>
      </trkpt>
      <trkpt lat="45.44324" lon="5.91511">
        <ele>1289.313606285</ele>
        <time>2015-05-06T15:12:08Z</time>
      </trkpt>
      <trkpt lat="45.44306" lon="5.9153">
        <ele>1294.078707804</ele>
        <time>2015-05-06T15:12:13Z</time>
      </trkpt>
      <trkpt lat="45.44305" lon="5.91538">
        <ele>1294.078707804</ele>
        <time>2015-05-06T15:12:18Z</time>
      </trkpt>
      <trkpt lat="45.44298" lon="5.91537">
        <ele>1299.381267227</ele>
        <time>2015-05-06T15:12:22Z</time>
      </trkpt>
      <trkpt lat="45.44294" lon="5.91543">
        <ele>1299.381267227</ele>
        <time>2015-05-06T15:12:28Z</time>
      </trkpt>
      <trkpt lat="45.44293" lon="5.91541">
        <ele>1299.381267227</ele>
        <time>2015-05-06T15:12:33Z</time>
      </trkpt>
      <trkpt lat="45.44292" lon="5.91541">
        <ele>1304.578754138</ele>
        <time>2015-05-06T15:12:38Z</time>
      </trkpt>
      <trkpt lat="45.44292" lon="5.9154">
        <ele>1304.578754138</ele>
        <time>2015-05-06T15:12:43Z</time>
      </trkpt>
      <trkpt lat="45.44292" lon="5.9154">
        <ele>1304.578754138</ele>
        <time>2015-05-06T15:12:47Z</time>
      </trkpt>
      <trkpt lat="45.44292" lon="5.9154">
        <ele>1304.578754138</ele>
        <time>2015-05-06T15:12:52Z</time>
      </trkpt>
      <trkpt lat="45.44292" lon="5.9154">
        <ele>1304.578754138</ele>
        <time>2015-05-06T15:12:58Z</time>
      </trkpt>
      <trkpt lat="45.44292" lon="5.9154">
        <ele>1304.578754138</ele>
        <time>2015-05-06T15:13:03Z</time>
      </trkpt>
      <trkpt lat="45.44292" lon="5.9154">
        <ele>1304.578754138</ele>
        <time>2015-05-06T15:13:06Z</time>
      </trkpt>
      <trkpt lat="45.44292" lon="5.9154">
        <ele>1304.578754138</ele>
        <time>2015-05-06T15:13:11Z</time>
      </trkpt>
      <trkpt lat="45.44292" lon="5.9154">
        <ele>1304.578754138</ele>
        <time>2015-05-06T15:13:16Z</time>
      </trkpt>
      <trkpt lat="45.44292" lon="5.9154">
        <ele>1304.578754138</ele>
        <time>2015-05-06T15:13:21Z</time>
      </trkpt>
      <trkpt lat="45.44292" lon="5.9154">
        <ele>1304.578754138</ele>
        <time>2015-05-06T15:13:26Z</time>
      </trkpt>
      <trkpt lat="45.44292" lon="5.9154">
        <ele>1304.578754138</ele>
        <time>2015-05-06T15:13:31Z</time>
      </trkpt>
      <trkpt lat="45.44292" lon="5.91541">
        <ele>1304.578754138</ele>
        <time>2015-05-06T15:13:37Z</time>
      </trkpt>
      <trkpt lat="45.44292" lon="5.91541">
        <ele>1304.578754138</ele>
        <time>2015-05-06T15:13:42Z</time>
      </trkpt>
      <trkpt lat="45.44292" lon="5.91541">
        <ele>1304.578754138</ele>
        <time>2015-05-06T15:13:47Z</time>
      </trkpt>
      <trkpt lat="45.44292" lon="5.91541">
        <ele>1304.578754138</ele>
        <time>2015-05-06T15:13:52Z</time>
      </trkpt>
      <trkpt lat="45.44292" lon="5.91541">
        <ele>1304.578754138</ele>
        <time>2015-05-06T15:13:57Z</time>
      </trkpt>
      <trkpt lat="45.44284" lon="5.91562">
        <ele>1308.196231011</ele>
        <time>2015-05-06T15:14:02Z</time>
      </trkpt>
      <trkpt lat="45.44281" lon="5.91571">
        <ele>1308.196231011</ele>
        <time>2015-05-06T15:14:07Z</time>
      </trkpt>
      <trkpt lat="45.44277" lon="5.91575">
        <ele>1311.541177576</ele>
        <time>2015-05-06T15:14:11Z</time>
      </trkpt>
      <trkpt lat="45.44272" lon="5.9158">
        <ele>1311.541177576</ele>
        <time>2015-05-06T15:14:17Z</time>
      </trkpt>
      <trkpt lat="45.44269" lon="5.91584">
        <ele>1315.07699181</ele>
        <time>2015-05-06T15:14:21Z</time>
      </trkpt>
      <trkpt lat="45.44265" lon="5.91588">
        <ele>1315.07699181</ele>
        <time>2015-05-06T15:14:26Z</time>
      </trkpt>
      <trkpt lat="45.4426" lon="5.91591">
        <ele>1319.374961063</ele>
        <time>2015-05-06T15:14:33Z</time>
      </trkpt>
      <trkpt lat="45.44262" lon="5.91594">
        <ele>1319.374961063</ele>
        <time>2015-05-06T15:14:37Z</time>
      </trkpt>
      <trkpt lat="45.44258" lon="5.91595">
        <ele>1319.374961063</ele>
        <time>2015-05-06T15:14:43Z</time>
      </trkpt>
      <trkpt lat="45.4426" lon="5.91601">
        <ele>1323.492806222</ele>
        <time>2015-05-06T15:14:48Z</time>
      </trkpt>
      <trkpt lat="45.44258" lon="5.916">
        <ele>1323.492806222</ele>
        <time>2015-05-06T15:14:53Z</time>
      </trkpt>
      <trkpt lat="45.44257" lon="5.91599">
        <ele>1323.492806222</ele>
        <time>2015-05-06T15:14:58Z</time>
      </trkpt>
      <trkpt lat="45.44258" lon="5.916">
        <ele>1323.492806222</ele>
        <time>2015-05-06T15:15:03Z</time>
      </trkpt>
      <trkpt lat="45.44257" lon="5.916">
        <ele>1323.492806222</ele>
        <time>2015-05-06T15:15:08Z</time>
      </trkpt>
      <trkpt lat="45.44257" lon="5.916">
        <ele>1323.492806222</ele>
        <time>2015-05-06T15:15:12Z</time>
      </trkpt>
      <trkpt lat="45.44257" lon="5.916">
        <ele>1323.492806222</ele>
        <time>2015-05-06T15:15:18Z</time>
      </trkpt>
      <trkpt lat="45.44257" lon="5.916">
        <ele>1323.492806222</ele>
        <time>2015-05-06T15:15:23Z</time>
      </trkpt>
      <trkpt lat="45.44257" lon="5.916">
        <ele>1323.492806222</ele>
        <time>2015-05-06T15:15:28Z</time>
      </trkpt>
      <trkpt lat="45.44257" lon="5.916">
        <ele>1323.492806222</ele>
        <time>2015-05-06T15:15:33Z</time>
      </trkpt>
      <trkpt lat="45.44257" lon="5.916">
        <ele>1323.492806222</ele>
        <time>2015-05-06T15:15:37Z</time>
      </trkpt>
      <trkpt lat="45.44257" lon="5.916">
        <ele>1323.492806222</ele>
        <time>2015-05-06T15:15:42Z</time>
      </trkpt>
      <trkpt lat="45.44257" lon="5.916">
        <ele>1323.492806222</ele>
        <time>2015-05-06T15:15:47Z</time>
      </trkpt>
      <trkpt lat="45.44258" lon="5.916">
        <ele>1323.492806222</ele>
        <time>2015-05-06T15:15:53Z</time>
      </trkpt>
      <trkpt lat="45.44258" lon="5.916">
        <ele>1323.492806222</ele>
        <time>2015-05-06T15:15:57Z</time>
      </trkpt>
      <trkpt lat="45.44258" lon="5.916">
        <ele>1323.492806222</ele>
        <time>2015-05-06T15:16:03Z</time>
      </trkpt>
      <trkpt lat="45.44258" lon="5.916">
        <ele>1323.492806222</ele>
        <time>2015-05-06T15:16:07Z</time>
      </trkpt>
      <trkpt lat="45.44258" lon="5.916">
        <ele>1323.492806222</ele>
        <time>2015-05-06T15:16:13Z</time>
      </trkpt>
      <trkpt lat="45.44258" lon="5.916">
        <ele>1323.492806222</ele>
        <time>2015-05-06T15:16:18Z</time>
      </trkpt>
      <trkpt lat="45.44258" lon="5.916">
        <ele>1323.492806222</ele>
        <time>2015-05-06T15:16:23Z</time>
      </trkpt>
      <trkpt lat="45.44258" lon="5.916">
        <ele>1323.492806222</ele>
        <time>2015-05-06T15:16:27Z</time>
      </trkpt>
      <trkpt lat="45.44258" lon="5.916">
        <ele>1323.492806222</ele>
        <time>2015-05-06T15:16:33Z</time>
      </trkpt>
      <trkpt lat="45.44258" lon="5.916">
        <ele>1323.492806222</ele>
        <time>2015-05-06T15:16:38Z</time>
      </trkpt>
      <trkpt lat="45.44263" lon="5.9161">
        <ele>1328.027898214</ele>
        <time>2015-05-06T15:16:43Z</time>
      </trkpt>
      <trkpt lat="45.44278" lon="5.91617">
        <ele>1332.652698958</ele>
        <time>2015-05-06T15:16:47Z</time>
      </trkpt>
      <trkpt lat="45.44286" lon="5.91622">
        <ele>1337.066093623</ele>
        <time>2015-05-06T15:16:52Z</time>
      </trkpt>
      <trkpt lat="45.44291" lon="5.91623">
        <ele>1337.066093623</ele>
        <time>2015-05-06T15:16:58Z</time>
      </trkpt>
      <trkpt lat="45.4429" lon="5.91619">
        <ele>1337.066093623</ele>
        <time>2015-05-06T15:17:03Z</time>
      </trkpt>
      <trkpt lat="45.44295" lon="5.91619">
        <ele>1342.155089669</ele>
        <time>2015-05-06T15:17:08Z</time>
      </trkpt>
      <trkpt lat="45.44296" lon="5.9162">
        <ele>1342.155089669</ele>
        <time>2015-05-06T15:17:13Z</time>
      </trkpt>
      <trkpt lat="45.44296" lon="5.9162">
        <ele>1342.155089669</ele>
        <time>2015-05-06T15:17:18Z</time>
      </trkpt>
      <trkpt lat="45.44296" lon="5.9162">
        <ele>1342.155089669</ele>
        <time>2015-05-06T15:17:23Z</time>
      </trkpt>
      <trkpt lat="45.44297" lon="5.91619">
        <ele>1342.155089669</ele>
        <time>2015-05-06T15:17:27Z</time>
      </trkpt>
      <trkpt lat="45.44297" lon="5.91619">
        <ele>1342.155089669</ele>
        <time>2015-05-06T15:17:32Z</time>
      </trkpt>
      <trkpt lat="45.44297" lon="5.91619">
        <ele>1342.155089669</ele>
        <time>2015-05-06T15:17:36Z</time>
      </trkpt>
      <trkpt lat="45.44297" lon="5.91619">
        <ele>1342.155089669</ele>
        <time>2015-05-06T15:17:42Z</time>
      </trkpt>
      <trkpt lat="45.44297" lon="5.91619">
        <ele>1342.155089669</ele>
        <time>2015-05-06T15:17:46Z</time>
      </trkpt>
      <trkpt lat="45.44297" lon="5.91619">
        <ele>1342.155089669</ele>
        <time>2015-05-06T15:17:52Z</time>
      </trkpt>
      <trkpt lat="45.44297" lon="5.91619">
        <ele>1342.155089669</ele>
        <time>2015-05-06T15:17:58Z</time>
      </trkpt>
      <trkpt lat="45.44298" lon="5.91621">
        <ele>1342.155089669</ele>
        <time>2015-05-06T15:18:03Z</time>
      </trkpt>
      <trkpt lat="45.443" lon="5.91626">
        <ele>1348.589530711</ele>
        <time>2015-05-06T15:18:08Z</time>
      </trkpt>
      <trkpt lat="45.44309" lon="5.91637">
        <ele>1354.372960873</ele>
        <time>2015-05-06T15:18:13Z</time>
      </trkpt>
      <trkpt lat="45.44307" lon="5.91639">
        <ele>1354.372960873</ele>
        <time>2015-05-06T15:18:17Z</time>
      </trkpt>
      <trkpt lat="45.44307" lon="5.91645">
        <ele>1354.372960873</ele>
        <time>2015-05-06T15:18:23Z</time>
      </trkpt>
      <trkpt lat="45.44308" lon="5.91653">
        <ele>1360.999024571</ele>
        <time>2015-05-06T15:18:27Z</time>
      </trkpt>
      <trkpt lat="45.4431" lon="5.91649">
        <ele>1360.999024571</ele>
        <time>2015-05-06T15:18:33Z</time>
      </trkpt>
      <trkpt lat="45.44316" lon="5.91656">
        <ele>1367.817159638</ele>
        <time>2015-05-06T15:18:38Z</time>
      </trkpt>
      <trkpt lat="45.44315" lon="5.91653">
        <ele>1367.817159638</ele>
        <time>2015-05-06T15:18:43Z</time>
      </trkpt>
      <trkpt lat="45.4432" lon="5.91653">
        <ele>1367.817159638</ele>
        <time>2015-05-06T15:18:48Z</time>
      </trkpt>
      <trkpt lat="45.44324" lon="5.91651">
        <ele>1374.371335717</ele>
        <time>2015-05-06T15:18:53Z</time>
      </trkpt>
      <trkpt lat="45.44323" lon="5.91653">
        <ele>1374.371335717</ele>
        <time>2015-05-06T15:18:58Z</time>
      </trkpt>
      <trkpt lat="45.44322" lon="5.91658">
        <ele>1374.371335717</ele>
        <time>2015-05-06T15:19:03Z</time>
      </trkpt>
      <trkpt lat="45.44327" lon="5.91662">
        <ele>1380.241180642</ele>
        <time>2015-05-06T15:19:08Z</time>
      </trkpt>
      <trkpt lat="45.44321" lon="5.91671">
        <ele>1380.241180642</ele>
        <time>2015-05-06T15:19:13Z</time>
      </trkpt>
      <trkpt lat="45.44319" lon="5.91673">
        <ele>1385.76215576</ele>
        <time>2015-05-06T15:19:18Z</time>
      </trkpt>
      <trkpt lat="45.44308" lon="5.91671">
        <ele>1390.523473541</ele>
        <time>2015-05-06T15:19:23Z</time>
      </trkpt>
      <trkpt lat="45.44307" lon="5.91678">
        <ele>1390.523473541</ele>
        <time>2015-05-06T15:19:27Z</time>
      </trkpt>
      <trkpt lat="45.44306" lon="5.91684">
        <ele>1390.523473541</ele>
        <time>2015-05-06T15:19:33Z</time>
      </trkpt>
      <trkpt lat="45.4431" lon="5.91681">
        <ele>1395.013061184</ele>
        <time>2015-05-06T15:19:38Z</time>
      </trkpt>
      <trkpt lat="45.44314" lon="5.91687">
        <ele>1395.013061184</ele>
        <time>2015-05-06T15:19:43Z</time>
      </trkpt>
      <trkpt lat="45.44314" lon="5.91682">
        <ele>1399.250326075</ele>
        <time>2015-05-06T15:19:47Z</time>
      </trkpt>
      <trkpt lat="45.44312" lon="5.91682">
        <ele>1399.250326075</ele>
        <time>2015-05-06T15:19:52Z</time>
      </trkpt>
      <trkpt lat="45.44315" lon="5.91687">
        <ele>1399.250326075</ele>
        <time>2015-05-06T15:19:57Z</time>
      </trkpt>
      <trkpt lat="45.44316" lon="5.91685">
        <ele>1399.250326075</ele>
        <time>2015-05-06T15:20:03Z</time>
      </trkpt>
      <trkpt lat="45.44316" lon="5.91686">
        <ele>1399.250326075</ele>
        <time>2015-05-06T15:20:07Z</time>
      </trkpt>
      <trkpt lat="45.44316" lon="5.91686">
        <ele>1399.250326075</ele>
        <time>2015-05-06T15:20:13Z</time>
      </trkpt>
      <trkpt lat="45.44316" lon="5.91686">
        <ele>1399.250326075</ele>
        <time>2015-05-06T15:20:18Z</time>
      </trkpt>
      <trkpt lat="45.44316" lon="5.91686">
        <ele>1399.250326075</ele>
        <time>2015-05-06T15:20:23Z</time>
      </trkpt>
      <trkpt lat="45.44316" lon="5.91686">
        <ele>1399.250326075</ele>
        <time>2015-05-06T15:20:28Z</time>
      </trkpt>
      <trkpt lat="45.44317" lon="5.91686">
        <ele>1399.250326075</ele>
        <time>2015-05-06T15:20:33Z</time>
      </trkpt>
      <trkpt lat="45.44317" lon="5.91686">
        <ele>1399.250326075</ele>
        <time>2015-05-06T15:20:37Z</time>
      </trkpt>
      <trkpt lat="45.44317" lon="5.91686">
        <ele>1399.250326075</ele>
        <time>2015-05-06T15:20:42Z</time>
      </trkpt>
      <trkpt lat="45.44317" lon="5.91686">
        <ele>1399.250326075</ele>
        <time>2015-05-06T15:20:46Z</time>
      </trkpt>
      <trkpt lat="45.44317" lon="5.91686">
        <ele>1399.250326075</ele>
        <time>2015-05-06T15:20:52Z</time>
      </trkpt>
      <trkpt lat="45.44317" lon="5.91686">
        <ele>1399.250326075</ele>
        <time>2015-05-06T15:20:56Z</time>
      </trkpt>
      <trkpt lat="45.44317" lon="5.91686">
        <ele>1399.250326075</ele>
        <time>2015-05-06T15:21:02Z</time>
      </trkpt>
      <trkpt lat="45.44317" lon="5.91686">
        <ele>1399.250326075</ele>
        <time>2015-05-06T15:21:07Z</time>
      </trkpt>
      <trkpt lat="45.44317" lon="5.91686">
        <ele>1399.250326075</ele>
        <time>2015-05-06T15:21:11Z</time>
      </trkpt>
      <trkpt lat="45.44317" lon="5.91686">
        <ele>1399.250326075</ele>
        <time>2015-05-06T15:21:18Z</time>
      </trkpt>
      <trkpt lat="45.44317" lon="5.91686">
        <ele>1402.677128494</ele>
        <time>2015-05-06T15:21:23Z</time>
      </trkpt>
      <trkpt lat="45.44317" lon="5.91687">
        <ele>1402.677128494</ele>
        <time>2015-05-06T15:21:27Z</time>
      </trkpt>
      <trkpt lat="45.44317" lon="5.91687">
        <ele>1402.677128494</ele>
        <time>2015-05-06T15:21:32Z</time>
      </trkpt>
      <trkpt lat="45.44317" lon="5.91687">
        <ele>1402.677128494</ele>
        <time>2015-05-06T15:21:38Z</time>
      </trkpt>
      <trkpt lat="45.44317" lon="5.91687">
        <ele>1402.677128494</ele>
        <time>2015-05-06T15:21:43Z</time>
      </trkpt>
      <trkpt lat="45.44317" lon="5.91687">
        <ele>1402.677128494</ele>
        <time>2015-05-06T15:21:47Z</time>
      </trkpt>
      <trkpt lat="45.44317" lon="5.91687">
        <ele>1402.677128494</ele>
        <time>2015-05-06T15:21:53Z</time>
      </trkpt>
      <trkpt lat="45.44317" lon="5.91687">
        <ele>1402.677128494</ele>
        <time>2015-05-06T15:21:57Z</time>
      </trkpt>
      <trkpt lat="45.44317" lon="5.91687">
        <ele>1402.677128494</ele>
        <time>2015-05-06T15:22:03Z</time>
      </trkpt>
      <trkpt lat="45.44317" lon="5.91687">
        <ele>1402.677128494</ele>
        <time>2015-05-06T15:22:08Z</time>
      </trkpt>
      <trkpt lat="45.44317" lon="5.91687">
        <ele>1402.677128494</ele>
        <time>2015-05-06T15:22:12Z</time>
      </trkpt>
      <trkpt lat="45.44317" lon="5.91687">
        <ele>1402.677128494</ele>
        <time>2015-05-06T15:22:18Z</time>
      </trkpt>
      <trkpt lat="45.44317" lon="5.91687">
        <ele>1402.677128494</ele>
        <time>2015-05-06T15:22:23Z</time>
      </trkpt>
      <trkpt lat="45.44317" lon="5.91687">
        <ele>1402.677128494</ele>
        <time>2015-05-06T15:22:27Z</time>
      </trkpt>
      <trkpt lat="45.44317" lon="5.91688">
        <ele>1402.677128494</ele>
        <time>2015-05-06T15:22:32Z</time>
      </trkpt>
      <trkpt lat="45.44317" lon="5.91688">
        <ele>1402.677128494</ele>
        <time>2015-05-06T15:22:38Z</time>
      </trkpt>
      <trkpt lat="45.44317" lon="5.91688">
        <ele>1402.677128494</ele>
        <time>2015-05-06T15:22:43Z</time>
      </trkpt>
      <trkpt lat="45.44317" lon="5.91688">
        <ele>1402.677128494</ele>
        <time>2015-05-06T15:22:47Z</time>
      </trkpt>
      <trkpt lat="45.44317" lon="5.91688">
        <ele>1402.677128494</ele>
        <time>2015-05-06T15:22:53Z</time>
      </trkpt>
      <trkpt lat="45.44317" lon="5.91688">
        <ele>1402.677128494</ele>
        <time>2015-05-06T15:22:57Z</time>
      </trkpt>
      <trkpt lat="45.44317" lon="5.91688">
        <ele>1402.677128494</ele>
        <time>2015-05-06T15:23:03Z</time>
      </trkpt>
      <trkpt lat="45.44317" lon="5.91688">
        <ele>1402.677128494</ele>
        <time>2015-05-06T15:23:08Z</time>
      </trkpt>
      <trkpt lat="45.44317" lon="5.91688">
        <ele>1402.677128494</ele>
        <time>2015-05-06T15:23:13Z</time>
      </trkpt>
      <trkpt lat="45.44317" lon="5.91688">
        <ele>1402.677128494</ele>
        <time>2015-05-06T15:23:18Z</time>
      </trkpt>
      <trkpt lat="45.44317" lon="5.91689">
        <ele>1402.677128494</ele>
        <time>2015-05-06T15:23:23Z</time>
      </trkpt>
      <trkpt lat="45.44317" lon="5.91689">
        <ele>1402.677128494</ele>
        <time>2015-05-06T15:23:28Z</time>
      </trkpt>
      <trkpt lat="45.44317" lon="5.91689">
        <ele>1402.677128494</ele>
        <time>2015-05-06T15:23:33Z</time>
      </trkpt>
      <trkpt lat="45.44317" lon="5.91689">
        <ele>1402.677128494</ele>
        <time>2015-05-06T15:23:38Z</time>
      </trkpt>
      <trkpt lat="45.44317" lon="5.91689">
        <ele>1402.677128494</ele>
        <time>2015-05-06T15:23:42Z</time>
      </trkpt>
      <trkpt lat="45.44317" lon="5.91689">
        <ele>1402.677128494</ele>
        <time>2015-05-06T15:23:46Z</time>
      </trkpt>
      <trkpt lat="45.44317" lon="5.91689">
        <ele>1402.677128494</ele>
        <time>2015-05-06T15:23:51Z</time>
      </trkpt>
      <trkpt lat="45.44317" lon="5.91689">
        <ele>1402.677128494</ele>
        <time>2015-05-06T15:23:56Z</time>
      </trkpt>
      <trkpt lat="45.44317" lon="5.9169">
        <ele>1402.677128494</ele>
        <time>2015-05-06T15:24:01Z</time>
      </trkpt>
      <trkpt lat="45.44317" lon="5.9169">
        <ele>1402.677128494</ele>
        <time>2015-05-06T15:24:06Z</time>
      </trkpt>
      <trkpt lat="45.44317" lon="5.91691">
        <ele>1402.677128494</ele>
        <time>2015-05-06T15:24:11Z</time>
      </trkpt>
      <trkpt lat="45.44317" lon="5.91691">
        <ele>1402.677128494</ele>
        <time>2015-05-06T15:24:17Z</time>
      </trkpt>
      <trkpt lat="45.44317" lon="5.91691">
        <ele>1402.677128494</ele>
        <time>2015-05-06T15:24:21Z</time>
      </trkpt>
      <trkpt lat="45.44317" lon="5.91691">
        <ele>1402.677128494</ele>
        <time>2015-05-06T15:24:27Z</time>
      </trkpt>
      <trkpt lat="45.44317" lon="5.91691">
        <ele>1402.677128494</ele>
        <time>2015-05-06T15:24:31Z</time>
      </trkpt>
      <trkpt lat="45.44317" lon="5.91691">
        <ele>1402.677128494</ele>
        <time>2015-05-06T15:24:36Z</time>
      </trkpt>
      <trkpt lat="45.44317" lon="5.91692">
        <ele>1402.677128494</ele>
        <time>2015-05-06T15:24:42Z</time>
      </trkpt>
      <trkpt lat="45.44317" lon="5.91692">
        <ele>1402.677128494</ele>
        <time>2015-05-06T15:24:47Z</time>
      </trkpt>
      <trkpt lat="45.44317" lon="5.91692">
        <ele>1402.677128494</ele>
        <time>2015-05-06T15:24:52Z</time>
      </trkpt>
      <trkpt lat="45.44317" lon="5.91693">
        <ele>1402.677128494</ele>
        <time>2015-05-06T15:24:57Z</time>
      </trkpt>
      <trkpt lat="45.44317" lon="5.91693">
        <ele>1402.677128494</ele>
        <time>2015-05-06T15:25:02Z</time>
      </trkpt>
      <trkpt lat="45.44317" lon="5.91693">
        <ele>1402.677128494</ele>
        <time>2015-05-06T15:25:07Z</time>
      </trkpt>
      <trkpt lat="45.44317" lon="5.91693">
        <ele>1402.677128494</ele>
        <time>2015-05-06T15:25:12Z</time>
      </trkpt>
      <trkpt lat="45.44317" lon="5.91693">
        <ele>1402.677128494</ele>
        <time>2015-05-06T15:25:17Z</time>
      </trkpt>
      <trkpt lat="45.44317" lon="5.91693">
        <ele>1402.677128494</ele>
        <time>2015-05-06T15:25:22Z</time>
      </trkpt>
      <trkpt lat="45.44317" lon="5.91694">
        <ele>1402.677128494</ele>
        <time>2015-05-06T15:25:27Z</time>
      </trkpt>
      <trkpt lat="45.44317" lon="5.91694">
        <ele>1402.677128494</ele>
        <time>2015-05-06T15:25:32Z</time>
      </trkpt>
      <trkpt lat="45.44317" lon="5.91694">
        <ele>1402.677128494</ele>
        <time>2015-05-06T15:25:37Z</time>
      </trkpt>
      <trkpt lat="45.44317" lon="5.91694">
        <ele>1402.677128494</ele>
        <time>2015-05-06T15:25:42Z</time>
      </trkpt>
      <trkpt lat="45.44317" lon="5.91694">
        <ele>1402.677128494</ele>
        <time>2015-05-06T15:25:47Z</time>
      </trkpt>
      <trkpt lat="45.44318" lon="5.91737">
        <ele>1402.03187432</ele>
        <time>2015-05-06T15:25:52Z</time>
      </trkpt>
      <trkpt lat="45.44312" lon="5.91796">
        <ele>1401.386620146</ele>
        <time>2015-05-06T15:25:57Z</time>
      </trkpt>
      <trkpt lat="45.44315" lon="5.91809">
        <ele>1400.741365971</ele>
        <time>2015-05-06T15:26:02Z</time>
      </trkpt>
      <trkpt lat="45.44315" lon="5.91816">
        <ele>1400.601160302</ele>
        <time>2015-05-06T15:26:07Z</time>
      </trkpt>
      <trkpt lat="45.44315" lon="5.9182">
        <ele>1400.460954633</ele>
        <time>2015-05-06T15:26:12Z</time>
      </trkpt>
      <trkpt lat="45.44315" lon="5.91821">
        <ele>1400.320748963</ele>
        <time>2015-05-06T15:26:17Z</time>
      </trkpt>
      <trkpt lat="45.44315" lon="5.91821">
        <ele>1400.180543294</ele>
        <time>2015-05-06T15:26:22Z</time>
      </trkpt>
      <trkpt lat="45.44315" lon="5.91822">
        <ele>1400.040337625</ele>
        <time>2015-05-06T15:26:32Z</time>
      </trkpt>
      <trkpt lat="45.44315" lon="5.91822">
        <ele>1399.900131955</ele>
        <time>2015-05-06T15:26:37Z</time>
      </trkpt>
      <trkpt lat="45.44315" lon="5.91822">
        <ele>1399.759926286</ele>
        <time>2015-05-06T15:26:47Z</time>
      </trkpt>
      <trkpt lat="45.4431" lon="5.91824">
        <ele>1399.619720616</ele>
        <time>2015-05-06T15:29:17Z</time>
      </trkpt>
      <trkpt lat="45.44309" lon="5.91825">
        <ele>1399.479514947</ele>
        <time>2015-05-06T15:29:22Z</time>
      </trkpt>
      <trkpt lat="45.44315" lon="5.91825">
        <ele>1399.479514947</ele>
        <time>2015-05-06T15:29:27Z</time>
      </trkpt>
      <trkpt lat="45.44328" lon="5.91827">
        <ele>1400.587516473</ele>
        <time>2015-05-06T15:29:32Z</time>
      </trkpt>
      <trkpt lat="45.44337" lon="5.91828">
        <ele>1400.587516473</ele>
        <time>2015-05-06T15:29:37Z</time>
      </trkpt>
      <trkpt lat="45.4434" lon="5.91829">
        <ele>1401.427956544</ele>
        <time>2015-05-06T15:29:42Z</time>
      </trkpt>
      <trkpt lat="45.44336" lon="5.91831">
        <ele>1402.268396616</ele>
        <time>2015-05-06T15:29:47Z</time>
      </trkpt>
      <trkpt lat="45.44332" lon="5.9183">
        <ele>1403.108836687</ele>
        <time>2015-05-06T15:30:22Z</time>
      </trkpt>
      <trkpt lat="45.44333" lon="5.91832">
        <ele>1403.949276759</ele>
        <time>2015-05-06T15:30:27Z</time>
      </trkpt>
      <trkpt lat="45.4434" lon="5.91824">
        <ele>1404.789716831</ele>
        <time>2015-05-06T15:30:32Z</time>
      </trkpt>
      <trkpt lat="45.44332" lon="5.91817">
        <ele>1405.630156902</ele>
        <time>2015-05-06T15:30:37Z</time>
      </trkpt>
      <trkpt lat="45.44335" lon="5.91815">
        <ele>1405.630156902</ele>
        <time>2015-05-06T15:30:42Z</time>
      </trkpt>
      <trkpt lat="45.44337" lon="5.91822">
        <ele>1410.279525314</ele>
        <time>2015-05-06T15:30:47Z</time>
      </trkpt>
      <trkpt lat="45.44337" lon="5.91818">
        <ele>1410.279525314</ele>
        <time>2015-05-06T15:30:52Z</time>
      </trkpt>
      <trkpt lat="45.44337" lon="5.91817">
        <ele>1410.279525314</ele>
        <time>2015-05-06T15:30:56Z</time>
      </trkpt>
      <trkpt lat="45.44336" lon="5.9182">
        <ele>1410.279525314</ele>
        <time>2015-05-06T15:31:03Z</time>
      </trkpt>
      <trkpt lat="45.4434" lon="5.91827">
        <ele>1415.573194831</ele>
        <time>2015-05-06T15:31:07Z</time>
      </trkpt>
      <trkpt lat="45.44335" lon="5.91833">
        <ele>1415.573194831</ele>
        <time>2015-05-06T15:31:12Z</time>
      </trkpt>
      <trkpt lat="45.44335" lon="5.91834">
        <ele>1415.573194831</ele>
        <time>2015-05-06T15:31:17Z</time>
      </trkpt>
      <trkpt lat="45.44331" lon="5.91838">
        <ele>1420.884729705</ele>
        <time>2015-05-06T15:31:22Z</time>
      </trkpt>
      <trkpt lat="45.4432" lon="5.91843">
        <ele>1425.345208049</ele>
        <time>2015-05-06T15:31:27Z</time>
      </trkpt>
      <trkpt lat="45.44305" lon="5.91849">
        <ele>1429.882228151</ele>
        <time>2015-05-06T15:31:32Z</time>
      </trkpt>
      <trkpt lat="45.44295" lon="5.91858">
        <ele>1434.345697146</ele>
        <time>2015-05-06T15:31:37Z</time>
      </trkpt>
      <trkpt lat="45.44278" lon="5.91861">
        <ele>1439.750493388</ele>
        <time>2015-05-06T15:31:42Z</time>
      </trkpt>
      <trkpt lat="45.44269" lon="5.91861">
        <ele>1439.750493388</ele>
        <time>2015-05-06T15:31:47Z</time>
      </trkpt>
      <trkpt lat="45.4426" lon="5.9186">
        <ele>1447.034428886</ele>
        <time>2015-05-06T15:31:52Z</time>
      </trkpt>
      <trkpt lat="45.44246" lon="5.91857">
        <ele>1450.232460683</ele>
        <time>2015-05-06T15:31:57Z</time>
      </trkpt>
      <trkpt lat="45.44232" lon="5.9186">
        <ele>1453.43049248</ele>
        <time>2015-05-06T15:32:02Z</time>
      </trkpt>
      <trkpt lat="45.44217" lon="5.91864">
        <ele>1456.628524277</ele>
        <time>2015-05-06T15:32:07Z</time>
      </trkpt>
      <trkpt lat="45.44214" lon="5.91881">
        <ele>1466.617852042</ele>
        <time>2015-05-06T15:32:12Z</time>
      </trkpt>
      <trkpt lat="45.44208" lon="5.91885">
        <ele>1466.617852042</ele>
        <time>2015-05-06T15:32:17Z</time>
      </trkpt>
      <trkpt lat="45.44203" lon="5.91881">
        <ele>1477.823333112</ele>
        <time>2015-05-06T15:32:22Z</time>
      </trkpt>
      <trkpt lat="45.44205" lon="5.91879">
        <ele>1477.823333112</ele>
        <time>2015-05-06T15:32:27Z</time>
      </trkpt>
      <trkpt lat="45.44199" lon="5.91875">
        <ele>1477.823333112</ele>
        <time>2015-05-06T15:32:32Z</time>
      </trkpt>
      <trkpt lat="45.44199" lon="5.91875">
        <ele>1477.823333112</ele>
        <time>2015-05-06T15:32:37Z</time>
      </trkpt>
      <trkpt lat="45.44197" lon="5.91874">
        <ele>1489.84832669</ele>
        <time>2015-05-06T15:32:42Z</time>
      </trkpt>
      <trkpt lat="45.44192" lon="5.91872">
        <ele>1489.84832669</ele>
        <time>2015-05-06T15:32:47Z</time>
      </trkpt>
      <trkpt lat="45.4419" lon="5.91875">
        <ele>1489.84832669</ele>
        <time>2015-05-06T15:32:52Z</time>
      </trkpt>
      <trkpt lat="45.44185" lon="5.91877">
        <ele>1501.313469534</ele>
        <time>2015-05-06T15:32:57Z</time>
      </trkpt>
      <trkpt lat="45.44183" lon="5.91885">
        <ele>1501.313469534</ele>
        <time>2015-05-06T15:33:02Z</time>
      </trkpt>
      <trkpt lat="45.44181" lon="5.91889">
        <ele>1511.519581279</ele>
        <time>2015-05-06T15:33:07Z</time>
      </trkpt>
      <trkpt lat="45.44182" lon="5.91888">
        <ele>1511.519581279</ele>
        <time>2015-05-06T15:33:12Z</time>
      </trkpt>
      <trkpt lat="45.44182" lon="5.91888">
        <ele>1511.519581279</ele>
        <time>2015-05-06T15:33:17Z</time>
      </trkpt>
      <trkpt lat="45.44182" lon="5.91888">
        <ele>1511.519581279</ele>
        <time>2015-05-06T15:33:22Z</time>
      </trkpt>
      <trkpt lat="45.4418" lon="5.91891">
        <ele>1511.519581279</ele>
        <time>2015-05-06T15:33:27Z</time>
      </trkpt>
      <trkpt lat="45.44178" lon="5.91894">
        <ele>1511.519581279</ele>
        <time>2015-05-06T15:33:31Z</time>
      </trkpt>
      <trkpt lat="45.44179" lon="5.91896">
        <ele>1511.519581279</ele>
        <time>2015-05-06T15:33:36Z</time>
      </trkpt>
      <trkpt lat="45.44176" lon="5.91895">
        <ele>1520.543955048</ele>
        <time>2015-05-06T15:33:43Z</time>
      </trkpt>
      <trkpt lat="45.44174" lon="5.91896">
        <ele>1520.543955048</ele>
        <time>2015-05-06T15:33:47Z</time>
      </trkpt>
      <trkpt lat="45.44173" lon="5.91894">
        <ele>1520.543955048</ele>
        <time>2015-05-06T15:33:52Z</time>
      </trkpt>
      <trkpt lat="45.44169" lon="5.9189">
        <ele>1520.543955048</ele>
        <time>2015-05-06T15:33:57Z</time>
      </trkpt>
      <trkpt lat="45.4417" lon="5.91888">
        <ele>1530.048475562</ele>
        <time>2015-05-06T15:34:02Z</time>
      </trkpt>
      <trkpt lat="45.4417" lon="5.91888">
        <ele>1530.048475562</ele>
        <time>2015-05-06T15:34:07Z</time>
      </trkpt>
      <trkpt lat="45.4417" lon="5.91888">
        <ele>1530.048475562</ele>
        <time>2015-05-06T15:34:12Z</time>
      </trkpt>
      <trkpt lat="45.4417" lon="5.91888">
        <ele>1530.048475562</ele>
        <time>2015-05-06T15:34:16Z</time>
      </trkpt>
      <trkpt lat="45.4417" lon="5.91888">
        <ele>1530.048475562</ele>
        <time>2015-05-06T15:34:22Z</time>
      </trkpt>
      <trkpt lat="45.4417" lon="5.91888">
        <ele>1530.048475562</ele>
        <time>2015-05-06T15:34:26Z</time>
      </trkpt>
      <trkpt lat="45.4417" lon="5.91888">
        <ele>1530.048475562</ele>
        <time>2015-05-06T15:34:32Z</time>
      </trkpt>
      <trkpt lat="45.4417" lon="5.91888">
        <ele>1530.048475562</ele>
        <time>2015-05-06T15:34:36Z</time>
      </trkpt>
      <trkpt lat="45.4417" lon="5.91888">
        <ele>1530.048475562</ele>
        <time>2015-05-06T15:34:42Z</time>
      </trkpt>
      <trkpt lat="45.4417" lon="5.91888">
        <ele>1530.048475562</ele>
        <time>2015-05-06T15:34:46Z</time>
      </trkpt>
      <trkpt lat="45.4417" lon="5.91888">
        <ele>1530.048475562</ele>
        <time>2015-05-06T15:34:52Z</time>
      </trkpt>
      <trkpt lat="45.4417" lon="5.91888">
        <ele>1530.048475562</ele>
        <time>2015-05-06T15:34:57Z</time>
      </trkpt>
      <trkpt lat="45.4417" lon="5.91888">
        <ele>1530.048475562</ele>
        <time>2015-05-06T15:35:02Z</time>
      </trkpt>
      <trkpt lat="45.4417" lon="5.91888">
        <ele>1530.048475562</ele>
        <time>2015-05-06T15:35:07Z</time>
      </trkpt>
      <trkpt lat="45.4417" lon="5.91888">
        <ele>1530.048475562</ele>
        <time>2015-05-06T15:35:12Z</time>
      </trkpt>
      <trkpt lat="45.4417" lon="5.91888">
        <ele>1530.048475562</ele>
        <time>2015-05-06T15:35:17Z</time>
      </trkpt>
      <trkpt lat="45.4417" lon="5.91888">
        <ele>1530.048475562</ele>
        <time>2015-05-06T15:35:22Z</time>
      </trkpt>
      <trkpt lat="45.4417" lon="5.91888">
        <ele>1530.048475562</ele>
        <time>2015-05-06T15:35:27Z</time>
      </trkpt>
      <trkpt lat="45.4417" lon="5.91888">
        <ele>1530.048475562</ele>
        <time>2015-05-06T15:35:32Z</time>
      </trkpt>
      <trkpt lat="45.4417" lon="5.91888">
        <ele>1530.048475562</ele>
        <time>2015-05-06T15:35:37Z</time>
      </trkpt>
      <trkpt lat="45.4417" lon="5.91888">
        <ele>1530.048475562</ele>
        <time>2015-05-06T15:35:42Z</time>
      </trkpt>
      <trkpt lat="45.4417" lon="5.91888">
        <ele>1530.048475562</ele>
        <time>2015-05-06T15:35:47Z</time>
      </trkpt>
      <trkpt lat="45.4417" lon="5.91888">
        <ele>1530.048475562</ele>
        <time>2015-05-06T15:35:52Z</time>
      </trkpt>
      <trkpt lat="45.4417" lon="5.91888">
        <ele>1530.048475562</ele>
        <time>2015-05-06T15:35:57Z</time>
      </trkpt>
      <trkpt lat="45.4417" lon="5.91888">
        <ele>1530.048475562</ele>
        <time>2015-05-06T15:36:02Z</time>
      </trkpt>
      <trkpt lat="45.4417" lon="5.9189">
        <ele>1530.048475562</ele>
        <time>2015-05-06T15:36:07Z</time>
      </trkpt>
      <trkpt lat="45.4417" lon="5.9189">
        <ele>1530.048475562</ele>
        <time>2015-05-06T15:36:12Z</time>
      </trkpt>
      <trkpt lat="45.4417" lon="5.91891">
        <ele>1530.048475562</ele>
        <time>2015-05-06T15:36:17Z</time>
      </trkpt>
      <trkpt lat="45.4417" lon="5.91891">
        <ele>1530.048475562</ele>
        <time>2015-05-06T15:36:22Z</time>
      </trkpt>
      <trkpt lat="45.44171" lon="5.91891">
        <ele>1530.048475562</ele>
        <time>2015-05-06T15:36:27Z</time>
      </trkpt>
      <trkpt lat="45.44171" lon="5.91892">
        <ele>1530.048475562</ele>
        <time>2015-05-06T15:36:32Z</time>
      </trkpt>
      <trkpt lat="45.44171" lon="5.91892">
        <ele>1530.048475562</ele>
        <time>2015-05-06T15:36:36Z</time>
      </trkpt>
      <trkpt lat="45.44171" lon="5.91892">
        <ele>1530.048475562</ele>
        <time>2015-05-06T15:36:41Z</time>
      </trkpt>
      <trkpt lat="45.4417" lon="5.91892">
        <ele>1530.048475562</ele>
        <time>2015-05-06T15:36:46Z</time>
      </trkpt>
      <trkpt lat="45.4417" lon="5.91892">
        <ele>1530.048475562</ele>
        <time>2015-05-06T15:36:51Z</time>
      </trkpt>
      <trkpt lat="45.4417" lon="5.91892">
        <ele>1530.048475562</ele>
        <time>2015-05-06T15:36:56Z</time>
      </trkpt>
      <trkpt lat="45.4417" lon="5.91892">
        <ele>1530.048475562</ele>
        <time>2015-05-06T15:37:01Z</time>
      </trkpt>
      <trkpt lat="45.4417" lon="5.91892">
        <ele>1530.048475562</ele>
        <time>2015-05-06T15:37:06Z</time>
      </trkpt>
      <trkpt lat="45.44171" lon="5.91893">
        <ele>1530.048475562</ele>
        <time>2015-05-06T15:37:11Z</time>
      </trkpt>
      <trkpt lat="45.4417" lon="5.91891">
        <ele>1530.048475562</ele>
        <time>2015-05-06T15:37:16Z</time>
      </trkpt>
      <trkpt lat="45.4417" lon="5.91891">
        <ele>1530.048475562</ele>
        <time>2015-05-06T15:37:21Z</time>
      </trkpt>
      <trkpt lat="45.4417" lon="5.91891">
        <ele>1530.048475562</ele>
        <time>2015-05-06T15:37:26Z</time>
      </trkpt>
      <trkpt lat="45.44169" lon="5.91892">
        <ele>1530.048475562</ele>
        <time>2015-05-06T15:37:32Z</time>
      </trkpt>
      <trkpt lat="45.44169" lon="5.91892">
        <ele>1530.048475562</ele>
        <time>2015-05-06T15:37:37Z</time>
      </trkpt>
      <trkpt lat="45.44169" lon="5.91892">
        <ele>1530.048475562</ele>
        <time>2015-05-06T15:37:42Z</time>
      </trkpt>
      <trkpt lat="45.44169" lon="5.91892">
        <ele>1530.048475562</ele>
        <time>2015-05-06T15:37:47Z</time>
      </trkpt>
      <trkpt lat="45.44169" lon="5.91892">
        <ele>1530.048475562</ele>
        <time>2015-05-06T15:37:52Z</time>
      </trkpt>
      <trkpt lat="45.44169" lon="5.91892">
        <ele>1530.048475562</ele>
        <time>2015-05-06T15:37:56Z</time>
      </trkpt>
      <trkpt lat="45.44169" lon="5.91892">
        <ele>1530.048475562</ele>
        <time>2015-05-06T15:38:02Z</time>
      </trkpt>
      <trkpt lat="45.44169" lon="5.91892">
        <ele>1530.048475562</ele>
        <time>2015-05-06T15:38:06Z</time>
      </trkpt>
      <trkpt lat="45.44169" lon="5.91892">
        <ele>1530.048475562</ele>
        <time>2015-05-06T15:38:13Z</time>
      </trkpt>
      <trkpt lat="45.44169" lon="5.91892">
        <ele>1530.048475562</ele>
        <time>2015-05-06T15:38:17Z</time>
      </trkpt>
      <trkpt lat="45.44169" lon="5.91892">
        <ele>1530.048475562</ele>
        <time>2015-05-06T15:38:22Z</time>
      </trkpt>
      <trkpt lat="45.44169" lon="5.91892">
        <ele>1530.048475562</ele>
        <time>2015-05-06T15:38:27Z</time>
      </trkpt>
      <trkpt lat="45.44169" lon="5.91892">
        <ele>1530.048475562</ele>
        <time>2015-05-06T15:38:32Z</time>
      </trkpt>
      <trkpt lat="45.44169" lon="5.91892">
        <ele>1530.048475562</ele>
        <time>2015-05-06T15:38:37Z</time>
      </trkpt>
      <trkpt lat="45.44169" lon="5.91892">
        <ele>1530.048475562</ele>
        <time>2015-05-06T15:38:42Z</time>
      </trkpt>
      <trkpt lat="45.44169" lon="5.91892">
        <ele>1530.048475562</ele>
        <time>2015-05-06T15:38:47Z</time>
      </trkpt>
      <trkpt lat="45.44169" lon="5.91892">
        <ele>1530.048475562</ele>
        <time>2015-05-06T15:38:52Z</time>
      </trkpt>
      <trkpt lat="45.44169" lon="5.91892">
        <ele>1530.048475562</ele>
        <time>2015-05-06T15:38:57Z</time>
      </trkpt>
      <trkpt lat="45.44169" lon="5.91892">
        <ele>1530.048475562</ele>
        <time>2015-05-06T15:39:02Z</time>
      </trkpt>
      <trkpt lat="45.44169" lon="5.91892">
        <ele>1530.048475562</ele>
        <time>2015-05-06T15:39:07Z</time>
      </trkpt>
      <trkpt lat="45.44169" lon="5.91892">
        <ele>1530.048475562</ele>
        <time>2015-05-06T15:39:12Z</time>
      </trkpt>
      <trkpt lat="45.44169" lon="5.91892">
        <ele>1530.048475562</ele>
        <time>2015-05-06T15:39:17Z</time>
      </trkpt>
      <trkpt lat="45.44169" lon="5.91892">
        <ele>1530.048475562</ele>
        <time>2015-05-06T15:39:22Z</time>
      </trkpt>
      <trkpt lat="45.44169" lon="5.91892">
        <ele>1530.048475562</ele>
        <time>2015-05-06T15:39:27Z</time>
      </trkpt>
      <trkpt lat="45.44169" lon="5.91892">
        <ele>1530.048475562</ele>
        <time>2015-05-06T15:39:32Z</time>
      </trkpt>
      <trkpt lat="45.44169" lon="5.91892">
        <ele>1530.048475562</ele>
        <time>2015-05-06T15:39:37Z</time>
      </trkpt>
      <trkpt lat="45.44169" lon="5.91892">
        <ele>1530.048475562</ele>
        <time>2015-05-06T15:39:42Z</time>
      </trkpt>
      <trkpt lat="45.44169" lon="5.91892">
        <ele>1530.048475562</ele>
        <time>2015-05-06T15:39:47Z</time>
      </trkpt>
      <trkpt lat="45.44169" lon="5.91892">
        <ele>1530.048475562</ele>
        <time>2015-05-06T15:39:52Z</time>
      </trkpt>
      <trkpt lat="45.44169" lon="5.91892">
        <ele>1530.048475562</ele>
        <time>2015-05-06T15:39:57Z</time>
      </trkpt>
      <trkpt lat="45.44169" lon="5.91892">
        <ele>1530.048475562</ele>
        <time>2015-05-06T15:40:02Z</time>
      </trkpt>
      <trkpt lat="45.44169" lon="5.91892">
        <ele>1530.048475562</ele>
        <time>2015-05-06T15:40:07Z</time>
      </trkpt>
      <trkpt lat="45.44169" lon="5.91892">
        <ele>1530.048475562</ele>
        <time>2015-05-06T15:40:12Z</time>
      </trkpt>
      <trkpt lat="45.44169" lon="5.91892">
        <ele>1530.048475562</ele>
        <time>2015-05-06T15:40:17Z</time>
      </trkpt>
      <trkpt lat="45.44169" lon="5.91892">
        <ele>1530.048475562</ele>
        <time>2015-05-06T15:40:22Z</time>
      </trkpt>
      <trkpt lat="45.44169" lon="5.91892">
        <ele>1530.048475562</ele>
        <time>2015-05-06T15:40:27Z</time>
      </trkpt>
      <trkpt lat="45.44169" lon="5.91892">
        <ele>1530.048475562</ele>
        <time>2015-05-06T15:40:32Z</time>
      </trkpt>
      <trkpt lat="45.44169" lon="5.91892">
        <ele>1530.048475562</ele>
        <time>2015-05-06T15:40:37Z</time>
      </trkpt>
      <trkpt lat="45.44169" lon="5.91892">
        <ele>1530.048475562</ele>
        <time>2015-05-06T15:40:42Z</time>
      </trkpt>
      <trkpt lat="45.44169" lon="5.91892">
        <ele>1530.048475562</ele>
        <time>2015-05-06T15:40:47Z</time>
      </trkpt>
      <trkpt lat="45.44169" lon="5.91892">
        <ele>1530.048475562</ele>
        <time>2015-05-06T15:40:52Z</time>
      </trkpt>
      <trkpt lat="45.44169" lon="5.91892">
        <ele>1530.048475562</ele>
        <time>2015-05-06T15:40:57Z</time>
      </trkpt>
      <trkpt lat="45.44169" lon="5.91892">
        <ele>1530.048475562</ele>
        <time>2015-05-06T15:41:02Z</time>
      </trkpt>
      <trkpt lat="45.44169" lon="5.91892">
        <ele>1530.048475562</ele>
        <time>2015-05-06T15:41:06Z</time>
      </trkpt>
      <trkpt lat="45.44169" lon="5.91892">
        <ele>1530.048475562</ele>
        <time>2015-05-06T15:41:13Z</time>
      </trkpt>
      <trkpt lat="45.44169" lon="5.91892">
        <ele>1530.048475562</ele>
        <time>2015-05-06T15:41:17Z</time>
      </trkpt>
      <trkpt lat="45.44169" lon="5.91892">
        <ele>1530.048475562</ele>
        <time>2015-05-06T15:41:22Z</time>
      </trkpt>
      <trkpt lat="45.44169" lon="5.91892">
        <ele>1530.048475562</ele>
        <time>2015-05-06T15:41:27Z</time>
      </trkpt>
      <trkpt lat="45.44169" lon="5.91892">
        <ele>1530.048475562</ele>
        <time>2015-05-06T15:41:32Z</time>
      </trkpt>
      <trkpt lat="45.44169" lon="5.91892">
        <ele>1530.048475562</ele>
        <time>2015-05-06T15:41:37Z</time>
      </trkpt>
      <trkpt lat="45.44169" lon="5.91892">
        <ele>1530.048475562</ele>
        <time>2015-05-06T15:41:42Z</time>
      </trkpt>
      <trkpt lat="45.44169" lon="5.91892">
        <ele>1530.048475562</ele>
        <time>2015-05-06T15:41:47Z</time>
      </trkpt>
      <trkpt lat="45.44169" lon="5.91892">
        <ele>1530.048475562</ele>
        <time>2015-05-06T15:41:52Z</time>
      </trkpt>
      <trkpt lat="45.44169" lon="5.91892">
        <ele>1530.048475562</ele>
        <time>2015-05-06T15:41:57Z</time>
      </trkpt>
      <trkpt lat="45.44169" lon="5.91892">
        <ele>1530.048475562</ele>
        <time>2015-05-06T15:42:02Z</time>
      </trkpt>
      <trkpt lat="45.44169" lon="5.91892">
        <ele>1530.048475562</ele>
        <time>2015-05-06T15:42:07Z</time>
      </trkpt>
      <trkpt lat="45.44169" lon="5.91892">
        <ele>1530.048475562</ele>
        <time>2015-05-06T15:42:12Z</time>
      </trkpt>
      <trkpt lat="45.44169" lon="5.91892">
        <ele>1530.048475562</ele>
        <time>2015-05-06T15:42:17Z</time>
      </trkpt>
      <trkpt lat="45.44169" lon="5.91892">
        <ele>1530.048475562</ele>
        <time>2015-05-06T15:42:22Z</time>
      </trkpt>
      <trkpt lat="45.44169" lon="5.91892">
        <ele>1530.048475562</ele>
        <time>2015-05-06T15:42:27Z</time>
      </trkpt>
      <trkpt lat="45.44169" lon="5.91892">
        <ele>1530.048475562</ele>
        <time>2015-05-06T15:42:32Z</time>
      </trkpt>
      <trkpt lat="45.44169" lon="5.91892">
        <ele>1530.048475562</ele>
        <time>2015-05-06T15:42:37Z</time>
      </trkpt>
      <trkpt lat="45.44169" lon="5.91892">
        <ele>1530.048475562</ele>
        <time>2015-05-06T15:42:42Z</time>
      </trkpt>
      <trkpt lat="45.44169" lon="5.91892">
        <ele>1530.048475562</ele>
        <time>2015-05-06T15:42:47Z</time>
      </trkpt>
      <trkpt lat="45.44169" lon="5.91892">
        <ele>1530.048475562</ele>
        <time>2015-05-06T15:42:52Z</time>
      </trkpt>
      <trkpt lat="45.44169" lon="5.91892">
        <ele>1530.048475562</ele>
        <time>2015-05-06T15:42:57Z</time>
      </trkpt>
      <trkpt lat="45.44169" lon="5.91892">
        <ele>1530.048475562</ele>
        <time>2015-05-06T15:43:02Z</time>
      </trkpt>
      <trkpt lat="45.44169" lon="5.91892">
        <ele>1530.048475562</ele>
        <time>2015-05-06T15:43:07Z</time>
      </trkpt>
      <trkpt lat="45.44169" lon="5.91892">
        <ele>1530.048475562</ele>
        <time>2015-05-06T15:43:12Z</time>
      </trkpt>
      <trkpt lat="45.44169" lon="5.91892">
        <ele>1530.048475562</ele>
        <time>2015-05-06T15:43:17Z</time>
      </trkpt>
      <trkpt lat="45.44169" lon="5.91892">
        <ele>1530.048475562</ele>
        <time>2015-05-06T15:43:22Z</time>
      </trkpt>
      <trkpt lat="45.44169" lon="5.91892">
        <ele>1530.048475562</ele>
        <time>2015-05-06T15:43:27Z</time>
      </trkpt>
      <trkpt lat="45.44169" lon="5.91892">
        <ele>1530.048475562</ele>
        <time>2015-05-06T15:43:32Z</time>
      </trkpt>
      <trkpt lat="45.44169" lon="5.91892">
        <ele>1530.048475562</ele>
        <time>2015-05-06T15:43:37Z</time>
      </trkpt>
      <trkpt lat="45.44169" lon="5.91892">
        <ele>1530.048475562</ele>
        <time>2015-05-06T15:43:41Z</time>
      </trkpt>
      <trkpt lat="45.44167" lon="5.91893">
        <ele>1530.048475562</ele>
        <time>2015-05-06T15:43:47Z</time>
      </trkpt>
      <trkpt lat="45.44167" lon="5.91894">
        <ele>1537.965812418</ele>
        <time>2015-05-06T15:43:52Z</time>
      </trkpt>
      <trkpt lat="45.44167" lon="5.91894">
        <ele>1537.965812418</ele>
        <time>2015-05-06T15:43:57Z</time>
      </trkpt>
      <trkpt lat="45.44167" lon="5.91894">
        <ele>1537.965812418</ele>
        <time>2015-05-06T15:44:02Z</time>
      </trkpt>
      <trkpt lat="45.44167" lon="5.91894">
        <ele>1537.965812418</ele>
        <time>2015-05-06T15:44:07Z</time>
      </trkpt>
      <trkpt lat="45.44167" lon="5.91894">
        <ele>1537.965812418</ele>
        <time>2015-05-06T15:44:12Z</time>
      </trkpt>
      <trkpt lat="45.44167" lon="5.91894">
        <ele>1537.965812418</ele>
        <time>2015-05-06T15:44:16Z</time>
      </trkpt>
      <trkpt lat="45.44167" lon="5.91894">
        <ele>1537.965812418</ele>
        <time>2015-05-06T15:44:22Z</time>
      </trkpt>
      <trkpt lat="45.44167" lon="5.91894">
        <ele>1537.965812418</ele>
        <time>2015-05-06T15:44:27Z</time>
      </trkpt>
      <trkpt lat="45.44167" lon="5.91894">
        <ele>1537.965812418</ele>
        <time>2015-05-06T15:44:31Z</time>
      </trkpt>
      <trkpt lat="45.44167" lon="5.91894">
        <ele>1537.965812418</ele>
        <time>2015-05-06T15:44:38Z</time>
      </trkpt>
      <trkpt lat="45.44167" lon="5.91894">
        <ele>1537.965812418</ele>
        <time>2015-05-06T15:44:41Z</time>
      </trkpt>
      <trkpt lat="45.44167" lon="5.91894">
        <ele>1537.965812418</ele>
        <time>2015-05-06T15:44:47Z</time>
      </trkpt>
      <trkpt lat="45.44167" lon="5.91895">
        <ele>1537.965812418</ele>
        <time>2015-05-06T15:44:52Z</time>
      </trkpt>
      <trkpt lat="45.44167" lon="5.91896">
        <ele>1537.965812418</ele>
        <time>2015-05-06T15:44:57Z</time>
      </trkpt>
      <trkpt lat="45.44169" lon="5.91897">
        <ele>1537.965812418</ele>
        <time>2015-05-06T15:45:02Z</time>
      </trkpt>
      <trkpt lat="45.44169" lon="5.91898">
        <ele>1537.965812418</ele>
        <time>2015-05-06T15:45:07Z</time>
      </trkpt>
      <trkpt lat="45.44169" lon="5.91897">
        <ele>1537.965812418</ele>
        <time>2015-05-06T15:45:12Z</time>
      </trkpt>
      <trkpt lat="45.44169" lon="5.91897">
        <ele>1537.965812418</ele>
        <time>2015-05-06T15:45:17Z</time>
      </trkpt>
      <trkpt lat="45.4417" lon="5.91896">
        <ele>1537.965812418</ele>
        <time>2015-05-06T15:45:22Z</time>
      </trkpt>
      <trkpt lat="45.4417" lon="5.91896">
        <ele>1537.965812418</ele>
        <time>2015-05-06T15:45:27Z</time>
      </trkpt>
      <trkpt lat="45.44169" lon="5.91895">
        <ele>1537.965812418</ele>
        <time>2015-05-06T15:45:32Z</time>
      </trkpt>
      <trkpt lat="45.44169" lon="5.91896">
        <ele>1537.965812418</ele>
        <time>2015-05-06T15:45:37Z</time>
      </trkpt>
      <trkpt lat="45.44169" lon="5.91896">
        <ele>1537.965812418</ele>
        <time>2015-05-06T15:45:42Z</time>
      </trkpt>
      <trkpt lat="45.44169" lon="5.91896">
        <ele>1537.965812418</ele>
        <time>2015-05-06T15:45:47Z</time>
      </trkpt>
      <trkpt lat="45.44168" lon="5.91897">
        <ele>1537.965812418</ele>
        <time>2015-05-06T15:45:52Z</time>
      </trkpt>
      <trkpt lat="45.44168" lon="5.91897">
        <ele>1537.965812418</ele>
        <time>2015-05-06T15:45:57Z</time>
      </trkpt>
      <trkpt lat="45.44167" lon="5.91899">
        <ele>1544.693302814</ele>
        <time>2015-05-06T15:46:02Z</time>
      </trkpt>
      <trkpt lat="45.44168" lon="5.91898">
        <ele>1544.693302814</ele>
        <time>2015-05-06T15:46:07Z</time>
      </trkpt>
      <trkpt lat="45.44168" lon="5.91899">
        <ele>1544.693302814</ele>
        <time>2015-05-06T15:46:12Z</time>
      </trkpt>
      <trkpt lat="45.44168" lon="5.91898">
        <ele>1544.693302814</ele>
        <time>2015-05-06T15:46:17Z</time>
      </trkpt>
      <trkpt lat="45.44169" lon="5.91895">
        <ele>1544.693302814</ele>
        <time>2015-05-06T15:46:22Z</time>
      </trkpt>
      <trkpt lat="45.44169" lon="5.91895">
        <ele>1544.693302814</ele>
        <time>2015-05-06T15:46:27Z</time>
      </trkpt>
      <trkpt lat="45.44169" lon="5.91894">
        <ele>1544.693302814</ele>
        <time>2015-05-06T15:46:32Z</time>
      </trkpt>
      <trkpt lat="45.44167" lon="5.91896">
        <ele>1544.693302814</ele>
        <time>2015-05-06T15:46:37Z</time>
      </trkpt>
      <trkpt lat="45.44167" lon="5.91897">
        <ele>1544.693302814</ele>
        <time>2015-05-06T15:46:42Z</time>
      </trkpt>
      <trkpt lat="45.44167" lon="5.91896">
        <ele>1544.693302814</ele>
        <time>2015-05-06T15:46:47Z</time>
      </trkpt>
      <trkpt lat="45.44167" lon="5.91897">
        <ele>1550.746926795</ele>
        <time>2015-05-06T15:46:52Z</time>
      </trkpt>
      <trkpt lat="45.44166" lon="5.91897">
        <ele>1550.746926795</ele>
        <time>2015-05-06T15:46:57Z</time>
      </trkpt>
      <trkpt lat="45.44166" lon="5.91897">
        <ele>1550.746926795</ele>
        <time>2015-05-06T15:47:02Z</time>
      </trkpt>
      <trkpt lat="45.44166" lon="5.91897">
        <ele>1550.746926795</ele>
        <time>2015-05-06T15:47:07Z</time>
      </trkpt>
      <trkpt lat="45.44167" lon="5.91897">
        <ele>1550.746926795</ele>
        <time>2015-05-06T15:47:12Z</time>
      </trkpt>
      <trkpt lat="45.44168" lon="5.91896">
        <ele>1550.746926795</ele>
        <time>2015-05-06T15:47:17Z</time>
      </trkpt>
      <trkpt lat="45.44167" lon="5.91896">
        <ele>1550.746926795</ele>
        <time>2015-05-06T15:47:22Z</time>
      </trkpt>
      <trkpt lat="45.44167" lon="5.91896">
        <ele>1550.746926795</ele>
        <time>2015-05-06T15:47:27Z</time>
      </trkpt>
      <trkpt lat="45.4417" lon="5.91892">
        <ele>1550.746926795</ele>
        <time>2015-05-06T15:47:32Z</time>
      </trkpt>
      <trkpt lat="45.44169" lon="5.91894">
        <ele>1555.885776797</ele>
        <time>2015-05-06T15:47:37Z</time>
      </trkpt>
      <trkpt lat="45.4417" lon="5.91894">
        <ele>1555.885776797</ele>
        <time>2015-05-06T15:47:42Z</time>
      </trkpt>
      <trkpt lat="45.4417" lon="5.91894">
        <ele>1555.885776797</ele>
        <time>2015-05-06T15:47:47Z</time>
      </trkpt>
      <trkpt lat="45.4417" lon="5.91894">
        <ele>1555.885776797</ele>
        <time>2015-05-06T15:47:51Z</time>
      </trkpt>
      <trkpt lat="45.44171" lon="5.91895">
        <ele>1555.885776797</ele>
        <time>2015-05-06T15:47:57Z</time>
      </trkpt>
      <trkpt lat="45.44169" lon="5.91895">
        <ele>1555.885776797</ele>
        <time>2015-05-06T15:48:02Z</time>
      </trkpt>
      <trkpt lat="45.44169" lon="5.91895">
        <ele>1555.885776797</ele>
        <time>2015-05-06T15:48:06Z</time>
      </trkpt>
      <trkpt lat="45.44168" lon="5.91895">
        <ele>1555.885776797</ele>
        <time>2015-05-06T15:48:12Z</time>
      </trkpt>
      <trkpt lat="45.44168" lon="5.91895">
        <ele>1555.885776797</ele>
        <time>2015-05-06T15:48:17Z</time>
      </trkpt>
      <trkpt lat="45.44168" lon="5.91895">
        <ele>1555.885776797</ele>
        <time>2015-05-06T15:48:22Z</time>
      </trkpt>
      <trkpt lat="45.4417" lon="5.91898">
        <ele>1555.885776797</ele>
        <time>2015-05-06T15:48:27Z</time>
      </trkpt>
      <trkpt lat="45.4417" lon="5.91903">
        <ele>1560.610599178</ele>
        <time>2015-05-06T15:48:32Z</time>
      </trkpt>
      <trkpt lat="45.44171" lon="5.91908">
        <ele>1560.610599178</ele>
        <time>2015-05-06T15:48:37Z</time>
      </trkpt>
      <trkpt lat="45.44172" lon="5.91914">
        <ele>1560.610599178</ele>
        <time>2015-05-06T15:48:42Z</time>
      </trkpt>
      <trkpt lat="45.44168" lon="5.9192">
        <ele>1564.377246955</ele>
        <time>2015-05-06T15:48:47Z</time>
      </trkpt>
      <trkpt lat="45.44168" lon="5.91926">
        <ele>1564.377246955</ele>
        <time>2015-05-06T15:48:52Z</time>
      </trkpt>
      <trkpt lat="45.44166" lon="5.91931">
        <ele>1564.377246955</ele>
        <time>2015-05-06T15:48:57Z</time>
      </trkpt>
      <trkpt lat="45.44164" lon="5.91936">
        <ele>1567.261362927</ele>
        <time>2015-05-06T15:49:02Z</time>
      </trkpt>
      <trkpt lat="45.44163" lon="5.91943">
        <ele>1567.261362927</ele>
        <time>2015-05-06T15:49:07Z</time>
      </trkpt>
      <trkpt lat="45.44161" lon="5.91949">
        <ele>1568.614741597</ele>
        <time>2015-05-06T15:49:12Z</time>
      </trkpt>
      <trkpt lat="45.44159" lon="5.91953">
        <ele>1568.614741597</ele>
        <time>2015-05-06T15:49:17Z</time>
      </trkpt>
      <trkpt lat="45.44158" lon="5.91961">
        <ele>1568.706456502</ele>
        <time>2015-05-06T15:49:22Z</time>
      </trkpt>
      <trkpt lat="45.44156" lon="5.91968">
        <ele>1568.706456502</ele>
        <time>2015-05-06T15:49:27Z</time>
      </trkpt>
      <trkpt lat="45.44153" lon="5.91975">
        <ele>1568.510257943</ele>
        <time>2015-05-06T15:49:32Z</time>
      </trkpt>
      <trkpt lat="45.44152" lon="5.91982">
        <ele>1568.510257943</ele>
        <time>2015-05-06T15:49:37Z</time>
      </trkpt>
      <trkpt lat="45.44146" lon="5.91987">
        <ele>1567.487354312</ele>
        <time>2015-05-06T15:49:42Z</time>
      </trkpt>
      <trkpt lat="45.44146" lon="5.91995">
        <ele>1567.487354312</ele>
        <time>2015-05-06T15:49:47Z</time>
      </trkpt>
      <trkpt lat="45.44143" lon="5.92001">
        <ele>1566.294223775</ele>
        <time>2015-05-06T15:49:52Z</time>
      </trkpt>
      <trkpt lat="45.44143" lon="5.92004">
        <ele>1566.294223775</ele>
        <time>2015-05-06T15:49:57Z</time>
      </trkpt>
      <trkpt lat="45.4414" lon="5.92014">
        <ele>1564.530340115</ele>
        <time>2015-05-06T15:50:02Z</time>
      </trkpt>
      <trkpt lat="45.44136" lon="5.92019">
        <ele>1564.530340115</ele>
        <time>2015-05-06T15:50:07Z</time>
      </trkpt>
      <trkpt lat="45.44133" lon="5.92026">
        <ele>1562.258593518</ele>
        <time>2015-05-06T15:50:12Z</time>
      </trkpt>
      <trkpt lat="45.44128" lon="5.92031">
        <ele>1562.258593518</ele>
        <time>2015-05-06T15:50:17Z</time>
      </trkpt>
      <trkpt lat="45.44124" lon="5.92039">
        <ele>1560.115067053</ele>
        <time>2015-05-06T15:50:22Z</time>
      </trkpt>
      <trkpt lat="45.4412" lon="5.92044">
        <ele>1560.115067053</ele>
        <time>2015-05-06T15:50:27Z</time>
      </trkpt>
      <trkpt lat="45.44114" lon="5.92047">
        <ele>1557.823626467</ele>
        <time>2015-05-06T15:50:32Z</time>
      </trkpt>
      <trkpt lat="45.44113" lon="5.92056">
        <ele>1557.823626467</ele>
        <time>2015-05-06T15:50:37Z</time>
      </trkpt>
      <trkpt lat="45.44111" lon="5.92061">
        <ele>1555.561008681</ele>
        <time>2015-05-06T15:50:42Z</time>
      </trkpt>
      <trkpt lat="45.44106" lon="5.92066">
        <ele>1555.561008681</ele>
        <time>2015-05-06T15:50:47Z</time>
      </trkpt>
      <trkpt lat="45.44103" lon="5.92072">
        <ele>1552.914041406</ele>
        <time>2015-05-06T15:50:52Z</time>
      </trkpt>
      <trkpt lat="45.441" lon="5.92079">
        <ele>1552.914041406</ele>
        <time>2015-05-06T15:50:57Z</time>
      </trkpt>
      <trkpt lat="45.44098" lon="5.92082">
        <ele>1552.914041406</ele>
        <time>2015-05-06T15:51:02Z</time>
      </trkpt>
      <trkpt lat="45.44094" lon="5.92088">
        <ele>1549.933047822</ele>
        <time>2015-05-06T15:51:07Z</time>
      </trkpt>
      <trkpt lat="45.4409" lon="5.92095">
        <ele>1549.933047822</ele>
        <time>2015-05-06T15:51:12Z</time>
      </trkpt>
      <trkpt lat="45.44086" lon="5.92101">
        <ele>1547.241685872</ele>
        <time>2015-05-06T15:51:16Z</time>
      </trkpt>
      <trkpt lat="45.44084" lon="5.92107">
        <ele>1547.241685872</ele>
        <time>2015-05-06T15:51:21Z</time>
      </trkpt>
      <trkpt lat="45.44084" lon="5.92113">
        <ele>1544.263553478</ele>
        <time>2015-05-06T15:51:29Z</time>
      </trkpt>
      <trkpt lat="45.4408" lon="5.9212">
        <ele>1544.263553478</ele>
        <time>2015-05-06T15:51:32Z</time>
      </trkpt>
      <trkpt lat="45.44081" lon="5.92127">
        <ele>1541.329682821</ele>
        <time>2015-05-06T15:51:38Z</time>
      </trkpt>
      <trkpt lat="45.44084" lon="5.92132">
        <ele>1541.329682821</ele>
        <time>2015-05-06T15:51:43Z</time>
      </trkpt>
      <trkpt lat="45.44079" lon="5.92136">
        <ele>1538.457925023</ele>
        <time>2015-05-06T15:51:47Z</time>
      </trkpt>
      <trkpt lat="45.44076" lon="5.92142">
        <ele>1538.457925023</ele>
        <time>2015-05-06T15:51:52Z</time>
      </trkpt>
      <trkpt lat="45.44074" lon="5.92148">
        <ele>1535.520015676</ele>
        <time>2015-05-06T15:51:58Z</time>
      </trkpt>
      <trkpt lat="45.4407" lon="5.9215">
        <ele>1535.520015676</ele>
        <time>2015-05-06T15:52:02Z</time>
      </trkpt>
      <trkpt lat="45.44064" lon="5.92155">
        <ele>1532.252649607</ele>
        <time>2015-05-06T15:52:07Z</time>
      </trkpt>
      <trkpt lat="45.44065" lon="5.92158">
        <ele>1532.252649607</ele>
        <time>2015-05-06T15:52:13Z</time>
      </trkpt>
      <trkpt lat="45.44065" lon="5.92165">
        <ele>1532.252649607</ele>
        <time>2015-05-06T15:52:18Z</time>
      </trkpt>
      <trkpt lat="45.44064" lon="5.92172">
        <ele>1528.988688112</ele>
        <time>2015-05-06T15:52:22Z</time>
      </trkpt>
      <trkpt lat="45.44063" lon="5.92175">
        <ele>1528.988688112</ele>
        <time>2015-05-06T15:52:28Z</time>
      </trkpt>
      <trkpt lat="45.4406" lon="5.92174">
        <ele>1528.988688112</ele>
        <time>2015-05-06T15:52:33Z</time>
      </trkpt>
      <trkpt lat="45.4406" lon="5.92178">
        <ele>1528.988688112</ele>
        <time>2015-05-06T15:52:38Z</time>
      </trkpt>
      <trkpt lat="45.44059" lon="5.92182">
        <ele>1524.883040994</ele>
        <time>2015-05-06T15:52:42Z</time>
      </trkpt>
      <trkpt lat="45.4406" lon="5.92183">
        <ele>1524.883040994</ele>
        <time>2015-05-06T15:52:48Z</time>
      </trkpt>
      <trkpt lat="45.44061" lon="5.92184">
        <ele>1524.883040994</ele>
        <time>2015-05-06T15:52:52Z</time>
      </trkpt>
      <trkpt lat="45.4406" lon="5.92187">
        <ele>1524.883040994</ele>
        <time>2015-05-06T15:52:58Z</time>
      </trkpt>
      <trkpt lat="45.44061" lon="5.92188">
        <ele>1524.883040994</ele>
        <time>2015-05-06T15:53:02Z</time>
      </trkpt>
      <trkpt lat="45.44062" lon="5.9219">
        <ele>1524.883040994</ele>
        <time>2015-05-06T15:53:08Z</time>
      </trkpt>
      <trkpt lat="45.44061" lon="5.92193">
        <ele>1520.451483634</ele>
        <time>2015-05-06T15:53:13Z</time>
      </trkpt>
      <trkpt lat="45.44059" lon="5.92194">
        <ele>1520.451483634</ele>
        <time>2015-05-06T15:53:18Z</time>
      </trkpt>
      <trkpt lat="45.44054" lon="5.92194">
        <ele>1520.451483634</ele>
        <time>2015-05-06T15:53:23Z</time>
      </trkpt>
      <trkpt lat="45.44051" lon="5.92198">
        <ele>1516.172194989</ele>
        <time>2015-05-06T15:53:28Z</time>
      </trkpt>
      <trkpt lat="45.44048" lon="5.92196">
        <ele>1516.172194989</ele>
        <time>2015-05-06T15:53:33Z</time>
      </trkpt>
      <trkpt lat="45.44045" lon="5.92199">
        <ele>1516.172194989</ele>
        <time>2015-05-06T15:53:38Z</time>
      </trkpt>
      <trkpt lat="45.44041" lon="5.92199">
        <ele>1511.622490384</ele>
        <time>2015-05-06T15:53:43Z</time>
      </trkpt>
      <trkpt lat="45.44035" lon="5.92196">
        <ele>1511.622490384</ele>
        <time>2015-05-06T15:53:47Z</time>
      </trkpt>
      <trkpt lat="45.44032" lon="5.92194">
        <ele>1506.987295621</ele>
        <time>2015-05-06T15:53:52Z</time>
      </trkpt>
      <trkpt lat="45.4403" lon="5.92193">
        <ele>1506.987295621</ele>
        <time>2015-05-06T15:53:58Z</time>
      </trkpt>
      <trkpt lat="45.4403" lon="5.92191">
        <ele>1506.987295621</ele>
        <time>2015-05-06T15:54:03Z</time>
      </trkpt>
      <trkpt lat="45.44029" lon="5.92184">
        <ele>1506.987295621</ele>
        <time>2015-05-06T15:54:08Z</time>
      </trkpt>
      <trkpt lat="45.44027" lon="5.9218">
        <ele>1502.437529275</ele>
        <time>2015-05-06T15:54:13Z</time>
      </trkpt>
      <trkpt lat="45.44025" lon="5.92176">
        <ele>1502.437529275</ele>
        <time>2015-05-06T15:54:17Z</time>
      </trkpt>
      <trkpt lat="45.44024" lon="5.92173">
        <ele>1502.437529275</ele>
        <time>2015-05-06T15:54:22Z</time>
      </trkpt>
      <trkpt lat="45.4402" lon="5.92169">
        <ele>1498.130642311</ele>
        <time>2015-05-06T15:54:28Z</time>
      </trkpt>
      <trkpt lat="45.44014" lon="5.92169">
        <ele>1498.130642311</ele>
        <time>2015-05-06T15:54:33Z</time>
      </trkpt>
      <trkpt lat="45.44012" lon="5.92166">
        <ele>1493.778818562</ele>
        <time>2015-05-06T15:54:38Z</time>
      </trkpt>
      <trkpt lat="45.44009" lon="5.92163">
        <ele>1493.778818562</ele>
        <time>2015-05-06T15:54:43Z</time>
      </trkpt>
      <trkpt lat="45.44006" lon="5.92168">
        <ele>1493.778818562</ele>
        <time>2015-05-06T15:54:48Z</time>
      </trkpt>
      <trkpt lat="45.44001" lon="5.92166">
        <ele>1489.835392009</ele>
        <time>2015-05-06T15:54:52Z</time>
      </trkpt>
      <trkpt lat="45.43997" lon="5.92168">
        <ele>1489.835392009</ele>
        <time>2015-05-06T15:54:57Z</time>
      </trkpt>
      <trkpt lat="45.43991" lon="5.92172">
        <ele>1485.997997926</ele>
        <time>2015-05-06T15:55:03Z</time>
      </trkpt>
      <trkpt lat="45.43989" lon="5.92169">
        <ele>1485.997997926</ele>
        <time>2015-05-06T15:55:08Z</time>
      </trkpt>
      <trkpt lat="45.43984" lon="5.92163">
        <ele>1482.561958856</ele>
        <time>2015-05-06T15:55:13Z</time>
      </trkpt>
      <trkpt lat="45.4398" lon="5.92156">
        <ele>1482.561958856</ele>
        <time>2015-05-06T15:55:18Z</time>
      </trkpt>
      <trkpt lat="45.43982" lon="5.92154">
        <ele>1482.561958856</ele>
        <time>2015-05-06T15:55:23Z</time>
      </trkpt>
      <trkpt lat="45.43982" lon="5.92157">
        <ele>1479.654990901</ele>
        <time>2015-05-06T15:55:28Z</time>
      </trkpt>
      <trkpt lat="45.43975" lon="5.92156">
        <ele>1479.654990901</ele>
        <time>2015-05-06T15:55:33Z</time>
      </trkpt>
      <trkpt lat="45.43969" lon="5.92151">
        <ele>1476.816825138</ele>
        <time>2015-05-06T15:55:38Z</time>
      </trkpt>
      <trkpt lat="45.4396" lon="5.92151">
        <ele>1476.816825138</ele>
        <time>2015-05-06T15:55:43Z</time>
      </trkpt>
      <trkpt lat="45.43956" lon="5.92144">
        <ele>1474.052506978</ele>
        <time>2015-05-06T15:55:47Z</time>
      </trkpt>
      <trkpt lat="45.4395" lon="5.92146">
        <ele>1474.052506978</ele>
        <time>2015-05-06T15:55:52Z</time>
      </trkpt>
      <trkpt lat="45.43945" lon="5.92136">
        <ele>1471.365876209</ele>
        <time>2015-05-06T15:55:58Z</time>
      </trkpt>
      <trkpt lat="45.43941" lon="5.92133">
        <ele>1471.365876209</ele>
        <time>2015-05-06T15:56:03Z</time>
      </trkpt>
      <trkpt lat="45.43936" lon="5.92127">
        <ele>1469.047894752</ele>
        <time>2015-05-06T15:56:08Z</time>
      </trkpt>
      <trkpt lat="45.43934" lon="5.92129">
        <ele>1469.047894752</ele>
        <time>2015-05-06T15:56:13Z</time>
      </trkpt>
      <trkpt lat="45.43933" lon="5.9213">
        <ele>1469.047894752</ele>
        <time>2015-05-06T15:56:18Z</time>
      </trkpt>
      <trkpt lat="45.43931" lon="5.92131">
        <ele>1469.047894752</ele>
        <time>2015-05-06T15:56:22Z</time>
      </trkpt>
      <trkpt lat="45.43932" lon="5.9213">
        <ele>1469.047894752</ele>
        <time>2015-05-06T15:57:01Z</time>
      </trkpt>
      <trkpt lat="45.43935" lon="5.92138">
        <ele>1466.645956039</ele>
        <time>2015-05-06T15:57:07Z</time>
      </trkpt>
      <trkpt lat="45.43937" lon="5.92147">
        <ele>1466.645956039</ele>
        <time>2015-05-06T15:57:13Z</time>
      </trkpt>
      <trkpt lat="45.43939" lon="5.92152">
        <ele>1465.469754416</ele>
        <time>2015-05-06T15:57:16Z</time>
      </trkpt>
      <trkpt lat="45.43935" lon="5.92162">
        <ele>1465.469754416</ele>
        <time>2015-05-06T15:57:22Z</time>
      </trkpt>
      <trkpt lat="45.43934" lon="5.92169">
        <ele>1464.134731484</ele>
        <time>2015-05-06T15:57:28Z</time>
      </trkpt>
      <trkpt lat="45.43933" lon="5.92177">
        <ele>1464.134731484</ele>
        <time>2015-05-06T15:57:33Z</time>
      </trkpt>
      <trkpt lat="45.4393" lon="5.92184">
        <ele>1462.510898178</ele>
        <time>2015-05-06T15:57:38Z</time>
      </trkpt>
      <trkpt lat="45.4393" lon="5.9219">
        <ele>1462.510898178</ele>
        <time>2015-05-06T15:57:43Z</time>
      </trkpt>
      <trkpt lat="45.43932" lon="5.92198">
        <ele>1460.91049198</ele>
        <time>2015-05-06T15:57:48Z</time>
      </trkpt>
      <trkpt lat="45.43937" lon="5.92205">
        <ele>1460.91049198</ele>
        <time>2015-05-06T15:57:53Z</time>
      </trkpt>
      <trkpt lat="45.4394" lon="5.9221">
        <ele>1461.351676348</ele>
        <time>2015-05-06T15:57:57Z</time>
      </trkpt>
      <trkpt lat="45.43943" lon="5.92211">
        <ele>1461.351676348</ele>
        <time>2015-05-06T15:58:01Z</time>
      </trkpt>
      <trkpt lat="45.43942" lon="5.92212">
        <ele>1461.351676348</ele>
        <time>2015-05-06T15:58:07Z</time>
      </trkpt>
      <trkpt lat="45.43936" lon="5.92217">
        <ele>1461.66301028</ele>
        <time>2015-05-06T15:58:13Z</time>
      </trkpt>
      <trkpt lat="45.43932" lon="5.92222">
        <ele>1461.66301028</ele>
        <time>2015-05-06T15:58:17Z</time>
      </trkpt>
      <trkpt lat="45.43929" lon="5.92223">
        <ele>1461.66301028</ele>
        <time>2015-05-06T15:58:23Z</time>
      </trkpt>
      <trkpt lat="45.43931" lon="5.92224">
        <ele>1461.85016426</ele>
        <time>2015-05-06T15:58:28Z</time>
      </trkpt>
      <trkpt lat="45.43927" lon="5.92228">
        <ele>1461.85016426</ele>
        <time>2015-05-06T15:58:33Z</time>
      </trkpt>
      <trkpt lat="45.43929" lon="5.92233">
        <ele>1461.85016426</ele>
        <time>2015-05-06T15:58:37Z</time>
      </trkpt>
      <trkpt lat="45.43926" lon="5.92235">
        <ele>1462.783088243</ele>
        <time>2015-05-06T15:58:43Z</time>
      </trkpt>
      <trkpt lat="45.43923" lon="5.92236">
        <ele>1462.783088243</ele>
        <time>2015-05-06T15:58:47Z</time>
      </trkpt>
      <trkpt lat="45.4392" lon="5.92235">
        <ele>1462.783088243</ele>
        <time>2015-05-06T15:58:53Z</time>
      </trkpt>
      <trkpt lat="45.43918" lon="5.92237">
        <ele>1462.783088243</ele>
        <time>2015-05-06T15:58:58Z</time>
      </trkpt>
      <trkpt lat="45.43919" lon="5.92236">
        <ele>1464.400750834</ele>
        <time>2015-05-06T15:59:02Z</time>
      </trkpt>
      <trkpt lat="45.43917" lon="5.92237">
        <ele>1464.400750834</ele>
        <time>2015-05-06T15:59:08Z</time>
      </trkpt>
      <trkpt lat="45.43916" lon="5.92236">
        <ele>1464.400750834</ele>
        <time>2015-05-06T15:59:13Z</time>
      </trkpt>
      <trkpt lat="45.43911" lon="5.92232">
        <ele>1464.400750834</ele>
        <time>2015-05-06T15:59:17Z</time>
      </trkpt>
      <trkpt lat="45.43907" lon="5.92231">
        <ele>1466.356202777</ele>
        <time>2015-05-06T15:59:23Z</time>
      </trkpt>
      <trkpt lat="45.43907" lon="5.92228">
        <ele>1466.356202777</ele>
        <time>2015-05-06T15:59:28Z</time>
      </trkpt>
      <trkpt lat="45.43906" lon="5.92229">
        <ele>1466.356202777</ele>
        <time>2015-05-06T15:59:32Z</time>
      </trkpt>
      <trkpt lat="45.43904" lon="5.92228">
        <ele>1466.356202777</ele>
        <time>2015-05-06T15:59:38Z</time>
      </trkpt>
      <trkpt lat="45.43903" lon="5.92227">
        <ele>1466.356202777</ele>
        <time>2015-05-06T15:59:43Z</time>
      </trkpt>
      <trkpt lat="45.43903" lon="5.92227">
        <ele>1466.356202777</ele>
        <time>2015-05-06T15:59:47Z</time>
      </trkpt>
      <trkpt lat="45.43903" lon="5.92227">
        <ele>1466.356202777</ele>
        <time>2015-05-06T15:59:53Z</time>
      </trkpt>
      <trkpt lat="45.43903" lon="5.92227">
        <ele>1466.356202777</ele>
        <time>2015-05-06T15:59:58Z</time>
      </trkpt>
      <trkpt lat="45.43903" lon="5.92227">
        <ele>1466.356202777</ele>
        <time>2015-05-06T16:00:02Z</time>
      </trkpt>
      <trkpt lat="45.43901" lon="5.92224">
        <ele>1466.356202777</ele>
        <time>2015-05-06T16:00:07Z</time>
      </trkpt>
      <trkpt lat="45.43901" lon="5.92214">
        <ele>1469.912075523</ele>
        <time>2015-05-06T16:00:12Z</time>
      </trkpt>
      <trkpt lat="45.43897" lon="5.92208">
        <ele>1469.912075523</ele>
        <time>2015-05-06T16:00:16Z</time>
      </trkpt>
      <trkpt lat="45.43893" lon="5.92204">
        <ele>1473.207213086</ele>
        <time>2015-05-06T16:00:22Z</time>
      </trkpt>
      <trkpt lat="45.43892" lon="5.92202">
        <ele>1473.207213086</ele>
        <time>2015-05-06T16:00:27Z</time>
      </trkpt>
      <trkpt lat="45.43892" lon="5.92202">
        <ele>1473.207213086</ele>
        <time>2015-05-06T16:00:32Z</time>
      </trkpt>
      <trkpt lat="45.43892" lon="5.92202">
        <ele>1473.207213086</ele>
        <time>2015-05-06T16:00:37Z</time>
      </trkpt>
      <trkpt lat="45.43892" lon="5.92202">
        <ele>1473.207213086</ele>
        <time>2015-05-06T16:00:41Z</time>
      </trkpt>
      <trkpt lat="45.43887" lon="5.92205">
        <ele>1473.207213086</ele>
        <time>2015-05-06T16:00:47Z</time>
      </trkpt>
      <trkpt lat="45.43886" lon="5.92209">
        <ele>1477.54418421</ele>
        <time>2015-05-06T16:00:53Z</time>
      </trkpt>
      <trkpt lat="45.43875" lon="5.92198">
        <ele>1481.67696487</ele>
        <time>2015-05-06T16:00:58Z</time>
      </trkpt>
      <trkpt lat="45.43872" lon="5.92197">
        <ele>1481.67696487</ele>
        <time>2015-05-06T16:01:02Z</time>
      </trkpt>
      <trkpt lat="45.43871" lon="5.92196">
        <ele>1481.67696487</ele>
        <time>2015-05-06T16:01:08Z</time>
      </trkpt>
      <trkpt lat="45.4387" lon="5.92196">
        <ele>1481.67696487</ele>
        <time>2015-05-06T16:01:12Z</time>
      </trkpt>
      <trkpt lat="45.43868" lon="5.92192">
        <ele>1481.67696487</ele>
        <time>2015-05-06T16:01:18Z</time>
      </trkpt>
      <trkpt lat="45.43863" lon="5.92183">
        <ele>1487.045663978</ele>
        <time>2015-05-06T16:01:23Z</time>
      </trkpt>
      <trkpt lat="45.4386" lon="5.92177">
        <ele>1487.045663978</ele>
        <time>2015-05-06T16:01:28Z</time>
      </trkpt>
      <trkpt lat="45.43848" lon="5.92172">
        <ele>1491.81069769</ele>
        <time>2015-05-06T16:01:33Z</time>
      </trkpt>
      <trkpt lat="45.43846" lon="5.9217">
        <ele>1491.81069769</ele>
        <time>2015-05-06T16:01:38Z</time>
      </trkpt>
      <trkpt lat="45.43845" lon="5.92171">
        <ele>1491.81069769</ele>
        <time>2015-05-06T16:01:43Z</time>
      </trkpt>
      <trkpt lat="45.43844" lon="5.92171">
        <ele>1491.81069769</ele>
        <time>2015-05-06T16:01:48Z</time>
      </trkpt>
      <trkpt lat="45.43843" lon="5.92169">
        <ele>1491.81069769</ele>
        <time>2015-05-06T16:01:53Z</time>
      </trkpt>
      <trkpt lat="45.43843" lon="5.92168">
        <ele>1491.81069769</ele>
        <time>2015-05-06T16:01:58Z</time>
      </trkpt>
      <trkpt lat="45.43843" lon="5.92168">
        <ele>1491.81069769</ele>
        <time>2015-05-06T16:02:02Z</time>
      </trkpt>
      <trkpt lat="45.43843" lon="5.92168">
        <ele>1491.81069769</ele>
        <time>2015-05-06T16:02:08Z</time>
      </trkpt>
      <trkpt lat="45.43843" lon="5.92168">
        <ele>1491.81069769</ele>
        <time>2015-05-06T16:02:12Z</time>
      </trkpt>
      <trkpt lat="45.43843" lon="5.92168">
        <ele>1491.81069769</ele>
        <time>2015-05-06T16:02:18Z</time>
      </trkpt>
      <trkpt lat="45.4383" lon="5.92169">
        <ele>1496.575210145</ele>
        <time>2015-05-06T16:02:23Z</time>
      </trkpt>
      <trkpt lat="45.43824" lon="5.92159">
        <ele>1501.033505289</ele>
        <time>2015-05-06T16:02:28Z</time>
      </trkpt>
      <trkpt lat="45.43822" lon="5.92157">
        <ele>1501.033505289</ele>
        <time>2015-05-06T16:02:33Z</time>
      </trkpt>
      <trkpt lat="45.43822" lon="5.92154">
        <ele>1501.033505289</ele>
        <time>2015-05-06T16:02:38Z</time>
      </trkpt>
      <trkpt lat="45.4382" lon="5.92153">
        <ele>1501.033505289</ele>
        <time>2015-05-06T16:02:42Z</time>
      </trkpt>
      <trkpt lat="45.43817" lon="5.92152">
        <ele>1505.47983399</ele>
        <time>2015-05-06T16:02:48Z</time>
      </trkpt>
      <trkpt lat="45.43813" lon="5.92151">
        <ele>1505.47983399</ele>
        <time>2015-05-06T16:02:53Z</time>
      </trkpt>
      <trkpt lat="45.43808" lon="5.92144">
        <ele>1509.466523435</ele>
        <time>2015-05-06T16:02:58Z</time>
      </trkpt>
      <trkpt lat="45.43806" lon="5.92144">
        <ele>1509.466523435</ele>
        <time>2015-05-06T16:03:03Z</time>
      </trkpt>
      <trkpt lat="45.43801" lon="5.92145">
        <ele>1509.466523435</ele>
        <time>2015-05-06T16:03:07Z</time>
      </trkpt>
      <trkpt lat="45.43798" lon="5.92147">
        <ele>1513.589109823</ele>
        <time>2015-05-06T16:03:13Z</time>
      </trkpt>
      <trkpt lat="45.43794" lon="5.92146">
        <ele>1513.589109823</ele>
        <time>2015-05-06T16:03:18Z</time>
      </trkpt>
      <trkpt lat="45.43791" lon="5.92154">
        <ele>1517.246382301</ele>
        <time>2015-05-06T16:03:23Z</time>
      </trkpt>
      <trkpt lat="45.43785" lon="5.92155">
        <ele>1517.246382301</ele>
        <time>2015-05-06T16:03:28Z</time>
      </trkpt>
      <trkpt lat="45.43782" lon="5.92161">
        <ele>1520.315234151</ele>
        <time>2015-05-06T16:03:33Z</time>
      </trkpt>
      <trkpt lat="45.43778" lon="5.92165">
        <ele>1520.315234151</ele>
        <time>2015-05-06T16:03:38Z</time>
      </trkpt>
      <trkpt lat="45.43777" lon="5.9217">
        <ele>1523.404124964</ele>
        <time>2015-05-06T16:03:43Z</time>
      </trkpt>
      <trkpt lat="45.43776" lon="5.92173">
        <ele>1523.404124964</ele>
        <time>2015-05-06T16:03:48Z</time>
      </trkpt>
      <trkpt lat="45.43777" lon="5.9218">
        <ele>1523.404124964</ele>
        <time>2015-05-06T16:03:53Z</time>
      </trkpt>
      <trkpt lat="45.4378" lon="5.92185">
        <ele>1526.212418324</ele>
        <time>2015-05-06T16:03:57Z</time>
      </trkpt>
      <trkpt lat="45.4378" lon="5.92191">
        <ele>1526.212418324</ele>
        <time>2015-05-06T16:04:01Z</time>
      </trkpt>
      <trkpt lat="45.43783" lon="5.92198">
        <ele>1529.039130427</ele>
        <time>2015-05-06T16:04:06Z</time>
      </trkpt>
      <trkpt lat="45.43782" lon="5.92206">
        <ele>1529.039130427</ele>
        <time>2015-05-06T16:04:11Z</time>
      </trkpt>
      <trkpt lat="45.43781" lon="5.92214">
        <ele>1531.58515429</ele>
        <time>2015-05-06T16:04:18Z</time>
      </trkpt>
      <trkpt lat="45.4377" lon="5.92219">
        <ele>1533.430372446</ele>
        <time>2015-05-06T16:04:23Z</time>
      </trkpt>
      <trkpt lat="45.43765" lon="5.92221">
        <ele>1533.430372446</ele>
        <time>2015-05-06T16:04:28Z</time>
      </trkpt>
      <trkpt lat="45.43764" lon="5.92227">
        <ele>1535.484835876</ele>
        <time>2015-05-06T16:04:33Z</time>
      </trkpt>
      <trkpt lat="45.43759" lon="5.92229">
        <ele>1535.484835876</ele>
        <time>2015-05-06T16:04:38Z</time>
      </trkpt>
      <trkpt lat="45.43756" lon="5.92231">
        <ele>1535.484835876</ele>
        <time>2015-05-06T16:04:42Z</time>
      </trkpt>
      <trkpt lat="45.43757" lon="5.9224">
        <ele>1536.42982119</ele>
        <time>2015-05-06T16:04:47Z</time>
      </trkpt>
      <trkpt lat="45.43754" lon="5.92244">
        <ele>1536.42982119</ele>
        <time>2015-05-06T16:04:53Z</time>
      </trkpt>
      <trkpt lat="45.43751" lon="5.92245">
        <ele>1536.42982119</ele>
        <time>2015-05-06T16:04:58Z</time>
      </trkpt>
      <trkpt lat="45.4375" lon="5.92251">
        <ele>1537.496805548</ele>
        <time>2015-05-06T16:05:02Z</time>
      </trkpt>
      <trkpt lat="45.43743" lon="5.92251">
        <ele>1537.496805548</ele>
        <time>2015-05-06T16:05:08Z</time>
      </trkpt>
      <trkpt lat="45.43738" lon="5.92254">
        <ele>1538.962105511</ele>
        <time>2015-05-06T16:05:12Z</time>
      </trkpt>
      <trkpt lat="45.43727" lon="5.9225">
        <ele>1540.360366348</ele>
        <time>2015-05-06T16:05:18Z</time>
      </trkpt>
      <trkpt lat="45.43727" lon="5.92256">
        <ele>1540.360366348</ele>
        <time>2015-05-06T16:05:23Z</time>
      </trkpt>
      <trkpt lat="45.43716" lon="5.92253">
        <ele>1541.981449508</ele>
        <time>2015-05-06T16:05:27Z</time>
      </trkpt>
      <trkpt lat="45.43714" lon="5.92254">
        <ele>1541.981449508</ele>
        <time>2015-05-06T16:05:33Z</time>
      </trkpt>
      <trkpt lat="45.4371" lon="5.92253">
        <ele>1541.981449508</ele>
        <time>2015-05-06T16:05:37Z</time>
      </trkpt>
      <trkpt lat="45.43706" lon="5.92252">
        <ele>1543.805352007</ele>
        <time>2015-05-06T16:05:42Z</time>
      </trkpt>
      <trkpt lat="45.43703" lon="5.92248">
        <ele>1543.805352007</ele>
        <time>2015-05-06T16:05:47Z</time>
      </trkpt>
      <trkpt lat="45.43701" lon="5.92247">
        <ele>1543.805352007</ele>
        <time>2015-05-06T16:05:53Z</time>
      </trkpt>
      <trkpt lat="45.43699" lon="5.92249">
        <ele>1543.805352007</ele>
        <time>2015-05-06T16:05:58Z</time>
      </trkpt>
      <trkpt lat="45.43694" lon="5.9225">
        <ele>1546.389683501</ele>
        <time>2015-05-06T16:06:02Z</time>
      </trkpt>
      <trkpt lat="45.4369" lon="5.92241">
        <ele>1546.389683501</ele>
        <time>2015-05-06T16:06:08Z</time>
      </trkpt>
      <trkpt lat="45.43691" lon="5.92235">
        <ele>1548.375772175</ele>
        <time>2015-05-06T16:06:13Z</time>
      </trkpt>
      <trkpt lat="45.43687" lon="5.92233">
        <ele>1548.375772175</ele>
        <time>2015-05-06T16:06:18Z</time>
      </trkpt>
      <trkpt lat="45.43684" lon="5.92237">
        <ele>1548.375772175</ele>
        <time>2015-05-06T16:06:22Z</time>
      </trkpt>
      <trkpt lat="45.43679" lon="5.92235">
        <ele>1550.380129815</ele>
        <time>2015-05-06T16:06:28Z</time>
      </trkpt>
      <trkpt lat="45.43679" lon="5.92233">
        <ele>1550.380129815</ele>
        <time>2015-05-06T16:06:33Z</time>
      </trkpt>
      <trkpt lat="45.43669" lon="5.92226">
        <ele>1551.965394997</ele>
        <time>2015-05-06T16:06:38Z</time>
      </trkpt>
      <trkpt lat="45.43667" lon="5.92221">
        <ele>1551.965394997</ele>
        <time>2015-05-06T16:06:43Z</time>
      </trkpt>
      <trkpt lat="45.43666" lon="5.92217">
        <ele>1551.965394997</ele>
        <time>2015-05-06T16:06:48Z</time>
      </trkpt>
      <trkpt lat="45.43664" lon="5.92211">
        <ele>1553.448303326</ele>
        <time>2015-05-06T16:06:53Z</time>
      </trkpt>
      <trkpt lat="45.43661" lon="5.92205">
        <ele>1553.448303326</ele>
        <time>2015-05-06T16:06:58Z</time>
      </trkpt>
      <trkpt lat="45.43658" lon="5.92205">
        <ele>1553.448303326</ele>
        <time>2015-05-06T16:07:02Z</time>
      </trkpt>
      <trkpt lat="45.43654" lon="5.92203">
        <ele>1554.690503019</ele>
        <time>2015-05-06T16:07:07Z</time>
      </trkpt>
      <trkpt lat="45.43652" lon="5.92202">
        <ele>1554.690503019</ele>
        <time>2015-05-06T16:07:11Z</time>
      </trkpt>
      <trkpt lat="45.43648" lon="5.92198">
        <ele>1554.690503019</ele>
        <time>2015-05-06T16:07:17Z</time>
      </trkpt>
      <trkpt lat="45.43644" lon="5.92197">
        <ele>1556.573475245</ele>
        <time>2015-05-06T16:07:22Z</time>
      </trkpt>
      <trkpt lat="45.43643" lon="5.92194">
        <ele>1556.573475245</ele>
        <time>2015-05-06T16:07:27Z</time>
      </trkpt>
      <trkpt lat="45.4364" lon="5.92188">
        <ele>1556.573475245</ele>
        <time>2015-05-06T16:07:33Z</time>
      </trkpt>
      <trkpt lat="45.43637" lon="5.92185">
        <ele>1557.894796876</ele>
        <time>2015-05-06T16:07:38Z</time>
      </trkpt>
      <trkpt lat="45.43634" lon="5.92184">
        <ele>1557.894796876</ele>
        <time>2015-05-06T16:07:43Z</time>
      </trkpt>
      <trkpt lat="45.43632" lon="5.92188">
        <ele>1557.894796876</ele>
        <time>2015-05-06T16:07:47Z</time>
      </trkpt>
      <trkpt lat="45.43626" lon="5.92189">
        <ele>1558.550919448</ele>
        <time>2015-05-06T16:07:53Z</time>
      </trkpt>
      <trkpt lat="45.43618" lon="5.92193">
        <ele>1558.550919448</ele>
        <time>2015-05-06T16:07:57Z</time>
      </trkpt>
      <trkpt lat="45.43614" lon="5.92194">
        <ele>1558.592054936</ele>
        <time>2015-05-06T16:08:02Z</time>
      </trkpt>
      <trkpt lat="45.43615" lon="5.92197">
        <ele>1558.592054936</ele>
        <time>2015-05-06T16:08:07Z</time>
      </trkpt>
      <trkpt lat="45.4361" lon="5.92199">
        <ele>1558.592054936</ele>
        <time>2015-05-06T16:08:13Z</time>
      </trkpt>
      <trkpt lat="45.43604" lon="5.92194">
        <ele>1558.643057122</ele>
        <time>2015-05-06T16:08:18Z</time>
      </trkpt>
      <trkpt lat="45.43605" lon="5.92201">
        <ele>1558.643057122</ele>
        <time>2015-05-06T16:08:23Z</time>
      </trkpt>
      <trkpt lat="45.43604" lon="5.92203">
        <ele>1558.643057122</ele>
        <time>2015-05-06T16:08:28Z</time>
      </trkpt>
      <trkpt lat="45.43595" lon="5.92206">
        <ele>1557.841877656</ele>
        <time>2015-05-06T16:08:32Z</time>
      </trkpt>
      <trkpt lat="45.43593" lon="5.9221">
        <ele>1557.841877656</ele>
        <time>2015-05-06T16:08:37Z</time>
      </trkpt>
      <trkpt lat="45.43592" lon="5.92211">
        <ele>1557.841877656</ele>
        <time>2015-05-06T16:08:43Z</time>
      </trkpt>
      <trkpt lat="45.43594" lon="5.9222">
        <ele>1557.698082777</ele>
        <time>2015-05-06T16:08:48Z</time>
      </trkpt>
      <trkpt lat="45.43599" lon="5.92229">
        <ele>1557.698082777</ele>
        <time>2015-05-06T16:08:53Z</time>
      </trkpt>
      <trkpt lat="45.43594" lon="5.92231">
        <ele>1557.01459524</ele>
        <time>2015-05-06T16:08:58Z</time>
      </trkpt>
      <trkpt lat="45.43589" lon="5.92232">
        <ele>1557.01459524</ele>
        <time>2015-05-06T16:09:03Z</time>
      </trkpt>
      <trkpt lat="45.43589" lon="5.92237">
        <ele>1557.01459524</ele>
        <time>2015-05-06T16:09:08Z</time>
      </trkpt>
      <trkpt lat="45.43585" lon="5.92241">
        <ele>1556.557308209</ele>
        <time>2015-05-06T16:09:13Z</time>
      </trkpt>
      <trkpt lat="45.43578" lon="5.92244">
        <ele>1556.557308209</ele>
        <time>2015-05-06T16:09:18Z</time>
      </trkpt>
      <trkpt lat="45.43577" lon="5.92253">
        <ele>1556.026491356</ele>
        <time>2015-05-06T16:09:22Z</time>
      </trkpt>
      <trkpt lat="45.43574" lon="5.92259">
        <ele>1556.026491356</ele>
        <time>2015-05-06T16:09:28Z</time>
      </trkpt>
      <trkpt lat="45.4357" lon="5.92265">
        <ele>1555.4328934</ele>
        <time>2015-05-06T16:09:33Z</time>
      </trkpt>
      <trkpt lat="45.43565" lon="5.92269">
        <ele>1555.4328934</ele>
        <time>2015-05-06T16:09:38Z</time>
      </trkpt>
      <trkpt lat="45.43557" lon="5.9227">
        <ele>1554.930774321</ele>
        <time>2015-05-06T16:09:43Z</time>
      </trkpt>
      <trkpt lat="45.43554" lon="5.92266">
        <ele>1554.930774321</ele>
        <time>2015-05-06T16:09:47Z</time>
      </trkpt>
      <trkpt lat="45.43553" lon="5.92263">
        <ele>1554.930774321</ele>
        <time>2015-05-06T16:09:51Z</time>
      </trkpt>
      <trkpt lat="45.4355" lon="5.92261">
        <ele>1554.086356321</ele>
        <time>2015-05-06T16:09:57Z</time>
      </trkpt>
      <trkpt lat="45.4355" lon="5.92261">
        <ele>1554.086356321</ele>
        <time>2015-05-06T16:10:03Z</time>
      </trkpt>
      <trkpt lat="45.4355" lon="5.92261">
        <ele>1554.086356321</ele>
        <time>2015-05-06T16:10:08Z</time>
      </trkpt>
      <trkpt lat="45.4355" lon="5.92261">
        <ele>1554.086356321</ele>
        <time>2015-05-06T16:10:13Z</time>
      </trkpt>
      <trkpt lat="45.4355" lon="5.92261">
        <ele>1554.086356321</ele>
        <time>2015-05-06T16:10:18Z</time>
      </trkpt>
      <trkpt lat="45.4355" lon="5.92261">
        <ele>1554.086356321</ele>
        <time>2015-05-06T16:10:23Z</time>
      </trkpt>
      <trkpt lat="45.4355" lon="5.92261">
        <ele>1554.086356321</ele>
        <time>2015-05-06T16:10:26Z</time>
      </trkpt>
      <trkpt lat="45.43549" lon="5.92274">
        <ele>1553.507444908</ele>
        <time>2015-05-06T16:10:33Z</time>
      </trkpt>
      <trkpt lat="45.43548" lon="5.92282">
        <ele>1553.507444908</ele>
        <time>2015-05-06T16:10:37Z</time>
      </trkpt>
      <trkpt lat="45.43544" lon="5.92289">
        <ele>1552.891748023</ele>
        <time>2015-05-06T16:10:43Z</time>
      </trkpt>
      <trkpt lat="45.43542" lon="5.92297">
        <ele>1552.891748023</ele>
        <time>2015-05-06T16:10:48Z</time>
      </trkpt>
      <trkpt lat="45.43541" lon="5.92303">
        <ele>1551.959232072</ele>
        <time>2015-05-06T16:10:53Z</time>
      </trkpt>
      <trkpt lat="45.43538" lon="5.92311">
        <ele>1551.959232072</ele>
        <time>2015-05-06T16:10:58Z</time>
      </trkpt>
      <trkpt lat="45.43536" lon="5.92319">
        <ele>1550.739480421</ele>
        <time>2015-05-06T16:11:02Z</time>
      </trkpt>
      <trkpt lat="45.43535" lon="5.92326">
        <ele>1550.739480421</ele>
        <time>2015-05-06T16:11:08Z</time>
      </trkpt>
      <trkpt lat="45.43532" lon="5.9233">
        <ele>1550.739480421</ele>
        <time>2015-05-06T16:11:12Z</time>
      </trkpt>
      <trkpt lat="45.43532" lon="5.92332">
        <ele>1549.692963708</ele>
        <time>2015-05-06T16:11:16Z</time>
      </trkpt>
      <trkpt lat="45.43531" lon="5.92338">
        <ele>1549.692963708</ele>
        <time>2015-05-06T16:11:23Z</time>
      </trkpt>
      <trkpt lat="45.43528" lon="5.9234">
        <ele>1549.692963708</ele>
        <time>2015-05-06T16:11:27Z</time>
      </trkpt>
      <trkpt lat="45.43526" lon="5.92342">
        <ele>1549.10163787</ele>
        <time>2015-05-06T16:11:32Z</time>
      </trkpt>
      <trkpt lat="45.43524" lon="5.92346">
        <ele>1549.10163787</ele>
        <time>2015-05-06T16:11:37Z</time>
      </trkpt>
      <trkpt lat="45.43524" lon="5.92353">
        <ele>1549.10163787</ele>
        <time>2015-05-06T16:11:42Z</time>
      </trkpt>
      <trkpt lat="45.43525" lon="5.92359">
        <ele>1548.360699144</ele>
        <time>2015-05-06T16:11:47Z</time>
      </trkpt>
      <trkpt lat="45.4352" lon="5.92357">
        <ele>1548.360699144</ele>
        <time>2015-05-06T16:11:52Z</time>
      </trkpt>
      <trkpt lat="45.43516" lon="5.92348">
        <ele>1547.630635243</ele>
        <time>2015-05-06T16:11:57Z</time>
      </trkpt>
      <trkpt lat="45.43514" lon="5.92344">
        <ele>1547.630635243</ele>
        <time>2015-05-06T16:12:02Z</time>
      </trkpt>
      <trkpt lat="45.4351" lon="5.9235">
        <ele>1547.059993662</ele>
        <time>2015-05-06T16:12:07Z</time>
      </trkpt>
      <trkpt lat="45.43501" lon="5.92349">
        <ele>1547.059993662</ele>
        <time>2015-05-06T16:12:12Z</time>
      </trkpt>
      <trkpt lat="45.43498" lon="5.92354">
        <ele>1546.353502256</ele>
        <time>2015-05-06T16:12:17Z</time>
      </trkpt>
      <trkpt lat="45.43497" lon="5.92356">
        <ele>1546.353502256</ele>
        <time>2015-05-06T16:12:22Z</time>
      </trkpt>
      <trkpt lat="45.43496" lon="5.92354">
        <ele>1546.353502256</ele>
        <time>2015-05-06T16:12:27Z</time>
      </trkpt>
      <trkpt lat="45.4349" lon="5.92351">
        <ele>1546.390719325</ele>
        <time>2015-05-06T16:12:32Z</time>
      </trkpt>
      <trkpt lat="45.43488" lon="5.92348">
        <ele>1546.390719325</ele>
        <time>2015-05-06T16:12:37Z</time>
      </trkpt>
      <trkpt lat="45.43485" lon="5.92346">
        <ele>1546.390719325</ele>
        <time>2015-05-06T16:12:42Z</time>
      </trkpt>
      <trkpt lat="45.43481" lon="5.92348">
        <ele>1546.543260163</ele>
        <time>2015-05-06T16:12:47Z</time>
      </trkpt>
      <trkpt lat="45.43479" lon="5.92348">
        <ele>1546.543260163</ele>
        <time>2015-05-06T16:12:52Z</time>
      </trkpt>
      <trkpt lat="45.43476" lon="5.9235">
        <ele>1546.543260163</ele>
        <time>2015-05-06T16:12:57Z</time>
      </trkpt>
      <trkpt lat="45.43472" lon="5.92352">
        <ele>1546.22844371</ele>
        <time>2015-05-06T16:13:02Z</time>
      </trkpt>
      <trkpt lat="45.43466" lon="5.92355">
        <ele>1546.22844371</ele>
        <time>2015-05-06T16:13:07Z</time>
      </trkpt>
      <trkpt lat="45.4346" lon="5.92358">
        <ele>1545.772237193</ele>
        <time>2015-05-06T16:13:12Z</time>
      </trkpt>
      <trkpt lat="45.4346" lon="5.92361">
        <ele>1545.772237193</ele>
        <time>2015-05-06T16:13:17Z</time>
      </trkpt>
      <trkpt lat="45.43454" lon="5.92362">
        <ele>1546.053372569</ele>
        <time>2015-05-06T16:13:22Z</time>
      </trkpt>
      <trkpt lat="45.43445" lon="5.92355">
        <ele>1546.154498751</ele>
        <time>2015-05-06T16:13:26Z</time>
      </trkpt>
      <trkpt lat="45.43439" lon="5.9235">
        <ele>1546.154498751</ele>
        <time>2015-05-06T16:13:33Z</time>
      </trkpt>
      <trkpt lat="45.43439" lon="5.92347">
        <ele>1546.154498751</ele>
        <time>2015-05-06T16:13:37Z</time>
      </trkpt>
      <trkpt lat="45.43436" lon="5.92344">
        <ele>1546.667143463</ele>
        <time>2015-05-06T16:13:42Z</time>
      </trkpt>
      <trkpt lat="45.43438" lon="5.92339">
        <ele>1546.667143463</ele>
        <time>2015-05-06T16:13:47Z</time>
      </trkpt>
      <trkpt lat="45.43435" lon="5.92331">
        <ele>1547.273438645</ele>
        <time>2015-05-06T16:13:52Z</time>
      </trkpt>
      <trkpt lat="45.43429" lon="5.9232">
        <ele>1547.390266338</ele>
        <time>2015-05-06T16:13:57Z</time>
      </trkpt>
      <trkpt lat="45.43434" lon="5.92315">
        <ele>1547.390266338</ele>
        <time>2015-05-06T16:14:02Z</time>
      </trkpt>
      <trkpt lat="45.43433" lon="5.92308">
        <ele>1548.207942993</ele>
        <time>2015-05-06T16:14:07Z</time>
      </trkpt>
      <trkpt lat="45.43425" lon="5.92304">
        <ele>1548.207942993</ele>
        <time>2015-05-06T16:14:12Z</time>
      </trkpt>
      <trkpt lat="45.43426" lon="5.92305">
        <ele>1549.530278575</ele>
        <time>2015-05-06T16:14:17Z</time>
      </trkpt>
      <trkpt lat="45.43426" lon="5.92302">
        <ele>1549.530278575</ele>
        <time>2015-05-06T16:14:22Z</time>
      </trkpt>
      <trkpt lat="45.43425" lon="5.92297">
        <ele>1549.530278575</ele>
        <time>2015-05-06T16:14:27Z</time>
      </trkpt>
      <trkpt lat="45.43421" lon="5.92294">
        <ele>1550.741655037</ele>
        <time>2015-05-06T16:14:32Z</time>
      </trkpt>
      <trkpt lat="45.43419" lon="5.92295">
        <ele>1550.741655037</ele>
        <time>2015-05-06T16:14:37Z</time>
      </trkpt>
      <trkpt lat="45.43414" lon="5.92291">
        <ele>1550.741655037</ele>
        <time>2015-05-06T16:14:42Z</time>
      </trkpt>
      <trkpt lat="45.43408" lon="5.92286">
        <ele>1551.992463956</ele>
        <time>2015-05-06T16:14:47Z</time>
      </trkpt>
      <trkpt lat="45.43411" lon="5.92282">
        <ele>1551.992463956</ele>
        <time>2015-05-06T16:14:52Z</time>
      </trkpt>
      <trkpt lat="45.43403" lon="5.9228">
        <ele>1553.133647251</ele>
        <time>2015-05-06T16:14:57Z</time>
      </trkpt>
      <trkpt lat="45.43405" lon="5.92273">
        <ele>1553.133647251</ele>
        <time>2015-05-06T16:15:02Z</time>
      </trkpt>
      <trkpt lat="45.43404" lon="5.92279">
        <ele>1554.459680041</ele>
        <time>2015-05-06T16:15:07Z</time>
      </trkpt>
      <trkpt lat="45.434" lon="5.92275">
        <ele>1554.459680041</ele>
        <time>2015-05-06T16:15:12Z</time>
      </trkpt>
      <trkpt lat="45.43399" lon="5.92269">
        <ele>1555.95461804</ele>
        <time>2015-05-06T16:15:17Z</time>
      </trkpt>
      <trkpt lat="45.434" lon="5.92269">
        <ele>1555.95461804</ele>
        <time>2015-05-06T16:15:22Z</time>
      </trkpt>
      <trkpt lat="45.43399" lon="5.9227">
        <ele>1555.95461804</ele>
        <time>2015-05-06T16:15:27Z</time>
      </trkpt>
      <trkpt lat="45.43398" lon="5.92271">
        <ele>1555.95461804</ele>
        <time>2015-05-06T16:15:32Z</time>
      </trkpt>
      <trkpt lat="45.43392" lon="5.92268">
        <ele>1557.314956036</ele>
        <time>2015-05-06T16:15:37Z</time>
      </trkpt>
      <trkpt lat="45.43384" lon="5.92261">
        <ele>1558.692169455</ele>
        <time>2015-05-06T16:15:42Z</time>
      </trkpt>
      <trkpt lat="45.43383" lon="5.92255">
        <ele>1558.692169455</ele>
        <time>2015-05-06T16:15:47Z</time>
      </trkpt>
      <trkpt lat="45.43381" lon="5.92246">
        <ele>1560.514766297</ele>
        <time>2015-05-06T16:15:52Z</time>
      </trkpt>
      <trkpt lat="45.43379" lon="5.92245">
        <ele>1560.514766297</ele>
        <time>2015-05-06T16:15:57Z</time>
      </trkpt>
      <trkpt lat="45.43378" lon="5.92241">
        <ele>1560.514766297</ele>
        <time>2015-05-06T16:16:02Z</time>
      </trkpt>
      <trkpt lat="45.43373" lon="5.92237">
        <ele>1562.457966908</ele>
        <time>2015-05-06T16:16:07Z</time>
      </trkpt>
      <trkpt lat="45.43375" lon="5.92235">
        <ele>1562.457966908</ele>
        <time>2015-05-06T16:16:12Z</time>
      </trkpt>
      <trkpt lat="45.43376" lon="5.92233">
        <ele>1562.457966908</ele>
        <time>2015-05-06T16:16:17Z</time>
      </trkpt>
      <trkpt lat="45.43378" lon="5.92235">
        <ele>1562.457966908</ele>
        <time>2015-05-06T16:16:22Z</time>
      </trkpt>
      <trkpt lat="45.43368" lon="5.92228">
        <ele>1563.211737558</ele>
        <time>2015-05-06T16:16:27Z</time>
      </trkpt>
      <trkpt lat="45.43366" lon="5.92227">
        <ele>1563.211737558</ele>
        <time>2015-05-06T16:16:32Z</time>
      </trkpt>
      <trkpt lat="45.43364" lon="5.92228">
        <ele>1563.211737558</ele>
        <time>2015-05-06T16:16:37Z</time>
      </trkpt>
      <trkpt lat="45.43365" lon="5.92228">
        <ele>1563.211737558</ele>
        <time>2015-05-06T16:16:42Z</time>
      </trkpt>
      <trkpt lat="45.43364" lon="5.92227">
        <ele>1563.211737558</ele>
        <time>2015-05-06T16:16:47Z</time>
      </trkpt>
      <trkpt lat="45.43364" lon="5.92226">
        <ele>1563.211737558</ele>
        <time>2015-05-06T16:16:52Z</time>
      </trkpt>
      <trkpt lat="45.43364" lon="5.92226">
        <ele>1563.211737558</ele>
        <time>2015-05-06T16:16:57Z</time>
      </trkpt>
      <trkpt lat="45.43356" lon="5.92218">
        <ele>1563.29496031</ele>
        <time>2015-05-06T16:17:02Z</time>
      </trkpt>
      <trkpt lat="45.43348" lon="5.92211">
        <ele>1562.75796117</ele>
        <time>2015-05-06T16:17:07Z</time>
      </trkpt>
      <trkpt lat="45.43345" lon="5.92208">
        <ele>1562.75796117</ele>
        <time>2015-05-06T16:17:12Z</time>
      </trkpt>
      <trkpt lat="45.43339" lon="5.92206">
        <ele>1562.513787499</ele>
        <time>2015-05-06T16:17:17Z</time>
      </trkpt>
      <trkpt lat="45.43334" lon="5.922">
        <ele>1562.513787499</ele>
        <time>2015-05-06T16:17:22Z</time>
      </trkpt>
      <trkpt lat="45.43333" lon="5.92199">
        <ele>1562.513787499</ele>
        <time>2015-05-06T16:17:27Z</time>
      </trkpt>
      <trkpt lat="45.43334" lon="5.92199">
        <ele>1562.513787499</ele>
        <time>2015-05-06T16:17:32Z</time>
      </trkpt>
      <trkpt lat="45.43334" lon="5.92199">
        <ele>1562.513787499</ele>
        <time>2015-05-06T16:17:37Z</time>
      </trkpt>
      <trkpt lat="45.43334" lon="5.92199">
        <ele>1562.513787499</ele>
        <time>2015-05-06T16:17:42Z</time>
      </trkpt>
      <trkpt lat="45.43334" lon="5.92199">
        <ele>1562.513787499</ele>
        <time>2015-05-06T16:17:47Z</time>
      </trkpt>
      <trkpt lat="45.43333" lon="5.92199">
        <ele>1562.513787499</ele>
        <time>2015-05-06T16:17:53Z</time>
      </trkpt>
      <trkpt lat="45.43333" lon="5.92199">
        <ele>1562.513787499</ele>
        <time>2015-05-06T16:17:57Z</time>
      </trkpt>
      <trkpt lat="45.4333" lon="5.92196">
        <ele>1563.551712526</ele>
        <time>2015-05-06T16:18:02Z</time>
      </trkpt>
      <trkpt lat="45.43324" lon="5.92186">
        <ele>1564.334856278</ele>
        <time>2015-05-06T16:18:07Z</time>
      </trkpt>
      <trkpt lat="45.43314" lon="5.92178">
        <ele>1564.304621136</ele>
        <time>2015-05-06T16:18:12Z</time>
      </trkpt>
      <trkpt lat="45.43316" lon="5.92177">
        <ele>1564.304621136</ele>
        <time>2015-05-06T16:18:17Z</time>
      </trkpt>
      <trkpt lat="45.43314" lon="5.92166">
        <ele>1563.378058813</ele>
        <time>2015-05-06T16:18:22Z</time>
      </trkpt>
      <trkpt lat="45.43309" lon="5.92156">
        <ele>1563.378058813</ele>
        <time>2015-05-06T16:18:27Z</time>
      </trkpt>
      <trkpt lat="45.43304" lon="5.92159">
        <ele>1562.921937189</ele>
        <time>2015-05-06T16:18:32Z</time>
      </trkpt>
      <trkpt lat="45.43303" lon="5.92156">
        <ele>1562.921937189</ele>
        <time>2015-05-06T16:18:37Z</time>
      </trkpt>
      <trkpt lat="45.43303" lon="5.92157">
        <ele>1562.921937189</ele>
        <time>2015-05-06T16:18:42Z</time>
      </trkpt>
      <trkpt lat="45.43303" lon="5.92156">
        <ele>1562.921937189</ele>
        <time>2015-05-06T16:18:47Z</time>
      </trkpt>
      <trkpt lat="45.43303" lon="5.92156">
        <ele>1562.921937189</ele>
        <time>2015-05-06T16:18:52Z</time>
      </trkpt>
      <trkpt lat="45.43302" lon="5.92156">
        <ele>1562.921937189</ele>
        <time>2015-05-06T16:18:57Z</time>
      </trkpt>
      <trkpt lat="45.43302" lon="5.92155">
        <ele>1562.921937189</ele>
        <time>2015-05-06T16:19:02Z</time>
      </trkpt>
      <trkpt lat="45.43302" lon="5.92155">
        <ele>1562.921937189</ele>
        <time>2015-05-06T16:19:07Z</time>
      </trkpt>
      <trkpt lat="45.43287" lon="5.92143">
        <ele>1563.192516144</ele>
        <time>2015-05-06T16:19:12Z</time>
      </trkpt>
      <trkpt lat="45.43274" lon="5.92137">
        <ele>1563.704623347</ele>
        <time>2015-05-06T16:19:17Z</time>
      </trkpt>
      <trkpt lat="45.43272" lon="5.9213">
        <ele>1563.704623347</ele>
        <time>2015-05-06T16:19:22Z</time>
      </trkpt>
      <trkpt lat="45.43269" lon="5.92127">
        <ele>1563.704623347</ele>
        <time>2015-05-06T16:19:27Z</time>
      </trkpt>
      <trkpt lat="45.43268" lon="5.92127">
        <ele>1564.584478655</ele>
        <time>2015-05-06T16:19:31Z</time>
      </trkpt>
      <trkpt lat="45.43261" lon="5.92131">
        <ele>1564.584478655</ele>
        <time>2015-05-06T16:19:36Z</time>
      </trkpt>
      <trkpt lat="45.43252" lon="5.92135">
        <ele>1565.659761811</ele>
        <time>2015-05-06T16:19:42Z</time>
      </trkpt>
      <trkpt lat="45.43245" lon="5.92137">
        <ele>1565.659761811</ele>
        <time>2015-05-06T16:19:48Z</time>
      </trkpt>
      <trkpt lat="45.43245" lon="5.92143">
        <ele>1566.626141141</ele>
        <time>2015-05-06T16:19:53Z</time>
      </trkpt>
      <trkpt lat="45.43242" lon="5.92147">
        <ele>1566.626141141</ele>
        <time>2015-05-06T16:19:58Z</time>
      </trkpt>
      <trkpt lat="45.43237" lon="5.92153">
        <ele>1567.634274146</ele>
        <time>2015-05-06T16:20:02Z</time>
      </trkpt>
      <trkpt lat="45.43233" lon="5.92159">
        <ele>1567.634274146</ele>
        <time>2015-05-06T16:20:08Z</time>
      </trkpt>
      <trkpt lat="45.43231" lon="5.92167">
        <ele>1568.103076414</ele>
        <time>2015-05-06T16:20:13Z</time>
      </trkpt>
      <trkpt lat="45.43229" lon="5.9217">
        <ele>1568.103076414</ele>
        <time>2015-05-06T16:20:18Z</time>
      </trkpt>
      <trkpt lat="45.43229" lon="5.92175">
        <ele>1568.103076414</ele>
        <time>2015-05-06T16:20:23Z</time>
      </trkpt>
      <trkpt lat="45.43226" lon="5.9218">
        <ele>1568.792665045</ele>
        <time>2015-05-06T16:20:28Z</time>
      </trkpt>
      <trkpt lat="45.43222" lon="5.92183">
        <ele>1568.792665045</ele>
        <time>2015-05-06T16:20:33Z</time>
      </trkpt>
      <trkpt lat="45.43223" lon="5.92194">
        <ele>1568.821480362</ele>
        <time>2015-05-06T16:20:37Z</time>
      </trkpt>
      <trkpt lat="45.43218" lon="5.92193">
        <ele>1568.821480362</ele>
        <time>2015-05-06T16:20:42Z</time>
      </trkpt>
      <trkpt lat="45.43207" lon="5.92191">
        <ele>1568.959801211</ele>
        <time>2015-05-06T16:20:48Z</time>
      </trkpt>
      <trkpt lat="45.43205" lon="5.92192">
        <ele>1568.959801211</ele>
        <time>2015-05-06T16:20:53Z</time>
      </trkpt>
      <trkpt lat="45.43203" lon="5.92191">
        <ele>1569.02591153</ele>
        <time>2015-05-06T16:20:58Z</time>
      </trkpt>
      <trkpt lat="45.432" lon="5.92193">
        <ele>1569.092021849</ele>
        <time>2015-05-06T16:21:03Z</time>
      </trkpt>
      <trkpt lat="45.43193" lon="5.92196">
        <ele>1569.158132168</ele>
        <time>2015-05-06T16:21:08Z</time>
      </trkpt>
      <trkpt lat="45.43191" lon="5.92199">
        <ele>1569.224242487</ele>
        <time>2015-05-06T16:21:12Z</time>
      </trkpt>
      <trkpt lat="45.4319" lon="5.92196">
        <ele>1569.290352806</ele>
        <time>2015-05-06T16:21:18Z</time>
      </trkpt>
      <trkpt lat="45.43184" lon="5.92199">
        <ele>1569.356463125</ele>
        <time>2015-05-06T16:21:23Z</time>
      </trkpt>
      <trkpt lat="45.4318" lon="5.92198">
        <ele>1569.422573444</ele>
        <time>2015-05-06T16:21:27Z</time>
      </trkpt>
      <trkpt lat="45.43173" lon="5.92199">
        <ele>1569.488683763</ele>
        <time>2015-05-06T16:21:33Z</time>
      </trkpt>
      <trkpt lat="45.43174" lon="5.92201">
        <ele>1569.488683763</ele>
        <time>2015-05-06T16:21:38Z</time>
      </trkpt>
      <trkpt lat="45.43168" lon="5.92206">
        <ele>1569.488683763</ele>
        <time>2015-05-06T16:21:43Z</time>
      </trkpt>
      <trkpt lat="45.43168" lon="5.92206">
        <ele>1569.933952772</ele>
        <time>2015-05-06T16:21:48Z</time>
      </trkpt>
      <trkpt lat="45.43173" lon="5.92212">
        <ele>1570.379221781</ele>
        <time>2015-05-06T16:21:53Z</time>
      </trkpt>
      <trkpt lat="45.43169" lon="5.92216">
        <ele>1570.379221781</ele>
        <time>2015-05-06T16:21:57Z</time>
      </trkpt>
      <trkpt lat="45.43169" lon="5.9222">
        <ele>1570.624101516</ele>
        <time>2015-05-06T16:22:02Z</time>
      </trkpt>
      <trkpt lat="45.43171" lon="5.92214">
        <ele>1570.868981252</ele>
        <time>2015-05-06T16:22:08Z</time>
      </trkpt>
      <trkpt lat="45.43169" lon="5.92207">
        <ele>1571.113860987</ele>
        <time>2015-05-06T16:22:13Z</time>
      </trkpt>
      <trkpt lat="45.43172" lon="5.92208">
        <ele>1571.358740722</ele>
        <time>2015-05-06T16:22:18Z</time>
      </trkpt>
      <trkpt lat="45.43165" lon="5.92209">
        <ele>1571.603620458</ele>
        <time>2015-05-06T16:22:23Z</time>
      </trkpt>
      <trkpt lat="45.43167" lon="5.92208">
        <ele>1571.603620458</ele>
        <time>2015-05-06T16:22:27Z</time>
      </trkpt>
      <trkpt lat="45.43166" lon="5.92208">
        <ele>1571.603620458</ele>
        <time>2015-05-06T16:22:31Z</time>
      </trkpt>
      <trkpt lat="45.43166" lon="5.92208">
        <ele>1571.603620458</ele>
        <time>2015-05-06T16:22:36Z</time>
      </trkpt>
      <trkpt lat="45.43166" lon="5.92208">
        <ele>1571.603620458</ele>
        <time>2015-05-06T16:22:41Z</time>
      </trkpt>
      <trkpt lat="45.43166" lon="5.92208">
        <ele>1571.603620458</ele>
        <time>2015-05-06T16:22:46Z</time>
      </trkpt>
      <trkpt lat="45.43166" lon="5.92208">
        <ele>1571.603620458</ele>
        <time>2015-05-06T16:22:51Z</time>
      </trkpt>
      <trkpt lat="45.43166" lon="5.92208">
        <ele>1571.603620458</ele>
        <time>2015-05-06T16:22:57Z</time>
      </trkpt>
      <trkpt lat="45.43165" lon="5.92208">
        <ele>1571.603620458</ele>
        <time>2015-05-06T16:23:03Z</time>
      </trkpt>
      <trkpt lat="45.43164" lon="5.92208">
        <ele>1571.603620458</ele>
        <time>2015-05-06T16:23:07Z</time>
      </trkpt>
      <trkpt lat="45.43164" lon="5.92208">
        <ele>1571.603620458</ele>
        <time>2015-05-06T16:23:12Z</time>
      </trkpt>
      <trkpt lat="45.43164" lon="5.92208">
        <ele>1571.603620458</ele>
        <time>2015-05-06T16:23:17Z</time>
      </trkpt>
      <trkpt lat="45.43164" lon="5.92208">
        <ele>1571.603620458</ele>
        <time>2015-05-06T16:23:23Z</time>
      </trkpt>
      <trkpt lat="45.43164" lon="5.92208">
        <ele>1571.603620458</ele>
        <time>2015-05-06T16:23:28Z</time>
      </trkpt>
      <trkpt lat="45.43164" lon="5.92208">
        <ele>1571.603620458</ele>
        <time>2015-05-06T16:23:33Z</time>
      </trkpt>
      <trkpt lat="45.43164" lon="5.92208">
        <ele>1571.603620458</ele>
        <time>2015-05-06T16:23:38Z</time>
      </trkpt>
      <trkpt lat="45.43164" lon="5.92208">
        <ele>1571.603620458</ele>
        <time>2015-05-06T16:23:43Z</time>
      </trkpt>
      <trkpt lat="45.43164" lon="5.92208">
        <ele>1571.603620458</ele>
        <time>2015-05-06T16:23:47Z</time>
      </trkpt>
      <trkpt lat="45.43164" lon="5.92208">
        <ele>1571.603620458</ele>
        <time>2015-05-06T16:23:53Z</time>
      </trkpt>
      <trkpt lat="45.43164" lon="5.92208">
        <ele>1571.603620458</ele>
        <time>2015-05-06T16:23:58Z</time>
      </trkpt>
      <trkpt lat="45.43143" lon="5.92204">
        <ele>1572.702861831</ele>
        <time>2015-05-06T16:24:02Z</time>
      </trkpt>
      <trkpt lat="45.43125" lon="5.92206">
        <ele>1573.828452231</ele>
        <time>2015-05-06T16:24:07Z</time>
      </trkpt>
      <trkpt lat="45.4312" lon="5.92211">
        <ele>1573.828452231</ele>
        <time>2015-05-06T16:24:13Z</time>
      </trkpt>
      <trkpt lat="45.43122" lon="5.92213">
        <ele>1574.832486063</ele>
        <time>2015-05-06T16:24:18Z</time>
      </trkpt>
      <trkpt lat="45.4312" lon="5.9221">
        <ele>1574.832486063</ele>
        <time>2015-05-06T16:24:23Z</time>
      </trkpt>
      <trkpt lat="45.43118" lon="5.92209">
        <ele>1574.832486063</ele>
        <time>2015-05-06T16:24:28Z</time>
      </trkpt>
      <trkpt lat="45.43118" lon="5.92208">
        <ele>1574.832486063</ele>
        <time>2015-05-06T16:24:32Z</time>
      </trkpt>
      <trkpt lat="45.43117" lon="5.92207">
        <ele>1574.832486063</ele>
        <time>2015-05-06T16:24:37Z</time>
      </trkpt>
      <trkpt lat="45.43111" lon="5.92204">
        <ele>1576.154727187</ele>
        <time>2015-05-06T16:24:43Z</time>
      </trkpt>
      <trkpt lat="45.43098" lon="5.92195">
        <ele>1577.481209352</ele>
        <time>2015-05-06T16:24:48Z</time>
      </trkpt>
      <trkpt lat="45.43093" lon="5.92194">
        <ele>1577.481209352</ele>
        <time>2015-05-06T16:24:53Z</time>
      </trkpt>
      <trkpt lat="45.43083" lon="5.92192">
        <ele>1577.800488304</ele>
        <time>2015-05-06T16:24:58Z</time>
      </trkpt>
      <trkpt lat="45.43082" lon="5.92191">
        <ele>1577.800488304</ele>
        <time>2015-05-06T16:25:03Z</time>
      </trkpt>
      <trkpt lat="45.43078" lon="5.92186">
        <ele>1577.800488304</ele>
        <time>2015-05-06T16:25:07Z</time>
      </trkpt>
      <trkpt lat="45.43076" lon="5.92185">
        <ele>1578.916386497</ele>
        <time>2015-05-06T16:25:12Z</time>
      </trkpt>
      <trkpt lat="45.43071" lon="5.92182">
        <ele>1578.916386497</ele>
        <time>2015-05-06T16:25:18Z</time>
      </trkpt>
      <trkpt lat="45.43071" lon="5.92185">
        <ele>1578.916386497</ele>
        <time>2015-05-06T16:25:23Z</time>
      </trkpt>
      <trkpt lat="45.43072" lon="5.92184">
        <ele>1578.916386497</ele>
        <time>2015-05-06T16:25:28Z</time>
      </trkpt>
      <trkpt lat="45.43073" lon="5.92186">
        <ele>1580.336347955</ele>
        <time>2015-05-06T16:25:33Z</time>
      </trkpt>
      <trkpt lat="45.43073" lon="5.92186">
        <ele>1580.336347955</ele>
        <time>2015-05-06T16:25:37Z</time>
      </trkpt>
      <trkpt lat="45.43073" lon="5.92186">
        <ele>1580.336347955</ele>
        <time>2015-05-06T16:25:43Z</time>
      </trkpt>
      <trkpt lat="45.43073" lon="5.92186">
        <ele>1580.336347955</ele>
        <time>2015-05-06T16:25:48Z</time>
      </trkpt>
      <trkpt lat="45.43072" lon="5.92186">
        <ele>1580.336347955</ele>
        <time>2015-05-06T16:25:53Z</time>
      </trkpt>
      <trkpt lat="45.43072" lon="5.92186">
        <ele>1580.336347955</ele>
        <time>2015-05-06T16:25:58Z</time>
      </trkpt>
      <trkpt lat="45.43072" lon="5.92186">
        <ele>1580.336347955</ele>
        <time>2015-05-06T16:26:01Z</time>
      </trkpt>
      <trkpt lat="45.43072" lon="5.92186">
        <ele>1580.336347955</ele>
        <time>2015-05-06T16:26:07Z</time>
      </trkpt>
      <trkpt lat="45.43059" lon="5.92181">
        <ele>1581.314957436</ele>
        <time>2015-05-06T16:26:12Z</time>
      </trkpt>
      <trkpt lat="45.43039" lon="5.92176">
        <ele>1582.459831202</ele>
        <time>2015-05-06T16:26:18Z</time>
      </trkpt>
      <trkpt lat="45.43031" lon="5.9217">
        <ele>1584.333523024</ele>
        <time>2015-05-06T16:26:23Z</time>
      </trkpt>
      <trkpt lat="45.43022" lon="5.92168">
        <ele>1584.333523024</ele>
        <time>2015-05-06T16:26:27Z</time>
      </trkpt>
      <trkpt lat="45.4301" lon="5.92163">
        <ele>1585.725925867</ele>
        <time>2015-05-06T16:26:33Z</time>
      </trkpt>
      <trkpt lat="45.43008" lon="5.92164">
        <ele>1585.725925867</ele>
        <time>2015-05-06T16:26:38Z</time>
      </trkpt>
      <trkpt lat="45.43008" lon="5.92168">
        <ele>1585.725925867</ele>
        <time>2015-05-06T16:26:43Z</time>
      </trkpt>
      <trkpt lat="45.43004" lon="5.92166">
        <ele>1586.958334339</ele>
        <time>2015-05-06T16:26:48Z</time>
      </trkpt>
      <trkpt lat="45.42997" lon="5.92163">
        <ele>1586.958334339</ele>
        <time>2015-05-06T16:26:53Z</time>
      </trkpt>
      <trkpt lat="45.42994" lon="5.92169">
        <ele>1588.617162432</ele>
        <time>2015-05-06T16:26:57Z</time>
      </trkpt>
      <trkpt lat="45.42995" lon="5.92175">
        <ele>1588.617162432</ele>
        <time>2015-05-06T16:27:02Z</time>
      </trkpt>
      <trkpt lat="45.4299" lon="5.92164">
        <ele>1590.81227211</ele>
        <time>2015-05-06T16:27:07Z</time>
      </trkpt>
      <trkpt lat="45.42984" lon="5.9216">
        <ele>1590.81227211</ele>
        <time>2015-05-06T16:27:13Z</time>
      </trkpt>
      <trkpt lat="45.42982" lon="5.92158">
        <ele>1592.779343519</ele>
        <time>2015-05-06T16:27:17Z</time>
      </trkpt>
      <trkpt lat="45.42979" lon="5.92156">
        <ele>1592.779343519</ele>
        <time>2015-05-06T16:27:22Z</time>
      </trkpt>
      <trkpt lat="45.42975" lon="5.92158">
        <ele>1592.779343519</ele>
        <time>2015-05-06T16:27:28Z</time>
      </trkpt>
      <trkpt lat="45.42971" lon="5.92159">
        <ele>1594.675575455</ele>
        <time>2015-05-06T16:27:33Z</time>
      </trkpt>
      <trkpt lat="45.4297" lon="5.92161">
        <ele>1594.675575455</ele>
        <time>2015-05-06T16:27:38Z</time>
      </trkpt>
      <trkpt lat="45.42961" lon="5.92158">
        <ele>1596.214554952</ele>
        <time>2015-05-06T16:27:43Z</time>
      </trkpt>
      <trkpt lat="45.42951" lon="5.92153">
        <ele>1597.852542041</ele>
        <time>2015-05-06T16:27:48Z</time>
      </trkpt>
      <trkpt lat="45.42946" lon="5.92153">
        <ele>1597.852542041</ele>
        <time>2015-05-06T16:27:53Z</time>
      </trkpt>
      <trkpt lat="45.42941" lon="5.9215">
        <ele>1599.291524348</ele>
        <time>2015-05-06T16:27:58Z</time>
      </trkpt>
      <trkpt lat="45.42942" lon="5.92152">
        <ele>1599.291524348</ele>
        <time>2015-05-06T16:28:03Z</time>
      </trkpt>
      <trkpt lat="45.42937" lon="5.92151">
        <ele>1599.291524348</ele>
        <time>2015-05-06T16:28:07Z</time>
      </trkpt>
      <trkpt lat="45.42936" lon="5.92151">
        <ele>1599.291524348</ele>
        <time>2015-05-06T16:28:13Z</time>
      </trkpt>
      <trkpt lat="45.42934" lon="5.9215">
        <ele>1601.120686253</ele>
        <time>2015-05-06T16:28:18Z</time>
      </trkpt>
      <trkpt lat="45.42928" lon="5.92145">
        <ele>1601.120686253</ele>
        <time>2015-05-06T16:28:23Z</time>
      </trkpt>
      <trkpt lat="45.42923" lon="5.92144">
        <ele>1602.155582065</ele>
        <time>2015-05-06T16:28:28Z</time>
      </trkpt>
      <trkpt lat="45.42919" lon="5.92138">
        <ele>1602.155582065</ele>
        <time>2015-05-06T16:28:33Z</time>
      </trkpt>
      <trkpt lat="45.42915" lon="5.92135">
        <ele>1602.886304068</ele>
        <time>2015-05-06T16:28:38Z</time>
      </trkpt>
      <trkpt lat="45.42912" lon="5.92131">
        <ele>1602.886304068</ele>
        <time>2015-05-06T16:28:43Z</time>
      </trkpt>
      <trkpt lat="45.42909" lon="5.92127">
        <ele>1602.886304068</ele>
        <time>2015-05-06T16:28:48Z</time>
      </trkpt>
      <trkpt lat="45.4291" lon="5.92123">
        <ele>1603.191425859</ele>
        <time>2015-05-06T16:28:53Z</time>
      </trkpt>
      <trkpt lat="45.42909" lon="5.92123">
        <ele>1603.191425859</ele>
        <time>2015-05-06T16:28:58Z</time>
      </trkpt>
      <trkpt lat="45.42905" lon="5.92116">
        <ele>1603.191425859</ele>
        <time>2015-05-06T16:29:01Z</time>
      </trkpt>
      <trkpt lat="45.42903" lon="5.92105">
        <ele>1602.959702589</ele>
        <time>2015-05-06T16:29:08Z</time>
      </trkpt>
      <trkpt lat="45.42901" lon="5.92102">
        <ele>1602.959702589</ele>
        <time>2015-05-06T16:29:13Z</time>
      </trkpt>
      <trkpt lat="45.42899" lon="5.921">
        <ele>1602.959702589</ele>
        <time>2015-05-06T16:29:18Z</time>
      </trkpt>
      <trkpt lat="45.42898" lon="5.921">
        <ele>1602.959702589</ele>
        <time>2015-05-06T16:29:23Z</time>
      </trkpt>
      <trkpt lat="45.42894" lon="5.92096">
        <ele>1602.810181259</ele>
        <time>2015-05-06T16:29:28Z</time>
      </trkpt>
      <trkpt lat="45.4289" lon="5.92092">
        <ele>1602.810181259</ele>
        <time>2015-05-06T16:29:33Z</time>
      </trkpt>
      <trkpt lat="45.42886" lon="5.92088">
        <ele>1602.883916978</ele>
        <time>2015-05-06T16:29:38Z</time>
      </trkpt>
      <trkpt lat="45.42886" lon="5.92091">
        <ele>1602.883916978</ele>
        <time>2015-05-06T16:29:43Z</time>
      </trkpt>
      <trkpt lat="45.42886" lon="5.92093">
        <ele>1602.883916978</ele>
        <time>2015-05-06T16:29:48Z</time>
      </trkpt>
      <trkpt lat="45.42887" lon="5.92096">
        <ele>1602.883916978</ele>
        <time>2015-05-06T16:29:53Z</time>
      </trkpt>
      <trkpt lat="45.42885" lon="5.92099">
        <ele>1602.883916978</ele>
        <time>2015-05-06T16:29:58Z</time>
      </trkpt>
      <trkpt lat="45.42886" lon="5.92102">
        <ele>1603.311012915</ele>
        <time>2015-05-06T16:30:02Z</time>
      </trkpt>
      <trkpt lat="45.42885" lon="5.92102">
        <ele>1603.311012915</ele>
        <time>2015-05-06T16:30:07Z</time>
      </trkpt>
      <trkpt lat="45.42885" lon="5.92104">
        <ele>1603.311012915</ele>
        <time>2015-05-06T16:30:13Z</time>
      </trkpt>
      <trkpt lat="45.42881" lon="5.92105">
        <ele>1603.311012915</ele>
        <time>2015-05-06T16:30:18Z</time>
      </trkpt>
      <trkpt lat="45.42878" lon="5.92104">
        <ele>1603.922828056</ele>
        <time>2015-05-06T16:30:23Z</time>
      </trkpt>
      <trkpt lat="45.42876" lon="5.92103">
        <ele>1603.922828056</ele>
        <time>2015-05-06T16:30:28Z</time>
      </trkpt>
      <trkpt lat="45.42874" lon="5.92101">
        <ele>1603.922828056</ele>
        <time>2015-05-06T16:30:33Z</time>
      </trkpt>
      <trkpt lat="45.42872" lon="5.92097">
        <ele>1603.922828056</ele>
        <time>2015-05-06T16:30:38Z</time>
      </trkpt>
      <trkpt lat="45.4287" lon="5.92093">
        <ele>1604.850833804</ele>
        <time>2015-05-06T16:30:43Z</time>
      </trkpt>
      <trkpt lat="45.42867" lon="5.92093">
        <ele>1604.850833804</ele>
        <time>2015-05-06T16:30:47Z</time>
      </trkpt>
      <trkpt lat="45.42862" lon="5.92092">
        <ele>1604.850833804</ele>
        <time>2015-05-06T16:30:53Z</time>
      </trkpt>
      <trkpt lat="45.42862" lon="5.92095">
        <ele>1605.351304542</ele>
        <time>2015-05-06T16:30:57Z</time>
      </trkpt>
      <trkpt lat="45.42862" lon="5.92095">
        <ele>1605.351304542</ele>
        <time>2015-05-06T16:31:02Z</time>
      </trkpt>
      <trkpt lat="45.42861" lon="5.92095">
        <ele>1605.351304542</ele>
        <time>2015-05-06T16:31:08Z</time>
      </trkpt>
      <trkpt lat="45.42859" lon="5.92093">
        <ele>1605.351304542</ele>
        <time>2015-05-06T16:31:13Z</time>
      </trkpt>
      <trkpt lat="45.42858" lon="5.92091">
        <ele>1605.351304542</ele>
        <time>2015-05-06T16:31:18Z</time>
      </trkpt>
      <trkpt lat="45.42858" lon="5.9209">
        <ele>1605.351304542</ele>
        <time>2015-05-06T16:31:23Z</time>
      </trkpt>
      <trkpt lat="45.42858" lon="5.92091">
        <ele>1605.351304542</ele>
        <time>2015-05-06T16:31:28Z</time>
      </trkpt>
      <trkpt lat="45.42856" lon="5.92092">
        <ele>1605.351304542</ele>
        <time>2015-05-06T16:31:33Z</time>
      </trkpt>
      <trkpt lat="45.42856" lon="5.92091">
        <ele>1604.880468007</ele>
        <time>2015-05-06T16:31:38Z</time>
      </trkpt>
      <trkpt lat="45.42856" lon="5.92092">
        <ele>1604.880468007</ele>
        <time>2015-05-06T16:31:43Z</time>
      </trkpt>
      <trkpt lat="45.42856" lon="5.92092">
        <ele>1604.880468007</ele>
        <time>2015-05-06T16:31:48Z</time>
      </trkpt>
      <trkpt lat="45.42856" lon="5.92092">
        <ele>1604.880468007</ele>
        <time>2015-05-06T16:31:53Z</time>
      </trkpt>
      <trkpt lat="45.42856" lon="5.92093">
        <ele>1604.880468007</ele>
        <time>2015-05-06T16:31:58Z</time>
      </trkpt>
      <trkpt lat="45.42856" lon="5.92093">
        <ele>1604.880468007</ele>
        <time>2015-05-06T16:32:01Z</time>
      </trkpt>
      <trkpt lat="45.42856" lon="5.92093">
        <ele>1604.880468007</ele>
        <time>2015-05-06T16:32:08Z</time>
      </trkpt>
      <trkpt lat="45.42855" lon="5.92093">
        <ele>1604.880468007</ele>
        <time>2015-05-06T16:32:11Z</time>
      </trkpt>
      <trkpt lat="45.42855" lon="5.92093">
        <ele>1604.880468007</ele>
        <time>2015-05-06T16:32:17Z</time>
      </trkpt>
      <trkpt lat="45.42855" lon="5.92093">
        <ele>1604.880468007</ele>
        <time>2015-05-06T16:32:21Z</time>
      </trkpt>
      <trkpt lat="45.42855" lon="5.92093">
        <ele>1604.880468007</ele>
        <time>2015-05-06T16:32:29Z</time>
      </trkpt>
      <trkpt lat="45.42855" lon="5.92093">
        <ele>1604.880468007</ele>
        <time>2015-05-06T16:32:32Z</time>
      </trkpt>
      <trkpt lat="45.42855" lon="5.92093">
        <ele>1604.880468007</ele>
        <time>2015-05-06T16:32:38Z</time>
      </trkpt>
      <trkpt lat="45.42853" lon="5.92095">
        <ele>1604.880468007</ele>
        <time>2015-05-06T16:32:43Z</time>
      </trkpt>
      <trkpt lat="45.42848" lon="5.92092">
        <ele>1604.378336205</ele>
        <time>2015-05-06T16:32:47Z</time>
      </trkpt>
      <trkpt lat="45.42847" lon="5.92092">
        <ele>1604.378336205</ele>
        <time>2015-05-06T16:32:53Z</time>
      </trkpt>
      <trkpt lat="45.42845" lon="5.92095">
        <ele>1604.378336205</ele>
        <time>2015-05-06T16:32:58Z</time>
      </trkpt>
      <trkpt lat="45.42843" lon="5.92094">
        <ele>1604.378336205</ele>
        <time>2015-05-06T16:33:03Z</time>
      </trkpt>
      <trkpt lat="45.42842" lon="5.92095">
        <ele>1604.378336205</ele>
        <time>2015-05-06T16:33:08Z</time>
      </trkpt>
      <trkpt lat="45.4284" lon="5.92098">
        <ele>1604.571840309</ele>
        <time>2015-05-06T16:33:13Z</time>
      </trkpt>
      <trkpt lat="45.42839" lon="5.92098">
        <ele>1604.571840309</ele>
        <time>2015-05-06T16:33:18Z</time>
      </trkpt>
      <trkpt lat="45.42835" lon="5.92098">
        <ele>1604.571840309</ele>
        <time>2015-05-06T16:33:23Z</time>
      </trkpt>
      <trkpt lat="45.42832" lon="5.92093">
        <ele>1604.259100909</ele>
        <time>2015-05-06T16:33:28Z</time>
      </trkpt>
      <trkpt lat="45.42826" lon="5.92088">
        <ele>1604.259100909</ele>
        <time>2015-05-06T16:33:33Z</time>
      </trkpt>
      <trkpt lat="45.42826" lon="5.92088">
        <ele>1604.259100909</ele>
        <time>2015-05-06T16:33:38Z</time>
      </trkpt>
      <trkpt lat="45.42826" lon="5.92087">
        <ele>1604.259100909</ele>
        <time>2015-05-06T16:33:43Z</time>
      </trkpt>
      <trkpt lat="45.42824" lon="5.92085">
        <ele>1603.336702035</ele>
        <time>2015-05-06T16:33:48Z</time>
      </trkpt>
      <trkpt lat="45.42821" lon="5.92079">
        <ele>1603.336702035</ele>
        <time>2015-05-06T16:33:53Z</time>
      </trkpt>
      <trkpt lat="45.42816" lon="5.92075">
        <ele>1601.422276679</ele>
        <time>2015-05-06T16:33:58Z</time>
      </trkpt>
      <trkpt lat="45.42809" lon="5.92074">
        <ele>1601.422276679</ele>
        <time>2015-05-06T16:34:02Z</time>
      </trkpt>
      <trkpt lat="45.42804" lon="5.92071">
        <ele>1599.749503337</ele>
        <time>2015-05-06T16:34:07Z</time>
      </trkpt>
      <trkpt lat="45.42799" lon="5.92068">
        <ele>1599.749503337</ele>
        <time>2015-05-06T16:34:11Z</time>
      </trkpt>
      <trkpt lat="45.42795" lon="5.92065">
        <ele>1598.45191574</ele>
        <time>2015-05-06T16:34:17Z</time>
      </trkpt>
      <trkpt lat="45.4279" lon="5.92066">
        <ele>1598.45191574</ele>
        <time>2015-05-06T16:34:23Z</time>
      </trkpt>
      <trkpt lat="45.42785" lon="5.92067">
        <ele>1597.50799667</ele>
        <time>2015-05-06T16:34:28Z</time>
      </trkpt>
      <trkpt lat="45.4278" lon="5.92065">
        <ele>1597.50799667</ele>
        <time>2015-05-06T16:34:33Z</time>
      </trkpt>
      <trkpt lat="45.42774" lon="5.92066">
        <ele>1596.464392928</ele>
        <time>2015-05-06T16:34:38Z</time>
      </trkpt>
      <trkpt lat="45.4277" lon="5.92065">
        <ele>1596.464392928</ele>
        <time>2015-05-06T16:34:43Z</time>
      </trkpt>
      <trkpt lat="45.42767" lon="5.92062">
        <ele>1596.464392928</ele>
        <time>2015-05-06T16:34:47Z</time>
      </trkpt>
      <trkpt lat="45.42763" lon="5.92062">
        <ele>1595.477677729</ele>
        <time>2015-05-06T16:34:53Z</time>
      </trkpt>
      <trkpt lat="45.42758" lon="5.92062">
        <ele>1595.477677729</ele>
        <time>2015-05-06T16:34:58Z</time>
      </trkpt>
      <trkpt lat="45.42754" lon="5.9206">
        <ele>1595.477677729</ele>
        <time>2015-05-06T16:35:03Z</time>
      </trkpt>
      <trkpt lat="45.42749" lon="5.9206">
        <ele>1594.260320241</ele>
        <time>2015-05-06T16:35:07Z</time>
      </trkpt>
      <trkpt lat="45.42743" lon="5.92057">
        <ele>1594.260320241</ele>
        <time>2015-05-06T16:35:13Z</time>
      </trkpt>
      <trkpt lat="45.42739" lon="5.92055">
        <ele>1593.411109772</ele>
        <time>2015-05-06T16:35:17Z</time>
      </trkpt>
      <trkpt lat="45.42734" lon="5.92055">
        <ele>1593.411109772</ele>
        <time>2015-05-06T16:35:23Z</time>
      </trkpt>
      <trkpt lat="45.42731" lon="5.92048">
        <ele>1592.90725068</ele>
        <time>2015-05-06T16:35:28Z</time>
      </trkpt>
      <trkpt lat="45.42727" lon="5.92045">
        <ele>1592.90725068</ele>
        <time>2015-05-06T16:35:33Z</time>
      </trkpt>
      <trkpt lat="45.42724" lon="5.92044">
        <ele>1592.90725068</ele>
        <time>2015-05-06T16:35:37Z</time>
      </trkpt>
      <trkpt lat="45.42721" lon="5.9204">
        <ele>1592.294195061</ele>
        <time>2015-05-06T16:35:41Z</time>
      </trkpt>
      <trkpt lat="45.42717" lon="5.92038">
        <ele>1592.294195061</ele>
        <time>2015-05-06T16:35:46Z</time>
      </trkpt>
      <trkpt lat="45.42712" lon="5.92035">
        <ele>1591.150964686</ele>
        <time>2015-05-06T16:35:52Z</time>
      </trkpt>
      <trkpt lat="45.42708" lon="5.92035">
        <ele>1591.150964686</ele>
        <time>2015-05-06T16:35:58Z</time>
      </trkpt>
      <trkpt lat="45.42704" lon="5.92036">
        <ele>1591.150964686</ele>
        <time>2015-05-06T16:36:02Z</time>
      </trkpt>
      <trkpt lat="45.42702" lon="5.92035">
        <ele>1590.529976433</ele>
        <time>2015-05-06T16:36:07Z</time>
      </trkpt>
      <trkpt lat="45.42697" lon="5.92037">
        <ele>1590.529976433</ele>
        <time>2015-05-06T16:36:13Z</time>
      </trkpt>
      <trkpt lat="45.42691" lon="5.92041">
        <ele>1589.963631116</ele>
        <time>2015-05-06T16:36:17Z</time>
      </trkpt>
      <trkpt lat="45.42684" lon="5.92044">
        <ele>1589.963631116</ele>
        <time>2015-05-06T16:36:23Z</time>
      </trkpt>
      <trkpt lat="45.42683" lon="5.92046">
        <ele>1589.738952451</ele>
        <time>2015-05-06T16:36:28Z</time>
      </trkpt>
      <trkpt lat="45.42682" lon="5.92048">
        <ele>1589.738952451</ele>
        <time>2015-05-06T16:36:32Z</time>
      </trkpt>
      <trkpt lat="45.42678" lon="5.9205">
        <ele>1589.738952451</ele>
        <time>2015-05-06T16:36:38Z</time>
      </trkpt>
      <trkpt lat="45.42675" lon="5.92054">
        <ele>1589.97668301</ele>
        <time>2015-05-06T16:36:43Z</time>
      </trkpt>
      <trkpt lat="45.42673" lon="5.9206">
        <ele>1589.97668301</ele>
        <time>2015-05-06T16:36:47Z</time>
      </trkpt>
      <trkpt lat="45.42669" lon="5.92064">
        <ele>1589.97668301</ele>
        <time>2015-05-06T16:36:53Z</time>
      </trkpt>
      <trkpt lat="45.42665" lon="5.92064">
        <ele>1590.78727723</ele>
        <time>2015-05-06T16:36:58Z</time>
      </trkpt>
      <trkpt lat="45.4266" lon="5.92064">
        <ele>1590.78727723</ele>
        <time>2015-05-06T16:37:03Z</time>
      </trkpt>
      <trkpt lat="45.42658" lon="5.92059">
        <ele>1590.78727723</ele>
        <time>2015-05-06T16:37:07Z</time>
      </trkpt>
      <trkpt lat="45.42658" lon="5.92058">
        <ele>1591.262576619</ele>
        <time>2015-05-06T16:37:12Z</time>
      </trkpt>
      <trkpt lat="45.42659" lon="5.92058">
        <ele>1591.262576619</ele>
        <time>2015-05-06T16:37:16Z</time>
      </trkpt>
      <trkpt lat="45.42657" lon="5.92058">
        <ele>1591.262576619</ele>
        <time>2015-05-06T16:37:23Z</time>
      </trkpt>
      <trkpt lat="45.42654" lon="5.92059">
        <ele>1591.262576619</ele>
        <time>2015-05-06T16:37:28Z</time>
      </trkpt>
      <trkpt lat="45.42653" lon="5.92064">
        <ele>1592.435418023</ele>
        <time>2015-05-06T16:37:33Z</time>
      </trkpt>
      <trkpt lat="45.42649" lon="5.92068">
        <ele>1592.435418023</ele>
        <time>2015-05-06T16:37:38Z</time>
      </trkpt>
      <trkpt lat="45.4265" lon="5.92069">
        <ele>1592.435418023</ele>
        <time>2015-05-06T16:37:43Z</time>
      </trkpt>
      <trkpt lat="45.42649" lon="5.92069">
        <ele>1592.435418023</ele>
        <time>2015-05-06T16:37:47Z</time>
      </trkpt>
      <trkpt lat="45.42646" lon="5.92069">
        <ele>1593.099050381</ele>
        <time>2015-05-06T16:37:52Z</time>
      </trkpt>
      <trkpt lat="45.42644" lon="5.92068">
        <ele>1593.099050381</ele>
        <time>2015-05-06T16:37:58Z</time>
      </trkpt>
      <trkpt lat="45.42642" lon="5.92069">
        <ele>1593.099050381</ele>
        <time>2015-05-06T16:38:03Z</time>
      </trkpt>
      <trkpt lat="45.42642" lon="5.92068">
        <ele>1593.099050381</ele>
        <time>2015-05-06T16:38:07Z</time>
      </trkpt>
      <trkpt lat="45.42642" lon="5.92068">
        <ele>1593.099050381</ele>
        <time>2015-05-06T16:38:13Z</time>
      </trkpt>
      <trkpt lat="45.4264" lon="5.92074">
        <ele>1593.721940584</ele>
        <time>2015-05-06T16:38:17Z</time>
      </trkpt>
      <trkpt lat="45.42641" lon="5.92077">
        <ele>1593.721940584</ele>
        <time>2015-05-06T16:38:23Z</time>
      </trkpt>
      <trkpt lat="45.42643" lon="5.92082">
        <ele>1593.721940584</ele>
        <time>2015-05-06T16:38:28Z</time>
      </trkpt>
      <trkpt lat="45.4264" lon="5.92088">
        <ele>1594.882298665</ele>
        <time>2015-05-06T16:38:33Z</time>
      </trkpt>
      <trkpt lat="45.4264" lon="5.92088">
        <ele>1594.882298665</ele>
        <time>2015-05-06T16:38:37Z</time>
      </trkpt>
      <trkpt lat="45.4264" lon="5.92088">
        <ele>1594.882298665</ele>
        <time>2015-05-06T16:38:42Z</time>
      </trkpt>
      <trkpt lat="45.42638" lon="5.92089">
        <ele>1594.882298665</ele>
        <time>2015-05-06T16:38:48Z</time>
      </trkpt>
      <trkpt lat="45.42639" lon="5.92094">
        <ele>1594.882298665</ele>
        <time>2015-05-06T16:38:53Z</time>
      </trkpt>
      <trkpt lat="45.42638" lon="5.921">
        <ele>1595.961404899</ele>
        <time>2015-05-06T16:38:58Z</time>
      </trkpt>
      <trkpt lat="45.42638" lon="5.92105">
        <ele>1595.961404899</ele>
        <time>2015-05-06T16:39:02Z</time>
      </trkpt>
      <trkpt lat="45.42638" lon="5.92106">
        <ele>1595.961404899</ele>
        <time>2015-05-06T16:39:07Z</time>
      </trkpt>
      <trkpt lat="45.4264" lon="5.92111">
        <ele>1595.961404899</ele>
        <time>2015-05-06T16:39:12Z</time>
      </trkpt>
      <trkpt lat="45.4264" lon="5.92114">
        <ele>1597.394950223</ele>
        <time>2015-05-06T16:39:18Z</time>
      </trkpt>
      <trkpt lat="45.4264" lon="5.92119">
        <ele>1597.394950223</ele>
        <time>2015-05-06T16:39:23Z</time>
      </trkpt>
      <trkpt lat="45.42641" lon="5.92124">
        <ele>1597.394950223</ele>
        <time>2015-05-06T16:39:28Z</time>
      </trkpt>
      <trkpt lat="45.42639" lon="5.92131">
        <ele>1598.576812897</ele>
        <time>2015-05-06T16:39:33Z</time>
      </trkpt>
      <trkpt lat="45.42636" lon="5.92135">
        <ele>1598.576812897</ele>
        <time>2015-05-06T16:39:38Z</time>
      </trkpt>
      <trkpt lat="45.42632" lon="5.92138">
        <ele>1598.576812897</ele>
        <time>2015-05-06T16:39:43Z</time>
      </trkpt>
      <trkpt lat="45.42629" lon="5.92141">
        <ele>1599.522524029</ele>
        <time>2015-05-06T16:39:48Z</time>
      </trkpt>
      <trkpt lat="45.42626" lon="5.92143">
        <ele>1599.522524029</ele>
        <time>2015-05-06T16:39:53Z</time>
      </trkpt>
      <trkpt lat="45.42627" lon="5.92144">
        <ele>1599.522524029</ele>
        <time>2015-05-06T16:39:58Z</time>
      </trkpt>
      <trkpt lat="45.42628" lon="5.92145">
        <ele>1599.522524029</ele>
        <time>2015-05-06T16:40:02Z</time>
      </trkpt>
      <trkpt lat="45.42627" lon="5.92144">
        <ele>1599.522524029</ele>
        <time>2015-05-06T16:40:06Z</time>
      </trkpt>
      <trkpt lat="45.42627" lon="5.92143">
        <ele>1599.522524029</ele>
        <time>2015-05-06T16:40:11Z</time>
      </trkpt>
      <trkpt lat="45.42627" lon="5.92143">
        <ele>1599.522524029</ele>
        <time>2015-05-06T16:40:16Z</time>
      </trkpt>
      <trkpt lat="45.42627" lon="5.92143">
        <ele>1599.522524029</ele>
        <time>2015-05-06T16:40:21Z</time>
      </trkpt>
      <trkpt lat="45.42628" lon="5.92143">
        <ele>1599.522524029</ele>
        <time>2015-05-06T16:40:26Z</time>
      </trkpt>
      <trkpt lat="45.42627" lon="5.92145">
        <ele>1601.544125802</ele>
        <time>2015-05-06T16:40:31Z</time>
      </trkpt>
      <trkpt lat="45.42626" lon="5.92144">
        <ele>1601.544125802</ele>
        <time>2015-05-06T16:40:36Z</time>
      </trkpt>
      <trkpt lat="45.42626" lon="5.92144">
        <ele>1601.544125802</ele>
        <time>2015-05-06T16:40:41Z</time>
      </trkpt>
      <trkpt lat="45.42631" lon="5.92144">
        <ele>1601.544125802</ele>
        <time>2015-05-06T16:40:47Z</time>
      </trkpt>
      <trkpt lat="45.42634" lon="5.92152">
        <ele>1603.692594364</ele>
        <time>2015-05-06T16:40:52Z</time>
      </trkpt>
      <trkpt lat="45.42636" lon="5.92158">
        <ele>1603.692594364</ele>
        <time>2015-05-06T16:40:57Z</time>
      </trkpt>
      <trkpt lat="45.42639" lon="5.9216">
        <ele>1603.692594364</ele>
        <time>2015-05-06T16:41:02Z</time>
      </trkpt>
      <trkpt lat="45.42641" lon="5.9216">
        <ele>1605.088277981</ele>
        <time>2015-05-06T16:41:07Z</time>
      </trkpt>
      <trkpt lat="45.42642" lon="5.92162">
        <ele>1605.088277981</ele>
        <time>2015-05-06T16:41:12Z</time>
      </trkpt>
      <trkpt lat="45.42643" lon="5.92165">
        <ele>1605.088277981</ele>
        <time>2015-05-06T16:41:17Z</time>
      </trkpt>
      <trkpt lat="45.42645" lon="5.92172">
        <ele>1606.359392064</ele>
        <time>2015-05-06T16:41:22Z</time>
      </trkpt>
      <trkpt lat="45.42647" lon="5.92176">
        <ele>1606.359392064</ele>
        <time>2015-05-06T16:41:27Z</time>
      </trkpt>
      <trkpt lat="45.42649" lon="5.92182">
        <ele>1606.359392064</ele>
        <time>2015-05-06T16:41:32Z</time>
      </trkpt>
      <trkpt lat="45.4265" lon="5.92188">
        <ele>1607.944278254</ele>
        <time>2015-05-06T16:41:37Z</time>
      </trkpt>
      <trkpt lat="45.42648" lon="5.92188">
        <ele>1607.944278254</ele>
        <time>2015-05-06T16:41:42Z</time>
      </trkpt>
      <trkpt lat="45.42648" lon="5.92188">
        <ele>1607.944278254</ele>
        <time>2015-05-06T16:41:47Z</time>
      </trkpt>
      <trkpt lat="45.42648" lon="5.92189">
        <ele>1607.944278254</ele>
        <time>2015-05-06T16:41:52Z</time>
      </trkpt>
      <trkpt lat="45.42647" lon="5.92189">
        <ele>1607.944278254</ele>
        <time>2015-05-06T16:41:57Z</time>
      </trkpt>
      <trkpt lat="45.42646" lon="5.92189">
        <ele>1607.944278254</ele>
        <time>2015-05-06T16:42:01Z</time>
      </trkpt>
      <trkpt lat="45.42643" lon="5.9219">
        <ele>1607.944278254</ele>
        <time>2015-05-06T16:42:06Z</time>
      </trkpt>
      <trkpt lat="45.42638" lon="5.92189">
        <ele>1610.248244331</ele>
        <time>2015-05-06T16:42:12Z</time>
      </trkpt>
      <trkpt lat="45.42636" lon="5.92186">
        <ele>1610.248244331</ele>
        <time>2015-05-06T16:42:17Z</time>
      </trkpt>
      <trkpt lat="45.42636" lon="5.92185">
        <ele>1610.248244331</ele>
        <time>2015-05-06T16:42:21Z</time>
      </trkpt>
      <trkpt lat="45.42636" lon="5.92185">
        <ele>1610.248244331</ele>
        <time>2015-05-06T16:42:26Z</time>
      </trkpt>
      <trkpt lat="45.42635" lon="5.92186">
        <ele>1610.248244331</ele>
        <time>2015-05-06T16:42:31Z</time>
      </trkpt>
      <trkpt lat="45.42635" lon="5.92186">
        <ele>1610.248244331</ele>
        <time>2015-05-06T16:42:36Z</time>
      </trkpt>
      <trkpt lat="45.42634" lon="5.92187">
        <ele>1610.248244331</ele>
        <time>2015-05-06T16:42:41Z</time>
      </trkpt>
      <trkpt lat="45.42632" lon="5.92187">
        <ele>1610.248244331</ele>
        <time>2015-05-06T16:42:46Z</time>
      </trkpt>
      <trkpt lat="45.42628" lon="5.92184">
        <ele>1612.49197422</ele>
        <time>2015-05-06T16:42:53Z</time>
      </trkpt>
      <trkpt lat="45.42624" lon="5.92186">
        <ele>1612.49197422</ele>
        <time>2015-05-06T16:42:57Z</time>
      </trkpt>
      <trkpt lat="45.4262" lon="5.92188">
        <ele>1612.49197422</ele>
        <time>2015-05-06T16:43:03Z</time>
      </trkpt>
      <trkpt lat="45.42616" lon="5.92189">
        <ele>1615.250637346</ele>
        <time>2015-05-06T16:43:07Z</time>
      </trkpt>
      <trkpt lat="45.42613" lon="5.9219">
        <ele>1615.250637346</ele>
        <time>2015-05-06T16:43:13Z</time>
      </trkpt>
      <trkpt lat="45.42614" lon="5.9219">
        <ele>1615.250637346</ele>
        <time>2015-05-06T16:43:17Z</time>
      </trkpt>
      <trkpt lat="45.42611" lon="5.92189">
        <ele>1615.250637346</ele>
        <time>2015-05-06T16:43:23Z</time>
      </trkpt>
      <trkpt lat="45.42608" lon="5.92188">
        <ele>1618.047009691</ele>
        <time>2015-05-06T16:43:28Z</time>
      </trkpt>
      <trkpt lat="45.42605" lon="5.9219">
        <ele>1618.047009691</ele>
        <time>2015-05-06T16:43:33Z</time>
      </trkpt>
      <trkpt lat="45.42602" lon="5.92189">
        <ele>1618.047009691</ele>
        <time>2015-05-06T16:43:38Z</time>
      </trkpt>
      <trkpt lat="45.42598" lon="5.92188">
        <ele>1620.871246147</ele>
        <time>2015-05-06T16:43:43Z</time>
      </trkpt>
      <trkpt lat="45.42598" lon="5.92189">
        <ele>1620.871246147</ele>
        <time>2015-05-06T16:43:48Z</time>
      </trkpt>
      <trkpt lat="45.42597" lon="5.92188">
        <ele>1620.871246147</ele>
        <time>2015-05-06T16:43:53Z</time>
      </trkpt>
      <trkpt lat="45.42595" lon="5.92188">
        <ele>1620.871246147</ele>
        <time>2015-05-06T16:43:58Z</time>
      </trkpt>
      <trkpt lat="45.42591" lon="5.92187">
        <ele>1620.871246147</ele>
        <time>2015-05-06T16:44:03Z</time>
      </trkpt>
      <trkpt lat="45.42587" lon="5.92186">
        <ele>1624.002477573</ele>
        <time>2015-05-06T16:44:07Z</time>
      </trkpt>
      <trkpt lat="45.42582" lon="5.92188">
        <ele>1624.002477573</ele>
        <time>2015-05-06T16:44:13Z</time>
      </trkpt>
      <trkpt lat="45.42578" lon="5.9219">
        <ele>1627.122146575</ele>
        <time>2015-05-06T16:44:18Z</time>
      </trkpt>
      <trkpt lat="45.42576" lon="5.9219">
        <ele>1627.122146575</ele>
        <time>2015-05-06T16:44:22Z</time>
      </trkpt>
      <trkpt lat="45.42576" lon="5.9219">
        <ele>1627.122146575</ele>
        <time>2015-05-06T16:44:26Z</time>
      </trkpt>
      <trkpt lat="45.42575" lon="5.92192">
        <ele>1627.122146575</ele>
        <time>2015-05-06T16:44:31Z</time>
      </trkpt>
      <trkpt lat="45.42577" lon="5.92192">
        <ele>1627.122146575</ele>
        <time>2015-05-06T16:44:36Z</time>
      </trkpt>
      <trkpt lat="45.42575" lon="5.92192">
        <ele>1627.122146575</ele>
        <time>2015-05-06T16:44:42Z</time>
      </trkpt>
      <trkpt lat="45.42572" lon="5.92195">
        <ele>1630.079375641</ele>
        <time>2015-05-06T16:44:48Z</time>
      </trkpt>
      <trkpt lat="45.42568" lon="5.92195">
        <ele>1630.079375641</ele>
        <time>2015-05-06T16:44:52Z</time>
      </trkpt>
      <trkpt lat="45.42564" lon="5.92193">
        <ele>1630.079375641</ele>
        <time>2015-05-06T16:44:58Z</time>
      </trkpt>
      <trkpt lat="45.42559" lon="5.92193">
        <ele>1632.302638648</ele>
        <time>2015-05-06T16:45:03Z</time>
      </trkpt>
      <trkpt lat="45.42555" lon="5.92193">
        <ele>1632.302638648</ele>
        <time>2015-05-06T16:45:07Z</time>
      </trkpt>
      <trkpt lat="45.42552" lon="5.92194">
        <ele>1632.302638648</ele>
        <time>2015-05-06T16:45:11Z</time>
      </trkpt>
      <trkpt lat="45.42547" lon="5.92194">
        <ele>1634.84983006</ele>
        <time>2015-05-06T16:45:18Z</time>
      </trkpt>
      <trkpt lat="45.42542" lon="5.92194">
        <ele>1634.84983006</ele>
        <time>2015-05-06T16:45:23Z</time>
      </trkpt>
      <trkpt lat="45.42537" lon="5.92195">
        <ele>1637.547495445</ele>
        <time>2015-05-06T16:45:28Z</time>
      </trkpt>
      <trkpt lat="45.42532" lon="5.92195">
        <ele>1637.547495445</ele>
        <time>2015-05-06T16:45:33Z</time>
      </trkpt>
      <trkpt lat="45.4253" lon="5.92194">
        <ele>1637.547495445</ele>
        <time>2015-05-06T16:45:38Z</time>
      </trkpt>
      <trkpt lat="45.42527" lon="5.92192">
        <ele>1639.802332143</ele>
        <time>2015-05-06T16:45:43Z</time>
      </trkpt>
      <trkpt lat="45.42523" lon="5.92193">
        <ele>1639.802332143</ele>
        <time>2015-05-06T16:45:48Z</time>
      </trkpt>
      <trkpt lat="45.42519" lon="5.92193">
        <ele>1639.802332143</ele>
        <time>2015-05-06T16:45:53Z</time>
      </trkpt>
      <trkpt lat="45.42516" lon="5.92194">
        <ele>1642.507144045</ele>
        <time>2015-05-06T16:45:57Z</time>
      </trkpt>
      <trkpt lat="45.42514" lon="5.92196">
        <ele>1642.507144045</ele>
        <time>2015-05-06T16:46:03Z</time>
      </trkpt>
      <trkpt lat="45.42514" lon="5.92196">
        <ele>1642.507144045</ele>
        <time>2015-05-06T16:46:07Z</time>
      </trkpt>
      <trkpt lat="45.42514" lon="5.92195">
        <ele>1642.507144045</ele>
        <time>2015-05-06T16:46:13Z</time>
      </trkpt>
      <trkpt lat="45.42514" lon="5.92195">
        <ele>1642.507144045</ele>
        <time>2015-05-06T16:46:17Z</time>
      </trkpt>
      <trkpt lat="45.42511" lon="5.92193">
        <ele>1642.507144045</ele>
        <time>2015-05-06T16:46:23Z</time>
      </trkpt>
      <trkpt lat="45.42508" lon="5.92195">
        <ele>1645.623393622</ele>
        <time>2015-05-06T16:46:28Z</time>
      </trkpt>
      <trkpt lat="45.42503" lon="5.92192">
        <ele>1645.623393622</ele>
        <time>2015-05-06T16:46:33Z</time>
      </trkpt>
      <trkpt lat="45.42499" lon="5.92192">
        <ele>1645.623393622</ele>
        <time>2015-05-06T16:46:38Z</time>
      </trkpt>
      <trkpt lat="45.42494" lon="5.92194">
        <ele>1648.393840179</ele>
        <time>2015-05-06T16:46:43Z</time>
      </trkpt>
      <trkpt lat="45.4249" lon="5.92194">
        <ele>1648.393840179</ele>
        <time>2015-05-06T16:46:48Z</time>
      </trkpt>
      <trkpt lat="45.42487" lon="5.92197">
        <ele>1648.393840179</ele>
        <time>2015-05-06T16:46:53Z</time>
      </trkpt>
      <trkpt lat="45.42485" lon="5.92201">
        <ele>1651.126796662</ele>
        <time>2015-05-06T16:46:58Z</time>
      </trkpt>
      <trkpt lat="45.42485" lon="5.92206">
        <ele>1651.126796662</ele>
        <time>2015-05-06T16:47:03Z</time>
      </trkpt>
      <trkpt lat="45.42483" lon="5.92209">
        <ele>1651.126796662</ele>
        <time>2015-05-06T16:47:08Z</time>
      </trkpt>
      <trkpt lat="45.4248" lon="5.92211">
        <ele>1653.964103566</ele>
        <time>2015-05-06T16:47:13Z</time>
      </trkpt>
      <trkpt lat="45.42478" lon="5.92214">
        <ele>1653.964103566</ele>
        <time>2015-05-06T16:47:16Z</time>
      </trkpt>
      <trkpt lat="45.42474" lon="5.92216">
        <ele>1653.964103566</ele>
        <time>2015-05-06T16:47:21Z</time>
      </trkpt>
      <trkpt lat="45.42472" lon="5.92216">
        <ele>1656.460628155</ele>
        <time>2015-05-06T16:47:26Z</time>
      </trkpt>
      <trkpt lat="45.42472" lon="5.92215">
        <ele>1656.460628155</ele>
        <time>2015-05-06T16:47:31Z</time>
      </trkpt>
      <trkpt lat="45.42472" lon="5.92215">
        <ele>1656.460628155</ele>
        <time>2015-05-06T16:47:37Z</time>
      </trkpt>
      <trkpt lat="45.42471" lon="5.92221">
        <ele>1656.460628155</ele>
        <time>2015-05-06T16:47:42Z</time>
      </trkpt>
      <trkpt lat="45.42468" lon="5.92226">
        <ele>1658.92563252</ele>
        <time>2015-05-06T16:47:47Z</time>
      </trkpt>
      <trkpt lat="45.42468" lon="5.92232">
        <ele>1658.92563252</ele>
        <time>2015-05-06T16:47:52Z</time>
      </trkpt>
      <trkpt lat="45.42466" lon="5.92237">
        <ele>1658.92563252</ele>
        <time>2015-05-06T16:47:57Z</time>
      </trkpt>
      <trkpt lat="45.42466" lon="5.92243">
        <ele>1661.501820772</ele>
        <time>2015-05-06T16:48:02Z</time>
      </trkpt>
      <trkpt lat="45.42465" lon="5.92247">
        <ele>1661.501820772</ele>
        <time>2015-05-06T16:48:07Z</time>
      </trkpt>
      <trkpt lat="45.42464" lon="5.92253">
        <ele>1661.501820772</ele>
        <time>2015-05-06T16:48:11Z</time>
      </trkpt>
      <trkpt lat="45.42463" lon="5.92259">
        <ele>1664.177172367</ele>
        <time>2015-05-06T16:48:17Z</time>
      </trkpt>
      <trkpt lat="45.42461" lon="5.92261">
        <ele>1664.177172367</ele>
        <time>2015-05-06T16:48:22Z</time>
      </trkpt>
      <trkpt lat="45.42458" lon="5.92265">
        <ele>1664.177172367</ele>
        <time>2015-05-06T16:48:27Z</time>
      </trkpt>
      <trkpt lat="45.42458" lon="5.9227">
        <ele>1666.508116679</ele>
        <time>2015-05-06T16:48:32Z</time>
      </trkpt>
      <trkpt lat="45.42456" lon="5.92274">
        <ele>1666.508116679</ele>
        <time>2015-05-06T16:48:37Z</time>
      </trkpt>
      <trkpt lat="45.42458" lon="5.92279">
        <ele>1666.508116679</ele>
        <time>2015-05-06T16:48:42Z</time>
      </trkpt>
      <trkpt lat="45.42457" lon="5.92286">
        <ele>1668.805364839</ele>
        <time>2015-05-06T16:48:47Z</time>
      </trkpt>
      <trkpt lat="45.42455" lon="5.92286">
        <ele>1668.805364839</ele>
        <time>2015-05-06T16:48:52Z</time>
      </trkpt>
      <trkpt lat="45.42455" lon="5.92286">
        <ele>1668.805364839</ele>
        <time>2015-05-06T16:48:57Z</time>
      </trkpt>
      <trkpt lat="45.42456" lon="5.92286">
        <ele>1668.805364839</ele>
        <time>2015-05-06T16:49:02Z</time>
      </trkpt>
      <trkpt lat="45.42456" lon="5.92287">
        <ele>1668.805364839</ele>
        <time>2015-05-06T16:49:07Z</time>
      </trkpt>
      <trkpt lat="45.42456" lon="5.92287">
        <ele>1668.805364839</ele>
        <time>2015-05-06T16:49:12Z</time>
      </trkpt>
      <trkpt lat="45.42452" lon="5.92288">
        <ele>1668.805364839</ele>
        <time>2015-05-06T16:49:17Z</time>
      </trkpt>
      <trkpt lat="45.42449" lon="5.92293">
        <ele>1670.636512578</ele>
        <time>2015-05-06T16:49:22Z</time>
      </trkpt>
      <trkpt lat="45.42447" lon="5.92298">
        <ele>1670.636512578</ele>
        <time>2015-05-06T16:49:27Z</time>
      </trkpt>
      <trkpt lat="45.42446" lon="5.92304">
        <ele>1670.636512578</ele>
        <time>2015-05-06T16:49:32Z</time>
      </trkpt>
      <trkpt lat="45.42448" lon="5.92309">
        <ele>1672.178835913</ele>
        <time>2015-05-06T16:49:37Z</time>
      </trkpt>
      <trkpt lat="45.42448" lon="5.92316">
        <ele>1672.178835913</ele>
        <time>2015-05-06T16:49:42Z</time>
      </trkpt>
      <trkpt lat="45.42448" lon="5.92322">
        <ele>1673.597553668</ele>
        <time>2015-05-06T16:49:47Z</time>
      </trkpt>
      <trkpt lat="45.42446" lon="5.92326">
        <ele>1673.597553668</ele>
        <time>2015-05-06T16:49:52Z</time>
      </trkpt>
      <trkpt lat="45.42449" lon="5.92331">
        <ele>1673.597553668</ele>
        <time>2015-05-06T16:49:57Z</time>
      </trkpt>
      <trkpt lat="45.42448" lon="5.92335">
        <ele>1674.902128058</ele>
        <time>2015-05-06T16:50:02Z</time>
      </trkpt>
      <trkpt lat="45.42449" lon="5.92334">
        <ele>1674.902128058</ele>
        <time>2015-05-06T16:50:07Z</time>
      </trkpt>
      <trkpt lat="45.4245" lon="5.92335">
        <ele>1674.902128058</ele>
        <time>2015-05-06T16:50:12Z</time>
      </trkpt>
      <trkpt lat="45.4245" lon="5.92335">
        <ele>1674.902128058</ele>
        <time>2015-05-06T16:50:17Z</time>
      </trkpt>
      <trkpt lat="45.4245" lon="5.92335">
        <ele>1674.902128058</ele>
        <time>2015-05-06T16:50:22Z</time>
      </trkpt>
      <trkpt lat="45.4245" lon="5.92335">
        <ele>1674.902128058</ele>
        <time>2015-05-06T16:50:27Z</time>
      </trkpt>
      <trkpt lat="45.4245" lon="5.92335">
        <ele>1674.902128058</ele>
        <time>2015-05-06T16:50:32Z</time>
      </trkpt>
      <trkpt lat="45.4245" lon="5.92335">
        <ele>1674.902128058</ele>
        <time>2015-05-06T16:50:37Z</time>
      </trkpt>
      <trkpt lat="45.4245" lon="5.92335">
        <ele>1674.902128058</ele>
        <time>2015-05-06T16:50:42Z</time>
      </trkpt>
      <trkpt lat="45.42451" lon="5.92341">
        <ele>1674.902128058</ele>
        <time>2015-05-06T16:50:47Z</time>
      </trkpt>
      <trkpt lat="45.42448" lon="5.92345">
        <ele>1676.966447685</ele>
        <time>2015-05-06T16:50:52Z</time>
      </trkpt>
      <trkpt lat="45.42447" lon="5.92348">
        <ele>1676.966447685</ele>
        <time>2015-05-06T16:50:57Z</time>
      </trkpt>
      <trkpt lat="45.42448" lon="5.92353">
        <ele>1676.966447685</ele>
        <time>2015-05-06T16:51:02Z</time>
      </trkpt>
      <trkpt lat="45.42447" lon="5.92355">
        <ele>1676.966447685</ele>
        <time>2015-05-06T16:51:07Z</time>
      </trkpt>
      <trkpt lat="45.42447" lon="5.92359">
        <ele>1678.868864608</ele>
        <time>2015-05-06T16:51:12Z</time>
      </trkpt>
      <trkpt lat="45.42445" lon="5.92364">
        <ele>1678.868864608</ele>
        <time>2015-05-06T16:51:17Z</time>
      </trkpt>
      <trkpt lat="45.42442" lon="5.92368">
        <ele>1678.868864608</ele>
        <time>2015-05-06T16:51:21Z</time>
      </trkpt>
      <trkpt lat="45.42438" lon="5.92372">
        <ele>1680.476559404</ele>
        <time>2015-05-06T16:51:26Z</time>
      </trkpt>
      <trkpt lat="45.42434" lon="5.92378">
        <ele>1680.476559404</ele>
        <time>2015-05-06T16:51:32Z</time>
      </trkpt>
      <trkpt lat="45.42431" lon="5.92384">
        <ele>1682.099736252</ele>
        <time>2015-05-06T16:51:38Z</time>
      </trkpt>
      <trkpt lat="45.42431" lon="5.9239">
        <ele>1682.099736252</ele>
        <time>2015-05-06T16:51:43Z</time>
      </trkpt>
      <trkpt lat="45.42429" lon="5.92397">
        <ele>1683.593533373</ele>
        <time>2015-05-06T16:51:48Z</time>
      </trkpt>
      <trkpt lat="45.42429" lon="5.92403">
        <ele>1683.593533373</ele>
        <time>2015-05-06T16:51:53Z</time>
      </trkpt>
      <trkpt lat="45.42428" lon="5.92404">
        <ele>1683.593533373</ele>
        <time>2015-05-06T16:51:58Z</time>
      </trkpt>
      <trkpt lat="45.42427" lon="5.92407">
        <ele>1683.593533373</ele>
        <time>2015-05-06T16:52:03Z</time>
      </trkpt>
      <trkpt lat="45.42425" lon="5.92412">
        <ele>1684.247736935</ele>
        <time>2015-05-06T16:52:08Z</time>
      </trkpt>
      <trkpt lat="45.42423" lon="5.92418">
        <ele>1684.247736935</ele>
        <time>2015-05-06T16:52:13Z</time>
      </trkpt>
      <trkpt lat="45.4242" lon="5.9242">
        <ele>1684.247736935</ele>
        <time>2015-05-06T16:52:18Z</time>
      </trkpt>
      <trkpt lat="45.42419" lon="5.92425">
        <ele>1684.991960065</ele>
        <time>2015-05-06T16:52:23Z</time>
      </trkpt>
      <trkpt lat="45.42418" lon="5.92431">
        <ele>1684.991960065</ele>
        <time>2015-05-06T16:52:27Z</time>
      </trkpt>
      <trkpt lat="45.42417" lon="5.92436">
        <ele>1684.991960065</ele>
        <time>2015-05-06T16:52:31Z</time>
      </trkpt>
      <trkpt lat="45.4242" lon="5.92443">
        <ele>1685.39033786</ele>
        <time>2015-05-06T16:52:37Z</time>
      </trkpt>
      <trkpt lat="45.42422" lon="5.92448">
        <ele>1685.39033786</ele>
        <time>2015-05-06T16:52:43Z</time>
      </trkpt>
      <trkpt lat="45.42425" lon="5.92453">
        <ele>1685.39033786</ele>
        <time>2015-05-06T16:52:48Z</time>
      </trkpt>
      <trkpt lat="45.42425" lon="5.92458">
        <ele>1685.616487772</ele>
        <time>2015-05-06T16:52:53Z</time>
      </trkpt>
      <trkpt lat="45.42428" lon="5.92463">
        <ele>1685.616487772</ele>
        <time>2015-05-06T16:52:58Z</time>
      </trkpt>
      <trkpt lat="45.4243" lon="5.92467">
        <ele>1685.616487772</ele>
        <time>2015-05-06T16:53:03Z</time>
      </trkpt>
      <trkpt lat="45.4243" lon="5.9247">
        <ele>1686.264124264</ele>
        <time>2015-05-06T16:53:07Z</time>
      </trkpt>
      <trkpt lat="45.42435" lon="5.92475">
        <ele>1686.264124264</ele>
        <time>2015-05-06T16:53:13Z</time>
      </trkpt>
      <trkpt lat="45.42436" lon="5.9248">
        <ele>1686.264124264</ele>
        <time>2015-05-06T16:53:18Z</time>
      </trkpt>
      <trkpt lat="45.42436" lon="5.92485">
        <ele>1686.873407222</ele>
        <time>2015-05-06T16:53:23Z</time>
      </trkpt>
      <trkpt lat="45.42436" lon="5.9249">
        <ele>1686.873407222</ele>
        <time>2015-05-06T16:53:28Z</time>
      </trkpt>
      <trkpt lat="45.42438" lon="5.92492">
        <ele>1686.873407222</ele>
        <time>2015-05-06T16:53:33Z</time>
      </trkpt>
      <trkpt lat="45.4244" lon="5.92492">
        <ele>1686.873407222</ele>
        <time>2015-05-06T16:53:38Z</time>
      </trkpt>
      <trkpt lat="45.42443" lon="5.92496">
        <ele>1687.306612355</ele>
        <time>2015-05-06T16:53:43Z</time>
      </trkpt>
      <trkpt lat="45.42445" lon="5.92499">
        <ele>1687.306612355</ele>
        <time>2015-05-06T16:53:48Z</time>
      </trkpt>
      <trkpt lat="45.42446" lon="5.92503">
        <ele>1687.306612355</ele>
        <time>2015-05-06T16:53:52Z</time>
      </trkpt>
      <trkpt lat="45.42449" lon="5.92506">
        <ele>1687.724842825</ele>
        <time>2015-05-06T16:53:58Z</time>
      </trkpt>
      <trkpt lat="45.42448" lon="5.92512">
        <ele>1687.724842825</ele>
        <time>2015-05-06T16:54:03Z</time>
      </trkpt>
      <trkpt lat="45.42452" lon="5.9252">
        <ele>1688.277392286</ele>
        <time>2015-05-06T16:54:07Z</time>
      </trkpt>
      <trkpt lat="45.4245" lon="5.92527">
        <ele>1688.277392286</ele>
        <time>2015-05-06T16:54:13Z</time>
      </trkpt>
      <trkpt lat="45.42454" lon="5.92531">
        <ele>1688.95807229</ele>
        <time>2015-05-06T16:54:18Z</time>
      </trkpt>
      <trkpt lat="45.42453" lon="5.92536">
        <ele>1688.95807229</ele>
        <time>2015-05-06T16:54:23Z</time>
      </trkpt>
      <trkpt lat="45.42456" lon="5.9254">
        <ele>1688.95807229</ele>
        <time>2015-05-06T16:54:27Z</time>
      </trkpt>
      <trkpt lat="45.42457" lon="5.92545">
        <ele>1689.040196467</ele>
        <time>2015-05-06T16:54:32Z</time>
      </trkpt>
      <trkpt lat="45.42457" lon="5.92543">
        <ele>1689.040196467</ele>
        <time>2015-05-06T16:54:36Z</time>
      </trkpt>
      <trkpt lat="45.4246" lon="5.92546">
        <ele>1689.040196467</ele>
        <time>2015-05-06T16:54:42Z</time>
      </trkpt>
      <trkpt lat="45.42462" lon="5.9255">
        <ele>1689.040196467</ele>
        <time>2015-05-06T16:54:47Z</time>
      </trkpt>
      <trkpt lat="45.42463" lon="5.92552">
        <ele>1689.149093277</ele>
        <time>2015-05-06T16:54:51Z</time>
      </trkpt>
      <trkpt lat="45.42467" lon="5.92557">
        <ele>1689.149093277</ele>
        <time>2015-05-06T16:54:57Z</time>
      </trkpt>
      <trkpt lat="45.4247" lon="5.92558">
        <ele>1689.149093277</ele>
        <time>2015-05-06T16:55:03Z</time>
      </trkpt>
      <trkpt lat="45.4247" lon="5.92558">
        <ele>1689.149093277</ele>
        <time>2015-05-06T16:55:07Z</time>
      </trkpt>
      <trkpt lat="45.42472" lon="5.92561">
        <ele>1689.431690476</ele>
        <time>2015-05-06T16:55:13Z</time>
      </trkpt>
      <trkpt lat="45.42474" lon="5.9256">
        <ele>1689.431690476</ele>
        <time>2015-05-06T16:55:18Z</time>
      </trkpt>
      <trkpt lat="45.42475" lon="5.92565">
        <ele>1689.431690476</ele>
        <time>2015-05-06T16:55:23Z</time>
      </trkpt>
      <trkpt lat="45.42477" lon="5.92571">
        <ele>1690.455905305</ele>
        <time>2015-05-06T16:55:27Z</time>
      </trkpt>
      <trkpt lat="45.4248" lon="5.92576">
        <ele>1690.455905305</ele>
        <time>2015-05-06T16:55:31Z</time>
      </trkpt>
      <trkpt lat="45.42481" lon="5.92583">
        <ele>1691.881119576</ele>
        <time>2015-05-06T16:55:37Z</time>
      </trkpt>
      <trkpt lat="45.4248" lon="5.92588">
        <ele>1691.881119576</ele>
        <time>2015-05-06T16:55:42Z</time>
      </trkpt>
      <trkpt lat="45.42479" lon="5.92592">
        <ele>1691.881119576</ele>
        <time>2015-05-06T16:55:47Z</time>
      </trkpt>
      <trkpt lat="45.42479" lon="5.92591">
        <ele>1691.881119576</ele>
        <time>2015-05-06T16:55:52Z</time>
      </trkpt>
      <trkpt lat="45.42479" lon="5.92592">
        <ele>1691.881119576</ele>
        <time>2015-05-06T16:55:57Z</time>
      </trkpt>
      <trkpt lat="45.42477" lon="5.92592">
        <ele>1693.534651723</ele>
        <time>2015-05-06T16:56:02Z</time>
      </trkpt>
      <trkpt lat="45.42476" lon="5.92591">
        <ele>1693.534651723</ele>
        <time>2015-05-06T16:56:07Z</time>
      </trkpt>
      <trkpt lat="45.42476" lon="5.92591">
        <ele>1693.534651723</ele>
        <time>2015-05-06T16:56:12Z</time>
      </trkpt>
      <trkpt lat="45.42476" lon="5.92591">
        <ele>1693.534651723</ele>
        <time>2015-05-06T16:56:17Z</time>
      </trkpt>
      <trkpt lat="45.42476" lon="5.92591">
        <ele>1693.534651723</ele>
        <time>2015-05-06T16:56:22Z</time>
      </trkpt>
      <trkpt lat="45.42466" lon="5.92592">
        <ele>1694.823460501</ele>
        <time>2015-05-06T16:56:27Z</time>
      </trkpt>
      <trkpt lat="45.4246" lon="5.92591">
        <ele>1694.823460501</ele>
        <time>2015-05-06T16:56:32Z</time>
      </trkpt>
      <trkpt lat="45.42454" lon="5.92587">
        <ele>1696.063690864</ele>
        <time>2015-05-06T16:56:37Z</time>
      </trkpt>
      <trkpt lat="45.42452" lon="5.92583">
        <ele>1696.063690864</ele>
        <time>2015-05-06T16:56:42Z</time>
      </trkpt>
      <trkpt lat="45.42448" lon="5.92579">
        <ele>1697.548334783</ele>
        <time>2015-05-06T16:56:47Z</time>
      </trkpt>
      <trkpt lat="45.42443" lon="5.92577">
        <ele>1697.548334783</ele>
        <time>2015-05-06T16:56:52Z</time>
      </trkpt>
      <trkpt lat="45.42444" lon="5.92577">
        <ele>1697.548334783</ele>
        <time>2015-05-06T16:56:57Z</time>
      </trkpt>
      <trkpt lat="45.42443" lon="5.92577">
        <ele>1697.548334783</ele>
        <time>2015-05-06T16:57:01Z</time>
      </trkpt>
      <trkpt lat="45.42439" lon="5.92576">
        <ele>1699.836336621</ele>
        <time>2015-05-06T16:57:07Z</time>
      </trkpt>
      <trkpt lat="45.42435" lon="5.92579">
        <ele>1699.836336621</ele>
        <time>2015-05-06T16:57:12Z</time>
      </trkpt>
      <trkpt lat="45.4243" lon="5.9258">
        <ele>1702.146270649</ele>
        <time>2015-05-06T16:57:17Z</time>
      </trkpt>
      <trkpt lat="45.42424" lon="5.92579">
        <ele>1702.146270649</ele>
        <time>2015-05-06T16:57:22Z</time>
      </trkpt>
      <trkpt lat="45.4242" lon="5.92579">
        <ele>1704.906893529</ele>
        <time>2015-05-06T16:57:27Z</time>
      </trkpt>
      <trkpt lat="45.4242" lon="5.92585">
        <ele>1704.906893529</ele>
        <time>2015-05-06T16:57:32Z</time>
      </trkpt>
      <trkpt lat="45.4242" lon="5.92588">
        <ele>1704.906893529</ele>
        <time>2015-05-06T16:57:37Z</time>
      </trkpt>
      <trkpt lat="45.42417" lon="5.92591">
        <ele>1707.073050082</ele>
        <time>2015-05-06T16:57:42Z</time>
      </trkpt>
      <trkpt lat="45.42417" lon="5.92591">
        <ele>1707.073050082</ele>
        <time>2015-05-06T16:57:47Z</time>
      </trkpt>
      <trkpt lat="45.42417" lon="5.92591">
        <ele>1707.073050082</ele>
        <time>2015-05-06T16:57:52Z</time>
      </trkpt>
      <trkpt lat="45.42417" lon="5.92591">
        <ele>1707.073050082</ele>
        <time>2015-05-06T16:57:57Z</time>
      </trkpt>
      <trkpt lat="45.42417" lon="5.92591">
        <ele>1707.073050082</ele>
        <time>2015-05-06T16:58:01Z</time>
      </trkpt>
      <trkpt lat="45.42417" lon="5.92591">
        <ele>1707.073050082</ele>
        <time>2015-05-06T16:58:06Z</time>
      </trkpt>
      <trkpt lat="45.42415" lon="5.92589">
        <ele>1707.073050082</ele>
        <time>2015-05-06T16:58:12Z</time>
      </trkpt>
      <trkpt lat="45.42416" lon="5.9259">
        <ele>1707.073050082</ele>
        <time>2015-05-06T16:58:17Z</time>
      </trkpt>
      <trkpt lat="45.42416" lon="5.9259">
        <ele>1707.073050082</ele>
        <time>2015-05-06T16:58:22Z</time>
      </trkpt>
      <trkpt lat="45.42413" lon="5.92594">
        <ele>1707.073050082</ele>
        <time>2015-05-06T16:58:26Z</time>
      </trkpt>
      <trkpt lat="45.42412" lon="5.926">
        <ele>1709.11911062</ele>
        <time>2015-05-06T16:58:31Z</time>
      </trkpt>
      <trkpt lat="45.42411" lon="5.92605">
        <ele>1709.11911062</ele>
        <time>2015-05-06T16:58:37Z</time>
      </trkpt>
      <trkpt lat="45.42411" lon="5.92611">
        <ele>1709.11911062</ele>
        <time>2015-05-06T16:58:43Z</time>
      </trkpt>
      <trkpt lat="45.42412" lon="5.92614">
        <ele>1711.052579649</ele>
        <time>2015-05-06T16:58:48Z</time>
      </trkpt>
      <trkpt lat="45.42413" lon="5.92615">
        <ele>1711.052579649</ele>
        <time>2015-05-06T16:58:53Z</time>
      </trkpt>
      <trkpt lat="45.42412" lon="5.92615">
        <ele>1711.052579649</ele>
        <time>2015-05-06T16:58:58Z</time>
      </trkpt>
      <trkpt lat="45.42412" lon="5.92615">
        <ele>1711.052579649</ele>
        <time>2015-05-06T16:59:03Z</time>
      </trkpt>
      <trkpt lat="45.42413" lon="5.92615">
        <ele>1711.052579649</ele>
        <time>2015-05-06T16:59:08Z</time>
      </trkpt>
      <trkpt lat="45.42413" lon="5.92615">
        <ele>1711.052579649</ele>
        <time>2015-05-06T16:59:13Z</time>
      </trkpt>
      <trkpt lat="45.42412" lon="5.92615">
        <ele>1711.052579649</ele>
        <time>2015-05-06T16:59:18Z</time>
      </trkpt>
      <trkpt lat="45.42409" lon="5.92621">
        <ele>1711.052579649</ele>
        <time>2015-05-06T16:59:23Z</time>
      </trkpt>
      <trkpt lat="45.42402" lon="5.92622">
        <ele>1713.313044619</ele>
        <time>2015-05-06T16:59:28Z</time>
      </trkpt>
      <trkpt lat="45.42397" lon="5.92628">
        <ele>1713.313044619</ele>
        <time>2015-05-06T16:59:33Z</time>
      </trkpt>
      <trkpt lat="45.42399" lon="5.92636">
        <ele>1715.730430078</ele>
        <time>2015-05-06T16:59:38Z</time>
      </trkpt>
      <trkpt lat="45.424" lon="5.92639">
        <ele>1715.730430078</ele>
        <time>2015-05-06T16:59:43Z</time>
      </trkpt>
      <trkpt lat="45.42403" lon="5.92643">
        <ele>1715.730430078</ele>
        <time>2015-05-06T16:59:48Z</time>
      </trkpt>
      <trkpt lat="45.42404" lon="5.92645">
        <ele>1715.730430078</ele>
        <time>2015-05-06T16:59:53Z</time>
      </trkpt>
      <trkpt lat="45.42407" lon="5.92646">
        <ele>1718.146711043</ele>
        <time>2015-05-06T16:59:58Z</time>
      </trkpt>
      <trkpt lat="45.42406" lon="5.92646">
        <ele>1718.146711043</ele>
        <time>2015-05-06T17:00:03Z</time>
      </trkpt>
      <trkpt lat="45.42405" lon="5.92655">
        <ele>1718.146711043</ele>
        <time>2015-05-06T17:00:07Z</time>
      </trkpt>
      <trkpt lat="45.42407" lon="5.92659">
        <ele>1719.98314305</ele>
        <time>2015-05-06T17:00:13Z</time>
      </trkpt>
      <trkpt lat="45.42404" lon="5.92665">
        <ele>1719.98314305</ele>
        <time>2015-05-06T17:00:18Z</time>
      </trkpt>
      <trkpt lat="45.42406" lon="5.92665">
        <ele>1719.98314305</ele>
        <time>2015-05-06T17:00:21Z</time>
      </trkpt>
      <trkpt lat="45.42406" lon="5.92663">
        <ele>1719.98314305</ele>
        <time>2015-05-06T17:00:26Z</time>
      </trkpt>
      <trkpt lat="45.42406" lon="5.92663">
        <ele>1719.98314305</ele>
        <time>2015-05-06T17:00:32Z</time>
      </trkpt>
      <trkpt lat="45.42404" lon="5.92662">
        <ele>1722.290353679</ele>
        <time>2015-05-06T17:00:38Z</time>
      </trkpt>
      <trkpt lat="45.42399" lon="5.92664">
        <ele>1722.290353679</ele>
        <time>2015-05-06T17:00:43Z</time>
      </trkpt>
      <trkpt lat="45.42396" lon="5.92668">
        <ele>1722.290353679</ele>
        <time>2015-05-06T17:00:48Z</time>
      </trkpt>
      <trkpt lat="45.42396" lon="5.92673">
        <ele>1725.031707296</ele>
        <time>2015-05-06T17:00:53Z</time>
      </trkpt>
      <trkpt lat="45.42393" lon="5.92675">
        <ele>1725.031707296</ele>
        <time>2015-05-06T17:00:58Z</time>
      </trkpt>
      <trkpt lat="45.4239" lon="5.92677">
        <ele>1725.031707296</ele>
        <time>2015-05-06T17:01:02Z</time>
      </trkpt>
      <trkpt lat="45.42387" lon="5.92681">
        <ele>1727.451504998</ele>
        <time>2015-05-06T17:01:08Z</time>
      </trkpt>
      <trkpt lat="45.42385" lon="5.92684">
        <ele>1727.451504998</ele>
        <time>2015-05-06T17:01:13Z</time>
      </trkpt>
      <trkpt lat="45.42382" lon="5.92686">
        <ele>1727.451504998</ele>
        <time>2015-05-06T17:01:18Z</time>
      </trkpt>
      <trkpt lat="45.42382" lon="5.9269">
        <ele>1727.451504998</ele>
        <time>2015-05-06T17:01:23Z</time>
      </trkpt>
      <trkpt lat="45.42381" lon="5.92691">
        <ele>1729.571042968</ele>
        <time>2015-05-06T17:01:27Z</time>
      </trkpt>
      <trkpt lat="45.42382" lon="5.92691">
        <ele>1729.571042968</ele>
        <time>2015-05-06T17:01:32Z</time>
      </trkpt>
      <trkpt lat="45.4238" lon="5.92691">
        <ele>1729.571042968</ele>
        <time>2015-05-06T17:01:36Z</time>
      </trkpt>
      <trkpt lat="45.42378" lon="5.9269">
        <ele>1729.571042968</ele>
        <time>2015-05-06T17:01:42Z</time>
      </trkpt>
      <trkpt lat="45.42377" lon="5.92689">
        <ele>1729.571042968</ele>
        <time>2015-05-06T17:01:46Z</time>
      </trkpt>
      <trkpt lat="45.42376" lon="5.92684">
        <ele>1731.555035</ele>
        <time>2015-05-06T17:01:51Z</time>
      </trkpt>
      <trkpt lat="45.42377" lon="5.92681">
        <ele>1731.555035</ele>
        <time>2015-05-06T17:01:58Z</time>
      </trkpt>
      <trkpt lat="45.42376" lon="5.9268">
        <ele>1731.555035</ele>
        <time>2015-05-06T17:02:02Z</time>
      </trkpt>
      <trkpt lat="45.42374" lon="5.92681">
        <ele>1731.555035</ele>
        <time>2015-05-06T17:02:06Z</time>
      </trkpt>
      <trkpt lat="45.42369" lon="5.92682">
        <ele>1732.980061497</ele>
        <time>2015-05-06T17:02:13Z</time>
      </trkpt>
      <trkpt lat="45.42365" lon="5.92683">
        <ele>1732.980061497</ele>
        <time>2015-05-06T17:02:18Z</time>
      </trkpt>
      <trkpt lat="45.42367" lon="5.92685">
        <ele>1732.980061497</ele>
        <time>2015-05-06T17:02:22Z</time>
      </trkpt>
      <trkpt lat="45.42366" lon="5.92684">
        <ele>1732.980061497</ele>
        <time>2015-05-06T17:02:28Z</time>
      </trkpt>
      <trkpt lat="45.42363" lon="5.92676">
        <ele>1734.752406941</ele>
        <time>2015-05-06T17:02:33Z</time>
      </trkpt>
      <trkpt lat="45.42363" lon="5.92671">
        <ele>1734.752406941</ele>
        <time>2015-05-06T17:02:38Z</time>
      </trkpt>
      <trkpt lat="45.42363" lon="5.92669">
        <ele>1734.752406941</ele>
        <time>2015-05-06T17:02:42Z</time>
      </trkpt>
      <trkpt lat="45.42366" lon="5.92664">
        <ele>1735.837390412</ele>
        <time>2015-05-06T17:02:48Z</time>
      </trkpt>
      <trkpt lat="45.42366" lon="5.9266">
        <ele>1735.837390412</ele>
        <time>2015-05-06T17:02:53Z</time>
      </trkpt>
      <trkpt lat="45.42367" lon="5.92659">
        <ele>1735.837390412</ele>
        <time>2015-05-06T17:02:58Z</time>
      </trkpt>
      <trkpt lat="45.42368" lon="5.92655">
        <ele>1735.837390412</ele>
        <time>2015-05-06T17:03:03Z</time>
      </trkpt>
      <trkpt lat="45.42367" lon="5.92648">
        <ele>1736.431180419</ele>
        <time>2015-05-06T17:03:07Z</time>
      </trkpt>
      <trkpt lat="45.42368" lon="5.92644">
        <ele>1736.431180419</ele>
        <time>2015-05-06T17:03:13Z</time>
      </trkpt>
      <trkpt lat="45.42363" lon="5.92642">
        <ele>1736.431180419</ele>
        <time>2015-05-06T17:03:18Z</time>
      </trkpt>
      <trkpt lat="45.42362" lon="5.92645">
        <ele>1736.428708108</ele>
        <time>2015-05-06T17:03:22Z</time>
      </trkpt>
      <trkpt lat="45.42361" lon="5.92645">
        <ele>1736.428708108</ele>
        <time>2015-05-06T17:03:28Z</time>
      </trkpt>
      <trkpt lat="45.42361" lon="5.92645">
        <ele>1736.428708108</ele>
        <time>2015-05-06T17:03:33Z</time>
      </trkpt>
      <trkpt lat="45.42361" lon="5.92645">
        <ele>1736.428708108</ele>
        <time>2015-05-06T17:03:38Z</time>
      </trkpt>
      <trkpt lat="45.42361" lon="5.92645">
        <ele>1736.428708108</ele>
        <time>2015-05-06T17:03:43Z</time>
      </trkpt>
      <trkpt lat="45.42372" lon="5.92656">
        <ele>1737.319527905</ele>
        <time>2015-05-06T17:03:48Z</time>
      </trkpt>
      <trkpt lat="45.42377" lon="5.92663">
        <ele>1737.319527905</ele>
        <time>2015-05-06T17:03:53Z</time>
      </trkpt>
      <trkpt lat="45.42382" lon="5.92668">
        <ele>1737.887265046</ele>
        <time>2015-05-06T17:03:58Z</time>
      </trkpt>
      <trkpt lat="45.42385" lon="5.92675">
        <ele>1737.887265046</ele>
        <time>2015-05-06T17:04:03Z</time>
      </trkpt>
      <trkpt lat="45.42384" lon="5.92682">
        <ele>1738.591018295</ele>
        <time>2015-05-06T17:04:07Z</time>
      </trkpt>
      <trkpt lat="45.42381" lon="5.92688">
        <ele>1738.591018295</ele>
        <time>2015-05-06T17:04:13Z</time>
      </trkpt>
      <trkpt lat="45.42382" lon="5.92693">
        <ele>1738.591018295</ele>
        <time>2015-05-06T17:04:18Z</time>
      </trkpt>
      <trkpt lat="45.42382" lon="5.92697">
        <ele>1739.279317071</ele>
        <time>2015-05-06T17:04:22Z</time>
      </trkpt>
      <trkpt lat="45.42384" lon="5.92699">
        <ele>1739.279317071</ele>
        <time>2015-05-06T17:04:28Z</time>
      </trkpt>
      <trkpt lat="45.42384" lon="5.92704">
        <ele>1739.279317071</ele>
        <time>2015-05-06T17:04:33Z</time>
      </trkpt>
      <trkpt lat="45.42386" lon="5.92707">
        <ele>1739.52361334</ele>
        <time>2015-05-06T17:04:38Z</time>
      </trkpt>
      <trkpt lat="45.42387" lon="5.92709">
        <ele>1739.52361334</ele>
        <time>2015-05-06T17:04:43Z</time>
      </trkpt>
      <trkpt lat="45.42386" lon="5.9271">
        <ele>1739.52361334</ele>
        <time>2015-05-06T17:04:48Z</time>
      </trkpt>
      <trkpt lat="45.42388" lon="5.92712">
        <ele>1739.52361334</ele>
        <time>2015-05-06T17:04:53Z</time>
      </trkpt>
      <trkpt lat="45.42387" lon="5.92715">
        <ele>1739.52361334</ele>
        <time>2015-05-06T17:04:58Z</time>
      </trkpt>
      <trkpt lat="45.42389" lon="5.92718">
        <ele>1739.93683097</ele>
        <time>2015-05-06T17:05:03Z</time>
      </trkpt>
      <trkpt lat="45.42389" lon="5.92725">
        <ele>1739.93683097</ele>
        <time>2015-05-06T17:05:06Z</time>
      </trkpt>
      <trkpt lat="45.42389" lon="5.92733">
        <ele>1740.509910667</ele>
        <time>2015-05-06T17:05:12Z</time>
      </trkpt>
      <trkpt lat="45.42388" lon="5.92736">
        <ele>1740.509910667</ele>
        <time>2015-05-06T17:05:16Z</time>
      </trkpt>
      <trkpt lat="45.42388" lon="5.92742">
        <ele>1740.509910667</ele>
        <time>2015-05-06T17:05:22Z</time>
      </trkpt>
      <trkpt lat="45.42385" lon="5.92744">
        <ele>1740.509910667</ele>
        <time>2015-05-06T17:05:26Z</time>
      </trkpt>
      <trkpt lat="45.42381" lon="5.92744">
        <ele>1740.945741415</ele>
        <time>2015-05-06T17:05:31Z</time>
      </trkpt>
      <trkpt lat="45.4237" lon="5.92748">
        <ele>1741.257592229</ele>
        <time>2015-05-06T17:05:38Z</time>
      </trkpt>
      <trkpt lat="45.42367" lon="5.92748">
        <ele>1741.257592229</ele>
        <time>2015-05-06T17:05:42Z</time>
      </trkpt>
      <trkpt lat="45.42367" lon="5.92748">
        <ele>1741.257592229</ele>
        <time>2015-05-06T17:05:47Z</time>
      </trkpt>
      <trkpt lat="45.42367" lon="5.92747">
        <ele>1741.257592229</ele>
        <time>2015-05-06T17:05:51Z</time>
      </trkpt>
      <trkpt lat="45.42368" lon="5.92747">
        <ele>1741.257592229</ele>
        <time>2015-05-06T17:05:56Z</time>
      </trkpt>
      <trkpt lat="45.42368" lon="5.92751">
        <ele>1741.257592229</ele>
        <time>2015-05-06T17:06:02Z</time>
      </trkpt>
      <trkpt lat="45.4237" lon="5.92749">
        <ele>1741.313934911</ele>
        <time>2015-05-06T17:06:07Z</time>
      </trkpt>
      <trkpt lat="45.42371" lon="5.92749">
        <ele>1741.313934911</ele>
        <time>2015-05-06T17:06:13Z</time>
      </trkpt>
      <trkpt lat="45.42374" lon="5.92748">
        <ele>1741.313934911</ele>
        <time>2015-05-06T17:06:18Z</time>
      </trkpt>
      <trkpt lat="45.4238" lon="5.92747">
        <ele>1740.849442639</ele>
        <time>2015-05-06T17:06:23Z</time>
      </trkpt>
      <trkpt lat="45.42384" lon="5.92751">
        <ele>1740.849442639</ele>
        <time>2015-05-06T17:06:28Z</time>
      </trkpt>
      <trkpt lat="45.42383" lon="5.92749">
        <ele>1740.849442639</ele>
        <time>2015-05-06T17:06:32Z</time>
      </trkpt>
      <trkpt lat="45.42383" lon="5.92749">
        <ele>1740.849442639</ele>
        <time>2015-05-06T17:06:38Z</time>
      </trkpt>
      <trkpt lat="45.4238" lon="5.92748">
        <ele>1740.48433338</ele>
        <time>2015-05-06T17:06:43Z</time>
      </trkpt>
      <trkpt lat="45.42373" lon="5.92748">
        <ele>1740.48433338</ele>
        <time>2015-05-06T17:06:48Z</time>
      </trkpt>
      <trkpt lat="45.42369" lon="5.92747">
        <ele>1740.216458261</ele>
        <time>2015-05-06T17:06:53Z</time>
      </trkpt>
      <trkpt lat="45.42365" lon="5.92747">
        <ele>1740.216458261</ele>
        <time>2015-05-06T17:06:58Z</time>
      </trkpt>
      <trkpt lat="45.42363" lon="5.92741">
        <ele>1740.216458261</ele>
        <time>2015-05-06T17:07:03Z</time>
      </trkpt>
      <trkpt lat="45.42365" lon="5.92734">
        <ele>1740.331685341</ele>
        <time>2015-05-06T17:07:07Z</time>
      </trkpt>
      <trkpt lat="45.42364" lon="5.92733">
        <ele>1740.331685341</ele>
        <time>2015-05-06T17:07:13Z</time>
      </trkpt>
      <trkpt lat="45.42359" lon="5.92732">
        <ele>1740.331685341</ele>
        <time>2015-05-06T17:07:18Z</time>
      </trkpt>
      <trkpt lat="45.4236" lon="5.92729">
        <ele>1740.331685341</ele>
        <time>2015-05-06T17:07:23Z</time>
      </trkpt>
      <trkpt lat="45.42359" lon="5.9273">
        <ele>1740.949600618</ele>
        <time>2015-05-06T17:07:28Z</time>
      </trkpt>
      <trkpt lat="45.42357" lon="5.92725">
        <ele>1740.949600618</ele>
        <time>2015-05-06T17:07:33Z</time>
      </trkpt>
      <trkpt lat="45.42357" lon="5.92725">
        <ele>1740.949600618</ele>
        <time>2015-05-06T17:07:38Z</time>
      </trkpt>
      <trkpt lat="45.42356" lon="5.92725">
        <ele>1740.949600618</ele>
        <time>2015-05-06T17:07:42Z</time>
      </trkpt>
      <trkpt lat="45.42356" lon="5.92724">
        <ele>1740.949600618</ele>
        <time>2015-05-06T17:07:48Z</time>
      </trkpt>
      <trkpt lat="45.42356" lon="5.92724">
        <ele>1740.949600618</ele>
        <time>2015-05-06T17:07:53Z</time>
      </trkpt>
      <trkpt lat="45.42356" lon="5.92724">
        <ele>1740.949600618</ele>
        <time>2015-05-06T17:07:58Z</time>
      </trkpt>
      <trkpt lat="45.42356" lon="5.92724">
        <ele>1740.949600618</ele>
        <time>2015-05-06T17:08:03Z</time>
      </trkpt>
      <trkpt lat="45.42356" lon="5.92724">
        <ele>1740.949600618</ele>
        <time>2015-05-06T17:08:08Z</time>
      </trkpt>
      <trkpt lat="45.42356" lon="5.92724">
        <ele>1740.949600618</ele>
        <time>2015-05-06T17:08:13Z</time>
      </trkpt>
      <trkpt lat="45.42356" lon="5.92724">
        <ele>1740.949600618</ele>
        <time>2015-05-06T17:08:18Z</time>
      </trkpt>
      <trkpt lat="45.42356" lon="5.92724">
        <ele>1740.949600618</ele>
        <time>2015-05-06T17:08:23Z</time>
      </trkpt>
      <trkpt lat="45.42356" lon="5.92724">
        <ele>1740.949600618</ele>
        <time>2015-05-06T17:08:27Z</time>
      </trkpt>
      <trkpt lat="45.42356" lon="5.92724">
        <ele>1740.949600618</ele>
        <time>2015-05-06T17:08:32Z</time>
      </trkpt>
      <trkpt lat="45.42356" lon="5.92724">
        <ele>1740.949600618</ele>
        <time>2015-05-06T17:08:36Z</time>
      </trkpt>
      <trkpt lat="45.42356" lon="5.92724">
        <ele>1740.949600618</ele>
        <time>2015-05-06T17:08:42Z</time>
      </trkpt>
      <trkpt lat="45.42356" lon="5.92724">
        <ele>1740.949600618</ele>
        <time>2015-05-06T17:08:46Z</time>
      </trkpt>
      <trkpt lat="45.42352" lon="5.92725">
        <ele>1741.02660497</ele>
        <time>2015-05-06T17:08:52Z</time>
      </trkpt>
      <trkpt lat="45.42351" lon="5.92724">
        <ele>1741.02660497</ele>
        <time>2015-05-06T17:08:57Z</time>
      </trkpt>
      <trkpt lat="45.42351" lon="5.92724">
        <ele>1741.02660497</ele>
        <time>2015-05-06T17:09:03Z</time>
      </trkpt>
      <trkpt lat="45.42352" lon="5.92723">
        <ele>1741.02660497</ele>
        <time>2015-05-06T17:09:07Z</time>
      </trkpt>
      <trkpt lat="45.42352" lon="5.92723">
        <ele>1741.02660497</ele>
        <time>2015-05-06T17:09:13Z</time>
      </trkpt>
      <trkpt lat="45.42352" lon="5.92723">
        <ele>1741.02660497</ele>
        <time>2015-05-06T17:09:17Z</time>
      </trkpt>
      <trkpt lat="45.42352" lon="5.92723">
        <ele>1741.02660497</ele>
        <time>2015-05-06T17:09:23Z</time>
      </trkpt>
      <trkpt lat="45.42357" lon="5.92731">
        <ele>1741.470621239</ele>
        <time>2015-05-06T17:09:28Z</time>
      </trkpt>
      <trkpt lat="45.42368" lon="5.92739">
        <ele>1741.824743205</ele>
        <time>2015-05-06T17:09:33Z</time>
      </trkpt>
      <trkpt lat="45.42367" lon="5.9274">
        <ele>1741.824743205</ele>
        <time>2015-05-06T17:09:38Z</time>
      </trkpt>
      <trkpt lat="45.42365" lon="5.92743">
        <ele>1741.824743205</ele>
        <time>2015-05-06T17:09:43Z</time>
      </trkpt>
      <trkpt lat="45.42365" lon="5.92746">
        <ele>1741.824743205</ele>
        <time>2015-05-06T17:09:47Z</time>
      </trkpt>
      <trkpt lat="45.42365" lon="5.92752">
        <ele>1741.809887805</ele>
        <time>2015-05-06T17:09:53Z</time>
      </trkpt>
      <trkpt lat="45.4236" lon="5.92753">
        <ele>1741.809887805</ele>
        <time>2015-05-06T17:09:58Z</time>
      </trkpt>
      <trkpt lat="45.4236" lon="5.92754">
        <ele>1741.809887805</ele>
        <time>2015-05-06T17:10:03Z</time>
      </trkpt>
      <trkpt lat="45.4236" lon="5.92752">
        <ele>1741.809887805</ele>
        <time>2015-05-06T17:10:08Z</time>
      </trkpt>
      <trkpt lat="45.4236" lon="5.92752">
        <ele>1741.809887805</ele>
        <time>2015-05-06T17:10:13Z</time>
      </trkpt>
      <trkpt lat="45.42358" lon="5.92753">
        <ele>1741.600736193</ele>
        <time>2015-05-06T17:10:18Z</time>
      </trkpt>
      <trkpt lat="45.42354" lon="5.92763">
        <ele>1741.600736193</ele>
        <time>2015-05-06T17:10:23Z</time>
      </trkpt>
      <trkpt lat="45.42351" lon="5.9277">
        <ele>1741.071352401</ele>
        <time>2015-05-06T17:10:27Z</time>
      </trkpt>
      <trkpt lat="45.42353" lon="5.92772">
        <ele>1741.071352401</ele>
        <time>2015-05-06T17:10:33Z</time>
      </trkpt>
      <trkpt lat="45.42354" lon="5.92775">
        <ele>1741.071352401</ele>
        <time>2015-05-06T17:10:38Z</time>
      </trkpt>
      <trkpt lat="45.42354" lon="5.92774">
        <ele>1741.071352401</ele>
        <time>2015-05-06T17:10:43Z</time>
      </trkpt>
      <trkpt lat="45.42353" lon="5.92778">
        <ele>1741.071352401</ele>
        <time>2015-05-06T17:10:48Z</time>
      </trkpt>
      <trkpt lat="45.42351" lon="5.92782">
        <ele>1740.249949351</ele>
        <time>2015-05-06T17:10:53Z</time>
      </trkpt>
      <trkpt lat="45.42352" lon="5.9279">
        <ele>1740.249949351</ele>
        <time>2015-05-06T17:10:58Z</time>
      </trkpt>
      <trkpt lat="45.42351" lon="5.92795">
        <ele>1740.249949351</ele>
        <time>2015-05-06T17:11:03Z</time>
      </trkpt>
      <trkpt lat="45.42348" lon="5.92799">
        <ele>1739.883926262</ele>
        <time>2015-05-06T17:11:07Z</time>
      </trkpt>
      <trkpt lat="45.42345" lon="5.92805">
        <ele>1739.883926262</ele>
        <time>2015-05-06T17:11:13Z</time>
      </trkpt>
      <trkpt lat="45.42346" lon="5.92811">
        <ele>1739.943825404</ele>
        <time>2015-05-06T17:11:18Z</time>
      </trkpt>
      <trkpt lat="45.42345" lon="5.92813">
        <ele>1739.943825404</ele>
        <time>2015-05-06T17:11:23Z</time>
      </trkpt>
      <trkpt lat="45.42345" lon="5.92815">
        <ele>1739.943825404</ele>
        <time>2015-05-06T17:11:28Z</time>
      </trkpt>
      <trkpt lat="45.42348" lon="5.92821">
        <ele>1739.943825404</ele>
        <time>2015-05-06T17:11:33Z</time>
      </trkpt>
      <trkpt lat="45.42348" lon="5.92825">
        <ele>1739.968701723</ele>
        <time>2015-05-06T17:11:38Z</time>
      </trkpt>
      <trkpt lat="45.42353" lon="5.9283">
        <ele>1739.968701723</ele>
        <time>2015-05-06T17:11:43Z</time>
      </trkpt>
      <trkpt lat="45.42356" lon="5.92835">
        <ele>1740.396113049</ele>
        <time>2015-05-06T17:11:48Z</time>
      </trkpt>
      <trkpt lat="45.42355" lon="5.9284">
        <ele>1740.396113049</ele>
        <time>2015-05-06T17:11:52Z</time>
      </trkpt>
      <trkpt lat="45.42351" lon="5.92842">
        <ele>1740.396113049</ele>
        <time>2015-05-06T17:11:56Z</time>
      </trkpt>
      <trkpt lat="45.4235" lon="5.92844">
        <ele>1741.053780003</ele>
        <time>2015-05-06T17:12:01Z</time>
      </trkpt>
      <trkpt lat="45.4235" lon="5.92842">
        <ele>1741.053780003</ele>
        <time>2015-05-06T17:12:06Z</time>
      </trkpt>
      <trkpt lat="45.4235" lon="5.92841">
        <ele>1741.053780003</ele>
        <time>2015-05-06T17:12:11Z</time>
      </trkpt>
      <trkpt lat="45.42352" lon="5.92847">
        <ele>1741.053780003</ele>
        <time>2015-05-06T17:12:16Z</time>
      </trkpt>
      <trkpt lat="45.4235" lon="5.92849">
        <ele>1741.053780003</ele>
        <time>2015-05-06T17:12:21Z</time>
      </trkpt>
      <trkpt lat="45.42349" lon="5.92857">
        <ele>1742.357762392</ele>
        <time>2015-05-06T17:12:27Z</time>
      </trkpt>
      <trkpt lat="45.42347" lon="5.92861">
        <ele>1742.357762392</ele>
        <time>2015-05-06T17:12:33Z</time>
      </trkpt>
      <trkpt lat="45.42343" lon="5.92867">
        <ele>1743.682857695</ele>
        <time>2015-05-06T17:12:38Z</time>
      </trkpt>
      <trkpt lat="45.42342" lon="5.92873">
        <ele>1743.682857695</ele>
        <time>2015-05-06T17:12:42Z</time>
      </trkpt>
      <trkpt lat="45.42336" lon="5.92878">
        <ele>1745.170189409</ele>
        <time>2015-05-06T17:12:48Z</time>
      </trkpt>
      <trkpt lat="45.42333" lon="5.92882">
        <ele>1745.170189409</ele>
        <time>2015-05-06T17:12:52Z</time>
      </trkpt>
      <trkpt lat="45.42333" lon="5.92888">
        <ele>1745.170189409</ele>
        <time>2015-05-06T17:12:57Z</time>
      </trkpt>
      <trkpt lat="45.42334" lon="5.92892">
        <ele>1746.517639054</ele>
        <time>2015-05-06T17:13:03Z</time>
      </trkpt>
      <trkpt lat="45.42333" lon="5.929">
        <ele>1746.517639054</ele>
        <time>2015-05-06T17:13:08Z</time>
      </trkpt>
      <trkpt lat="45.42331" lon="5.92908">
        <ele>1747.733821189</ele>
        <time>2015-05-06T17:13:13Z</time>
      </trkpt>
      <trkpt lat="45.42331" lon="5.92914">
        <ele>1747.733821189</ele>
        <time>2015-05-06T17:13:18Z</time>
      </trkpt>
      <trkpt lat="45.4233" lon="5.9292">
        <ele>1747.733821189</ele>
        <time>2015-05-06T17:13:23Z</time>
      </trkpt>
      <trkpt lat="45.42329" lon="5.92928">
        <ele>1748.827021032</ele>
        <time>2015-05-06T17:13:28Z</time>
      </trkpt>
      <trkpt lat="45.42328" lon="5.92935">
        <ele>1748.827021032</ele>
        <time>2015-05-06T17:13:33Z</time>
      </trkpt>
      <trkpt lat="45.42323" lon="5.92942">
        <ele>1749.949315927</ele>
        <time>2015-05-06T17:13:38Z</time>
      </trkpt>
      <trkpt lat="45.42319" lon="5.92949">
        <ele>1749.949315927</ele>
        <time>2015-05-06T17:13:43Z</time>
      </trkpt>
      <trkpt lat="45.42318" lon="5.92955">
        <ele>1750.953260268</ele>
        <time>2015-05-06T17:13:47Z</time>
      </trkpt>
      <trkpt lat="45.42316" lon="5.92953">
        <ele>1750.953260268</ele>
        <time>2015-05-06T17:13:52Z</time>
      </trkpt>
      <trkpt lat="45.42311" lon="5.92953">
        <ele>1750.953260268</ele>
        <time>2015-05-06T17:13:56Z</time>
      </trkpt>
      <trkpt lat="45.42311" lon="5.92952">
        <ele>1750.953260268</ele>
        <time>2015-05-06T17:14:01Z</time>
      </trkpt>
      <trkpt lat="45.42311" lon="5.92953">
        <ele>1750.953260268</ele>
        <time>2015-05-06T17:14:08Z</time>
      </trkpt>
      <trkpt lat="45.42315" lon="5.92951">
        <ele>1751.12608508</ele>
        <time>2015-05-06T17:14:13Z</time>
      </trkpt>
      <trkpt lat="45.42318" lon="5.92948">
        <ele>1751.12608508</ele>
        <time>2015-05-06T17:14:18Z</time>
      </trkpt>
      <trkpt lat="45.42318" lon="5.92948">
        <ele>1751.12608508</ele>
        <time>2015-05-06T17:14:23Z</time>
      </trkpt>
      <trkpt lat="45.42317" lon="5.92948">
        <ele>1751.12608508</ele>
        <time>2015-05-06T17:14:28Z</time>
      </trkpt>
      <trkpt lat="45.42316" lon="5.92955">
        <ele>1751.53900869</ele>
        <time>2015-05-06T17:14:32Z</time>
      </trkpt>
      <trkpt lat="45.42315" lon="5.92961">
        <ele>1751.53900869</ele>
        <time>2015-05-06T17:14:38Z</time>
      </trkpt>
      <trkpt lat="45.42312" lon="5.92964">
        <ele>1751.53900869</ele>
        <time>2015-05-06T17:14:42Z</time>
      </trkpt>
      <trkpt lat="45.42312" lon="5.92967">
        <ele>1752.175071588</ele>
        <time>2015-05-06T17:14:46Z</time>
      </trkpt>
      <trkpt lat="45.42312" lon="5.92968">
        <ele>1752.175071588</ele>
        <time>2015-05-06T17:14:51Z</time>
      </trkpt>
      <trkpt lat="45.42312" lon="5.92969">
        <ele>1752.175071588</ele>
        <time>2015-05-06T17:14:56Z</time>
      </trkpt>
      <trkpt lat="45.42313" lon="5.92972">
        <ele>1752.175071588</ele>
        <time>2015-05-06T17:15:01Z</time>
      </trkpt>
      <trkpt lat="45.42313" lon="5.92973">
        <ele>1752.175071588</ele>
        <time>2015-05-06T17:15:06Z</time>
      </trkpt>
      <trkpt lat="45.42315" lon="5.92976">
        <ele>1752.175071588</ele>
        <time>2015-05-06T17:15:11Z</time>
      </trkpt>
      <trkpt lat="45.42313" lon="5.92976">
        <ele>1752.175071588</ele>
        <time>2015-05-06T17:15:16Z</time>
      </trkpt>
      <trkpt lat="45.42314" lon="5.92976">
        <ele>1753.306123896</ele>
        <time>2015-05-06T17:15:21Z</time>
      </trkpt>
      <trkpt lat="45.42314" lon="5.92977">
        <ele>1753.306123896</ele>
        <time>2015-05-06T17:15:26Z</time>
      </trkpt>
      <trkpt lat="45.42314" lon="5.92977">
        <ele>1753.306123896</ele>
        <time>2015-05-06T17:15:31Z</time>
      </trkpt>
      <trkpt lat="45.42314" lon="5.92977">
        <ele>1753.306123896</ele>
        <time>2015-05-06T17:15:36Z</time>
      </trkpt>
      <trkpt lat="45.42314" lon="5.92977">
        <ele>1753.306123896</ele>
        <time>2015-05-06T17:15:41Z</time>
      </trkpt>
      <trkpt lat="45.42314" lon="5.92977">
        <ele>1753.306123896</ele>
        <time>2015-05-06T17:15:46Z</time>
      </trkpt>
      <trkpt lat="45.42317" lon="5.92979">
        <ele>1753.306123896</ele>
        <time>2015-05-06T17:15:52Z</time>
      </trkpt>
      <trkpt lat="45.4232" lon="5.92985">
        <ele>1754.17384888</ele>
        <time>2015-05-06T17:15:57Z</time>
      </trkpt>
      <trkpt lat="45.42318" lon="5.9299">
        <ele>1754.17384888</ele>
        <time>2015-05-06T17:16:03Z</time>
      </trkpt>
      <trkpt lat="45.42318" lon="5.92999">
        <ele>1755.229237293</ele>
        <time>2015-05-06T17:16:07Z</time>
      </trkpt>
      <trkpt lat="45.42316" lon="5.93006">
        <ele>1755.229237293</ele>
        <time>2015-05-06T17:16:12Z</time>
      </trkpt>
      <trkpt lat="45.42318" lon="5.93007">
        <ele>1755.229237293</ele>
        <time>2015-05-06T17:16:17Z</time>
      </trkpt>
      <trkpt lat="45.42317" lon="5.93007">
        <ele>1755.229237293</ele>
        <time>2015-05-06T17:16:23Z</time>
      </trkpt>
      <trkpt lat="45.42318" lon="5.93006">
        <ele>1755.229237293</ele>
        <time>2015-05-06T17:16:28Z</time>
      </trkpt>
      <trkpt lat="45.42318" lon="5.93006">
        <ele>1755.229237293</ele>
        <time>2015-05-06T17:16:33Z</time>
      </trkpt>
      <trkpt lat="45.42318" lon="5.93006">
        <ele>1755.229237293</ele>
        <time>2015-05-06T17:16:38Z</time>
      </trkpt>
      <trkpt lat="45.42318" lon="5.93006">
        <ele>1755.229237293</ele>
        <time>2015-05-06T17:16:43Z</time>
      </trkpt>
      <trkpt lat="45.42318" lon="5.93006">
        <ele>1755.229237293</ele>
        <time>2015-05-06T17:16:48Z</time>
      </trkpt>
      <trkpt lat="45.42318" lon="5.93006">
        <ele>1755.229237293</ele>
        <time>2015-05-06T17:16:53Z</time>
      </trkpt>
      <trkpt lat="45.42318" lon="5.93006">
        <ele>1755.229237293</ele>
        <time>2015-05-06T17:16:58Z</time>
      </trkpt>
      <trkpt lat="45.42317" lon="5.93009">
        <ele>1756.024935263</ele>
        <time>2015-05-06T17:17:02Z</time>
      </trkpt>
      <trkpt lat="45.42316" lon="5.93013">
        <ele>1756.024935263</ele>
        <time>2015-05-06T17:17:08Z</time>
      </trkpt>
      <trkpt lat="45.42316" lon="5.93012">
        <ele>1756.024935263</ele>
        <time>2015-05-06T17:17:13Z</time>
      </trkpt>
      <trkpt lat="45.42316" lon="5.93012">
        <ele>1756.024935263</ele>
        <time>2015-05-06T17:17:18Z</time>
      </trkpt>
      <trkpt lat="45.42316" lon="5.93012">
        <ele>1756.024935263</ele>
        <time>2015-05-06T17:17:23Z</time>
      </trkpt>
      <trkpt lat="45.42316" lon="5.93012">
        <ele>1756.024935263</ele>
        <time>2015-05-06T17:17:28Z</time>
      </trkpt>
      <trkpt lat="45.42316" lon="5.93012">
        <ele>1756.024935263</ele>
        <time>2015-05-06T17:17:33Z</time>
      </trkpt>
      <trkpt lat="45.42316" lon="5.93012">
        <ele>1756.024935263</ele>
        <time>2015-05-06T17:17:38Z</time>
      </trkpt>
      <trkpt lat="45.42316" lon="5.93012">
        <ele>1756.024935263</ele>
        <time>2015-05-06T17:17:43Z</time>
      </trkpt>
      <trkpt lat="45.42316" lon="5.93012">
        <ele>1756.024935263</ele>
        <time>2015-05-06T17:17:46Z</time>
      </trkpt>
      <trkpt lat="45.42316" lon="5.93012">
        <ele>1756.024935263</ele>
        <time>2015-05-06T17:17:53Z</time>
      </trkpt>
      <trkpt lat="45.42316" lon="5.93012">
        <ele>1756.024935263</ele>
        <time>2015-05-06T17:17:56Z</time>
      </trkpt>
      <trkpt lat="45.42316" lon="5.93004">
        <ele>1757.444164017</ele>
        <time>2015-05-06T17:18:02Z</time>
      </trkpt>
      <trkpt lat="45.42315" lon="5.93001">
        <ele>1757.444164017</ele>
        <time>2015-05-06T17:18:06Z</time>
      </trkpt>
      <trkpt lat="45.42315" lon="5.92994">
        <ele>1757.444164017</ele>
        <time>2015-05-06T17:18:11Z</time>
      </trkpt>
      <trkpt lat="45.42313" lon="5.92984">
        <ele>1758.862392116</ele>
        <time>2015-05-06T17:18:17Z</time>
      </trkpt>
      <trkpt lat="45.42309" lon="5.92979">
        <ele>1758.862392116</ele>
        <time>2015-05-06T17:18:23Z</time>
      </trkpt>
      <trkpt lat="45.42305" lon="5.92971">
        <ele>1759.989185563</ele>
        <time>2015-05-06T17:18:28Z</time>
      </trkpt>
      <trkpt lat="45.42303" lon="5.92966">
        <ele>1759.989185563</ele>
        <time>2015-05-06T17:18:31Z</time>
      </trkpt>
      <trkpt lat="45.42303" lon="5.92964">
        <ele>1759.989185563</ele>
        <time>2015-05-06T17:18:36Z</time>
      </trkpt>
      <trkpt lat="45.42303" lon="5.92964">
        <ele>1759.989185563</ele>
        <time>2015-05-06T17:18:41Z</time>
      </trkpt>
      <trkpt lat="45.42304" lon="5.92963">
        <ele>1759.989185563</ele>
        <time>2015-05-06T17:18:46Z</time>
      </trkpt>
      <trkpt lat="45.42303" lon="5.92963">
        <ele>1759.989185563</ele>
        <time>2015-05-06T17:18:52Z</time>
      </trkpt>
      <trkpt lat="45.42297" lon="5.92961">
        <ele>1760.556262234</ele>
        <time>2015-05-06T17:18:58Z</time>
      </trkpt>
      <trkpt lat="45.42293" lon="5.92958">
        <ele>1760.556262234</ele>
        <time>2015-05-06T17:19:02Z</time>
      </trkpt>
      <trkpt lat="45.4229" lon="5.92956">
        <ele>1760.556262234</ele>
        <time>2015-05-06T17:19:08Z</time>
      </trkpt>
      <trkpt lat="45.42292" lon="5.92954">
        <ele>1761.757733752</ele>
        <time>2015-05-06T17:19:13Z</time>
      </trkpt>
      <trkpt lat="45.42292" lon="5.92945">
        <ele>1761.757733752</ele>
        <time>2015-05-06T17:19:18Z</time>
      </trkpt>
      <trkpt lat="45.42291" lon="5.92944">
        <ele>1761.757733752</ele>
        <time>2015-05-06T17:19:22Z</time>
      </trkpt>
      <trkpt lat="45.42288" lon="5.9294">
        <ele>1762.104218515</ele>
        <time>2015-05-06T17:19:28Z</time>
      </trkpt>
      <trkpt lat="45.42286" lon="5.92939">
        <ele>1762.104218515</ele>
        <time>2015-05-06T17:19:33Z</time>
      </trkpt>
      <trkpt lat="45.42283" lon="5.92939">
        <ele>1762.104218515</ele>
        <time>2015-05-06T17:19:38Z</time>
      </trkpt>
      <trkpt lat="45.42281" lon="5.92939">
        <ele>1762.104218515</ele>
        <time>2015-05-06T17:19:43Z</time>
      </trkpt>
      <trkpt lat="45.42276" lon="5.92935">
        <ele>1762.668039465</ele>
        <time>2015-05-06T17:19:48Z</time>
      </trkpt>
      <trkpt lat="45.42273" lon="5.92935">
        <ele>1762.668039465</ele>
        <time>2015-05-06T17:19:53Z</time>
      </trkpt>
      <trkpt lat="45.42269" lon="5.92937">
        <ele>1762.668039465</ele>
        <time>2015-05-06T17:19:58Z</time>
      </trkpt>
      <trkpt lat="45.42269" lon="5.9294">
        <ele>1762.668039465</ele>
        <time>2015-05-06T17:20:03Z</time>
      </trkpt>
      <trkpt lat="45.42265" lon="5.92939">
        <ele>1763.577478266</ele>
        <time>2015-05-06T17:20:07Z</time>
      </trkpt>
      <trkpt lat="45.42262" lon="5.92939">
        <ele>1763.577478266</ele>
        <time>2015-05-06T17:20:13Z</time>
      </trkpt>
      <trkpt lat="45.42256" lon="5.92939">
        <ele>1764.518098212</ele>
        <time>2015-05-06T17:20:18Z</time>
      </trkpt>
      <trkpt lat="45.42253" lon="5.92941">
        <ele>1764.518098212</ele>
        <time>2015-05-06T17:20:23Z</time>
      </trkpt>
      <trkpt lat="45.4225" lon="5.92941">
        <ele>1764.518098212</ele>
        <time>2015-05-06T17:20:28Z</time>
      </trkpt>
      <trkpt lat="45.42251" lon="5.92939">
        <ele>1764.518098212</ele>
        <time>2015-05-06T17:20:32Z</time>
      </trkpt>
      <trkpt lat="45.42251" lon="5.92938">
        <ele>1766.207261626</ele>
        <time>2015-05-06T17:20:37Z</time>
      </trkpt>
      <trkpt lat="45.42251" lon="5.92938">
        <ele>1766.207261626</ele>
        <time>2015-05-06T17:20:42Z</time>
      </trkpt>
      <trkpt lat="45.42251" lon="5.92938">
        <ele>1766.207261626</ele>
        <time>2015-05-06T17:20:48Z</time>
      </trkpt>
      <trkpt lat="45.42251" lon="5.92937">
        <ele>1766.207261626</ele>
        <time>2015-05-06T17:20:53Z</time>
      </trkpt>
      <trkpt lat="45.42249" lon="5.92931">
        <ele>1766.207261626</ele>
        <time>2015-05-06T17:20:58Z</time>
      </trkpt>
      <trkpt lat="45.42245" lon="5.92931">
        <ele>1767.86643592</ele>
        <time>2015-05-06T17:21:03Z</time>
      </trkpt>
      <trkpt lat="45.4224" lon="5.92932">
        <ele>1767.86643592</ele>
        <time>2015-05-06T17:21:07Z</time>
      </trkpt>
      <trkpt lat="45.42241" lon="5.92931">
        <ele>1767.86643592</ele>
        <time>2015-05-06T17:21:11Z</time>
      </trkpt>
      <trkpt lat="45.42241" lon="5.92932">
        <ele>1767.86643592</ele>
        <time>2015-05-06T17:21:17Z</time>
      </trkpt>
      <trkpt lat="45.42241" lon="5.92932">
        <ele>1767.86643592</ele>
        <time>2015-05-06T17:21:21Z</time>
      </trkpt>
      <trkpt lat="45.42239" lon="5.92932">
        <ele>1767.86643592</ele>
        <time>2015-05-06T17:21:26Z</time>
      </trkpt>
      <trkpt lat="45.42239" lon="5.9293">
        <ele>1769.350826554</ele>
        <time>2015-05-06T17:21:31Z</time>
      </trkpt>
      <trkpt lat="45.42238" lon="5.92929">
        <ele>1769.350826554</ele>
        <time>2015-05-06T17:21:36Z</time>
      </trkpt>
      <trkpt lat="45.42238" lon="5.92928">
        <ele>1769.350826554</ele>
        <time>2015-05-06T17:21:41Z</time>
      </trkpt>
      <trkpt lat="45.42238" lon="5.92928">
        <ele>1769.350826554</ele>
        <time>2015-05-06T17:21:46Z</time>
      </trkpt>
      <trkpt lat="45.42238" lon="5.92928">
        <ele>1769.350826554</ele>
        <time>2015-05-06T17:21:51Z</time>
      </trkpt>
      <trkpt lat="45.42238" lon="5.92929">
        <ele>1769.350826554</ele>
        <time>2015-05-06T17:21:56Z</time>
      </trkpt>
      <trkpt lat="45.42238" lon="5.92929">
        <ele>1769.350826554</ele>
        <time>2015-05-06T17:22:01Z</time>
      </trkpt>
      <trkpt lat="45.42238" lon="5.92929">
        <ele>1769.350826554</ele>
        <time>2015-05-06T17:22:06Z</time>
      </trkpt>
      <trkpt lat="45.42238" lon="5.92928">
        <ele>1769.350826554</ele>
        <time>2015-05-06T17:22:11Z</time>
      </trkpt>
      <trkpt lat="45.42238" lon="5.92929">
        <ele>1769.350826554</ele>
        <time>2015-05-06T17:22:16Z</time>
      </trkpt>
      <trkpt lat="45.42237" lon="5.92929">
        <ele>1769.350826554</ele>
        <time>2015-05-06T17:22:21Z</time>
      </trkpt>
      <trkpt lat="45.42236" lon="5.9293">
        <ele>1769.350826554</ele>
        <time>2015-05-06T17:22:26Z</time>
      </trkpt>
      <trkpt lat="45.42236" lon="5.9293">
        <ele>1769.350826554</ele>
        <time>2015-05-06T17:22:33Z</time>
      </trkpt>
      <trkpt lat="45.42236" lon="5.9293">
        <ele>1769.350826554</ele>
        <time>2015-05-06T17:22:37Z</time>
      </trkpt>
      <trkpt lat="45.42236" lon="5.9293">
        <ele>1769.350826554</ele>
        <time>2015-05-06T17:22:43Z</time>
      </trkpt>
      <trkpt lat="45.42236" lon="5.9293">
        <ele>1769.350826554</ele>
        <time>2015-05-06T17:22:48Z</time>
      </trkpt>
      <trkpt lat="45.42236" lon="5.9293">
        <ele>1769.350826554</ele>
        <time>2015-05-06T17:22:53Z</time>
      </trkpt>
      <trkpt lat="45.42236" lon="5.9293">
        <ele>1769.350826554</ele>
        <time>2015-05-06T17:22:57Z</time>
      </trkpt>
      <trkpt lat="45.42236" lon="5.9293">
        <ele>1769.350826554</ele>
        <time>2015-05-06T17:23:02Z</time>
      </trkpt>
      <trkpt lat="45.42236" lon="5.9293">
        <ele>1769.350826554</ele>
        <time>2015-05-06T17:23:08Z</time>
      </trkpt>
      <trkpt lat="45.42236" lon="5.9293">
        <ele>1769.350826554</ele>
        <time>2015-05-06T17:23:13Z</time>
      </trkpt>
      <trkpt lat="45.42236" lon="5.9293">
        <ele>1769.350826554</ele>
        <time>2015-05-06T17:23:18Z</time>
      </trkpt>
      <trkpt lat="45.42236" lon="5.9293">
        <ele>1769.350826554</ele>
        <time>2015-05-06T17:23:23Z</time>
      </trkpt>
      <trkpt lat="45.42236" lon="5.9293">
        <ele>1769.350826554</ele>
        <time>2015-05-06T17:23:28Z</time>
      </trkpt>
      <trkpt lat="45.42236" lon="5.9293">
        <ele>1769.350826554</ele>
        <time>2015-05-06T17:23:33Z</time>
      </trkpt>
      <trkpt lat="45.42231" lon="5.92934">
        <ele>1770.526789857</ele>
        <time>2015-05-06T17:23:38Z</time>
      </trkpt>
      <trkpt lat="45.42227" lon="5.92937">
        <ele>1770.526789857</ele>
        <time>2015-05-06T17:23:43Z</time>
      </trkpt>
      <trkpt lat="45.42219" lon="5.92937">
        <ele>1772.85661866</ele>
        <time>2015-05-06T17:23:48Z</time>
      </trkpt>
      <trkpt lat="45.42218" lon="5.9294">
        <ele>1772.85661866</ele>
        <time>2015-05-06T17:23:53Z</time>
      </trkpt>
      <trkpt lat="45.42211" lon="5.92941">
        <ele>1774.521540846</ele>
        <time>2015-05-06T17:23:58Z</time>
      </trkpt>
      <trkpt lat="45.42213" lon="5.92941">
        <ele>1774.521540846</ele>
        <time>2015-05-06T17:24:03Z</time>
      </trkpt>
      <trkpt lat="45.42213" lon="5.92944">
        <ele>1774.521540846</ele>
        <time>2015-05-06T17:24:07Z</time>
      </trkpt>
      <trkpt lat="45.42209" lon="5.92946">
        <ele>1774.521540846</ele>
        <time>2015-05-06T17:24:13Z</time>
      </trkpt>
      <trkpt lat="45.42208" lon="5.92946">
        <ele>1776.43229958</ele>
        <time>2015-05-06T17:24:18Z</time>
      </trkpt>
      <trkpt lat="45.42208" lon="5.92946">
        <ele>1776.43229958</ele>
        <time>2015-05-06T17:24:23Z</time>
      </trkpt>
      <trkpt lat="45.42208" lon="5.92946">
        <ele>1776.43229958</ele>
        <time>2015-05-06T17:24:28Z</time>
      </trkpt>
      <trkpt lat="45.42208" lon="5.92946">
        <ele>1776.43229958</ele>
        <time>2015-05-06T17:24:32Z</time>
      </trkpt>
      <trkpt lat="45.42208" lon="5.92946">
        <ele>1776.43229958</ele>
        <time>2015-05-06T17:24:36Z</time>
      </trkpt>
      <trkpt lat="45.42208" lon="5.92946">
        <ele>1776.43229958</ele>
        <time>2015-05-06T17:24:42Z</time>
      </trkpt>
      <trkpt lat="45.42208" lon="5.92946">
        <ele>1776.43229958</ele>
        <time>2015-05-06T17:24:47Z</time>
      </trkpt>
      <trkpt lat="45.42208" lon="5.92946">
        <ele>1776.43229958</ele>
        <time>2015-05-06T17:24:52Z</time>
      </trkpt>
      <trkpt lat="45.42208" lon="5.92946">
        <ele>1776.43229958</ele>
        <time>2015-05-06T17:24:57Z</time>
      </trkpt>
      <trkpt lat="45.42208" lon="5.92946">
        <ele>1776.43229958</ele>
        <time>2015-05-06T17:25:01Z</time>
      </trkpt>
      <trkpt lat="45.42204" lon="5.92947">
        <ele>1776.43229958</ele>
        <time>2015-05-06T17:25:08Z</time>
      </trkpt>
      <trkpt lat="45.42203" lon="5.92948">
        <ele>1776.43229958</ele>
        <time>2015-05-06T17:25:12Z</time>
      </trkpt>
      <trkpt lat="45.42203" lon="5.9295">
        <ele>1776.43229958</ele>
        <time>2015-05-06T17:25:18Z</time>
      </trkpt>
      <trkpt lat="45.42202" lon="5.92951">
        <ele>1778.999762973</ele>
        <time>2015-05-06T17:25:22Z</time>
      </trkpt>
      <trkpt lat="45.42202" lon="5.92951">
        <ele>1778.999762973</ele>
        <time>2015-05-06T17:25:28Z</time>
      </trkpt>
      <trkpt lat="45.42198" lon="5.92953">
        <ele>1778.999762973</ele>
        <time>2015-05-06T17:25:32Z</time>
      </trkpt>
      <trkpt lat="45.42198" lon="5.92956">
        <ele>1778.999762973</ele>
        <time>2015-05-06T17:25:38Z</time>
      </trkpt>
      <trkpt lat="45.42199" lon="5.92958">
        <ele>1778.999762973</ele>
        <time>2015-05-06T17:25:42Z</time>
      </trkpt>
      <trkpt lat="45.42198" lon="5.92957">
        <ele>1782.026390169</ele>
        <time>2015-05-06T17:25:48Z</time>
      </trkpt>
      <trkpt lat="45.42196" lon="5.92957">
        <ele>1782.026390169</ele>
        <time>2015-05-06T17:25:52Z</time>
      </trkpt>
      <trkpt lat="45.42196" lon="5.92957">
        <ele>1782.026390169</ele>
        <time>2015-05-06T17:25:58Z</time>
      </trkpt>
      <trkpt lat="45.42192" lon="5.92961">
        <ele>1782.026390169</ele>
        <time>2015-05-06T17:26:02Z</time>
      </trkpt>
      <trkpt lat="45.42189" lon="5.92962">
        <ele>1785.472045439</ele>
        <time>2015-05-06T17:26:07Z</time>
      </trkpt>
      <trkpt lat="45.42187" lon="5.92962">
        <ele>1785.472045439</ele>
        <time>2015-05-06T17:26:13Z</time>
      </trkpt>
      <trkpt lat="45.42186" lon="5.92962">
        <ele>1785.472045439</ele>
        <time>2015-05-06T17:26:17Z</time>
      </trkpt>
      <trkpt lat="45.42186" lon="5.92962">
        <ele>1785.472045439</ele>
        <time>2015-05-06T17:26:23Z</time>
      </trkpt>
      <trkpt lat="45.42183" lon="5.92963">
        <ele>1785.472045439</ele>
        <time>2015-05-06T17:26:27Z</time>
      </trkpt>
      <trkpt lat="45.42177" lon="5.9296">
        <ele>1788.866115966</ele>
        <time>2015-05-06T17:26:33Z</time>
      </trkpt>
      <trkpt lat="45.42174" lon="5.92962">
        <ele>1788.866115966</ele>
        <time>2015-05-06T17:26:37Z</time>
      </trkpt>
      <trkpt lat="45.42171" lon="5.92964">
        <ele>1788.866115966</ele>
        <time>2015-05-06T17:26:43Z</time>
      </trkpt>
      <trkpt lat="45.42169" lon="5.92961">
        <ele>1792.061024273</ele>
        <time>2015-05-06T17:26:47Z</time>
      </trkpt>
      <trkpt lat="45.42169" lon="5.92961">
        <ele>1792.061024273</ele>
        <time>2015-05-06T17:26:51Z</time>
      </trkpt>
      <trkpt lat="45.4217" lon="5.92962">
        <ele>1792.061024273</ele>
        <time>2015-05-06T17:26:56Z</time>
      </trkpt>
      <trkpt lat="45.4217" lon="5.92962">
        <ele>1792.061024273</ele>
        <time>2015-05-06T17:27:01Z</time>
      </trkpt>
      <trkpt lat="45.4217" lon="5.92962">
        <ele>1792.061024273</ele>
        <time>2015-05-06T17:27:06Z</time>
      </trkpt>
      <trkpt lat="45.4217" lon="5.92962">
        <ele>1792.061024273</ele>
        <time>2015-05-06T17:27:11Z</time>
      </trkpt>
      <trkpt lat="45.4217" lon="5.92962">
        <ele>1792.061024273</ele>
        <time>2015-05-06T17:27:16Z</time>
      </trkpt>
      <trkpt lat="45.4217" lon="5.92962">
        <ele>1792.061024273</ele>
        <time>2015-05-06T17:27:21Z</time>
      </trkpt>
      <trkpt lat="45.4217" lon="5.9296">
        <ele>1792.061024273</ele>
        <time>2015-05-06T17:27:28Z</time>
      </trkpt>
      <trkpt lat="45.42171" lon="5.92961">
        <ele>1792.061024273</ele>
        <time>2015-05-06T17:27:32Z</time>
      </trkpt>
      <trkpt lat="45.42172" lon="5.92961">
        <ele>1792.061024273</ele>
        <time>2015-05-06T17:27:38Z</time>
      </trkpt>
      <trkpt lat="45.42172" lon="5.92961">
        <ele>1792.061024273</ele>
        <time>2015-05-06T17:27:42Z</time>
      </trkpt>
      <trkpt lat="45.42172" lon="5.92961">
        <ele>1792.061024273</ele>
        <time>2015-05-06T17:27:48Z</time>
      </trkpt>
      <trkpt lat="45.42172" lon="5.92961">
        <ele>1792.061024273</ele>
        <time>2015-05-06T17:27:52Z</time>
      </trkpt>
      <trkpt lat="45.42172" lon="5.92961">
        <ele>1792.061024273</ele>
        <time>2015-05-06T17:27:58Z</time>
      </trkpt>
      <trkpt lat="45.42171" lon="5.92961">
        <ele>1792.061024273</ele>
        <time>2015-05-06T17:28:02Z</time>
      </trkpt>
      <trkpt lat="45.42171" lon="5.92961">
        <ele>1792.061024273</ele>
        <time>2015-05-06T17:28:07Z</time>
      </trkpt>
      <trkpt lat="45.42169" lon="5.92964">
        <ele>1792.061024273</ele>
        <time>2015-05-06T17:28:11Z</time>
      </trkpt>
      <trkpt lat="45.42163" lon="5.92964">
        <ele>1795.64125992</ele>
        <time>2015-05-06T17:28:16Z</time>
      </trkpt>
      <trkpt lat="45.42157" lon="5.92968">
        <ele>1795.64125992</ele>
        <time>2015-05-06T17:28:23Z</time>
      </trkpt>
      <trkpt lat="45.42155" lon="5.92969">
        <ele>1799.138641834</ele>
        <time>2015-05-06T17:28:27Z</time>
      </trkpt>
      <trkpt lat="45.42152" lon="5.92971">
        <ele>1799.138641834</ele>
        <time>2015-05-06T17:28:33Z</time>
      </trkpt>
      <trkpt lat="45.42148" lon="5.92972">
        <ele>1799.138641834</ele>
        <time>2015-05-06T17:28:37Z</time>
      </trkpt>
      <trkpt lat="45.42148" lon="5.92976">
        <ele>1802.696195232</ele>
        <time>2015-05-06T17:28:43Z</time>
      </trkpt>
      <trkpt lat="45.42144" lon="5.92972">
        <ele>1802.696195232</ele>
        <time>2015-05-06T17:28:47Z</time>
      </trkpt>
      <trkpt lat="45.42141" lon="5.92977">
        <ele>1806.014084157</ele>
        <time>2015-05-06T17:28:53Z</time>
      </trkpt>
      <trkpt lat="45.42139" lon="5.92981">
        <ele>1806.014084157</ele>
        <time>2015-05-06T17:28:57Z</time>
      </trkpt>
      <trkpt lat="45.42138" lon="5.92983">
        <ele>1806.014084157</ele>
        <time>2015-05-06T17:29:03Z</time>
      </trkpt>
      <trkpt lat="45.42139" lon="5.92984">
        <ele>1806.014084157</ele>
        <time>2015-05-06T17:29:07Z</time>
      </trkpt>
      <trkpt lat="45.42136" lon="5.92989">
        <ele>1810.11232997</ele>
        <time>2015-05-06T17:29:13Z</time>
      </trkpt>
      <trkpt lat="45.42137" lon="5.92993">
        <ele>1810.11232997</ele>
        <time>2015-05-06T17:29:17Z</time>
      </trkpt>
      <trkpt lat="45.42134" lon="5.93">
        <ele>1810.11232997</ele>
        <time>2015-05-06T17:29:23Z</time>
      </trkpt>
      <trkpt lat="45.4213" lon="5.93003">
        <ele>1813.628224044</ele>
        <time>2015-05-06T17:29:27Z</time>
      </trkpt>
      <trkpt lat="45.42126" lon="5.93004">
        <ele>1813.628224044</ele>
        <time>2015-05-06T17:29:33Z</time>
      </trkpt>
      <trkpt lat="45.42125" lon="5.93005">
        <ele>1813.628224044</ele>
        <time>2015-05-06T17:29:37Z</time>
      </trkpt>
      <trkpt lat="45.42125" lon="5.93005">
        <ele>1813.628224044</ele>
        <time>2015-05-06T17:29:43Z</time>
      </trkpt>
      <trkpt lat="45.42126" lon="5.93006">
        <ele>1813.628224044</ele>
        <time>2015-05-06T17:29:47Z</time>
      </trkpt>
      <trkpt lat="45.42128" lon="5.93009">
        <ele>1817.030305448</ele>
        <time>2015-05-06T17:29:53Z</time>
      </trkpt>
      <trkpt lat="45.42128" lon="5.93009">
        <ele>1817.030305448</ele>
        <time>2015-05-06T17:29:57Z</time>
      </trkpt>
      <trkpt lat="45.42128" lon="5.93009">
        <ele>1817.030305448</ele>
        <time>2015-05-06T17:30:03Z</time>
      </trkpt>
      <trkpt lat="45.42128" lon="5.93008">
        <ele>1817.030305448</ele>
        <time>2015-05-06T17:30:07Z</time>
      </trkpt>
      <trkpt lat="45.42125" lon="5.93007">
        <ele>1817.030305448</ele>
        <time>2015-05-06T17:30:13Z</time>
      </trkpt>
      <trkpt lat="45.42123" lon="5.9301">
        <ele>1817.030305448</ele>
        <time>2015-05-06T17:30:17Z</time>
      </trkpt>
      <trkpt lat="45.4212" lon="5.93014">
        <ele>1820.609086319</ele>
        <time>2015-05-06T17:30:23Z</time>
      </trkpt>
      <trkpt lat="45.42119" lon="5.93019">
        <ele>1820.609086319</ele>
        <time>2015-05-06T17:30:27Z</time>
      </trkpt>
      <trkpt lat="45.42116" lon="5.93021">
        <ele>1820.609086319</ele>
        <time>2015-05-06T17:30:33Z</time>
      </trkpt>
      <trkpt lat="45.42114" lon="5.93025">
        <ele>1824.345209838</ele>
        <time>2015-05-06T17:30:37Z</time>
      </trkpt>
      <trkpt lat="45.4211" lon="5.93025">
        <ele>1824.345209838</ele>
        <time>2015-05-06T17:30:43Z</time>
      </trkpt>
      <trkpt lat="45.42108" lon="5.93026">
        <ele>1824.345209838</ele>
        <time>2015-05-06T17:30:47Z</time>
      </trkpt>
      <trkpt lat="45.42108" lon="5.9303">
        <ele>1824.345209838</ele>
        <time>2015-05-06T17:30:53Z</time>
      </trkpt>
      <trkpt lat="45.42104" lon="5.93034">
        <ele>1827.932271928</ele>
        <time>2015-05-06T17:30:57Z</time>
      </trkpt>
      <trkpt lat="45.42101" lon="5.93036">
        <ele>1827.932271928</ele>
        <time>2015-05-06T17:31:03Z</time>
      </trkpt>
      <trkpt lat="45.421" lon="5.9304">
        <ele>1827.932271928</ele>
        <time>2015-05-06T17:31:07Z</time>
      </trkpt>
      <trkpt lat="45.42099" lon="5.9304">
        <ele>1827.932271928</ele>
        <time>2015-05-06T17:31:12Z</time>
      </trkpt>
      <trkpt lat="45.42098" lon="5.9304">
        <ele>1827.932271928</ele>
        <time>2015-05-06T17:31:17Z</time>
      </trkpt>
      <trkpt lat="45.42098" lon="5.9304">
        <ele>1827.932271928</ele>
        <time>2015-05-06T17:31:21Z</time>
      </trkpt>
      <trkpt lat="45.42098" lon="5.93041">
        <ele>1831.375215526</ele>
        <time>2015-05-06T17:31:28Z</time>
      </trkpt>
      <trkpt lat="45.42098" lon="5.93038">
        <ele>1831.375215526</ele>
        <time>2015-05-06T17:31:31Z</time>
      </trkpt>
      <trkpt lat="45.42098" lon="5.93038">
        <ele>1831.375215526</ele>
        <time>2015-05-06T17:31:37Z</time>
      </trkpt>
      <trkpt lat="45.42098" lon="5.93039">
        <ele>1831.375215526</ele>
        <time>2015-05-06T17:31:42Z</time>
      </trkpt>
      <trkpt lat="45.42096" lon="5.93043">
        <ele>1831.375215526</ele>
        <time>2015-05-06T17:31:48Z</time>
      </trkpt>
      <trkpt lat="45.42093" lon="5.93047">
        <ele>1833.958668595</ele>
        <time>2015-05-06T17:31:52Z</time>
      </trkpt>
      <trkpt lat="45.42089" lon="5.93048">
        <ele>1833.958668595</ele>
        <time>2015-05-06T17:31:58Z</time>
      </trkpt>
      <trkpt lat="45.42086" lon="5.93054">
        <ele>1836.175308556</ele>
        <time>2015-05-06T17:32:02Z</time>
      </trkpt>
      <trkpt lat="45.42083" lon="5.9306">
        <ele>1836.175308556</ele>
        <time>2015-05-06T17:32:08Z</time>
      </trkpt>
      <trkpt lat="45.42082" lon="5.93065">
        <ele>1838.62695511</ele>
        <time>2015-05-06T17:32:12Z</time>
      </trkpt>
      <trkpt lat="45.42081" lon="5.93071">
        <ele>1838.62695511</ele>
        <time>2015-05-06T17:32:18Z</time>
      </trkpt>
      <trkpt lat="45.42082" lon="5.93076">
        <ele>1838.62695511</ele>
        <time>2015-05-06T17:32:22Z</time>
      </trkpt>
      <trkpt lat="45.42082" lon="5.93075">
        <ele>1838.62695511</ele>
        <time>2015-05-06T17:32:28Z</time>
      </trkpt>
      <trkpt lat="45.42081" lon="5.93075">
        <ele>1841.582524897</ele>
        <time>2015-05-06T17:32:32Z</time>
      </trkpt>
      <trkpt lat="45.42081" lon="5.93075">
        <ele>1841.582524897</ele>
        <time>2015-05-06T17:32:38Z</time>
      </trkpt>
      <trkpt lat="45.42081" lon="5.93075">
        <ele>1841.582524897</ele>
        <time>2015-05-06T17:32:42Z</time>
      </trkpt>
      <trkpt lat="45.42081" lon="5.93074">
        <ele>1841.582524897</ele>
        <time>2015-05-06T17:32:47Z</time>
      </trkpt>
      <trkpt lat="45.42082" lon="5.93075">
        <ele>1841.582524897</ele>
        <time>2015-05-06T17:32:51Z</time>
      </trkpt>
      <trkpt lat="45.42082" lon="5.93074">
        <ele>1841.582524897</ele>
        <time>2015-05-06T17:32:56Z</time>
      </trkpt>
      <trkpt lat="45.42083" lon="5.93074">
        <ele>1841.582524897</ele>
        <time>2015-05-06T17:33:01Z</time>
      </trkpt>
      <trkpt lat="45.42084" lon="5.93074">
        <ele>1841.582524897</ele>
        <time>2015-05-06T17:33:06Z</time>
      </trkpt>
      <trkpt lat="45.42084" lon="5.93074">
        <ele>1841.582524897</ele>
        <time>2015-05-06T17:33:13Z</time>
      </trkpt>
      <trkpt lat="45.42081" lon="5.93074">
        <ele>1841.582524897</ele>
        <time>2015-05-06T17:33:17Z</time>
      </trkpt>
      <trkpt lat="45.42081" lon="5.93075">
        <ele>1844.281168806</ele>
        <time>2015-05-06T17:33:23Z</time>
      </trkpt>
      <trkpt lat="45.42081" lon="5.93074">
        <ele>1844.281168806</ele>
        <time>2015-05-06T17:33:27Z</time>
      </trkpt>
      <trkpt lat="45.42081" lon="5.93074">
        <ele>1844.281168806</ele>
        <time>2015-05-06T17:33:32Z</time>
      </trkpt>
      <trkpt lat="45.4208" lon="5.93074">
        <ele>1844.281168806</ele>
        <time>2015-05-06T17:33:38Z</time>
      </trkpt>
      <trkpt lat="45.4208" lon="5.93075">
        <ele>1844.281168806</ele>
        <time>2015-05-06T17:33:42Z</time>
      </trkpt>
      <trkpt lat="45.4208" lon="5.93073">
        <ele>1844.281168806</ele>
        <time>2015-05-06T17:33:48Z</time>
      </trkpt>
      <trkpt lat="45.42077" lon="5.93065">
        <ele>1846.162933627</ele>
        <time>2015-05-06T17:33:52Z</time>
      </trkpt>
      <trkpt lat="45.42079" lon="5.93058">
        <ele>1846.162933627</ele>
        <time>2015-05-06T17:33:58Z</time>
      </trkpt>
      <trkpt lat="45.42076" lon="5.93052">
        <ele>1847.143787674</ele>
        <time>2015-05-06T17:34:02Z</time>
      </trkpt>
      <trkpt lat="45.42073" lon="5.93045">
        <ele>1847.143787674</ele>
        <time>2015-05-06T17:34:08Z</time>
      </trkpt>
      <trkpt lat="45.42071" lon="5.93039">
        <ele>1847.869105191</ele>
        <time>2015-05-06T17:34:12Z</time>
      </trkpt>
      <trkpt lat="45.42069" lon="5.93035">
        <ele>1847.869105191</ele>
        <time>2015-05-06T17:34:17Z</time>
      </trkpt>
      <trkpt lat="45.42069" lon="5.93036">
        <ele>1847.869105191</ele>
        <time>2015-05-06T17:34:21Z</time>
      </trkpt>
      <trkpt lat="45.42067" lon="5.93035">
        <ele>1847.869105191</ele>
        <time>2015-05-06T17:34:27Z</time>
      </trkpt>
      <trkpt lat="45.42062" lon="5.93036">
        <ele>1847.928922593</ele>
        <time>2015-05-06T17:34:33Z</time>
      </trkpt>
      <trkpt lat="45.42057" lon="5.93036">
        <ele>1847.928922593</ele>
        <time>2015-05-06T17:34:37Z</time>
      </trkpt>
      <trkpt lat="45.42053" lon="5.93035">
        <ele>1848.242371187</ele>
        <time>2015-05-06T17:34:43Z</time>
      </trkpt>
      <trkpt lat="45.42049" lon="5.93035">
        <ele>1848.242371187</ele>
        <time>2015-05-06T17:34:47Z</time>
      </trkpt>
      <trkpt lat="45.42046" lon="5.93036">
        <ele>1848.242371187</ele>
        <time>2015-05-06T17:34:53Z</time>
      </trkpt>
      <trkpt lat="45.42043" lon="5.93037">
        <ele>1848.50755226</ele>
        <time>2015-05-06T17:34:56Z</time>
      </trkpt>
      <trkpt lat="45.4204" lon="5.93041">
        <ele>1848.50755226</ele>
        <time>2015-05-06T17:35:02Z</time>
      </trkpt>
      <trkpt lat="45.42036" lon="5.93047">
        <ele>1848.589058382</ele>
        <time>2015-05-06T17:35:06Z</time>
      </trkpt>
      <trkpt lat="45.42034" lon="5.93044">
        <ele>1848.589058382</ele>
        <time>2015-05-06T17:35:13Z</time>
      </trkpt>
      <trkpt lat="45.42031" lon="5.93048">
        <ele>1848.589058382</ele>
        <time>2015-05-06T17:35:16Z</time>
      </trkpt>
      <trkpt lat="45.42026" lon="5.93049">
        <ele>1848.650212553</ele>
        <time>2015-05-06T17:35:22Z</time>
      </trkpt>
      <trkpt lat="45.4202" lon="5.9305">
        <ele>1848.650212553</ele>
        <time>2015-05-06T17:35:28Z</time>
      </trkpt>
      <trkpt lat="45.42016" lon="5.93052">
        <ele>1849.418868846</ele>
        <time>2015-05-06T17:35:32Z</time>
      </trkpt>
      <trkpt lat="45.42012" lon="5.93052">
        <ele>1849.418868846</ele>
        <time>2015-05-06T17:35:38Z</time>
      </trkpt>
      <trkpt lat="45.42006" lon="5.93052">
        <ele>1849.838104049</ele>
        <time>2015-05-06T17:35:42Z</time>
      </trkpt>
      <trkpt lat="45.42" lon="5.93051">
        <ele>1849.838104049</ele>
        <time>2015-05-06T17:35:48Z</time>
      </trkpt>
      <trkpt lat="45.41995" lon="5.93053">
        <ele>1850.370721494</ele>
        <time>2015-05-06T17:35:52Z</time>
      </trkpt>
      <trkpt lat="45.4199" lon="5.93049">
        <ele>1850.370721494</ele>
        <time>2015-05-06T17:35:58Z</time>
      </trkpt>
      <trkpt lat="45.41986" lon="5.93046">
        <ele>1850.580521824</ele>
        <time>2015-05-06T17:36:02Z</time>
      </trkpt>
      <trkpt lat="45.41981" lon="5.93044">
        <ele>1850.580521824</ele>
        <time>2015-05-06T17:36:08Z</time>
      </trkpt>
      <trkpt lat="45.41977" lon="5.93036">
        <ele>1850.208331168</ele>
        <time>2015-05-06T17:36:12Z</time>
      </trkpt>
      <trkpt lat="45.41972" lon="5.93033">
        <ele>1850.208331168</ele>
        <time>2015-05-06T17:36:18Z</time>
      </trkpt>
      <trkpt lat="45.41971" lon="5.93027">
        <ele>1849.592042692</ele>
        <time>2015-05-06T17:36:22Z</time>
      </trkpt>
      <trkpt lat="45.41972" lon="5.93022">
        <ele>1849.592042692</ele>
        <time>2015-05-06T17:36:28Z</time>
      </trkpt>
      <trkpt lat="45.41967" lon="5.93018">
        <ele>1849.045348408</ele>
        <time>2015-05-06T17:36:32Z</time>
      </trkpt>
      <trkpt lat="45.41965" lon="5.93015">
        <ele>1849.045348408</ele>
        <time>2015-05-06T17:36:38Z</time>
      </trkpt>
      <trkpt lat="45.41965" lon="5.93016">
        <ele>1849.045348408</ele>
        <time>2015-05-06T17:36:42Z</time>
      </trkpt>
      <trkpt lat="45.41964" lon="5.93016">
        <ele>1849.045348408</ele>
        <time>2015-05-06T17:36:48Z</time>
      </trkpt>
      <trkpt lat="45.41964" lon="5.93016">
        <ele>1849.045348408</ele>
        <time>2015-05-06T17:36:52Z</time>
      </trkpt>
      <trkpt lat="45.41964" lon="5.93016">
        <ele>1849.045348408</ele>
        <time>2015-05-06T17:36:58Z</time>
      </trkpt>
      <trkpt lat="45.41964" lon="5.93016">
        <ele>1849.045348408</ele>
        <time>2015-05-06T17:37:02Z</time>
      </trkpt>
      <trkpt lat="45.4196" lon="5.93012">
        <ele>1848.282175867</ele>
        <time>2015-05-06T17:37:08Z</time>
      </trkpt>
      <trkpt lat="45.41958" lon="5.93007">
        <ele>1848.282175867</ele>
        <time>2015-05-06T17:37:12Z</time>
      </trkpt>
      <trkpt lat="45.41954" lon="5.93005">
        <ele>1848.282175867</ele>
        <time>2015-05-06T17:37:18Z</time>
      </trkpt>
      <trkpt lat="45.4195" lon="5.93002">
        <ele>1847.614422144</ele>
        <time>2015-05-06T17:37:22Z</time>
      </trkpt>
      <trkpt lat="45.41945" lon="5.92995">
        <ele>1847.614422144</ele>
        <time>2015-05-06T17:37:28Z</time>
      </trkpt>
      <trkpt lat="45.41941" lon="5.9299">
        <ele>1846.610136111</ele>
        <time>2015-05-06T17:37:32Z</time>
      </trkpt>
      <trkpt lat="45.41938" lon="5.92986">
        <ele>1846.610136111</ele>
        <time>2015-05-06T17:37:38Z</time>
      </trkpt>
      <trkpt lat="45.41933" lon="5.92982">
        <ele>1844.581689742</ele>
        <time>2015-05-06T17:37:42Z</time>
      </trkpt>
      <trkpt lat="45.41929" lon="5.92978">
        <ele>1844.581689742</ele>
        <time>2015-05-06T17:37:48Z</time>
      </trkpt>
      <trkpt lat="45.41924" lon="5.92976">
        <ele>1842.624028323</ele>
        <time>2015-05-06T17:37:52Z</time>
      </trkpt>
      <trkpt lat="45.41919" lon="5.92973">
        <ele>1842.624028323</ele>
        <time>2015-05-06T17:37:58Z</time>
      </trkpt>
      <trkpt lat="45.41918" lon="5.92968">
        <ele>1842.624028323</ele>
        <time>2015-05-06T17:38:02Z</time>
      </trkpt>
      <trkpt lat="45.41919" lon="5.92968">
        <ele>1840.598410764</ele>
        <time>2015-05-06T17:38:08Z</time>
      </trkpt>
      <trkpt lat="45.41918" lon="5.92969">
        <ele>1840.598410764</ele>
        <time>2015-05-06T17:38:12Z</time>
      </trkpt>
      <trkpt lat="45.41917" lon="5.92964">
        <ele>1840.598410764</ele>
        <time>2015-05-06T17:38:17Z</time>
      </trkpt>
      <trkpt lat="45.41914" lon="5.9296">
        <ele>1840.598410764</ele>
        <time>2015-05-06T17:38:22Z</time>
      </trkpt>
      <trkpt lat="45.41909" lon="5.92957">
        <ele>1838.37629518</ele>
        <time>2015-05-06T17:38:28Z</time>
      </trkpt>
      <trkpt lat="45.41905" lon="5.92955">
        <ele>1838.37629518</ele>
        <time>2015-05-06T17:38:32Z</time>
      </trkpt>
      <trkpt lat="45.419" lon="5.92951">
        <ele>1835.838931196</ele>
        <time>2015-05-06T17:38:38Z</time>
      </trkpt>
      <trkpt lat="45.41897" lon="5.92943">
        <ele>1835.838931196</ele>
        <time>2015-05-06T17:38:42Z</time>
      </trkpt>
      <trkpt lat="45.41894" lon="5.92936">
        <ele>1833.741623715</ele>
        <time>2015-05-06T17:38:48Z</time>
      </trkpt>
      <trkpt lat="45.4189" lon="5.92929">
        <ele>1833.741623715</ele>
        <time>2015-05-06T17:38:52Z</time>
      </trkpt>
      <trkpt lat="45.41888" lon="5.92924">
        <ele>1831.918057285</ele>
        <time>2015-05-06T17:38:58Z</time>
      </trkpt>
      <trkpt lat="45.41885" lon="5.92918">
        <ele>1831.918057285</ele>
        <time>2015-05-06T17:39:02Z</time>
      </trkpt>
      <trkpt lat="45.41883" lon="5.92917">
        <ele>1831.918057285</ele>
        <time>2015-05-06T17:39:08Z</time>
      </trkpt>
      <trkpt lat="45.4188" lon="5.92913">
        <ele>1830.069007197</ele>
        <time>2015-05-06T17:39:12Z</time>
      </trkpt>
      <trkpt lat="45.4188" lon="5.92905">
        <ele>1830.069007197</ele>
        <time>2015-05-06T17:39:18Z</time>
      </trkpt>
      <trkpt lat="45.41877" lon="5.92899">
        <ele>1828.06115412</ele>
        <time>2015-05-06T17:39:22Z</time>
      </trkpt>
      <trkpt lat="45.41876" lon="5.92892">
        <ele>1828.06115412</ele>
        <time>2015-05-06T17:39:27Z</time>
      </trkpt>
      <trkpt lat="45.41875" lon="5.92891">
        <ele>1828.06115412</ele>
        <time>2015-05-06T17:39:31Z</time>
      </trkpt>
      <trkpt lat="45.41875" lon="5.92891">
        <ele>1828.06115412</ele>
        <time>2015-05-06T17:39:36Z</time>
      </trkpt>
      <trkpt lat="45.41875" lon="5.92891">
        <ele>1828.06115412</ele>
        <time>2015-05-06T17:39:41Z</time>
      </trkpt>
      <trkpt lat="45.41875" lon="5.9289">
        <ele>1828.06115412</ele>
        <time>2015-05-06T17:39:47Z</time>
      </trkpt>
      <trkpt lat="45.41872" lon="5.92882">
        <ele>1825.627039633</ele>
        <time>2015-05-06T17:39:52Z</time>
      </trkpt>
      <trkpt lat="45.41868" lon="5.92876">
        <ele>1825.627039633</ele>
        <time>2015-05-06T17:39:57Z</time>
      </trkpt>
      <trkpt lat="45.41867" lon="5.92871">
        <ele>1823.240329462</ele>
        <time>2015-05-06T17:40:02Z</time>
      </trkpt>
      <trkpt lat="45.41861" lon="5.92869">
        <ele>1823.240329462</ele>
        <time>2015-05-06T17:40:07Z</time>
      </trkpt>
      <trkpt lat="45.41861" lon="5.92859">
        <ele>1821.051256768</ele>
        <time>2015-05-06T17:40:12Z</time>
      </trkpt>
      <trkpt lat="45.41858" lon="5.92854">
        <ele>1821.051256768</ele>
        <time>2015-05-06T17:40:17Z</time>
      </trkpt>
      <trkpt lat="45.41858" lon="5.92845">
        <ele>1818.765842</ele>
        <time>2015-05-06T17:40:22Z</time>
      </trkpt>
      <trkpt lat="45.41853" lon="5.92843">
        <ele>1818.765842</ele>
        <time>2015-05-06T17:40:27Z</time>
      </trkpt>
      <trkpt lat="45.41851" lon="5.92847">
        <ele>1818.765842</ele>
        <time>2015-05-06T17:40:32Z</time>
      </trkpt>
      <trkpt lat="45.41847" lon="5.92837">
        <ele>1816.832233629</ele>
        <time>2015-05-06T17:40:37Z</time>
      </trkpt>
      <trkpt lat="45.41842" lon="5.92837">
        <ele>1816.832233629</ele>
        <time>2015-05-06T17:40:42Z</time>
      </trkpt>
      <trkpt lat="45.41841" lon="5.9283">
        <ele>1815.087931584</ele>
        <time>2015-05-06T17:40:47Z</time>
      </trkpt>
      <trkpt lat="45.41839" lon="5.92824">
        <ele>1815.087931584</ele>
        <time>2015-05-06T17:40:52Z</time>
      </trkpt>
      <trkpt lat="45.41837" lon="5.92819">
        <ele>1815.087931584</ele>
        <time>2015-05-06T17:40:57Z</time>
      </trkpt>
      <trkpt lat="45.41838" lon="5.92816">
        <ele>1812.805099625</ele>
        <time>2015-05-06T17:41:02Z</time>
      </trkpt>
      <trkpt lat="45.41838" lon="5.92816">
        <ele>1812.805099625</ele>
        <time>2015-05-06T17:41:07Z</time>
      </trkpt>
      <trkpt lat="45.41836" lon="5.92809">
        <ele>1812.805099625</ele>
        <time>2015-05-06T17:41:12Z</time>
      </trkpt>
      <trkpt lat="45.41836" lon="5.92801">
        <ele>1811.184027257</ele>
        <time>2015-05-06T17:41:17Z</time>
      </trkpt>
      <trkpt lat="45.41836" lon="5.92797">
        <ele>1811.184027257</ele>
        <time>2015-05-06T17:41:21Z</time>
      </trkpt>
      <trkpt lat="45.41833" lon="5.9279">
        <ele>1811.184027257</ele>
        <time>2015-05-06T17:41:27Z</time>
      </trkpt>
      <trkpt lat="45.4183" lon="5.92787">
        <ele>1810.037681213</ele>
        <time>2015-05-06T17:41:32Z</time>
      </trkpt>
      <trkpt lat="45.41827" lon="5.92783">
        <ele>1810.037681213</ele>
        <time>2015-05-06T17:41:37Z</time>
      </trkpt>
      <trkpt lat="45.41823" lon="5.92778">
        <ele>1809.335259612</ele>
        <time>2015-05-06T17:41:42Z</time>
      </trkpt>
      <trkpt lat="45.4182" lon="5.92772">
        <ele>1809.335259612</ele>
        <time>2015-05-06T17:41:47Z</time>
      </trkpt>
      <trkpt lat="45.41817" lon="5.92766">
        <ele>1809.046699724</ele>
        <time>2015-05-06T17:41:52Z</time>
      </trkpt>
      <trkpt lat="45.41816" lon="5.92764">
        <ele>1809.046699724</ele>
        <time>2015-05-06T17:41:57Z</time>
      </trkpt>
      <trkpt lat="45.41814" lon="5.9276">
        <ele>1809.046699724</ele>
        <time>2015-05-06T17:42:01Z</time>
      </trkpt>
      <trkpt lat="45.41812" lon="5.92757">
        <ele>1809.046699724</ele>
        <time>2015-05-06T17:42:07Z</time>
      </trkpt>
      <trkpt lat="45.41811" lon="5.92746">
        <ele>1809.142721324</ele>
        <time>2015-05-06T17:42:12Z</time>
      </trkpt>
      <trkpt lat="45.4181" lon="5.9274">
        <ele>1809.142721324</ele>
        <time>2015-05-06T17:42:17Z</time>
      </trkpt>
      <trkpt lat="45.41808" lon="5.92734">
        <ele>1809.142721324</ele>
        <time>2015-05-06T17:42:22Z</time>
      </trkpt>
      <trkpt lat="45.41807" lon="5.92728">
        <ele>1809.738979383</ele>
        <time>2015-05-06T17:42:27Z</time>
      </trkpt>
      <trkpt lat="45.41806" lon="5.9272">
        <ele>1809.738979383</ele>
        <time>2015-05-06T17:42:32Z</time>
      </trkpt>
      <trkpt lat="45.41806" lon="5.92712">
        <ele>1810.364556207</ele>
        <time>2015-05-06T17:42:37Z</time>
      </trkpt>
      <trkpt lat="45.41805" lon="5.92704">
        <ele>1810.364556207</ele>
        <time>2015-05-06T17:42:42Z</time>
      </trkpt>
      <trkpt lat="45.41803" lon="5.92696">
        <ele>1811.303393719</ele>
        <time>2015-05-06T17:42:47Z</time>
      </trkpt>
      <trkpt lat="45.41801" lon="5.92692">
        <ele>1811.303393719</ele>
        <time>2015-05-06T17:42:52Z</time>
      </trkpt>
      <trkpt lat="45.41801" lon="5.92684">
        <ele>1811.303393719</ele>
        <time>2015-05-06T17:42:57Z</time>
      </trkpt>
      <trkpt lat="45.418" lon="5.92676">
        <ele>1812.385178722</ele>
        <time>2015-05-06T17:43:02Z</time>
      </trkpt>
      <trkpt lat="45.418" lon="5.92666">
        <ele>1812.385178722</ele>
        <time>2015-05-06T17:43:07Z</time>
      </trkpt>
      <trkpt lat="45.41801" lon="5.9266">
        <ele>1813.163323716</ele>
        <time>2015-05-06T17:43:12Z</time>
      </trkpt>
      <trkpt lat="45.41801" lon="5.92654">
        <ele>1813.163323716</ele>
        <time>2015-05-06T17:43:17Z</time>
      </trkpt>
      <trkpt lat="45.41799" lon="5.92653">
        <ele>1813.163323716</ele>
        <time>2015-05-06T17:43:22Z</time>
      </trkpt>
      <trkpt lat="45.41799" lon="5.92651">
        <ele>1813.163323716</ele>
        <time>2015-05-06T17:43:26Z</time>
      </trkpt>
      <trkpt lat="45.41799" lon="5.92653">
        <ele>1813.163323716</ele>
        <time>2015-05-06T17:43:32Z</time>
      </trkpt>
      <trkpt lat="45.41799" lon="5.92653">
        <ele>1813.163323716</ele>
        <time>2015-05-06T17:43:37Z</time>
      </trkpt>
      <trkpt lat="45.41799" lon="5.92653">
        <ele>1814.233537533</ele>
        <time>2015-05-06T17:43:42Z</time>
      </trkpt>
      <trkpt lat="45.41798" lon="5.9265">
        <ele>1814.233537533</ele>
        <time>2015-05-06T17:43:47Z</time>
      </trkpt>
      <trkpt lat="45.41798" lon="5.92648">
        <ele>1814.233537533</ele>
        <time>2015-05-06T17:43:52Z</time>
      </trkpt>
      <trkpt lat="45.41799" lon="5.92641">
        <ele>1814.233537533</ele>
        <time>2015-05-06T17:43:57Z</time>
      </trkpt>
      <trkpt lat="45.41801" lon="5.92635">
        <ele>1814.849829851</ele>
        <time>2015-05-06T17:44:02Z</time>
      </trkpt>
      <trkpt lat="45.41802" lon="5.92625">
        <ele>1814.849829851</ele>
        <time>2015-05-06T17:44:07Z</time>
      </trkpt>
      <trkpt lat="45.41802" lon="5.92621">
        <ele>1815.330961916</ele>
        <time>2015-05-06T17:44:12Z</time>
      </trkpt>
      <trkpt lat="45.41805" lon="5.92616">
        <ele>1815.330961916</ele>
        <time>2015-05-06T17:44:17Z</time>
      </trkpt>
      <trkpt lat="45.41806" lon="5.92609">
        <ele>1816.116686659</ele>
        <time>2015-05-06T17:44:22Z</time>
      </trkpt>
      <trkpt lat="45.41808" lon="5.92603">
        <ele>1816.116686659</ele>
        <time>2015-05-06T17:44:27Z</time>
      </trkpt>
      <trkpt lat="45.41809" lon="5.92595">
        <ele>1816.892975964</ele>
        <time>2015-05-06T17:44:32Z</time>
      </trkpt>
      <trkpt lat="45.41808" lon="5.92588">
        <ele>1816.892975964</ele>
        <time>2015-05-06T17:44:37Z</time>
      </trkpt>
      <trkpt lat="45.41812" lon="5.92581">
        <ele>1817.512955256</ele>
        <time>2015-05-06T17:44:42Z</time>
      </trkpt>
      <trkpt lat="45.41813" lon="5.92575">
        <ele>1817.512955256</ele>
        <time>2015-05-06T17:44:47Z</time>
      </trkpt>
      <trkpt lat="45.41811" lon="5.92567">
        <ele>1818.273272697</ele>
        <time>2015-05-06T17:44:52Z</time>
      </trkpt>
      <trkpt lat="45.4181" lon="5.9256">
        <ele>1818.273272697</ele>
        <time>2015-05-06T17:44:57Z</time>
      </trkpt>
      <trkpt lat="45.4181" lon="5.92554">
        <ele>1818.727809378</ele>
        <time>2015-05-06T17:45:02Z</time>
      </trkpt>
      <trkpt lat="45.41808" lon="5.92547">
        <ele>1818.727809378</ele>
        <time>2015-05-06T17:45:07Z</time>
      </trkpt>
      <trkpt lat="45.41807" lon="5.92541">
        <ele>1819.040505596</ele>
        <time>2015-05-06T17:45:12Z</time>
      </trkpt>
      <trkpt lat="45.41808" lon="5.92534">
        <ele>1819.040505596</ele>
        <time>2015-05-06T17:45:17Z</time>
      </trkpt>
      <trkpt lat="45.4181" lon="5.92525">
        <ele>1818.643094135</ele>
        <time>2015-05-06T17:45:22Z</time>
      </trkpt>
      <trkpt lat="45.4181" lon="5.92518">
        <ele>1818.643094135</ele>
        <time>2015-05-06T17:45:27Z</time>
      </trkpt>
      <trkpt lat="45.41809" lon="5.92509">
        <ele>1817.875710132</ele>
        <time>2015-05-06T17:45:32Z</time>
      </trkpt>
      <trkpt lat="45.41808" lon="5.92502">
        <ele>1817.875710132</ele>
        <time>2015-05-06T17:45:37Z</time>
      </trkpt>
      <trkpt lat="45.41807" lon="5.92496">
        <ele>1817.054541401</ele>
        <time>2015-05-06T17:45:42Z</time>
      </trkpt>
      <trkpt lat="45.41807" lon="5.92488">
        <ele>1817.054541401</ele>
        <time>2015-05-06T17:45:47Z</time>
      </trkpt>
      <trkpt lat="45.41807" lon="5.92481">
        <ele>1815.896254919</ele>
        <time>2015-05-06T17:45:52Z</time>
      </trkpt>
      <trkpt lat="45.41807" lon="5.92475">
        <ele>1815.896254919</ele>
        <time>2015-05-06T17:45:57Z</time>
      </trkpt>
      <trkpt lat="45.41807" lon="5.92464">
        <ele>1814.139272541</ele>
        <time>2015-05-06T17:46:02Z</time>
      </trkpt>
      <trkpt lat="45.41808" lon="5.92457">
        <ele>1814.139272541</ele>
        <time>2015-05-06T17:46:07Z</time>
      </trkpt>
      <trkpt lat="45.41809" lon="5.9245">
        <ele>1812.551679168</ele>
        <time>2015-05-06T17:46:12Z</time>
      </trkpt>
      <trkpt lat="45.41807" lon="5.92441">
        <ele>1812.551679168</ele>
        <time>2015-05-06T17:46:17Z</time>
      </trkpt>
      <trkpt lat="45.41807" lon="5.92434">
        <ele>1811.556423136</ele>
        <time>2015-05-06T17:46:22Z</time>
      </trkpt>
      <trkpt lat="45.41809" lon="5.92427">
        <ele>1811.556423136</ele>
        <time>2015-05-06T17:46:27Z</time>
      </trkpt>
      <trkpt lat="45.4181" lon="5.92424">
        <ele>1811.556423136</ele>
        <time>2015-05-06T17:46:32Z</time>
      </trkpt>
      <trkpt lat="45.41812" lon="5.92417">
        <ele>1810.390809994</ele>
        <time>2015-05-06T17:46:37Z</time>
      </trkpt>
      <trkpt lat="45.41812" lon="5.92415">
        <ele>1810.390809994</ele>
        <time>2015-05-06T17:46:42Z</time>
      </trkpt>
      <trkpt lat="45.41814" lon="5.92409">
        <ele>1810.390809994</ele>
        <time>2015-05-06T17:46:47Z</time>
      </trkpt>
      <trkpt lat="45.41817" lon="5.92408">
        <ele>1808.204509894</ele>
        <time>2015-05-06T17:46:52Z</time>
      </trkpt>
      <trkpt lat="45.4182" lon="5.92402">
        <ele>1808.204509894</ele>
        <time>2015-05-06T17:46:57Z</time>
      </trkpt>
      <trkpt lat="45.41823" lon="5.92395">
        <ele>1806.230041862</ele>
        <time>2015-05-06T17:47:02Z</time>
      </trkpt>
      <trkpt lat="45.41827" lon="5.92392">
        <ele>1806.230041862</ele>
        <time>2015-05-06T17:47:07Z</time>
      </trkpt>
      <trkpt lat="45.41831" lon="5.92386">
        <ele>1804.311747573</ele>
        <time>2015-05-06T17:47:12Z</time>
      </trkpt>
      <trkpt lat="45.41834" lon="5.92381">
        <ele>1804.311747573</ele>
        <time>2015-05-06T17:47:16Z</time>
      </trkpt>
      <trkpt lat="45.41837" lon="5.92377">
        <ele>1804.311747573</ele>
        <time>2015-05-06T17:47:22Z</time>
      </trkpt>
      <trkpt lat="45.41842" lon="5.92376">
        <ele>1802.161083583</ele>
        <time>2015-05-06T17:47:27Z</time>
      </trkpt>
      <trkpt lat="45.41845" lon="5.92371">
        <ele>1802.161083583</ele>
        <time>2015-05-06T17:47:32Z</time>
      </trkpt>
      <trkpt lat="45.41846" lon="5.92366">
        <ele>1802.161083583</ele>
        <time>2015-05-06T17:47:37Z</time>
      </trkpt>
      <trkpt lat="45.4185" lon="5.92361">
        <ele>1799.367182493</ele>
        <time>2015-05-06T17:47:42Z</time>
      </trkpt>
      <trkpt lat="45.41851" lon="5.9236">
        <ele>1799.367182493</ele>
        <time>2015-05-06T17:47:47Z</time>
      </trkpt>
      <trkpt lat="45.41853" lon="5.92357">
        <ele>1799.367182493</ele>
        <time>2015-05-06T17:47:52Z</time>
      </trkpt>
      <trkpt lat="45.41854" lon="5.9235">
        <ele>1799.367182493</ele>
        <time>2015-05-06T17:47:57Z</time>
      </trkpt>
      <trkpt lat="45.41856" lon="5.92345">
        <ele>1795.983425107</ele>
        <time>2015-05-06T17:48:02Z</time>
      </trkpt>
      <trkpt lat="45.41857" lon="5.92338">
        <ele>1795.983425107</ele>
        <time>2015-05-06T17:48:07Z</time>
      </trkpt>
      <trkpt lat="45.41859" lon="5.92336">
        <ele>1795.983425107</ele>
        <time>2015-05-06T17:48:12Z</time>
      </trkpt>
      <trkpt lat="45.4186" lon="5.92331">
        <ele>1792.925508929</ele>
        <time>2015-05-06T17:48:17Z</time>
      </trkpt>
      <trkpt lat="45.41863" lon="5.92325">
        <ele>1792.925508929</ele>
        <time>2015-05-06T17:48:22Z</time>
      </trkpt>
      <trkpt lat="45.41866" lon="5.92319">
        <ele>1790.032076142</ele>
        <time>2015-05-06T17:48:27Z</time>
      </trkpt>
      <trkpt lat="45.41869" lon="5.92313">
        <ele>1790.032076142</ele>
        <time>2015-05-06T17:48:32Z</time>
      </trkpt>
      <trkpt lat="45.4187" lon="5.92307">
        <ele>1790.032076142</ele>
        <time>2015-05-06T17:48:37Z</time>
      </trkpt>
      <trkpt lat="45.41871" lon="5.92299">
        <ele>1787.008940217</ele>
        <time>2015-05-06T17:48:42Z</time>
      </trkpt>
      <trkpt lat="45.41875" lon="5.92294">
        <ele>1787.008940217</ele>
        <time>2015-05-06T17:48:47Z</time>
      </trkpt>
      <trkpt lat="45.41876" lon="5.92286">
        <ele>1784.016101864</ele>
        <time>2015-05-06T17:48:52Z</time>
      </trkpt>
      <trkpt lat="45.41876" lon="5.92279">
        <ele>1784.016101864</ele>
        <time>2015-05-06T17:48:57Z</time>
      </trkpt>
      <trkpt lat="45.41878" lon="5.92273">
        <ele>1781.057481514</ele>
        <time>2015-05-06T17:49:03Z</time>
      </trkpt>
      <trkpt lat="45.41882" lon="5.92274">
        <ele>1781.057481514</ele>
        <time>2015-05-06T17:49:07Z</time>
      </trkpt>
      <trkpt lat="45.41887" lon="5.92268">
        <ele>1777.560030991</ele>
        <time>2015-05-06T17:49:12Z</time>
      </trkpt>
      <trkpt lat="45.41891" lon="5.92268">
        <ele>1777.560030991</ele>
        <time>2015-05-06T17:49:17Z</time>
      </trkpt>
      <trkpt lat="45.41895" lon="5.92261">
        <ele>1773.570604304</ele>
        <time>2015-05-06T17:49:22Z</time>
      </trkpt>
      <trkpt lat="45.419" lon="5.92254">
        <ele>1773.570604304</ele>
        <time>2015-05-06T17:49:27Z</time>
      </trkpt>
      <trkpt lat="45.41905" lon="5.92251">
        <ele>1769.422055611</ele>
        <time>2015-05-06T17:49:32Z</time>
      </trkpt>
      <trkpt lat="45.4191" lon="5.92244">
        <ele>1769.422055611</ele>
        <time>2015-05-06T17:49:37Z</time>
      </trkpt>
      <trkpt lat="45.41913" lon="5.92238">
        <ele>1765.278951001</ele>
        <time>2015-05-06T17:49:42Z</time>
      </trkpt>
      <trkpt lat="45.41917" lon="5.92233">
        <ele>1765.278951001</ele>
        <time>2015-05-06T17:49:47Z</time>
      </trkpt>
      <trkpt lat="45.41919" lon="5.92228">
        <ele>1765.278951001</ele>
        <time>2015-05-06T17:49:52Z</time>
      </trkpt>
      <trkpt lat="45.41923" lon="5.9222">
        <ele>1761.14945701</ele>
        <time>2015-05-06T17:49:57Z</time>
      </trkpt>
      <trkpt lat="45.41927" lon="5.92216">
        <ele>1761.14945701</ele>
        <time>2015-05-06T17:50:02Z</time>
      </trkpt>
      <trkpt lat="45.41933" lon="5.92215">
        <ele>1757.329129134</ele>
        <time>2015-05-06T17:50:07Z</time>
      </trkpt>
      <trkpt lat="45.41937" lon="5.92214">
        <ele>1757.329129134</ele>
        <time>2015-05-06T17:50:12Z</time>
      </trkpt>
      <trkpt lat="45.41941" lon="5.92212">
        <ele>1757.329129134</ele>
        <time>2015-05-06T17:50:16Z</time>
      </trkpt>
      <trkpt lat="45.41945" lon="5.92205">
        <ele>1754.234851948</ele>
        <time>2015-05-06T17:50:23Z</time>
      </trkpt>
      <trkpt lat="45.41949" lon="5.92201">
        <ele>1754.234851948</ele>
        <time>2015-05-06T17:50:27Z</time>
      </trkpt>
      <trkpt lat="45.41952" lon="5.92206">
        <ele>1750.665416757</ele>
        <time>2015-05-06T17:50:32Z</time>
      </trkpt>
      <trkpt lat="45.41958" lon="5.92201">
        <ele>1750.665416757</ele>
        <time>2015-05-06T17:50:37Z</time>
      </trkpt>
      <trkpt lat="45.41962" lon="5.92201">
        <ele>1746.661863411</ele>
        <time>2015-05-06T17:50:42Z</time>
      </trkpt>
      <trkpt lat="45.41969" lon="5.92197">
        <ele>1746.661863411</ele>
        <time>2015-05-06T17:50:47Z</time>
      </trkpt>
      <trkpt lat="45.41976" lon="5.92195">
        <ele>1743.127885822</ele>
        <time>2015-05-06T17:50:52Z</time>
      </trkpt>
      <trkpt lat="45.41981" lon="5.92198">
        <ele>1743.127885822</ele>
        <time>2015-05-06T17:50:57Z</time>
      </trkpt>
      <trkpt lat="45.41986" lon="5.92189">
        <ele>1739.890480549</ele>
        <time>2015-05-06T17:51:02Z</time>
      </trkpt>
      <trkpt lat="45.41992" lon="5.92187">
        <ele>1739.890480549</ele>
        <time>2015-05-06T17:51:07Z</time>
      </trkpt>
      <trkpt lat="45.41997" lon="5.92185">
        <ele>1736.932415017</ele>
        <time>2015-05-06T17:51:12Z</time>
      </trkpt>
      <trkpt lat="45.42" lon="5.9218">
        <ele>1736.932415017</ele>
        <time>2015-05-06T17:51:17Z</time>
      </trkpt>
      <trkpt lat="45.42003" lon="5.92173">
        <ele>1734.092612905</ele>
        <time>2015-05-06T17:51:22Z</time>
      </trkpt>
      <trkpt lat="45.42008" lon="5.92169">
        <ele>1734.092612905</ele>
        <time>2015-05-06T17:51:27Z</time>
      </trkpt>
      <trkpt lat="45.42015" lon="5.92165">
        <ele>1731.221288443</ele>
        <time>2015-05-06T17:51:32Z</time>
      </trkpt>
      <trkpt lat="45.4202" lon="5.92165">
        <ele>1731.221288443</ele>
        <time>2015-05-06T17:51:37Z</time>
      </trkpt>
      <trkpt lat="45.42026" lon="5.92162">
        <ele>1728.179542959</ele>
        <time>2015-05-06T17:51:42Z</time>
      </trkpt>
      <trkpt lat="45.42029" lon="5.92161">
        <ele>1728.179542959</ele>
        <time>2015-05-06T17:51:47Z</time>
      </trkpt>
      <trkpt lat="45.42039" lon="5.92162">
        <ele>1725.559517583</ele>
        <time>2015-05-06T17:51:52Z</time>
      </trkpt>
      <trkpt lat="45.42045" lon="5.92159">
        <ele>1725.559517583</ele>
        <time>2015-05-06T17:51:57Z</time>
      </trkpt>
      <trkpt lat="45.4205" lon="5.92157">
        <ele>1723.043815072</ele>
        <time>2015-05-06T17:52:02Z</time>
      </trkpt>
      <trkpt lat="45.42057" lon="5.92157">
        <ele>1723.043815072</ele>
        <time>2015-05-06T17:52:07Z</time>
      </trkpt>
      <trkpt lat="45.42059" lon="5.9215">
        <ele>1720.481990608</ele>
        <time>2015-05-06T17:52:12Z</time>
      </trkpt>
      <trkpt lat="45.42064" lon="5.92147">
        <ele>1720.481990608</ele>
        <time>2015-05-06T17:52:17Z</time>
      </trkpt>
      <trkpt lat="45.42067" lon="5.92141">
        <ele>1717.878718322</ele>
        <time>2015-05-06T17:52:22Z</time>
      </trkpt>
      <trkpt lat="45.42073" lon="5.92138">
        <ele>1717.878718322</ele>
        <time>2015-05-06T17:52:27Z</time>
      </trkpt>
      <trkpt lat="45.4208" lon="5.92142">
        <ele>1714.805946956</ele>
        <time>2015-05-06T17:52:32Z</time>
      </trkpt>
      <trkpt lat="45.42082" lon="5.92144">
        <ele>1714.805946956</ele>
        <time>2015-05-06T17:52:37Z</time>
      </trkpt>
      <trkpt lat="45.42087" lon="5.92145">
        <ele>1714.805946956</ele>
        <time>2015-05-06T17:52:42Z</time>
      </trkpt>
      <trkpt lat="45.42093" lon="5.92145">
        <ele>1711.877007912</ele>
        <time>2015-05-06T17:52:47Z</time>
      </trkpt>
      <trkpt lat="45.421" lon="5.92144">
        <ele>1711.877007912</ele>
        <time>2015-05-06T17:52:52Z</time>
      </trkpt>
      <trkpt lat="45.42103" lon="5.92143">
        <ele>1709.37140235</ele>
        <time>2015-05-06T17:52:57Z</time>
      </trkpt>
      <trkpt lat="45.42105" lon="5.92143">
        <ele>1709.37140235</ele>
        <time>2015-05-06T17:53:02Z</time>
      </trkpt>
      <trkpt lat="45.42105" lon="5.92139">
        <ele>1709.37140235</ele>
        <time>2015-05-06T17:53:07Z</time>
      </trkpt>
      <trkpt lat="45.4211" lon="5.92142">
        <ele>1707.402659448</ele>
        <time>2015-05-06T17:53:12Z</time>
      </trkpt>
      <trkpt lat="45.42114" lon="5.92142">
        <ele>1707.402659448</ele>
        <time>2015-05-06T17:53:16Z</time>
      </trkpt>
      <trkpt lat="45.42119" lon="5.9214">
        <ele>1704.921440319</ele>
        <time>2015-05-06T17:53:22Z</time>
      </trkpt>
      <trkpt lat="45.42124" lon="5.92137">
        <ele>1704.921440319</ele>
        <time>2015-05-06T17:53:27Z</time>
      </trkpt>
      <trkpt lat="45.42128" lon="5.92135">
        <ele>1702.830250069</ele>
        <time>2015-05-06T17:53:32Z</time>
      </trkpt>
      <trkpt lat="45.42131" lon="5.92133">
        <ele>1702.830250069</ele>
        <time>2015-05-06T17:53:37Z</time>
      </trkpt>
      <trkpt lat="45.42137" lon="5.92139">
        <ele>1700.811201288</ele>
        <time>2015-05-06T17:53:42Z</time>
      </trkpt>
      <trkpt lat="45.42141" lon="5.92139">
        <ele>1700.811201288</ele>
        <time>2015-05-06T17:53:47Z</time>
      </trkpt>
      <trkpt lat="45.42145" lon="5.92137">
        <ele>1700.811201288</ele>
        <time>2015-05-06T17:53:52Z</time>
      </trkpt>
      <trkpt lat="45.42148" lon="5.92137">
        <ele>1698.857678092</ele>
        <time>2015-05-06T17:53:57Z</time>
      </trkpt>
      <trkpt lat="45.42153" lon="5.92136">
        <ele>1698.857678092</ele>
        <time>2015-05-06T17:54:02Z</time>
      </trkpt>
      <trkpt lat="45.42159" lon="5.92136">
        <ele>1696.963277692</ele>
        <time>2015-05-06T17:54:07Z</time>
      </trkpt>
      <trkpt lat="45.42164" lon="5.92136">
        <ele>1696.963277692</ele>
        <time>2015-05-06T17:54:12Z</time>
      </trkpt>
      <trkpt lat="45.42168" lon="5.92133">
        <ele>1694.97771284</ele>
        <time>2015-05-06T17:54:17Z</time>
      </trkpt>
      <trkpt lat="45.42173" lon="5.92134">
        <ele>1694.97771284</ele>
        <time>2015-05-06T17:54:22Z</time>
      </trkpt>
      <trkpt lat="45.42175" lon="5.92134">
        <ele>1694.97771284</ele>
        <time>2015-05-06T17:54:27Z</time>
      </trkpt>
      <trkpt lat="45.42175" lon="5.92133">
        <ele>1694.97771284</ele>
        <time>2015-05-06T17:54:32Z</time>
      </trkpt>
      <trkpt lat="45.42176" lon="5.92133">
        <ele>1694.97771284</ele>
        <time>2015-05-06T17:54:37Z</time>
      </trkpt>
      <trkpt lat="45.4218" lon="5.92138">
        <ele>1692.761924777</ele>
        <time>2015-05-06T17:54:42Z</time>
      </trkpt>
      <trkpt lat="45.42184" lon="5.92137">
        <ele>1692.761924777</ele>
        <time>2015-05-06T17:54:47Z</time>
      </trkpt>
      <trkpt lat="45.42187" lon="5.92134">
        <ele>1692.761924777</ele>
        <time>2015-05-06T17:54:52Z</time>
      </trkpt>
      <trkpt lat="45.4219" lon="5.92136">
        <ele>1690.764103161</ele>
        <time>2015-05-06T17:54:57Z</time>
      </trkpt>
      <trkpt lat="45.42194" lon="5.92133">
        <ele>1690.764103161</ele>
        <time>2015-05-06T17:55:02Z</time>
      </trkpt>
      <trkpt lat="45.42195" lon="5.92132">
        <ele>1690.764103161</ele>
        <time>2015-05-06T17:55:07Z</time>
      </trkpt>
      <trkpt lat="45.42194" lon="5.92131">
        <ele>1690.764103161</ele>
        <time>2015-05-06T17:55:12Z</time>
      </trkpt>
      <trkpt lat="45.42194" lon="5.92128">
        <ele>1690.764103161</ele>
        <time>2015-05-06T17:55:17Z</time>
      </trkpt>
      <trkpt lat="45.42195" lon="5.92125">
        <ele>1688.966521149</ele>
        <time>2015-05-06T17:55:22Z</time>
      </trkpt>
      <trkpt lat="45.42197" lon="5.92126">
        <ele>1688.966521149</ele>
        <time>2015-05-06T17:55:27Z</time>
      </trkpt>
      <trkpt lat="45.42197" lon="5.92126">
        <ele>1688.966521149</ele>
        <time>2015-05-06T17:55:32Z</time>
      </trkpt>
      <trkpt lat="45.42198" lon="5.92125">
        <ele>1688.966521149</ele>
        <time>2015-05-06T17:55:37Z</time>
      </trkpt>
      <trkpt lat="45.422" lon="5.92122">
        <ele>1688.966521149</ele>
        <time>2015-05-06T17:55:42Z</time>
      </trkpt>
      <trkpt lat="45.42202" lon="5.92119">
        <ele>1686.487485431</ele>
        <time>2015-05-06T17:55:47Z</time>
      </trkpt>
      <trkpt lat="45.42203" lon="5.92113">
        <ele>1686.487485431</ele>
        <time>2015-05-06T17:55:52Z</time>
      </trkpt>
      <trkpt lat="45.42205" lon="5.92106">
        <ele>1686.487485431</ele>
        <time>2015-05-06T17:55:57Z</time>
      </trkpt>
      <trkpt lat="45.42207" lon="5.92104">
        <ele>1683.953061663</ele>
        <time>2015-05-06T17:56:02Z</time>
      </trkpt>
      <trkpt lat="45.42212" lon="5.92109">
        <ele>1683.953061663</ele>
        <time>2015-05-06T17:56:07Z</time>
      </trkpt>
      <trkpt lat="45.42216" lon="5.92113">
        <ele>1680.790562685</ele>
        <time>2015-05-06T17:56:11Z</time>
      </trkpt>
      <trkpt lat="45.42216" lon="5.92113">
        <ele>1680.790562685</ele>
        <time>2015-05-06T17:56:17Z</time>
      </trkpt>
      <trkpt lat="45.42217" lon="5.92114">
        <ele>1680.790562685</ele>
        <time>2015-05-06T17:56:21Z</time>
      </trkpt>
      <trkpt lat="45.42216" lon="5.92115">
        <ele>1680.790562685</ele>
        <time>2015-05-06T17:56:27Z</time>
      </trkpt>
      <trkpt lat="45.42217" lon="5.92113">
        <ele>1680.790562685</ele>
        <time>2015-05-06T17:56:31Z</time>
      </trkpt>
      <trkpt lat="45.42217" lon="5.92115">
        <ele>1680.790562685</ele>
        <time>2015-05-06T17:56:37Z</time>
      </trkpt>
      <trkpt lat="45.42217" lon="5.92115">
        <ele>1680.790562685</ele>
        <time>2015-05-06T17:56:42Z</time>
      </trkpt>
      <trkpt lat="45.42218" lon="5.92114">
        <ele>1680.790562685</ele>
        <time>2015-05-06T17:56:47Z</time>
      </trkpt>
      <trkpt lat="45.42228" lon="5.92123">
        <ele>1676.615215774</ele>
        <time>2015-05-06T17:56:52Z</time>
      </trkpt>
      <trkpt lat="45.42223" lon="5.92118">
        <ele>1676.615215774</ele>
        <time>2015-05-06T17:56:57Z</time>
      </trkpt>
      <trkpt lat="45.42229" lon="5.92119">
        <ele>1672.802658311</ele>
        <time>2015-05-06T17:57:02Z</time>
      </trkpt>
      <trkpt lat="45.42233" lon="5.92121">
        <ele>1672.802658311</ele>
        <time>2015-05-06T17:57:07Z</time>
      </trkpt>
      <trkpt lat="45.42237" lon="5.92122">
        <ele>1672.802658311</ele>
        <time>2015-05-06T17:57:12Z</time>
      </trkpt>
      <trkpt lat="45.4224" lon="5.92118">
        <ele>1668.75297532</ele>
        <time>2015-05-06T17:57:17Z</time>
      </trkpt>
      <trkpt lat="45.42241" lon="5.92116">
        <ele>1668.75297532</ele>
        <time>2015-05-06T17:57:22Z</time>
      </trkpt>
      <trkpt lat="45.42242" lon="5.92116">
        <ele>1668.75297532</ele>
        <time>2015-05-06T17:57:27Z</time>
      </trkpt>
      <trkpt lat="45.42244" lon="5.92114">
        <ele>1668.75297532</ele>
        <time>2015-05-06T17:57:32Z</time>
      </trkpt>
      <trkpt lat="45.42249" lon="5.92117">
        <ele>1665.352055821</ele>
        <time>2015-05-06T17:57:37Z</time>
      </trkpt>
      <trkpt lat="45.42254" lon="5.92117">
        <ele>1665.352055821</ele>
        <time>2015-05-06T17:57:42Z</time>
      </trkpt>
      <trkpt lat="45.42262" lon="5.92115">
        <ele>1661.833620685</ele>
        <time>2015-05-06T17:57:47Z</time>
      </trkpt>
      <trkpt lat="45.42267" lon="5.92112">
        <ele>1661.833620685</ele>
        <time>2015-05-06T17:57:52Z</time>
      </trkpt>
      <trkpt lat="45.42272" lon="5.92113">
        <ele>1659.073182172</ele>
        <time>2015-05-06T17:57:57Z</time>
      </trkpt>
      <trkpt lat="45.42277" lon="5.92112">
        <ele>1659.073182172</ele>
        <time>2015-05-06T17:58:02Z</time>
      </trkpt>
      <trkpt lat="45.42279" lon="5.92112">
        <ele>1659.073182172</ele>
        <time>2015-05-06T17:58:07Z</time>
      </trkpt>
      <trkpt lat="45.42281" lon="5.92112">
        <ele>1659.073182172</ele>
        <time>2015-05-06T17:58:12Z</time>
      </trkpt>
      <trkpt lat="45.42281" lon="5.92111">
        <ele>1656.726870475</ele>
        <time>2015-05-06T17:58:17Z</time>
      </trkpt>
      <trkpt lat="45.42286" lon="5.92108">
        <ele>1656.726870475</ele>
        <time>2015-05-06T17:58:22Z</time>
      </trkpt>
      <trkpt lat="45.4229" lon="5.92103">
        <ele>1654.763088526</ele>
        <time>2015-05-06T17:58:27Z</time>
      </trkpt>
      <trkpt lat="45.42294" lon="5.92098">
        <ele>1654.763088526</ele>
        <time>2015-05-06T17:58:32Z</time>
      </trkpt>
      <trkpt lat="45.423" lon="5.92091">
        <ele>1653.43966838</ele>
        <time>2015-05-06T17:58:37Z</time>
      </trkpt>
      <trkpt lat="45.42301" lon="5.92086">
        <ele>1653.43966838</ele>
        <time>2015-05-06T17:58:42Z</time>
      </trkpt>
      <trkpt lat="45.42304" lon="5.92083">
        <ele>1653.43966838</ele>
        <time>2015-05-06T17:58:47Z</time>
      </trkpt>
      <trkpt lat="45.42304" lon="5.92078">
        <ele>1652.273118936</ele>
        <time>2015-05-06T17:58:52Z</time>
      </trkpt>
      <trkpt lat="45.42304" lon="5.92075">
        <ele>1652.273118936</ele>
        <time>2015-05-06T17:58:57Z</time>
      </trkpt>
      <trkpt lat="45.42305" lon="5.92069">
        <ele>1652.273118936</ele>
        <time>2015-05-06T17:59:02Z</time>
      </trkpt>
      <trkpt lat="45.42311" lon="5.9206">
        <ele>1651.535564461</ele>
        <time>2015-05-06T17:59:07Z</time>
      </trkpt>
      <trkpt lat="45.42316" lon="5.92058">
        <ele>1651.535564461</ele>
        <time>2015-05-06T17:59:12Z</time>
      </trkpt>
      <trkpt lat="45.42318" lon="5.92054">
        <ele>1651.535564461</ele>
        <time>2015-05-06T17:59:17Z</time>
      </trkpt>
      <trkpt lat="45.4232" lon="5.92051">
        <ele>1650.613266083</ele>
        <time>2015-05-06T17:59:22Z</time>
      </trkpt>
      <trkpt lat="45.42325" lon="5.92049">
        <ele>1650.613266083</ele>
        <time>2015-05-06T17:59:27Z</time>
      </trkpt>
      <trkpt lat="45.42331" lon="5.92045">
        <ele>1649.514545324</ele>
        <time>2015-05-06T17:59:32Z</time>
      </trkpt>
      <trkpt lat="45.42334" lon="5.92044">
        <ele>1649.514545324</ele>
        <time>2015-05-06T17:59:36Z</time>
      </trkpt>
      <trkpt lat="45.42337" lon="5.92041">
        <ele>1649.514545324</ele>
        <time>2015-05-06T17:59:41Z</time>
      </trkpt>
      <trkpt lat="45.42343" lon="5.92037">
        <ele>1648.391745446</ele>
        <time>2015-05-06T17:59:48Z</time>
      </trkpt>
      <trkpt lat="45.42349" lon="5.92035">
        <ele>1648.391745446</ele>
        <time>2015-05-06T17:59:52Z</time>
      </trkpt>
      <trkpt lat="45.42351" lon="5.92032">
        <ele>1648.391745446</ele>
        <time>2015-05-06T17:59:58Z</time>
      </trkpt>
      <trkpt lat="45.42356" lon="5.92024">
        <ele>1647.386126385</ele>
        <time>2015-05-06T18:00:02Z</time>
      </trkpt>
      <trkpt lat="45.42361" lon="5.9202">
        <ele>1647.386126385</ele>
        <time>2015-05-06T18:00:08Z</time>
      </trkpt>
      <trkpt lat="45.42367" lon="5.92013">
        <ele>1646.916517517</ele>
        <time>2015-05-06T18:00:12Z</time>
      </trkpt>
      <trkpt lat="45.42371" lon="5.92007">
        <ele>1646.916517517</ele>
        <time>2015-05-06T18:00:18Z</time>
      </trkpt>
      <trkpt lat="45.42376" lon="5.92001">
        <ele>1646.072541232</ele>
        <time>2015-05-06T18:00:22Z</time>
      </trkpt>
      <trkpt lat="45.42379" lon="5.91994">
        <ele>1646.072541232</ele>
        <time>2015-05-06T18:00:28Z</time>
      </trkpt>
      <trkpt lat="45.42382" lon="5.91987">
        <ele>1645.452933308</ele>
        <time>2015-05-06T18:00:32Z</time>
      </trkpt>
      <trkpt lat="45.42385" lon="5.9198">
        <ele>1645.452933308</ele>
        <time>2015-05-06T18:00:38Z</time>
      </trkpt>
      <trkpt lat="45.42388" lon="5.91975">
        <ele>1644.747237092</ele>
        <time>2015-05-06T18:00:42Z</time>
      </trkpt>
      <trkpt lat="45.4239" lon="5.91967">
        <ele>1644.747237092</ele>
        <time>2015-05-06T18:00:48Z</time>
      </trkpt>
      <trkpt lat="45.42394" lon="5.9196">
        <ele>1644.388696879</ele>
        <time>2015-05-06T18:00:52Z</time>
      </trkpt>
      <trkpt lat="45.42397" lon="5.91955">
        <ele>1644.388696879</ele>
        <time>2015-05-06T18:00:58Z</time>
      </trkpt>
      <trkpt lat="45.424" lon="5.91947">
        <ele>1643.769086241</ele>
        <time>2015-05-06T18:01:02Z</time>
      </trkpt>
      <trkpt lat="45.42402" lon="5.9194">
        <ele>1643.769086241</ele>
        <time>2015-05-06T18:01:08Z</time>
      </trkpt>
      <trkpt lat="45.42401" lon="5.91933">
        <ele>1643.046262904</ele>
        <time>2015-05-06T18:01:12Z</time>
      </trkpt>
      <trkpt lat="45.42403" lon="5.91924">
        <ele>1643.046262904</ele>
        <time>2015-05-06T18:01:18Z</time>
      </trkpt>
      <trkpt lat="45.42408" lon="5.91919">
        <ele>1642.36690174</ele>
        <time>2015-05-06T18:01:22Z</time>
      </trkpt>
      <trkpt lat="45.42411" lon="5.91912">
        <ele>1642.36690174</ele>
        <time>2015-05-06T18:01:28Z</time>
      </trkpt>
      <trkpt lat="45.42414" lon="5.91907">
        <ele>1641.722800268</ele>
        <time>2015-05-06T18:01:32Z</time>
      </trkpt>
      <trkpt lat="45.42416" lon="5.91901">
        <ele>1641.722800268</ele>
        <time>2015-05-06T18:01:38Z</time>
      </trkpt>
      <trkpt lat="45.42419" lon="5.91895">
        <ele>1640.96228398</ele>
        <time>2015-05-06T18:01:42Z</time>
      </trkpt>
      <trkpt lat="45.42424" lon="5.91891">
        <ele>1640.96228398</ele>
        <time>2015-05-06T18:01:48Z</time>
      </trkpt>
      <trkpt lat="45.42427" lon="5.91884">
        <ele>1639.801174691</ele>
        <time>2015-05-06T18:01:52Z</time>
      </trkpt>
      <trkpt lat="45.42432" lon="5.91877">
        <ele>1639.801174691</ele>
        <time>2015-05-06T18:01:58Z</time>
      </trkpt>
      <trkpt lat="45.42437" lon="5.9187">
        <ele>1638.842102049</ele>
        <time>2015-05-06T18:02:02Z</time>
      </trkpt>
      <trkpt lat="45.42441" lon="5.91863">
        <ele>1638.842102049</ele>
        <time>2015-05-06T18:02:08Z</time>
      </trkpt>
      <trkpt lat="45.42445" lon="5.91858">
        <ele>1638.210669819</ele>
        <time>2015-05-06T18:02:12Z</time>
      </trkpt>
      <trkpt lat="45.42448" lon="5.91855">
        <ele>1638.210669819</ele>
        <time>2015-05-06T18:02:18Z</time>
      </trkpt>
      <trkpt lat="45.42451" lon="5.91852">
        <ele>1638.210669819</ele>
        <time>2015-05-06T18:02:22Z</time>
      </trkpt>
      <trkpt lat="45.42457" lon="5.91848">
        <ele>1637.734258054</ele>
        <time>2015-05-06T18:02:28Z</time>
      </trkpt>
      <trkpt lat="45.42464" lon="5.91844">
        <ele>1637.734258054</ele>
        <time>2015-05-06T18:02:32Z</time>
      </trkpt>
      <trkpt lat="45.4247" lon="5.91846">
        <ele>1637.10852711</ele>
        <time>2015-05-06T18:02:38Z</time>
      </trkpt>
      <trkpt lat="45.42475" lon="5.91846">
        <ele>1637.10852711</ele>
        <time>2015-05-06T18:02:41Z</time>
      </trkpt>
      <trkpt lat="45.42481" lon="5.91852">
        <ele>1636.628505317</ele>
        <time>2015-05-06T18:02:48Z</time>
      </trkpt>
      <trkpt lat="45.42483" lon="5.91857">
        <ele>1636.628505317</ele>
        <time>2015-05-06T18:02:52Z</time>
      </trkpt>
      <trkpt lat="45.42487" lon="5.91864">
        <ele>1635.846733166</ele>
        <time>2015-05-06T18:02:58Z</time>
      </trkpt>
      <trkpt lat="45.42491" lon="5.91872">
        <ele>1635.846733166</ele>
        <time>2015-05-06T18:03:02Z</time>
      </trkpt>
      <trkpt lat="45.42495" lon="5.91877">
        <ele>1635.214285145</ele>
        <time>2015-05-06T18:03:08Z</time>
      </trkpt>
      <trkpt lat="45.42495" lon="5.91881">
        <ele>1635.214285145</ele>
        <time>2015-05-06T18:03:12Z</time>
      </trkpt>
      <trkpt lat="45.42499" lon="5.91889">
        <ele>1634.428275647</ele>
        <time>2015-05-06T18:03:18Z</time>
      </trkpt>
      <trkpt lat="45.42502" lon="5.91897">
        <ele>1634.428275647</ele>
        <time>2015-05-06T18:03:22Z</time>
      </trkpt>
      <trkpt lat="45.42506" lon="5.91902">
        <ele>1633.640982594</ele>
        <time>2015-05-06T18:03:28Z</time>
      </trkpt>
      <trkpt lat="45.4251" lon="5.9191">
        <ele>1633.640982594</ele>
        <time>2015-05-06T18:03:32Z</time>
      </trkpt>
      <trkpt lat="45.42516" lon="5.91912">
        <ele>1633.281872125</ele>
        <time>2015-05-06T18:03:38Z</time>
      </trkpt>
      <trkpt lat="45.42519" lon="5.91909">
        <ele>1633.281872125</ele>
        <time>2015-05-06T18:03:42Z</time>
      </trkpt>
      <trkpt lat="45.42522" lon="5.91909">
        <ele>1633.281872125</ele>
        <time>2015-05-06T18:03:48Z</time>
      </trkpt>
      <trkpt lat="45.42524" lon="5.91908">
        <ele>1632.30669583</ele>
        <time>2015-05-06T18:03:52Z</time>
      </trkpt>
      <trkpt lat="45.42526" lon="5.91914">
        <ele>1632.30669583</ele>
        <time>2015-05-06T18:03:58Z</time>
      </trkpt>
      <trkpt lat="45.4253" lon="5.91919">
        <ele>1631.335010526</ele>
        <time>2015-05-06T18:04:02Z</time>
      </trkpt>
      <trkpt lat="45.4253" lon="5.9192">
        <ele>1631.335010526</ele>
        <time>2015-05-06T18:04:08Z</time>
      </trkpt>
      <trkpt lat="45.42532" lon="5.91924">
        <ele>1631.335010526</ele>
        <time>2015-05-06T18:04:12Z</time>
      </trkpt>
      <trkpt lat="45.42537" lon="5.91925">
        <ele>1630.220436129</ele>
        <time>2015-05-06T18:04:18Z</time>
      </trkpt>
      <trkpt lat="45.42541" lon="5.91925">
        <ele>1630.220436129</ele>
        <time>2015-05-06T18:04:22Z</time>
      </trkpt>
      <trkpt lat="45.42543" lon="5.91928">
        <ele>1630.220436129</ele>
        <time>2015-05-06T18:04:28Z</time>
      </trkpt>
      <trkpt lat="45.42546" lon="5.91933">
        <ele>1628.827882641</ele>
        <time>2015-05-06T18:04:32Z</time>
      </trkpt>
      <trkpt lat="45.42546" lon="5.91939">
        <ele>1628.827882641</ele>
        <time>2015-05-06T18:04:38Z</time>
      </trkpt>
      <trkpt lat="45.42545" lon="5.91946">
        <ele>1626.888981332</ele>
        <time>2015-05-06T18:04:42Z</time>
      </trkpt>
      <trkpt lat="45.42549" lon="5.91949">
        <ele>1626.888981332</ele>
        <time>2015-05-06T18:04:48Z</time>
      </trkpt>
      <trkpt lat="45.42556" lon="5.91949">
        <ele>1625.45373203</ele>
        <time>2015-05-06T18:04:52Z</time>
      </trkpt>
      <trkpt lat="45.42561" lon="5.91952">
        <ele>1625.45373203</ele>
        <time>2015-05-06T18:04:58Z</time>
      </trkpt>
      <trkpt lat="45.42564" lon="5.91953">
        <ele>1625.45373203</ele>
        <time>2015-05-06T18:05:02Z</time>
      </trkpt>
      <trkpt lat="45.42568" lon="5.91954">
        <ele>1623.764367277</ele>
        <time>2015-05-06T18:05:08Z</time>
      </trkpt>
      <trkpt lat="45.4257" lon="5.91957">
        <ele>1623.764367277</ele>
        <time>2015-05-06T18:05:12Z</time>
      </trkpt>
      <trkpt lat="45.4257" lon="5.91956">
        <ele>1623.764367277</ele>
        <time>2015-05-06T18:05:18Z</time>
      </trkpt>
      <trkpt lat="45.4257" lon="5.91957">
        <ele>1623.764367277</ele>
        <time>2015-05-06T18:05:22Z</time>
      </trkpt>
      <trkpt lat="45.42573" lon="5.91958">
        <ele>1623.764367277</ele>
        <time>2015-05-06T18:05:28Z</time>
      </trkpt>
      <trkpt lat="45.42579" lon="5.91962">
        <ele>1622.128378245</ele>
        <time>2015-05-06T18:05:32Z</time>
      </trkpt>
      <trkpt lat="45.42581" lon="5.91964">
        <ele>1622.128378245</ele>
        <time>2015-05-06T18:05:38Z</time>
      </trkpt>
      <trkpt lat="45.42583" lon="5.91963">
        <ele>1622.128378245</ele>
        <time>2015-05-06T18:05:41Z</time>
      </trkpt>
      <trkpt lat="45.42589" lon="5.91964">
        <ele>1620.974723403</ele>
        <time>2015-05-06T18:05:48Z</time>
      </trkpt>
      <trkpt lat="45.42595" lon="5.91966">
        <ele>1620.974723403</ele>
        <time>2015-05-06T18:05:52Z</time>
      </trkpt>
      <trkpt lat="45.42594" lon="5.91972">
        <ele>1619.834916933</ele>
        <time>2015-05-06T18:05:56Z</time>
      </trkpt>
      <trkpt lat="45.42598" lon="5.91975">
        <ele>1619.834916933</ele>
        <time>2015-05-06T18:06:01Z</time>
      </trkpt>
      <trkpt lat="45.42601" lon="5.91981">
        <ele>1618.851374551</ele>
        <time>2015-05-06T18:06:07Z</time>
      </trkpt>
      <trkpt lat="45.42604" lon="5.91984">
        <ele>1618.851374551</ele>
        <time>2015-05-06T18:06:12Z</time>
      </trkpt>
      <trkpt lat="45.42608" lon="5.91987">
        <ele>1618.851374551</ele>
        <time>2015-05-06T18:06:17Z</time>
      </trkpt>
      <trkpt lat="45.42612" lon="5.91989">
        <ele>1617.579243341</ele>
        <time>2015-05-06T18:06:22Z</time>
      </trkpt>
      <trkpt lat="45.42613" lon="5.91993">
        <ele>1617.579243341</ele>
        <time>2015-05-06T18:06:27Z</time>
      </trkpt>
      <trkpt lat="45.42617" lon="5.91995">
        <ele>1617.579243341</ele>
        <time>2015-05-06T18:06:32Z</time>
      </trkpt>
      <trkpt lat="45.42623" lon="5.91999">
        <ele>1616.039563717</ele>
        <time>2015-05-06T18:06:36Z</time>
      </trkpt>
      <trkpt lat="45.42625" lon="5.92001">
        <ele>1616.039563717</ele>
        <time>2015-05-06T18:06:42Z</time>
      </trkpt>
      <trkpt lat="45.42631" lon="5.92003">
        <ele>1614.252647166</ele>
        <time>2015-05-06T18:06:47Z</time>
      </trkpt>
      <trkpt lat="45.42637" lon="5.92005">
        <ele>1614.252647166</ele>
        <time>2015-05-06T18:06:52Z</time>
      </trkpt>
      <trkpt lat="45.42641" lon="5.92006">
        <ele>1612.526288752</ele>
        <time>2015-05-06T18:06:57Z</time>
      </trkpt>
      <trkpt lat="45.42648" lon="5.92009">
        <ele>1612.526288752</ele>
        <time>2015-05-06T18:07:02Z</time>
      </trkpt>
      <trkpt lat="45.42652" lon="5.9201">
        <ele>1611.577890357</ele>
        <time>2015-05-06T18:07:07Z</time>
      </trkpt>
      <trkpt lat="45.42657" lon="5.92012">
        <ele>1611.577890357</ele>
        <time>2015-05-06T18:07:12Z</time>
      </trkpt>
      <trkpt lat="45.42663" lon="5.92016">
        <ele>1610.77301945</ele>
        <time>2015-05-06T18:07:17Z</time>
      </trkpt>
      <trkpt lat="45.4267" lon="5.92017">
        <ele>1610.77301945</ele>
        <time>2015-05-06T18:07:22Z</time>
      </trkpt>
      <trkpt lat="45.42678" lon="5.9202">
        <ele>1610.676381487</ele>
        <time>2015-05-06T18:07:27Z</time>
      </trkpt>
      <trkpt lat="45.42682" lon="5.92022">
        <ele>1610.676381487</ele>
        <time>2015-05-06T18:07:32Z</time>
      </trkpt>
      <trkpt lat="45.42685" lon="5.92022">
        <ele>1610.676381487</ele>
        <time>2015-05-06T18:07:37Z</time>
      </trkpt>
      <trkpt lat="45.42693" lon="5.92025">
        <ele>1609.935812888</ele>
        <time>2015-05-06T18:07:42Z</time>
      </trkpt>
      <trkpt lat="45.42701" lon="5.92025">
        <ele>1609.935812888</ele>
        <time>2015-05-06T18:07:47Z</time>
      </trkpt>
      <trkpt lat="45.42705" lon="5.92029">
        <ele>1609.173778064</ele>
        <time>2015-05-06T18:07:52Z</time>
      </trkpt>
      <trkpt lat="45.4271" lon="5.9203">
        <ele>1609.173778064</ele>
        <time>2015-05-06T18:07:57Z</time>
      </trkpt>
      <trkpt lat="45.42716" lon="5.92033">
        <ele>1608.102456919</ele>
        <time>2015-05-06T18:08:02Z</time>
      </trkpt>
      <trkpt lat="45.4272" lon="5.92033">
        <ele>1608.102456919</ele>
        <time>2015-05-06T18:08:07Z</time>
      </trkpt>
      <trkpt lat="45.42723" lon="5.92036">
        <ele>1608.102456919</ele>
        <time>2015-05-06T18:08:12Z</time>
      </trkpt>
      <trkpt lat="45.42728" lon="5.92039">
        <ele>1607.176644192</ele>
        <time>2015-05-06T18:08:17Z</time>
      </trkpt>
      <trkpt lat="45.42733" lon="5.92045">
        <ele>1607.176644192</ele>
        <time>2015-05-06T18:08:22Z</time>
      </trkpt>
      <trkpt lat="45.42736" lon="5.92048">
        <ele>1606.385031096</ele>
        <time>2015-05-06T18:08:27Z</time>
      </trkpt>
      <trkpt lat="45.42741" lon="5.92053">
        <ele>1606.385031096</ele>
        <time>2015-05-06T18:08:32Z</time>
      </trkpt>
      <trkpt lat="45.42746" lon="5.92058">
        <ele>1605.860920491</ele>
        <time>2015-05-06T18:08:37Z</time>
      </trkpt>
      <trkpt lat="45.4275" lon="5.9206">
        <ele>1605.860920491</ele>
        <time>2015-05-06T18:08:42Z</time>
      </trkpt>
      <trkpt lat="45.42757" lon="5.92063">
        <ele>1605.438896051</ele>
        <time>2015-05-06T18:08:47Z</time>
      </trkpt>
      <trkpt lat="45.42761" lon="5.92061">
        <ele>1605.438896051</ele>
        <time>2015-05-06T18:08:52Z</time>
      </trkpt>
      <trkpt lat="45.42767" lon="5.9206">
        <ele>1605.109564442</ele>
        <time>2015-05-06T18:08:57Z</time>
      </trkpt>
      <trkpt lat="45.42771" lon="5.92061">
        <ele>1605.109564442</ele>
        <time>2015-05-06T18:09:02Z</time>
      </trkpt>
      <trkpt lat="45.42773" lon="5.92063">
        <ele>1605.109564442</ele>
        <time>2015-05-06T18:09:07Z</time>
      </trkpt>
      <trkpt lat="45.42777" lon="5.92064">
        <ele>1604.5757882</ele>
        <time>2015-05-06T18:09:12Z</time>
      </trkpt>
      <trkpt lat="45.42783" lon="5.92067">
        <ele>1604.5757882</ele>
        <time>2015-05-06T18:09:17Z</time>
      </trkpt>
      <trkpt lat="45.4279" lon="5.92068">
        <ele>1604.427548432</ele>
        <time>2015-05-06T18:09:22Z</time>
      </trkpt>
      <trkpt lat="45.42794" lon="5.9207">
        <ele>1604.427548432</ele>
        <time>2015-05-06T18:09:27Z</time>
      </trkpt>
      <trkpt lat="45.42799" lon="5.92071">
        <ele>1604.201679607</ele>
        <time>2015-05-06T18:09:32Z</time>
      </trkpt>
      <trkpt lat="45.42804" lon="5.92074">
        <ele>1604.201679607</ele>
        <time>2015-05-06T18:09:37Z</time>
      </trkpt>
      <trkpt lat="45.42809" lon="5.92077">
        <ele>1603.901646274</ele>
        <time>2015-05-06T18:09:42Z</time>
      </trkpt>
      <trkpt lat="45.42816" lon="5.92079">
        <ele>1603.901646274</ele>
        <time>2015-05-06T18:09:47Z</time>
      </trkpt>
      <trkpt lat="45.4282" lon="5.92079">
        <ele>1603.963257683</ele>
        <time>2015-05-06T18:09:52Z</time>
      </trkpt>
      <trkpt lat="45.42824" lon="5.92079">
        <ele>1603.963257683</ele>
        <time>2015-05-06T18:09:57Z</time>
      </trkpt>
      <trkpt lat="45.42828" lon="5.92081">
        <ele>1603.963257683</ele>
        <time>2015-05-06T18:10:02Z</time>
      </trkpt>
      <trkpt lat="45.4283" lon="5.92084">
        <ele>1603.636464963</ele>
        <time>2015-05-06T18:10:07Z</time>
      </trkpt>
      <trkpt lat="45.42832" lon="5.92086">
        <ele>1603.636464963</ele>
        <time>2015-05-06T18:10:12Z</time>
      </trkpt>
      <trkpt lat="45.42831" lon="5.92085">
        <ele>1603.636464963</ele>
        <time>2015-05-06T18:10:17Z</time>
      </trkpt>
      <trkpt lat="45.42831" lon="5.92085">
        <ele>1603.636464963</ele>
        <time>2015-05-06T18:10:22Z</time>
      </trkpt>
      <trkpt lat="45.42835" lon="5.9209">
        <ele>1603.636464963</ele>
        <time>2015-05-06T18:10:27Z</time>
      </trkpt>
      <trkpt lat="45.42837" lon="5.92092">
        <ele>1604.100915516</ele>
        <time>2015-05-06T18:10:32Z</time>
      </trkpt>
      <trkpt lat="45.4284" lon="5.92095">
        <ele>1604.100915516</ele>
        <time>2015-05-06T18:10:37Z</time>
      </trkpt>
      <trkpt lat="45.42844" lon="5.92098">
        <ele>1604.100915516</ele>
        <time>2015-05-06T18:10:42Z</time>
      </trkpt>
      <trkpt lat="45.4285" lon="5.92099">
        <ele>1604.862225703</ele>
        <time>2015-05-06T18:10:47Z</time>
      </trkpt>
      <trkpt lat="45.42855" lon="5.92103">
        <ele>1604.862225703</ele>
        <time>2015-05-06T18:10:52Z</time>
      </trkpt>
      <trkpt lat="45.4286" lon="5.921">
        <ele>1605.461569138</ele>
        <time>2015-05-06T18:10:57Z</time>
      </trkpt>
      <trkpt lat="45.42862" lon="5.921">
        <ele>1605.461569138</ele>
        <time>2015-05-06T18:11:02Z</time>
      </trkpt>
      <trkpt lat="45.42867" lon="5.92097">
        <ele>1605.461569138</ele>
        <time>2015-05-06T18:11:07Z</time>
      </trkpt>
      <trkpt lat="45.42872" lon="5.92096">
        <ele>1606.194913929</ele>
        <time>2015-05-06T18:11:12Z</time>
      </trkpt>
      <trkpt lat="45.42875" lon="5.92093">
        <ele>1606.194913929</ele>
        <time>2015-05-06T18:11:17Z</time>
      </trkpt>
      <trkpt lat="45.42876" lon="5.92094">
        <ele>1606.194913929</ele>
        <time>2015-05-06T18:11:22Z</time>
      </trkpt>
      <trkpt lat="45.4288" lon="5.92097">
        <ele>1607.48030902</ele>
        <time>2015-05-06T18:11:27Z</time>
      </trkpt>
      <trkpt lat="45.42884" lon="5.921">
        <ele>1607.48030902</ele>
        <time>2015-05-06T18:11:32Z</time>
      </trkpt>
      <trkpt lat="45.42882" lon="5.92099">
        <ele>1607.48030902</ele>
        <time>2015-05-06T18:11:37Z</time>
      </trkpt>
      <trkpt lat="45.42881" lon="5.92094">
        <ele>1608.406639417</ele>
        <time>2015-05-06T18:11:42Z</time>
      </trkpt>
      <trkpt lat="45.42882" lon="5.92088">
        <ele>1608.406639417</ele>
        <time>2015-05-06T18:11:47Z</time>
      </trkpt>
      <trkpt lat="45.42887" lon="5.92089">
        <ele>1608.56316187</ele>
        <time>2015-05-06T18:11:52Z</time>
      </trkpt>
      <trkpt lat="45.42889" lon="5.92094">
        <ele>1608.56316187</ele>
        <time>2015-05-06T18:11:57Z</time>
      </trkpt>
      <trkpt lat="45.4289" lon="5.92093">
        <ele>1608.56316187</ele>
        <time>2015-05-06T18:12:01Z</time>
      </trkpt>
      <trkpt lat="45.42894" lon="5.92098">
        <ele>1608.00390373</ele>
        <time>2015-05-06T18:12:07Z</time>
      </trkpt>
      <trkpt lat="45.42901" lon="5.92101">
        <ele>1608.00390373</ele>
        <time>2015-05-06T18:12:12Z</time>
      </trkpt>
      <trkpt lat="45.42903" lon="5.92108">
        <ele>1606.781035481</ele>
        <time>2015-05-06T18:12:17Z</time>
      </trkpt>
      <trkpt lat="45.42906" lon="5.92116">
        <ele>1606.781035481</ele>
        <time>2015-05-06T18:12:22Z</time>
      </trkpt>
      <trkpt lat="45.42912" lon="5.92123">
        <ele>1605.521300103</ele>
        <time>2015-05-06T18:12:27Z</time>
      </trkpt>
      <trkpt lat="45.42912" lon="5.92127">
        <ele>1605.521300103</ele>
        <time>2015-05-06T18:12:32Z</time>
      </trkpt>
      <trkpt lat="45.42917" lon="5.9213">
        <ele>1605.521300103</ele>
        <time>2015-05-06T18:12:37Z</time>
      </trkpt>
      <trkpt lat="45.4292" lon="5.92134">
        <ele>1604.805594275</ele>
        <time>2015-05-06T18:12:42Z</time>
      </trkpt>
      <trkpt lat="45.42921" lon="5.92139">
        <ele>1604.805594275</ele>
        <time>2015-05-06T18:12:47Z</time>
      </trkpt>
      <trkpt lat="45.42921" lon="5.92139">
        <ele>1604.805594275</ele>
        <time>2015-05-06T18:12:52Z</time>
      </trkpt>
      <trkpt lat="45.42925" lon="5.92144">
        <ele>1603.729584857</ele>
        <time>2015-05-06T18:12:57Z</time>
      </trkpt>
      <trkpt lat="45.42929" lon="5.92145">
        <ele>1603.729584857</ele>
        <time>2015-05-06T18:13:02Z</time>
      </trkpt>
      <trkpt lat="45.42933" lon="5.92143">
        <ele>1603.729584857</ele>
        <time>2015-05-06T18:13:07Z</time>
      </trkpt>
      <trkpt lat="45.42935" lon="5.92143">
        <ele>1603.762232272</ele>
        <time>2015-05-06T18:13:12Z</time>
      </trkpt>
      <trkpt lat="45.4294" lon="5.92138">
        <ele>1603.762232272</ele>
        <time>2015-05-06T18:13:17Z</time>
      </trkpt>
      <trkpt lat="45.42947" lon="5.92139">
        <ele>1603.955766028</ele>
        <time>2015-05-06T18:13:22Z</time>
      </trkpt>
      <trkpt lat="45.42954" lon="5.92137">
        <ele>1603.955766028</ele>
        <time>2015-05-06T18:13:27Z</time>
      </trkpt>
      <trkpt lat="45.4296" lon="5.92142">
        <ele>1604.584541077</ele>
        <time>2015-05-06T18:13:32Z</time>
      </trkpt>
      <trkpt lat="45.42961" lon="5.92148">
        <ele>1604.584541077</ele>
        <time>2015-05-06T18:13:37Z</time>
      </trkpt>
      <trkpt lat="45.42964" lon="5.92147">
        <ele>1604.584541077</ele>
        <time>2015-05-06T18:13:42Z</time>
      </trkpt>
      <trkpt lat="45.42967" lon="5.92148">
        <ele>1604.892824057</ele>
        <time>2015-05-06T18:13:47Z</time>
      </trkpt>
      <trkpt lat="45.42973" lon="5.92156">
        <ele>1604.892824057</ele>
        <time>2015-05-06T18:13:52Z</time>
      </trkpt>
      <trkpt lat="45.4298" lon="5.92152">
        <ele>1604.901918598</ele>
        <time>2015-05-06T18:13:57Z</time>
      </trkpt>
      <trkpt lat="45.42984" lon="5.92154">
        <ele>1604.901918598</ele>
        <time>2015-05-06T18:14:02Z</time>
      </trkpt>
      <trkpt lat="45.42986" lon="5.9216">
        <ele>1604.776581261</ele>
        <time>2015-05-06T18:14:07Z</time>
      </trkpt>
      <trkpt lat="45.42987" lon="5.92162">
        <ele>1604.776581261</ele>
        <time>2015-05-06T18:14:12Z</time>
      </trkpt>
      <trkpt lat="45.42993" lon="5.9216">
        <ele>1604.776581261</ele>
        <time>2015-05-06T18:14:17Z</time>
      </trkpt>
      <trkpt lat="45.42999" lon="5.92161">
        <ele>1604.525798742</ele>
        <time>2015-05-06T18:14:22Z</time>
      </trkpt>
      <trkpt lat="45.43002" lon="5.92159">
        <ele>1604.525798742</ele>
        <time>2015-05-06T18:14:27Z</time>
      </trkpt>
      <trkpt lat="45.43" lon="5.92157">
        <ele>1604.525798742</ele>
        <time>2015-05-06T18:14:32Z</time>
      </trkpt>
      <trkpt lat="45.43001" lon="5.92157">
        <ele>1604.525798742</ele>
        <time>2015-05-06T18:14:37Z</time>
      </trkpt>
      <trkpt lat="45.43001" lon="5.92157">
        <ele>1604.525798742</ele>
        <time>2015-05-06T18:14:42Z</time>
      </trkpt>
      <trkpt lat="45.43001" lon="5.92157">
        <ele>1604.525798742</ele>
        <time>2015-05-06T18:14:47Z</time>
      </trkpt>
      <trkpt lat="45.43001" lon="5.92157">
        <ele>1604.525798742</ele>
        <time>2015-05-06T18:14:52Z</time>
      </trkpt>
      <trkpt lat="45.43001" lon="5.92157">
        <ele>1604.525798742</ele>
        <time>2015-05-06T18:14:57Z</time>
      </trkpt>
      <trkpt lat="45.4301" lon="5.9216">
        <ele>1604.014203015</ele>
        <time>2015-05-06T18:15:02Z</time>
      </trkpt>
      <trkpt lat="45.43019" lon="5.92167">
        <ele>1603.117162085</ele>
        <time>2015-05-06T18:15:07Z</time>
      </trkpt>
      <trkpt lat="45.43027" lon="5.92163">
        <ele>1603.117162085</ele>
        <time>2015-05-06T18:15:12Z</time>
      </trkpt>
      <trkpt lat="45.43035" lon="5.92163">
        <ele>1601.576222956</ele>
        <time>2015-05-06T18:15:17Z</time>
      </trkpt>
      <trkpt lat="45.4304" lon="5.92163">
        <ele>1601.576222956</ele>
        <time>2015-05-06T18:15:22Z</time>
      </trkpt>
      <trkpt lat="45.43046" lon="5.92166">
        <ele>1600.450770653</ele>
        <time>2015-05-06T18:15:27Z</time>
      </trkpt>
      <trkpt lat="45.43045" lon="5.92165">
        <ele>1600.450770653</ele>
        <time>2015-05-06T18:15:32Z</time>
      </trkpt>
      <trkpt lat="45.43046" lon="5.92165">
        <ele>1600.450770653</ele>
        <time>2015-05-06T18:15:37Z</time>
      </trkpt>
      <trkpt lat="45.43051" lon="5.92166">
        <ele>1600.450770653</ele>
        <time>2015-05-06T18:15:42Z</time>
      </trkpt>
      <trkpt lat="45.43054" lon="5.92167">
        <ele>1599.424238394</ele>
        <time>2015-05-06T18:15:47Z</time>
      </trkpt>
      <trkpt lat="45.43058" lon="5.92176">
        <ele>1599.424238394</ele>
        <time>2015-05-06T18:15:52Z</time>
      </trkpt>
      <trkpt lat="45.43059" lon="5.92174">
        <ele>1598.347174291</ele>
        <time>2015-05-06T18:15:57Z</time>
      </trkpt>
      <trkpt lat="45.43059" lon="5.92175">
        <ele>1598.347174291</ele>
        <time>2015-05-06T18:16:02Z</time>
      </trkpt>
      <trkpt lat="45.4306" lon="5.92175">
        <ele>1598.347174291</ele>
        <time>2015-05-06T18:16:07Z</time>
      </trkpt>
      <trkpt lat="45.4306" lon="5.92175">
        <ele>1598.347174291</ele>
        <time>2015-05-06T18:16:12Z</time>
      </trkpt>
      <trkpt lat="45.4306" lon="5.92175">
        <ele>1598.347174291</ele>
        <time>2015-05-06T18:16:17Z</time>
      </trkpt>
      <trkpt lat="45.4306" lon="5.92175">
        <ele>1598.347174291</ele>
        <time>2015-05-06T18:16:22Z</time>
      </trkpt>
      <trkpt lat="45.4306" lon="5.92175">
        <ele>1598.347174291</ele>
        <time>2015-05-06T18:16:27Z</time>
      </trkpt>
      <trkpt lat="45.4306" lon="5.92175">
        <ele>1598.347174291</ele>
        <time>2015-05-06T18:16:32Z</time>
      </trkpt>
      <trkpt lat="45.43068" lon="5.9218">
        <ele>1596.793041225</ele>
        <time>2015-05-06T18:16:37Z</time>
      </trkpt>
      <trkpt lat="45.43081" lon="5.92184">
        <ele>1594.944425394</ele>
        <time>2015-05-06T18:16:42Z</time>
      </trkpt>
      <trkpt lat="45.43093" lon="5.92189">
        <ele>1593.835991721</ele>
        <time>2015-05-06T18:16:47Z</time>
      </trkpt>
      <trkpt lat="45.43103" lon="5.92189">
        <ele>1592.550866812</ele>
        <time>2015-05-06T18:16:52Z</time>
      </trkpt>
      <trkpt lat="45.43114" lon="5.92191">
        <ele>1590.960562025</ele>
        <time>2015-05-06T18:16:57Z</time>
      </trkpt>
      <trkpt lat="45.43115" lon="5.92192">
        <ele>1590.960562025</ele>
        <time>2015-05-06T18:17:02Z</time>
      </trkpt>
      <trkpt lat="45.4312" lon="5.92187">
        <ele>1590.960562025</ele>
        <time>2015-05-06T18:17:07Z</time>
      </trkpt>
      <trkpt lat="45.43124" lon="5.92182">
        <ele>1589.955635141</ele>
        <time>2015-05-06T18:17:12Z</time>
      </trkpt>
      <trkpt lat="45.43123" lon="5.92186">
        <ele>1589.955635141</ele>
        <time>2015-05-06T18:17:17Z</time>
      </trkpt>
      <trkpt lat="45.43124" lon="5.92194">
        <ele>1589.955635141</ele>
        <time>2015-05-06T18:17:22Z</time>
      </trkpt>
      <trkpt lat="45.43124" lon="5.92194">
        <ele>1588.053769731</ele>
        <time>2015-05-06T18:17:27Z</time>
      </trkpt>
      <trkpt lat="45.43124" lon="5.92198">
        <ele>1588.053769731</ele>
        <time>2015-05-06T18:17:32Z</time>
      </trkpt>
      <trkpt lat="45.43122" lon="5.92199">
        <ele>1588.053769731</ele>
        <time>2015-05-06T18:17:37Z</time>
      </trkpt>
      <trkpt lat="45.43123" lon="5.92198">
        <ele>1588.053769731</ele>
        <time>2015-05-06T18:17:42Z</time>
      </trkpt>
      <trkpt lat="45.43123" lon="5.92198">
        <ele>1588.053769731</ele>
        <time>2015-05-06T18:17:47Z</time>
      </trkpt>
      <trkpt lat="45.43124" lon="5.92198">
        <ele>1588.053769731</ele>
        <time>2015-05-06T18:17:52Z</time>
      </trkpt>
      <trkpt lat="45.43124" lon="5.92198">
        <ele>1588.053769731</ele>
        <time>2015-05-06T18:17:57Z</time>
      </trkpt>
      <trkpt lat="45.43124" lon="5.92198">
        <ele>1588.053769731</ele>
        <time>2015-05-06T18:18:02Z</time>
      </trkpt>
      <trkpt lat="45.43124" lon="5.92198">
        <ele>1588.053769731</ele>
        <time>2015-05-06T18:18:07Z</time>
      </trkpt>
      <trkpt lat="45.43124" lon="5.92198">
        <ele>1588.053769731</ele>
        <time>2015-05-06T18:18:12Z</time>
      </trkpt>
      <trkpt lat="45.43128" lon="5.92197">
        <ele>1586.333905056</ele>
        <time>2015-05-06T18:18:17Z</time>
      </trkpt>
      <trkpt lat="45.43136" lon="5.92195">
        <ele>1586.333905056</ele>
        <time>2015-05-06T18:18:22Z</time>
      </trkpt>
      <trkpt lat="45.43141" lon="5.92199">
        <ele>1584.209940544</ele>
        <time>2015-05-06T18:18:27Z</time>
      </trkpt>
      <trkpt lat="45.43145" lon="5.92199">
        <ele>1584.209940544</ele>
        <time>2015-05-06T18:18:32Z</time>
      </trkpt>
      <trkpt lat="45.43146" lon="5.92198">
        <ele>1584.209940544</ele>
        <time>2015-05-06T18:18:37Z</time>
      </trkpt>
      <trkpt lat="45.43146" lon="5.92198">
        <ele>1584.209940544</ele>
        <time>2015-05-06T18:18:42Z</time>
      </trkpt>
      <trkpt lat="45.43153" lon="5.92195">
        <ele>1582.581019983</ele>
        <time>2015-05-06T18:18:47Z</time>
      </trkpt>
      <trkpt lat="45.43163" lon="5.92193">
        <ele>1581.414118483</ele>
        <time>2015-05-06T18:18:52Z</time>
      </trkpt>
      <trkpt lat="45.43168" lon="5.92191">
        <ele>1581.414118483</ele>
        <time>2015-05-06T18:18:57Z</time>
      </trkpt>
      <trkpt lat="45.43169" lon="5.92187">
        <ele>1581.414118483</ele>
        <time>2015-05-06T18:19:02Z</time>
      </trkpt>
      <trkpt lat="45.43174" lon="5.92189">
        <ele>1581.253720054</ele>
        <time>2015-05-06T18:19:07Z</time>
      </trkpt>
      <trkpt lat="45.43186" lon="5.92183">
        <ele>1581.448533225</ele>
        <time>2015-05-06T18:19:12Z</time>
      </trkpt>
      <trkpt lat="45.43184" lon="5.92182">
        <ele>1581.448533225</ele>
        <time>2015-05-06T18:19:17Z</time>
      </trkpt>
      <trkpt lat="45.43187" lon="5.92181">
        <ele>1581.448533225</ele>
        <time>2015-05-06T18:19:22Z</time>
      </trkpt>
      <trkpt lat="45.43193" lon="5.92181">
        <ele>1581.105829946</ele>
        <time>2015-05-06T18:19:27Z</time>
      </trkpt>
      <trkpt lat="45.43199" lon="5.92177">
        <ele>1581.105829946</ele>
        <time>2015-05-06T18:19:32Z</time>
      </trkpt>
      <trkpt lat="45.43206" lon="5.9218">
        <ele>1581.129249122</ele>
        <time>2015-05-06T18:19:37Z</time>
      </trkpt>
      <trkpt lat="45.43206" lon="5.92178">
        <ele>1581.129249122</ele>
        <time>2015-05-06T18:19:42Z</time>
      </trkpt>
      <trkpt lat="45.43207" lon="5.92177">
        <ele>1581.129249122</ele>
        <time>2015-05-06T18:19:47Z</time>
      </trkpt>
      <trkpt lat="45.43211" lon="5.92165">
        <ele>1580.913863641</ele>
        <time>2015-05-06T18:19:52Z</time>
      </trkpt>
      <trkpt lat="45.43218" lon="5.92168">
        <ele>1580.913863641</ele>
        <time>2015-05-06T18:19:57Z</time>
      </trkpt>
      <trkpt lat="45.4322" lon="5.92159">
        <ele>1581.196815882</ele>
        <time>2015-05-06T18:20:02Z</time>
      </trkpt>
      <trkpt lat="45.43223" lon="5.92157">
        <ele>1581.196815882</ele>
        <time>2015-05-06T18:20:07Z</time>
      </trkpt>
      <trkpt lat="45.4323" lon="5.92158">
        <ele>1580.209777319</ele>
        <time>2015-05-06T18:20:12Z</time>
      </trkpt>
      <trkpt lat="45.43231" lon="5.92145">
        <ele>1579.488300056</ele>
        <time>2015-05-06T18:20:17Z</time>
      </trkpt>
      <trkpt lat="45.43236" lon="5.92143">
        <ele>1579.488300056</ele>
        <time>2015-05-06T18:20:22Z</time>
      </trkpt>
      <trkpt lat="45.43231" lon="5.92127">
        <ele>1579.157365611</ele>
        <time>2015-05-06T18:20:27Z</time>
      </trkpt>
      <trkpt lat="45.43234" lon="5.92127">
        <ele>1579.157365611</ele>
        <time>2015-05-06T18:20:32Z</time>
      </trkpt>
      <trkpt lat="45.43237" lon="5.92127">
        <ele>1579.157365611</ele>
        <time>2015-05-06T18:20:37Z</time>
      </trkpt>
      <trkpt lat="45.43238" lon="5.92127">
        <ele>1579.157365611</ele>
        <time>2015-05-06T18:20:42Z</time>
      </trkpt>
      <trkpt lat="45.43238" lon="5.92127">
        <ele>1579.157365611</ele>
        <time>2015-05-06T18:20:47Z</time>
      </trkpt>
      <trkpt lat="45.43238" lon="5.92127">
        <ele>1579.157365611</ele>
        <time>2015-05-06T18:20:52Z</time>
      </trkpt>
      <trkpt lat="45.43246" lon="5.92131">
        <ele>1579.187546701</ele>
        <time>2015-05-06T18:20:57Z</time>
      </trkpt>
      <trkpt lat="45.43256" lon="5.92133">
        <ele>1578.685879092</ele>
        <time>2015-05-06T18:21:02Z</time>
      </trkpt>
      <trkpt lat="45.43267" lon="5.9213">
        <ele>1578.267583753</ele>
        <time>2015-05-06T18:21:07Z</time>
      </trkpt>
      <trkpt lat="45.43276" lon="5.92129">
        <ele>1578.267583753</ele>
        <time>2015-05-06T18:21:12Z</time>
      </trkpt>
      <trkpt lat="45.43279" lon="5.92133">
        <ele>1577.493663716</ele>
        <time>2015-05-06T18:21:17Z</time>
      </trkpt>
      <trkpt lat="45.43285" lon="5.92132">
        <ele>1577.493663716</ele>
        <time>2015-05-06T18:21:22Z</time>
      </trkpt>
      <trkpt lat="45.43289" lon="5.92133">
        <ele>1576.967136484</ele>
        <time>2015-05-06T18:21:27Z</time>
      </trkpt>
      <trkpt lat="45.43292" lon="5.92129">
        <ele>1576.967136484</ele>
        <time>2015-05-06T18:21:32Z</time>
      </trkpt>
      <trkpt lat="45.43295" lon="5.92127">
        <ele>1576.967136484</ele>
        <time>2015-05-06T18:21:37Z</time>
      </trkpt>
      <trkpt lat="45.43299" lon="5.9213">
        <ele>1576.957798254</ele>
        <time>2015-05-06T18:21:42Z</time>
      </trkpt>
      <trkpt lat="45.43305" lon="5.9214">
        <ele>1576.4171688</ele>
        <time>2015-05-06T18:21:47Z</time>
      </trkpt>
      <trkpt lat="45.43308" lon="5.92151">
        <ele>1576.4171688</ele>
        <time>2015-05-06T18:21:52Z</time>
      </trkpt>
      <trkpt lat="45.4331" lon="5.92158">
        <ele>1575.52816373</ele>
        <time>2015-05-06T18:21:57Z</time>
      </trkpt>
      <trkpt lat="45.43317" lon="5.92163">
        <ele>1575.52816373</ele>
        <time>2015-05-06T18:22:02Z</time>
      </trkpt>
      <trkpt lat="45.43317" lon="5.92168">
        <ele>1574.461235144</ele>
        <time>2015-05-06T18:22:07Z</time>
      </trkpt>
      <trkpt lat="45.43314" lon="5.9218">
        <ele>1573.66303119</ele>
        <time>2015-05-06T18:22:12Z</time>
      </trkpt>
      <trkpt lat="45.43318" lon="5.92182">
        <ele>1573.66303119</ele>
        <time>2015-05-06T18:22:17Z</time>
      </trkpt>
      <trkpt lat="45.43326" lon="5.92185">
        <ele>1572.68196269</ele>
        <time>2015-05-06T18:22:22Z</time>
      </trkpt>
      <trkpt lat="45.43323" lon="5.9219">
        <ele>1572.68196269</ele>
        <time>2015-05-06T18:22:27Z</time>
      </trkpt>
      <trkpt lat="45.43325" lon="5.92192">
        <ele>1572.68196269</ele>
        <time>2015-05-06T18:22:32Z</time>
      </trkpt>
      <trkpt lat="45.43331" lon="5.92188">
        <ele>1572.397120431</ele>
        <time>2015-05-06T18:22:37Z</time>
      </trkpt>
      <trkpt lat="45.43336" lon="5.92187">
        <ele>1572.397120431</ele>
        <time>2015-05-06T18:22:42Z</time>
      </trkpt>
      <trkpt lat="45.43343" lon="5.92187">
        <ele>1572.324057394</ele>
        <time>2015-05-06T18:22:47Z</time>
      </trkpt>
      <trkpt lat="45.43346" lon="5.92196">
        <ele>1572.324057394</ele>
        <time>2015-05-06T18:22:52Z</time>
      </trkpt>
      <trkpt lat="45.43352" lon="5.92196">
        <ele>1572.589760219</ele>
        <time>2015-05-06T18:22:57Z</time>
      </trkpt>
      <trkpt lat="45.43358" lon="5.92198">
        <ele>1572.589760219</ele>
        <time>2015-05-06T18:23:02Z</time>
      </trkpt>
      <trkpt lat="45.43361" lon="5.92201">
        <ele>1572.73449231</ele>
        <time>2015-05-06T18:23:08Z</time>
      </trkpt>
      <trkpt lat="45.43366" lon="5.92206">
        <ele>1572.73449231</ele>
        <time>2015-05-06T18:23:12Z</time>
      </trkpt>
      <trkpt lat="45.43373" lon="5.92209">
        <ele>1572.33263341</ele>
        <time>2015-05-06T18:23:17Z</time>
      </trkpt>
      <trkpt lat="45.43376" lon="5.92212">
        <ele>1572.33263341</ele>
        <time>2015-05-06T18:23:22Z</time>
      </trkpt>
      <trkpt lat="45.43376" lon="5.92221">
        <ele>1572.000150166</ele>
        <time>2015-05-06T18:23:27Z</time>
      </trkpt>
      <trkpt lat="45.43378" lon="5.92223">
        <ele>1572.000150166</ele>
        <time>2015-05-06T18:23:32Z</time>
      </trkpt>
      <trkpt lat="45.43384" lon="5.92222">
        <ele>1571.875245878</ele>
        <time>2015-05-06T18:23:37Z</time>
      </trkpt>
      <trkpt lat="45.43383" lon="5.92224">
        <ele>1571.875245878</ele>
        <time>2015-05-06T18:23:42Z</time>
      </trkpt>
      <trkpt lat="45.43373" lon="5.92218">
        <ele>1571.076625773</ele>
        <time>2015-05-06T18:23:47Z</time>
      </trkpt>
      <trkpt lat="45.43382" lon="5.92227">
        <ele>1570.230750952</ele>
        <time>2015-05-06T18:23:52Z</time>
      </trkpt>
      <trkpt lat="45.43382" lon="5.9223">
        <ele>1570.230750952</ele>
        <time>2015-05-06T18:23:57Z</time>
      </trkpt>
      <trkpt lat="45.43382" lon="5.92232">
        <ele>1570.230750952</ele>
        <time>2015-05-06T18:24:02Z</time>
      </trkpt>
      <trkpt lat="45.43382" lon="5.92235">
        <ele>1570.230750952</ele>
        <time>2015-05-06T18:24:07Z</time>
      </trkpt>
      <trkpt lat="45.43382" lon="5.92235">
        <ele>1570.230750952</ele>
        <time>2015-05-06T18:24:12Z</time>
      </trkpt>
      <trkpt lat="45.43382" lon="5.92235">
        <ele>1570.230750952</ele>
        <time>2015-05-06T18:24:16Z</time>
      </trkpt>
      <trkpt lat="45.43382" lon="5.92235">
        <ele>1570.230750952</ele>
        <time>2015-05-06T18:24:22Z</time>
      </trkpt>
      <trkpt lat="45.43382" lon="5.92235">
        <ele>1570.230750952</ele>
        <time>2015-05-06T18:24:27Z</time>
      </trkpt>
      <trkpt lat="45.43382" lon="5.92235">
        <ele>1570.230750952</ele>
        <time>2015-05-06T18:24:32Z</time>
      </trkpt>
      <trkpt lat="45.43382" lon="5.92235">
        <ele>1570.230750952</ele>
        <time>2015-05-06T18:24:37Z</time>
      </trkpt>
      <trkpt lat="45.43382" lon="5.92235">
        <ele>1570.230750952</ele>
        <time>2015-05-06T18:24:42Z</time>
      </trkpt>
      <trkpt lat="45.43382" lon="5.92235">
        <ele>1570.230750952</ele>
        <time>2015-05-06T18:24:47Z</time>
      </trkpt>
      <trkpt lat="45.43382" lon="5.92235">
        <ele>1570.230750952</ele>
        <time>2015-05-06T18:24:52Z</time>
      </trkpt>
      <trkpt lat="45.43383" lon="5.92235">
        <ele>1570.230750952</ele>
        <time>2015-05-06T18:24:57Z</time>
      </trkpt>
      <trkpt lat="45.43383" lon="5.92235">
        <ele>1570.230750952</ele>
        <time>2015-05-06T18:25:02Z</time>
      </trkpt>
      <trkpt lat="45.43391" lon="5.92248">
        <ele>1569.197653407</ele>
        <time>2015-05-06T18:25:07Z</time>
      </trkpt>
      <trkpt lat="45.43403" lon="5.92259">
        <ele>1567.559959982</ele>
        <time>2015-05-06T18:25:12Z</time>
      </trkpt>
      <trkpt lat="45.43407" lon="5.92271">
        <ele>1565.941436187</ele>
        <time>2015-05-06T18:25:17Z</time>
      </trkpt>
      <trkpt lat="45.43407" lon="5.9228">
        <ele>1565.941436187</ele>
        <time>2015-05-06T18:25:22Z</time>
      </trkpt>
      <trkpt lat="45.43415" lon="5.92287">
        <ele>1564.631748163</ele>
        <time>2015-05-06T18:25:27Z</time>
      </trkpt>
      <trkpt lat="45.43417" lon="5.92295">
        <ele>1564.631748163</ele>
        <time>2015-05-06T18:25:32Z</time>
      </trkpt>
      <trkpt lat="45.43424" lon="5.92301">
        <ele>1563.033740869</ele>
        <time>2015-05-06T18:25:37Z</time>
      </trkpt>
      <trkpt lat="45.43428" lon="5.9231">
        <ele>1563.033740869</ele>
        <time>2015-05-06T18:25:42Z</time>
      </trkpt>
      <trkpt lat="45.43425" lon="5.92322">
        <ele>1561.747808284</ele>
        <time>2015-05-06T18:25:47Z</time>
      </trkpt>
      <trkpt lat="45.43429" lon="5.92325">
        <ele>1561.747808284</ele>
        <time>2015-05-06T18:25:52Z</time>
      </trkpt>
      <trkpt lat="45.43432" lon="5.92334">
        <ele>1560.464675879</ele>
        <time>2015-05-06T18:25:57Z</time>
      </trkpt>
      <trkpt lat="45.43431" lon="5.92335">
        <ele>1560.464675879</ele>
        <time>2015-05-06T18:26:02Z</time>
      </trkpt>
      <trkpt lat="45.43431" lon="5.92337">
        <ele>1560.464675879</ele>
        <time>2015-05-06T18:26:07Z</time>
      </trkpt>
      <trkpt lat="45.43432" lon="5.92338">
        <ele>1560.464675879</ele>
        <time>2015-05-06T18:26:12Z</time>
      </trkpt>
      <trkpt lat="45.43436" lon="5.92343">
        <ele>1560.050645104</ele>
        <time>2015-05-06T18:26:17Z</time>
      </trkpt>
      <trkpt lat="45.43447" lon="5.92353">
        <ele>1559.864803987</ele>
        <time>2015-05-06T18:26:22Z</time>
      </trkpt>
      <trkpt lat="45.43453" lon="5.92356">
        <ele>1559.864803987</ele>
        <time>2015-05-06T18:26:27Z</time>
      </trkpt>
      <trkpt lat="45.43454" lon="5.92353">
        <ele>1559.456768175</ele>
        <time>2015-05-06T18:26:32Z</time>
      </trkpt>
      <trkpt lat="45.43452" lon="5.92345">
        <ele>1559.456768175</ele>
        <time>2015-05-06T18:26:37Z</time>
      </trkpt>
      <trkpt lat="45.43458" lon="5.92342">
        <ele>1558.409839193</ele>
        <time>2015-05-06T18:26:42Z</time>
      </trkpt>
      <trkpt lat="45.4346" lon="5.92339">
        <ele>1558.409839193</ele>
        <time>2015-05-06T18:26:48Z</time>
      </trkpt>
      <trkpt lat="45.43461" lon="5.92334">
        <ele>1558.409839193</ele>
        <time>2015-05-06T18:26:52Z</time>
      </trkpt>
      <trkpt lat="45.43461" lon="5.92332">
        <ele>1558.409839193</ele>
        <time>2015-05-06T18:26:57Z</time>
      </trkpt>
      <trkpt lat="45.43462" lon="5.92332">
        <ele>1557.780813518</ele>
        <time>2015-05-06T18:27:02Z</time>
      </trkpt>
      <trkpt lat="45.43463" lon="5.92331">
        <ele>1557.780813518</ele>
        <time>2015-05-06T18:27:07Z</time>
      </trkpt>
      <trkpt lat="45.43463" lon="5.92331">
        <ele>1557.780813518</ele>
        <time>2015-05-06T18:27:12Z</time>
      </trkpt>
      <trkpt lat="45.43464" lon="5.9233">
        <ele>1557.780813518</ele>
        <time>2015-05-06T18:27:16Z</time>
      </trkpt>
      <trkpt lat="45.43481" lon="5.92323">
        <ele>1558.259445726</ele>
        <time>2015-05-06T18:27:23Z</time>
      </trkpt>
      <trkpt lat="45.43482" lon="5.9232">
        <ele>1558.259445726</ele>
        <time>2015-05-06T18:27:27Z</time>
      </trkpt>
      <trkpt lat="45.43489" lon="5.92318">
        <ele>1558.608257535</ele>
        <time>2015-05-06T18:27:32Z</time>
      </trkpt>
      <trkpt lat="45.43499" lon="5.92318">
        <ele>1558.978034322</ele>
        <time>2015-05-06T18:27:37Z</time>
      </trkpt>
      <trkpt lat="45.43499" lon="5.92315">
        <ele>1558.978034322</ele>
        <time>2015-05-06T18:27:42Z</time>
      </trkpt>
      <trkpt lat="45.43505" lon="5.92312">
        <ele>1558.978034322</ele>
        <time>2015-05-06T18:27:47Z</time>
      </trkpt>
      <trkpt lat="45.43508" lon="5.92315">
        <ele>1558.355537615</ele>
        <time>2015-05-06T18:27:52Z</time>
      </trkpt>
      <trkpt lat="45.43509" lon="5.92314">
        <ele>1558.355537615</ele>
        <time>2015-05-06T18:27:57Z</time>
      </trkpt>
      <trkpt lat="45.43511" lon="5.92315">
        <ele>1558.355537615</ele>
        <time>2015-05-06T18:28:02Z</time>
      </trkpt>
      <trkpt lat="45.43511" lon="5.92315">
        <ele>1558.355537615</ele>
        <time>2015-05-06T18:28:07Z</time>
      </trkpt>
      <trkpt lat="45.4351" lon="5.92315">
        <ele>1558.355537615</ele>
        <time>2015-05-06T18:28:12Z</time>
      </trkpt>
      <trkpt lat="45.4351" lon="5.92315">
        <ele>1558.355537615</ele>
        <time>2015-05-06T18:28:17Z</time>
      </trkpt>
      <trkpt lat="45.4351" lon="5.92315">
        <ele>1558.355537615</ele>
        <time>2015-05-06T18:28:22Z</time>
      </trkpt>
      <trkpt lat="45.4351" lon="5.92315">
        <ele>1558.355537615</ele>
        <time>2015-05-06T18:28:27Z</time>
      </trkpt>
      <trkpt lat="45.43511" lon="5.92309">
        <ele>1558.355537615</ele>
        <time>2015-05-06T18:28:32Z</time>
      </trkpt>
      <trkpt lat="45.43513" lon="5.92299">
        <ele>1557.389973415</ele>
        <time>2015-05-06T18:28:37Z</time>
      </trkpt>
      <trkpt lat="45.43518" lon="5.92291">
        <ele>1557.389973415</ele>
        <time>2015-05-06T18:28:42Z</time>
      </trkpt>
      <trkpt lat="45.4353" lon="5.9229">
        <ele>1555.963271492</ele>
        <time>2015-05-06T18:28:47Z</time>
      </trkpt>
      <trkpt lat="45.43529" lon="5.92281">
        <ele>1555.963271492</ele>
        <time>2015-05-06T18:28:52Z</time>
      </trkpt>
      <trkpt lat="45.43526" lon="5.92268">
        <ele>1554.111444493</ele>
        <time>2015-05-06T18:28:57Z</time>
      </trkpt>
      <trkpt lat="45.43532" lon="5.92259">
        <ele>1554.111444493</ele>
        <time>2015-05-06T18:29:02Z</time>
      </trkpt>
      <trkpt lat="45.43541" lon="5.92257">
        <ele>1552.301384362</ele>
        <time>2015-05-06T18:29:07Z</time>
      </trkpt>
      <trkpt lat="45.43542" lon="5.92253">
        <ele>1552.301384362</ele>
        <time>2015-05-06T18:29:12Z</time>
      </trkpt>
      <trkpt lat="45.4355" lon="5.9225">
        <ele>1550.24500287</ele>
        <time>2015-05-06T18:29:17Z</time>
      </trkpt>
      <trkpt lat="45.43557" lon="5.92245">
        <ele>1550.24500287</ele>
        <time>2015-05-06T18:29:22Z</time>
      </trkpt>
      <trkpt lat="45.43564" lon="5.92236">
        <ele>1547.964268688</ele>
        <time>2015-05-06T18:29:27Z</time>
      </trkpt>
      <trkpt lat="45.4357" lon="5.92231">
        <ele>1547.964268688</ele>
        <time>2015-05-06T18:29:32Z</time>
      </trkpt>
      <trkpt lat="45.43573" lon="5.92228">
        <ele>1545.912470539</ele>
        <time>2015-05-06T18:29:37Z</time>
      </trkpt>
      <trkpt lat="45.4357" lon="5.92222">
        <ele>1545.912470539</ele>
        <time>2015-05-06T18:29:42Z</time>
      </trkpt>
      <trkpt lat="45.43569" lon="5.92217">
        <ele>1544.076584918</ele>
        <time>2015-05-06T18:29:47Z</time>
      </trkpt>
      <trkpt lat="45.43569" lon="5.92214">
        <ele>1544.076584918</ele>
        <time>2015-05-06T18:29:52Z</time>
      </trkpt>
      <trkpt lat="45.43569" lon="5.92215">
        <ele>1544.076584918</ele>
        <time>2015-05-06T18:29:57Z</time>
      </trkpt>
      <trkpt lat="45.43569" lon="5.92215">
        <ele>1544.076584918</ele>
        <time>2015-05-06T18:30:02Z</time>
      </trkpt>
      <trkpt lat="45.43569" lon="5.92214">
        <ele>1544.076584918</ele>
        <time>2015-05-06T18:30:07Z</time>
      </trkpt>
      <trkpt lat="45.43569" lon="5.92215">
        <ele>1544.076584918</ele>
        <time>2015-05-06T18:30:12Z</time>
      </trkpt>
      <trkpt lat="45.4357" lon="5.92215">
        <ele>1544.076584918</ele>
        <time>2015-05-06T18:30:16Z</time>
      </trkpt>
      <trkpt lat="45.43571" lon="5.92211">
        <ele>1544.076584918</ele>
        <time>2015-05-06T18:30:22Z</time>
      </trkpt>
      <trkpt lat="45.43582" lon="5.92198">
        <ele>1543.596784467</ele>
        <time>2015-05-06T18:30:27Z</time>
      </trkpt>
      <trkpt lat="45.43584" lon="5.92186">
        <ele>1543.596784467</ele>
        <time>2015-05-06T18:30:32Z</time>
      </trkpt>
      <trkpt lat="45.436" lon="5.92189">
        <ele>1543.940412608</ele>
        <time>2015-05-06T18:30:37Z</time>
      </trkpt>
      <trkpt lat="45.43606" lon="5.92186">
        <ele>1543.940412608</ele>
        <time>2015-05-06T18:30:42Z</time>
      </trkpt>
      <trkpt lat="45.43599" lon="5.92167">
        <ele>1544.899812416</ele>
        <time>2015-05-06T18:30:47Z</time>
      </trkpt>
      <trkpt lat="45.43605" lon="5.92171">
        <ele>1544.899812416</ele>
        <time>2015-05-06T18:30:52Z</time>
      </trkpt>
      <trkpt lat="45.43613" lon="5.92169">
        <ele>1545.704377298</ele>
        <time>2015-05-06T18:30:57Z</time>
      </trkpt>
      <trkpt lat="45.43622" lon="5.9217">
        <ele>1545.704377298</ele>
        <time>2015-05-06T18:31:02Z</time>
      </trkpt>
      <trkpt lat="45.43627" lon="5.92171">
        <ele>1546.072857493</ele>
        <time>2015-05-06T18:31:07Z</time>
      </trkpt>
      <trkpt lat="45.43629" lon="5.92171">
        <ele>1546.072857493</ele>
        <time>2015-05-06T18:31:12Z</time>
      </trkpt>
      <trkpt lat="45.43631" lon="5.92172">
        <ele>1546.072857493</ele>
        <time>2015-05-06T18:31:17Z</time>
      </trkpt>
      <trkpt lat="45.43634" lon="5.92174">
        <ele>1546.072857493</ele>
        <time>2015-05-06T18:31:22Z</time>
      </trkpt>
      <trkpt lat="45.43634" lon="5.92174">
        <ele>1546.072857493</ele>
        <time>2015-05-06T18:31:27Z</time>
      </trkpt>
      <trkpt lat="45.43634" lon="5.92174">
        <ele>1546.072857493</ele>
        <time>2015-05-06T18:31:32Z</time>
      </trkpt>
      <trkpt lat="45.43634" lon="5.92174">
        <ele>1546.072857493</ele>
        <time>2015-05-06T18:31:37Z</time>
      </trkpt>
      <trkpt lat="45.43634" lon="5.92174">
        <ele>1546.072857493</ele>
        <time>2015-05-06T18:31:42Z</time>
      </trkpt>
      <trkpt lat="45.43634" lon="5.92174">
        <ele>1546.072857493</ele>
        <time>2015-05-06T18:31:47Z</time>
      </trkpt>
      <trkpt lat="45.43644" lon="5.92187">
        <ele>1545.601768191</ele>
        <time>2015-05-06T18:31:52Z</time>
      </trkpt>
      <trkpt lat="45.43653" lon="5.92197">
        <ele>1545.216621878</ele>
        <time>2015-05-06T18:31:57Z</time>
      </trkpt>
      <trkpt lat="45.43657" lon="5.92207">
        <ele>1545.216621878</ele>
        <time>2015-05-06T18:32:02Z</time>
      </trkpt>
      <trkpt lat="45.43662" lon="5.92212">
        <ele>1544.621820483</ele>
        <time>2015-05-06T18:32:07Z</time>
      </trkpt>
      <trkpt lat="45.43663" lon="5.92215">
        <ele>1544.621820483</ele>
        <time>2015-05-06T18:32:12Z</time>
      </trkpt>
      <trkpt lat="45.43676" lon="5.92221">
        <ele>1544.120523692</ele>
        <time>2015-05-06T18:32:17Z</time>
      </trkpt>
      <trkpt lat="45.4368" lon="5.92226">
        <ele>1544.120523692</ele>
        <time>2015-05-06T18:32:22Z</time>
      </trkpt>
      <trkpt lat="45.43686" lon="5.92225">
        <ele>1544.137482986</ele>
        <time>2015-05-06T18:32:27Z</time>
      </trkpt>
      <trkpt lat="45.43685" lon="5.92231">
        <ele>1544.137482986</ele>
        <time>2015-05-06T18:32:32Z</time>
      </trkpt>
      <trkpt lat="45.43686" lon="5.92232">
        <ele>1544.137482986</ele>
        <time>2015-05-06T18:32:37Z</time>
      </trkpt>
      <trkpt lat="45.43688" lon="5.92233">
        <ele>1544.137482986</ele>
        <time>2015-05-06T18:32:42Z</time>
      </trkpt>
      <trkpt lat="45.43692" lon="5.92233">
        <ele>1543.911919849</ele>
        <time>2015-05-06T18:32:47Z</time>
      </trkpt>
      <trkpt lat="45.43689" lon="5.92231">
        <ele>1543.911919849</ele>
        <time>2015-05-06T18:32:52Z</time>
      </trkpt>
      <trkpt lat="45.43687" lon="5.92231">
        <ele>1543.911919849</ele>
        <time>2015-05-06T18:32:57Z</time>
      </trkpt>
      <trkpt lat="45.43688" lon="5.9223">
        <ele>1543.911919849</ele>
        <time>2015-05-06T18:33:02Z</time>
      </trkpt>
      <trkpt lat="45.43688" lon="5.9223">
        <ele>1543.911919849</ele>
        <time>2015-05-06T18:33:07Z</time>
      </trkpt>
      <trkpt lat="45.43688" lon="5.9223">
        <ele>1543.911919849</ele>
        <time>2015-05-06T18:33:12Z</time>
      </trkpt>
      <trkpt lat="45.43688" lon="5.9223">
        <ele>1543.911919849</ele>
        <time>2015-05-06T18:33:17Z</time>
      </trkpt>
      <trkpt lat="45.43686" lon="5.92233">
        <ele>1543.911919849</ele>
        <time>2015-05-06T18:33:21Z</time>
      </trkpt>
      <trkpt lat="45.43691" lon="5.92236">
        <ele>1542.163193071</ele>
        <time>2015-05-06T18:33:27Z</time>
      </trkpt>
      <trkpt lat="45.43696" lon="5.92237">
        <ele>1542.163193071</ele>
        <time>2015-05-06T18:33:32Z</time>
      </trkpt>
      <trkpt lat="45.43703" lon="5.92238">
        <ele>1540.735358517</ele>
        <time>2015-05-06T18:33:37Z</time>
      </trkpt>
      <trkpt lat="45.43709" lon="5.92238">
        <ele>1540.735358517</ele>
        <time>2015-05-06T18:33:42Z</time>
      </trkpt>
      <trkpt lat="45.43713" lon="5.92237">
        <ele>1539.030340696</ele>
        <time>2015-05-06T18:33:47Z</time>
      </trkpt>
      <trkpt lat="45.43714" lon="5.92233">
        <ele>1539.030340696</ele>
        <time>2015-05-06T18:33:52Z</time>
      </trkpt>
      <trkpt lat="45.4372" lon="5.92233">
        <ele>1537.215335827</ele>
        <time>2015-05-06T18:33:57Z</time>
      </trkpt>
      <trkpt lat="45.43713" lon="5.92223">
        <ele>1537.333083244</ele>
        <time>2015-05-06T18:34:02Z</time>
      </trkpt>
      <trkpt lat="45.43708" lon="5.92213">
        <ele>1537.450830662</ele>
        <time>2015-05-06T18:34:07Z</time>
      </trkpt>
      <trkpt lat="45.43722" lon="5.92217">
        <ele>1537.56857808</ele>
        <time>2015-05-06T18:34:12Z</time>
      </trkpt>
      <trkpt lat="45.43726" lon="5.92214">
        <ele>1537.686325497</ele>
        <time>2015-05-06T18:34:17Z</time>
      </trkpt>
      <trkpt lat="45.43729" lon="5.92215">
        <ele>1537.804072915</ele>
        <time>2015-05-06T18:34:22Z</time>
      </trkpt>
      <trkpt lat="45.43734" lon="5.92215">
        <ele>1537.921820333</ele>
        <time>2015-05-06T18:34:27Z</time>
      </trkpt>
      <trkpt lat="45.4374" lon="5.9221">
        <ele>1538.03956775</ele>
        <time>2015-05-06T18:34:32Z</time>
      </trkpt>
      <trkpt lat="45.4375" lon="5.92207">
        <ele>1539.143120826</ele>
        <time>2015-05-06T18:34:37Z</time>
      </trkpt>
      <trkpt lat="45.4375" lon="5.92195">
        <ele>1539.513433361</ele>
        <time>2015-05-06T18:34:42Z</time>
      </trkpt>
      <trkpt lat="45.43755" lon="5.92192">
        <ele>1539.883745896</ele>
        <time>2015-05-06T18:34:47Z</time>
      </trkpt>
      <trkpt lat="45.43766" lon="5.92194">
        <ele>1540.254058432</ele>
        <time>2015-05-06T18:34:52Z</time>
      </trkpt>
      <trkpt lat="45.43768" lon="5.92187">
        <ele>1540.624370967</ele>
        <time>2015-05-06T18:34:57Z</time>
      </trkpt>
      <trkpt lat="45.43768" lon="5.92185">
        <ele>1540.994683502</ele>
        <time>2015-05-06T18:35:02Z</time>
      </trkpt>
      <trkpt lat="45.43765" lon="5.92178">
        <ele>1541.364996037</ele>
        <time>2015-05-06T18:35:07Z</time>
      </trkpt>
      <trkpt lat="45.43773" lon="5.92176">
        <ele>1541.364996037</ele>
        <time>2015-05-06T18:35:12Z</time>
      </trkpt>
      <trkpt lat="45.43784" lon="5.92181">
        <ele>1543.317778265</ele>
        <time>2015-05-06T18:35:17Z</time>
      </trkpt>
      <trkpt lat="45.43786" lon="5.92177">
        <ele>1543.317778265</ele>
        <time>2015-05-06T18:35:22Z</time>
      </trkpt>
      <trkpt lat="45.43794" lon="5.92183">
        <ele>1545.301988435</ele>
        <time>2015-05-06T18:35:27Z</time>
      </trkpt>
      <trkpt lat="45.43801" lon="5.92186">
        <ele>1545.301988435</ele>
        <time>2015-05-06T18:35:32Z</time>
      </trkpt>
      <trkpt lat="45.43804" lon="5.92174">
        <ele>1546.304904023</ele>
        <time>2015-05-06T18:35:37Z</time>
      </trkpt>
      <trkpt lat="45.43813" lon="5.9217">
        <ele>1547.307819611</ele>
        <time>2015-05-06T18:35:42Z</time>
      </trkpt>
      <trkpt lat="45.43823" lon="5.92172">
        <ele>1549.61442474</ele>
        <time>2015-05-06T18:35:47Z</time>
      </trkpt>
      <trkpt lat="45.4383" lon="5.92172">
        <ele>1549.61442474</ele>
        <time>2015-05-06T18:35:52Z</time>
      </trkpt>
      <trkpt lat="45.43831" lon="5.92171">
        <ele>1550.29471642</ele>
        <time>2015-05-06T18:35:57Z</time>
      </trkpt>
      <trkpt lat="45.43836" lon="5.92173">
        <ele>1550.975008099</ele>
        <time>2015-05-06T18:36:02Z</time>
      </trkpt>
      <trkpt lat="45.43837" lon="5.92172">
        <ele>1551.655299779</ele>
        <time>2015-05-06T18:36:07Z</time>
      </trkpt>
      <trkpt lat="45.4384" lon="5.92172">
        <ele>1552.335591458</ele>
        <time>2015-05-06T18:36:12Z</time>
      </trkpt>
      <trkpt lat="45.43837" lon="5.92169">
        <ele>1552.494972103</ele>
        <time>2015-05-06T18:36:17Z</time>
      </trkpt>
      <trkpt lat="45.43841" lon="5.92171">
        <ele>1552.654352749</ele>
        <time>2015-05-06T18:36:21Z</time>
      </trkpt>
      <trkpt lat="45.43845" lon="5.92173">
        <ele>1552.813733394</ele>
        <time>2015-05-06T18:36:27Z</time>
      </trkpt>
      <trkpt lat="45.43846" lon="5.92173">
        <ele>1552.973114039</ele>
        <time>2015-05-06T18:36:32Z</time>
      </trkpt>
      <trkpt lat="45.43846" lon="5.92173">
        <ele>1553.132494685</ele>
        <time>2015-05-06T18:36:38Z</time>
      </trkpt>
      <trkpt lat="45.43846" lon="5.92173">
        <ele>1553.29187533</ele>
        <time>2015-05-06T18:36:42Z</time>
      </trkpt>
      <trkpt lat="45.43846" lon="5.92173">
        <ele>1553.451255975</ele>
        <time>2015-05-06T18:36:47Z</time>
      </trkpt>
      <trkpt lat="45.43846" lon="5.92173">
        <ele>1553.610636621</ele>
        <time>2015-05-06T18:36:52Z</time>
      </trkpt>
      <trkpt lat="45.43846" lon="5.92173">
        <ele>1553.770017266</ele>
        <time>2015-05-06T18:36:57Z</time>
      </trkpt>
      <trkpt lat="45.43847" lon="5.92173">
        <ele>1553.929397911</ele>
        <time>2015-05-06T18:37:07Z</time>
      </trkpt>
      <trkpt lat="45.43847" lon="5.92173">
        <ele>1554.088778556</ele>
        <time>2015-05-06T18:37:12Z</time>
      </trkpt>
      <trkpt lat="45.43847" lon="5.92173">
        <ele>1554.248159202</ele>
        <time>2015-05-06T18:37:17Z</time>
      </trkpt>
      <trkpt lat="45.43847" lon="5.92173">
        <ele>1554.407539847</ele>
        <time>2015-05-06T18:37:22Z</time>
      </trkpt>
      <trkpt lat="45.43847" lon="5.92173">
        <ele>1554.566920492</ele>
        <time>2015-05-06T18:37:27Z</time>
      </trkpt>
      <trkpt lat="45.43847" lon="5.92173">
        <ele>1554.566920492</ele>
        <time>2015-05-06T18:37:32Z</time>
      </trkpt>
      <trkpt lat="45.43847" lon="5.92173">
        <ele>1554.566920492</ele>
        <time>2015-05-06T18:37:37Z</time>
      </trkpt>
      <trkpt lat="45.43853" lon="5.92174">
        <ele>1554.566920492</ele>
        <time>2015-05-06T18:37:42Z</time>
      </trkpt>
      <trkpt lat="45.43879" lon="5.92185">
        <ele>1554.895504527</ele>
        <time>2015-05-06T18:37:47Z</time>
      </trkpt>
      <trkpt lat="45.43891" lon="5.92192">
        <ele>1554.969769532</ele>
        <time>2015-05-06T18:37:52Z</time>
      </trkpt>
      <trkpt lat="45.43898" lon="5.92197">
        <ele>1555.044034536</ele>
        <time>2015-05-06T18:37:57Z</time>
      </trkpt>
      <trkpt lat="45.43909" lon="5.92202">
        <ele>1555.168184917</ele>
        <time>2015-05-06T18:38:02Z</time>
      </trkpt>
      <trkpt lat="45.43911" lon="5.92207">
        <ele>1554.752534343</ele>
        <time>2015-05-06T18:38:07Z</time>
      </trkpt>
      <trkpt lat="45.43913" lon="5.92207">
        <ele>1554.336883769</ele>
        <time>2015-05-06T18:38:12Z</time>
      </trkpt>
      <trkpt lat="45.43914" lon="5.92207">
        <ele>1553.921233196</ele>
        <time>2015-05-06T18:38:17Z</time>
      </trkpt>
      <trkpt lat="45.43915" lon="5.92207">
        <ele>1553.505582622</ele>
        <time>2015-05-06T18:38:22Z</time>
      </trkpt>
      <trkpt lat="45.43916" lon="5.92207">
        <ele>1553.089932048</ele>
        <time>2015-05-06T18:38:27Z</time>
      </trkpt>
      <trkpt lat="45.439" lon="5.9222">
        <ele>1552.674281474</ele>
        <time>2015-05-06T18:38:32Z</time>
      </trkpt>
      <trkpt lat="45.439" lon="5.92223">
        <ele>1552.674281474</ele>
        <time>2015-05-06T18:38:36Z</time>
      </trkpt>
      <trkpt lat="45.439" lon="5.92223">
        <ele>1552.139406537</ele>
        <time>2015-05-06T18:38:42Z</time>
      </trkpt>
      <trkpt lat="45.439" lon="5.92224">
        <ele>1551.6045316</ele>
        <time>2015-05-06T18:38:48Z</time>
      </trkpt>
      <trkpt lat="45.439" lon="5.92224">
        <ele>1551.069656663</ele>
        <time>2015-05-06T18:38:52Z</time>
      </trkpt>
      <trkpt lat="45.43901" lon="5.92224">
        <ele>1550.534781726</ele>
        <time>2015-05-06T18:38:58Z</time>
      </trkpt>
      <trkpt lat="45.43901" lon="5.92224">
        <ele>1549.999906789</ele>
        <time>2015-05-06T18:39:02Z</time>
      </trkpt>
      <trkpt lat="45.43902" lon="5.92224">
        <ele>1549.465031852</ele>
        <time>2015-05-06T18:39:12Z</time>
      </trkpt>
      <trkpt lat="45.43925" lon="5.92228">
        <ele>1548.930156915</ele>
        <time>2015-05-06T18:39:17Z</time>
      </trkpt>
      <trkpt lat="45.43933" lon="5.92234">
        <ele>1548.395281978</ele>
        <time>2015-05-06T18:39:21Z</time>
      </trkpt>
      <trkpt lat="45.43951" lon="5.92235">
        <ele>1547.860407041</ele>
        <time>2015-05-06T18:39:28Z</time>
      </trkpt>
      <trkpt lat="45.43955" lon="5.92223">
        <ele>1547.325532103</ele>
        <time>2015-05-06T18:39:38Z</time>
      </trkpt>
      <trkpt lat="45.43964" lon="5.92222">
        <ele>1546.790657166</ele>
        <time>2015-05-06T18:39:48Z</time>
      </trkpt>
      <trkpt lat="45.43969" lon="5.92218">
        <ele>1546.255782229</ele>
        <time>2015-05-06T18:39:52Z</time>
      </trkpt>
      <trkpt lat="45.43952" lon="5.92221">
        <ele>1545.720907292</ele>
        <time>2015-05-06T18:39:58Z</time>
      </trkpt>
      <trkpt lat="45.43944" lon="5.92213">
        <ele>1545.186032355</ele>
        <time>2015-05-06T18:40:02Z</time>
      </trkpt>
      <trkpt lat="45.43944" lon="5.92204">
        <ele>1544.651157418</ele>
        <time>2015-05-06T18:40:08Z</time>
      </trkpt>
      <trkpt lat="45.43974" lon="5.92151">
        <ele>1544.116282481</ele>
        <time>2015-05-06T18:41:08Z</time>
      </trkpt>
      <trkpt lat="45.43969" lon="5.92159">
        <ele>1543.581407544</ele>
        <time>2015-05-06T18:41:12Z</time>
      </trkpt>
      <trkpt lat="45.43975" lon="5.92162">
        <ele>1543.581407544</ele>
        <time>2015-05-06T18:41:18Z</time>
      </trkpt>
      <trkpt lat="45.43976" lon="5.92161">
        <ele>1541.515111661</ele>
        <time>2015-05-06T18:41:22Z</time>
      </trkpt>
      <trkpt lat="45.43976" lon="5.92157">
        <ele>1539.448815779</ele>
        <time>2015-05-06T18:41:28Z</time>
      </trkpt>
      <trkpt lat="45.4398" lon="5.92152">
        <ele>1537.382519896</ele>
        <time>2015-05-06T18:41:38Z</time>
      </trkpt>
      <trkpt lat="45.43982" lon="5.92147">
        <ele>1535.316224014</ele>
        <time>2015-05-06T18:41:42Z</time>
      </trkpt>
      <trkpt lat="45.43979" lon="5.92135">
        <ele>1535.316224014</ele>
        <time>2015-05-06T18:41:48Z</time>
      </trkpt>
      <trkpt lat="45.43975" lon="5.92128">
        <ele>1531.938488307</ele>
        <time>2015-05-06T18:41:52Z</time>
      </trkpt>
      <trkpt lat="45.43989" lon="5.92128">
        <ele>1528.560752601</ele>
        <time>2015-05-06T18:41:57Z</time>
      </trkpt>
      <trkpt lat="45.43993" lon="5.92126">
        <ele>1528.560752601</ele>
        <time>2015-05-06T18:42:02Z</time>
      </trkpt>
      <trkpt lat="45.43994" lon="5.92122">
        <ele>1528.560752601</ele>
        <time>2015-05-06T18:42:07Z</time>
      </trkpt>
      <trkpt lat="45.43996" lon="5.92116">
        <ele>1522.501531363</ele>
        <time>2015-05-06T18:42:11Z</time>
      </trkpt>
      <trkpt lat="45.44002" lon="5.92115">
        <ele>1522.501531363</ele>
        <time>2015-05-06T18:42:16Z</time>
      </trkpt>
      <trkpt lat="45.44002" lon="5.92107">
        <ele>1516.959255514</ele>
        <time>2015-05-06T18:42:21Z</time>
      </trkpt>
      <trkpt lat="45.44001" lon="5.92099">
        <ele>1516.959255514</ele>
        <time>2015-05-06T18:42:26Z</time>
      </trkpt>
      <trkpt lat="45.44" lon="5.92091">
        <ele>1512.198541664</ele>
        <time>2015-05-06T18:42:31Z</time>
      </trkpt>
      <trkpt lat="45.44001" lon="5.92089">
        <ele>1512.198541664</ele>
        <time>2015-05-06T18:42:36Z</time>
      </trkpt>
      <trkpt lat="45.44001" lon="5.92089">
        <ele>1512.198541664</ele>
        <time>2015-05-06T18:42:41Z</time>
      </trkpt>
      <trkpt lat="45.43997" lon="5.92089">
        <ele>1512.198541664</ele>
        <time>2015-05-06T18:42:46Z</time>
      </trkpt>
      <trkpt lat="45.43995" lon="5.92088">
        <ele>1507.16520724</ele>
        <time>2015-05-06T18:42:52Z</time>
      </trkpt>
      <trkpt lat="45.43994" lon="5.92088">
        <ele>1507.16520724</ele>
        <time>2015-05-06T18:42:56Z</time>
      </trkpt>
      <trkpt lat="45.43995" lon="5.92087">
        <ele>1507.16520724</ele>
        <time>2015-05-06T18:43:01Z</time>
      </trkpt>
      <trkpt lat="45.43995" lon="5.92087">
        <ele>1507.16520724</ele>
        <time>2015-05-06T18:43:06Z</time>
      </trkpt>
      <trkpt lat="45.43996" lon="5.92086">
        <ele>1507.16520724</ele>
        <time>2015-05-06T18:43:11Z</time>
      </trkpt>
      <trkpt lat="45.43996" lon="5.92086">
        <ele>1507.16520724</ele>
        <time>2015-05-06T18:43:16Z</time>
      </trkpt>
      <trkpt lat="45.43996" lon="5.92086">
        <ele>1507.16520724</ele>
        <time>2015-05-06T18:43:21Z</time>
      </trkpt>
      <trkpt lat="45.43998" lon="5.92088">
        <ele>1507.16520724</ele>
        <time>2015-05-06T18:43:28Z</time>
      </trkpt>
      <trkpt lat="45.43998" lon="5.9209">
        <ele>1507.16520724</ele>
        <time>2015-05-06T18:43:32Z</time>
      </trkpt>
      <trkpt lat="45.44" lon="5.9209">
        <ele>1507.16520724</ele>
        <time>2015-05-06T18:43:37Z</time>
      </trkpt>
      <trkpt lat="45.44" lon="5.92091">
        <ele>1502.756525022</ele>
        <time>2015-05-06T18:43:42Z</time>
      </trkpt>
      <trkpt lat="45.44" lon="5.92091">
        <ele>1502.756525022</ele>
        <time>2015-05-06T18:43:47Z</time>
      </trkpt>
      <trkpt lat="45.44003" lon="5.92092">
        <ele>1502.756525022</ele>
        <time>2015-05-06T18:43:52Z</time>
      </trkpt>
      <trkpt lat="45.44002" lon="5.92092">
        <ele>1502.756525022</ele>
        <time>2015-05-06T18:43:57Z</time>
      </trkpt>
      <trkpt lat="45.44002" lon="5.92092">
        <ele>1502.756525022</ele>
        <time>2015-05-06T18:44:02Z</time>
      </trkpt>
      <trkpt lat="45.44002" lon="5.921">
        <ele>1502.756525022</ele>
        <time>2015-05-06T18:44:07Z</time>
      </trkpt>
      <trkpt lat="45.44001" lon="5.92108">
        <ele>1499.22544348</ele>
        <time>2015-05-06T18:44:12Z</time>
      </trkpt>
      <trkpt lat="45.44003" lon="5.92114">
        <ele>1499.22544348</ele>
        <time>2015-05-06T18:44:16Z</time>
      </trkpt>
      <trkpt lat="45.44007" lon="5.92125">
        <ele>1496.659529233</ele>
        <time>2015-05-06T18:44:22Z</time>
      </trkpt>
      <trkpt lat="45.44008" lon="5.92132">
        <ele>1496.659529233</ele>
        <time>2015-05-06T18:44:27Z</time>
      </trkpt>
      <trkpt lat="45.44009" lon="5.9214">
        <ele>1494.128195858</ele>
        <time>2015-05-06T18:44:32Z</time>
      </trkpt>
      <trkpt lat="45.44011" lon="5.92147">
        <ele>1494.128195858</ele>
        <time>2015-05-06T18:44:37Z</time>
      </trkpt>
      <trkpt lat="45.44013" lon="5.92153">
        <ele>1491.777662525</ele>
        <time>2015-05-06T18:44:42Z</time>
      </trkpt>
      <trkpt lat="45.44018" lon="5.9216">
        <ele>1491.777662525</ele>
        <time>2015-05-06T18:44:47Z</time>
      </trkpt>
      <trkpt lat="45.4402" lon="5.92167">
        <ele>1489.886779159</ele>
        <time>2015-05-06T18:44:52Z</time>
      </trkpt>
      <trkpt lat="45.44024" lon="5.92173">
        <ele>1489.886779159</ele>
        <time>2015-05-06T18:44:57Z</time>
      </trkpt>
      <trkpt lat="45.44022" lon="5.92174">
        <ele>1489.886779159</ele>
        <time>2015-05-06T18:45:02Z</time>
      </trkpt>
      <trkpt lat="45.44022" lon="5.92173">
        <ele>1489.886779159</ele>
        <time>2015-05-06T18:45:07Z</time>
      </trkpt>
      <trkpt lat="45.44022" lon="5.92173">
        <ele>1489.886779159</ele>
        <time>2015-05-06T18:45:12Z</time>
      </trkpt>
      <trkpt lat="45.44022" lon="5.92173">
        <ele>1489.886779159</ele>
        <time>2015-05-06T18:45:17Z</time>
      </trkpt>
      <trkpt lat="45.44026" lon="5.92181">
        <ele>1488.424175078</ele>
        <time>2015-05-06T18:45:22Z</time>
      </trkpt>
      <trkpt lat="45.44031" lon="5.92188">
        <ele>1488.424175078</ele>
        <time>2015-05-06T18:45:27Z</time>
      </trkpt>
      <trkpt lat="45.44036" lon="5.92191">
        <ele>1487.359368061</ele>
        <time>2015-05-06T18:45:32Z</time>
      </trkpt>
      <trkpt lat="45.4404" lon="5.92194">
        <ele>1487.359368061</ele>
        <time>2015-05-06T18:45:37Z</time>
      </trkpt>
      <trkpt lat="45.44048" lon="5.92193">
        <ele>1486.951020633</ele>
        <time>2015-05-06T18:45:41Z</time>
      </trkpt>
      <trkpt lat="45.44047" lon="5.92193">
        <ele>1486.951020633</ele>
        <time>2015-05-06T18:45:47Z</time>
      </trkpt>
      <trkpt lat="45.44049" lon="5.92195">
        <ele>1486.951020633</ele>
        <time>2015-05-06T18:45:51Z</time>
      </trkpt>
      <trkpt lat="45.44048" lon="5.92195">
        <ele>1486.951020633</ele>
        <time>2015-05-06T18:45:56Z</time>
      </trkpt>
      <trkpt lat="45.44052" lon="5.92194">
        <ele>1486.951020633</ele>
        <time>2015-05-06T18:46:03Z</time>
      </trkpt>
      <trkpt lat="45.44058" lon="5.92195">
        <ele>1487.292658286</ele>
        <time>2015-05-06T18:46:07Z</time>
      </trkpt>
      <trkpt lat="45.44058" lon="5.92194">
        <ele>1487.292658286</ele>
        <time>2015-05-06T18:46:13Z</time>
      </trkpt>
      <trkpt lat="45.44056" lon="5.9219">
        <ele>1487.292658286</ele>
        <time>2015-05-06T18:46:17Z</time>
      </trkpt>
      <trkpt lat="45.44058" lon="5.92182">
        <ele>1487.459891365</ele>
        <time>2015-05-06T18:46:23Z</time>
      </trkpt>
      <trkpt lat="45.44061" lon="5.92179">
        <ele>1487.459891365</ele>
        <time>2015-05-06T18:46:27Z</time>
      </trkpt>
      <trkpt lat="45.44062" lon="5.92175">
        <ele>1487.459891365</ele>
        <time>2015-05-06T18:46:33Z</time>
      </trkpt>
      <trkpt lat="45.4406" lon="5.9217">
        <ele>1488.758253801</ele>
        <time>2015-05-06T18:46:37Z</time>
      </trkpt>
      <trkpt lat="45.44062" lon="5.92166">
        <ele>1488.758253801</ele>
        <time>2015-05-06T18:46:43Z</time>
      </trkpt>
      <trkpt lat="45.44064" lon="5.92163">
        <ele>1488.758253801</ele>
        <time>2015-05-06T18:46:47Z</time>
      </trkpt>
      <trkpt lat="45.44066" lon="5.92159">
        <ele>1490.808869351</ele>
        <time>2015-05-06T18:46:53Z</time>
      </trkpt>
      <trkpt lat="45.44067" lon="5.92152">
        <ele>1490.808869351</ele>
        <time>2015-05-06T18:46:57Z</time>
      </trkpt>
      <trkpt lat="45.4407" lon="5.92145">
        <ele>1492.682058163</ele>
        <time>2015-05-06T18:47:03Z</time>
      </trkpt>
      <trkpt lat="45.44071" lon="5.92137">
        <ele>1492.682058163</ele>
        <time>2015-05-06T18:47:07Z</time>
      </trkpt>
      <trkpt lat="45.44074" lon="5.92132">
        <ele>1494.813883187</ele>
        <time>2015-05-06T18:47:13Z</time>
      </trkpt>
      <trkpt lat="45.44075" lon="5.92127">
        <ele>1494.813883187</ele>
        <time>2015-05-06T18:47:17Z</time>
      </trkpt>
      <trkpt lat="45.44078" lon="5.92118">
        <ele>1496.742964648</ele>
        <time>2015-05-06T18:47:23Z</time>
      </trkpt>
      <trkpt lat="45.4408" lon="5.92112">
        <ele>1496.742964648</ele>
        <time>2015-05-06T18:47:27Z</time>
      </trkpt>
      <trkpt lat="45.44081" lon="5.92104">
        <ele>1499.195287684</ele>
        <time>2015-05-06T18:47:33Z</time>
      </trkpt>
      <trkpt lat="45.44083" lon="5.92097">
        <ele>1499.195287684</ele>
        <time>2015-05-06T18:47:37Z</time>
      </trkpt>
      <trkpt lat="45.44085" lon="5.92091">
        <ele>1501.833304935</ele>
        <time>2015-05-06T18:47:43Z</time>
      </trkpt>
      <trkpt lat="45.44089" lon="5.92085">
        <ele>1501.833304935</ele>
        <time>2015-05-06T18:47:47Z</time>
      </trkpt>
      <trkpt lat="45.44091" lon="5.92078">
        <ele>1504.487927993</ele>
        <time>2015-05-06T18:47:53Z</time>
      </trkpt>
      <trkpt lat="45.44094" lon="5.92071">
        <ele>1504.487927993</ele>
        <time>2015-05-06T18:47:57Z</time>
      </trkpt>
      <trkpt lat="45.441" lon="5.92066">
        <ele>1506.858431497</ele>
        <time>2015-05-06T18:48:03Z</time>
      </trkpt>
      <trkpt lat="45.441" lon="5.92063">
        <ele>1506.858431497</ele>
        <time>2015-05-06T18:48:07Z</time>
      </trkpt>
      <trkpt lat="45.44101" lon="5.92064">
        <ele>1506.858431497</ele>
        <time>2015-05-06T18:48:13Z</time>
      </trkpt>
      <trkpt lat="45.44101" lon="5.92064">
        <ele>1506.858431497</ele>
        <time>2015-05-06T18:48:17Z</time>
      </trkpt>
      <trkpt lat="45.44101" lon="5.92064">
        <ele>1506.858431497</ele>
        <time>2015-05-06T18:48:22Z</time>
      </trkpt>
      <trkpt lat="45.441" lon="5.92064">
        <ele>1506.858431497</ele>
        <time>2015-05-06T18:48:26Z</time>
      </trkpt>
      <trkpt lat="45.441" lon="5.92065">
        <ele>1506.858431497</ele>
        <time>2015-05-06T18:48:32Z</time>
      </trkpt>
      <trkpt lat="45.44101" lon="5.92065">
        <ele>1506.858431497</ele>
        <time>2015-05-06T18:48:38Z</time>
      </trkpt>
      <trkpt lat="45.44103" lon="5.9206">
        <ele>1509.531770791</ele>
        <time>2015-05-06T18:48:42Z</time>
      </trkpt>
      <trkpt lat="45.44107" lon="5.92055">
        <ele>1509.531770791</ele>
        <time>2015-05-06T18:48:48Z</time>
      </trkpt>
      <trkpt lat="45.4411" lon="5.9205">
        <ele>1511.89819361</ele>
        <time>2015-05-06T18:48:52Z</time>
      </trkpt>
      <trkpt lat="45.44118" lon="5.92046">
        <ele>1511.89819361</ele>
        <time>2015-05-06T18:48:57Z</time>
      </trkpt>
      <trkpt lat="45.44116" lon="5.92038">
        <ele>1514.258436937</ele>
        <time>2015-05-06T18:49:02Z</time>
      </trkpt>
      <trkpt lat="45.4412" lon="5.9203">
        <ele>1514.258436937</ele>
        <time>2015-05-06T18:49:07Z</time>
      </trkpt>
      <trkpt lat="45.44123" lon="5.92025">
        <ele>1516.170793787</ele>
        <time>2015-05-06T18:49:12Z</time>
      </trkpt>
      <trkpt lat="45.4413" lon="5.92022">
        <ele>1516.170793787</ele>
        <time>2015-05-06T18:49:18Z</time>
      </trkpt>
      <trkpt lat="45.44134" lon="5.92013">
        <ele>1517.948017823</ele>
        <time>2015-05-06T18:49:22Z</time>
      </trkpt>
      <trkpt lat="45.44136" lon="5.92008">
        <ele>1517.948017823</ele>
        <time>2015-05-06T18:49:28Z</time>
      </trkpt>
      <trkpt lat="45.44138" lon="5.92001">
        <ele>1519.448145056</ele>
        <time>2015-05-06T18:49:32Z</time>
      </trkpt>
      <trkpt lat="45.44142" lon="5.91993">
        <ele>1519.448145056</ele>
        <time>2015-05-06T18:49:38Z</time>
      </trkpt>
      <trkpt lat="45.44145" lon="5.91987">
        <ele>1520.972970053</ele>
        <time>2015-05-06T18:49:42Z</time>
      </trkpt>
      <trkpt lat="45.44147" lon="5.9198">
        <ele>1520.972970053</ele>
        <time>2015-05-06T18:49:48Z</time>
      </trkpt>
      <trkpt lat="45.44151" lon="5.91972">
        <ele>1522.802273106</ele>
        <time>2015-05-06T18:49:52Z</time>
      </trkpt>
      <trkpt lat="45.44151" lon="5.91963">
        <ele>1522.802273106</ele>
        <time>2015-05-06T18:49:58Z</time>
      </trkpt>
      <trkpt lat="45.44152" lon="5.91957">
        <ele>1524.474100572</ele>
        <time>2015-05-06T18:50:02Z</time>
      </trkpt>
      <trkpt lat="45.44155" lon="5.9195">
        <ele>1524.474100572</ele>
        <time>2015-05-06T18:50:08Z</time>
      </trkpt>
      <trkpt lat="45.44158" lon="5.91941">
        <ele>1525.993440182</ele>
        <time>2015-05-06T18:50:12Z</time>
      </trkpt>
      <trkpt lat="45.44161" lon="5.91937">
        <ele>1525.993440182</ele>
        <time>2015-05-06T18:50:16Z</time>
      </trkpt>
      <trkpt lat="45.44162" lon="5.91931">
        <ele>1525.993440182</ele>
        <time>2015-05-06T18:50:21Z</time>
      </trkpt>
      <trkpt lat="45.44165" lon="5.91925">
        <ele>1528.230242476</ele>
        <time>2015-05-06T18:50:26Z</time>
      </trkpt>
      <trkpt lat="45.44167" lon="5.91919">
        <ele>1528.230242476</ele>
        <time>2015-05-06T18:50:31Z</time>
      </trkpt>
      <trkpt lat="45.44167" lon="5.91912">
        <ele>1530.547665123</ele>
        <time>2015-05-06T18:50:38Z</time>
      </trkpt>
      <trkpt lat="45.44171" lon="5.91906">
        <ele>1530.547665123</ele>
        <time>2015-05-06T18:50:42Z</time>
      </trkpt>
      <trkpt lat="45.44173" lon="5.91898">
        <ele>1533.07621865</ele>
        <time>2015-05-06T18:50:48Z</time>
      </trkpt>
      <trkpt lat="45.44177" lon="5.91895">
        <ele>1533.07621865</ele>
        <time>2015-05-06T18:50:52Z</time>
      </trkpt>
      <trkpt lat="45.44178" lon="5.91888">
        <ele>1535.071811531</ele>
        <time>2015-05-06T18:50:58Z</time>
      </trkpt>
      <trkpt lat="45.44182" lon="5.91884">
        <ele>1535.071811531</ele>
        <time>2015-05-06T18:51:02Z</time>
      </trkpt>
      <trkpt lat="45.44182" lon="5.91884">
        <ele>1535.071811531</ele>
        <time>2015-05-06T18:51:08Z</time>
      </trkpt>
      <trkpt lat="45.44184" lon="5.91875">
        <ele>1536.855533321</ele>
        <time>2015-05-06T18:51:12Z</time>
      </trkpt>
      <trkpt lat="45.44188" lon="5.91871">
        <ele>1536.855533321</ele>
        <time>2015-05-06T18:51:18Z</time>
      </trkpt>
      <trkpt lat="45.4419" lon="5.91866">
        <ele>1536.855533321</ele>
        <time>2015-05-06T18:51:22Z</time>
      </trkpt>
      <trkpt lat="45.44187" lon="5.91861">
        <ele>1538.149283648</ele>
        <time>2015-05-06T18:51:28Z</time>
      </trkpt>
      <trkpt lat="45.44193" lon="5.9186">
        <ele>1538.149283648</ele>
        <time>2015-05-06T18:51:32Z</time>
      </trkpt>
      <trkpt lat="45.44203" lon="5.91861">
        <ele>1538.985232242</ele>
        <time>2015-05-06T18:51:38Z</time>
      </trkpt>
      <trkpt lat="45.44201" lon="5.91856">
        <ele>1538.985232242</ele>
        <time>2015-05-06T18:51:42Z</time>
      </trkpt>
      <trkpt lat="45.44202" lon="5.91852">
        <ele>1538.985232242</ele>
        <time>2015-05-06T18:51:48Z</time>
      </trkpt>
      <trkpt lat="45.44198" lon="5.91846">
        <ele>1539.682929658</ele>
        <time>2015-05-06T18:51:52Z</time>
      </trkpt>
      <trkpt lat="45.44203" lon="5.91842">
        <ele>1539.682929658</ele>
        <time>2015-05-06T18:51:58Z</time>
      </trkpt>
      <trkpt lat="45.44207" lon="5.91839">
        <ele>1540.394957176</ele>
        <time>2015-05-06T18:52:02Z</time>
      </trkpt>
      <trkpt lat="45.44215" lon="5.91834">
        <ele>1540.394957176</ele>
        <time>2015-05-06T18:52:08Z</time>
      </trkpt>
      <trkpt lat="45.4424" lon="5.91842">
        <ele>1540.97464168</ele>
        <time>2015-05-06T18:52:12Z</time>
      </trkpt>
      <trkpt lat="45.44249" lon="5.91842">
        <ele>1540.806467039</ele>
        <time>2015-05-06T18:52:17Z</time>
      </trkpt>
      <trkpt lat="45.44238" lon="5.91839">
        <ele>1540.638292398</ele>
        <time>2015-05-06T18:52:22Z</time>
      </trkpt>
      <trkpt lat="45.44254" lon="5.91836">
        <ele>1540.470117757</ele>
        <time>2015-05-06T18:52:28Z</time>
      </trkpt>
      <trkpt lat="45.44258" lon="5.91839">
        <ele>1540.301943116</ele>
        <time>2015-05-06T18:52:32Z</time>
      </trkpt>
      <trkpt lat="45.44251" lon="5.91839">
        <ele>1540.133768475</ele>
        <time>2015-05-06T18:52:38Z</time>
      </trkpt>
      <trkpt lat="45.44261" lon="5.91839">
        <ele>1539.847502114</ele>
        <time>2015-05-06T18:52:42Z</time>
      </trkpt>
      <trkpt lat="45.44259" lon="5.91838">
        <ele>1539.561235754</ele>
        <time>2015-05-06T18:52:48Z</time>
      </trkpt>
      <trkpt lat="45.44256" lon="5.91838">
        <ele>1539.274969394</ele>
        <time>2015-05-06T18:52:52Z</time>
      </trkpt>
      <trkpt lat="45.4425" lon="5.91838">
        <ele>1538.988703034</ele>
        <time>2015-05-06T18:52:58Z</time>
      </trkpt>
      <trkpt lat="45.4425" lon="5.91838">
        <ele>1538.988703034</ele>
        <time>2015-05-06T18:53:02Z</time>
      </trkpt>
      <trkpt lat="45.4425" lon="5.91838">
        <ele>1538.988703034</ele>
        <time>2015-05-06T18:53:08Z</time>
      </trkpt>
      <trkpt lat="45.44249" lon="5.91835">
        <ele>1538.988703034</ele>
        <time>2015-05-06T18:53:12Z</time>
      </trkpt>
      <trkpt lat="45.44245" lon="5.91825">
        <ele>1536.98959735</ele>
        <time>2015-05-06T18:53:18Z</time>
      </trkpt>
      <trkpt lat="45.44244" lon="5.91815">
        <ele>1536.98959735</ele>
        <time>2015-05-06T18:53:22Z</time>
      </trkpt>
      <trkpt lat="45.44244" lon="5.9181">
        <ele>1535.070641108</ele>
        <time>2015-05-06T18:53:28Z</time>
      </trkpt>
      <trkpt lat="45.44238" lon="5.91805">
        <ele>1535.070641108</ele>
        <time>2015-05-06T18:53:32Z</time>
      </trkpt>
      <trkpt lat="45.44238" lon="5.91807">
        <ele>1535.070641108</ele>
        <time>2015-05-06T18:53:38Z</time>
      </trkpt>
      <trkpt lat="45.44239" lon="5.91805">
        <ele>1532.656172688</ele>
        <time>2015-05-06T18:53:42Z</time>
      </trkpt>
      <trkpt lat="45.44238" lon="5.91807">
        <ele>1532.656172688</ele>
        <time>2015-05-06T18:53:48Z</time>
      </trkpt>
      <trkpt lat="45.44237" lon="5.91806">
        <ele>1532.656172688</ele>
        <time>2015-05-06T18:53:52Z</time>
      </trkpt>
      <trkpt lat="45.44237" lon="5.91806">
        <ele>1532.656172688</ele>
        <time>2015-05-06T18:53:58Z</time>
      </trkpt>
      <trkpt lat="45.44237" lon="5.91806">
        <ele>1532.656172688</ele>
        <time>2015-05-06T18:54:02Z</time>
      </trkpt>
      <trkpt lat="45.44237" lon="5.91806">
        <ele>1532.656172688</ele>
        <time>2015-05-06T18:54:08Z</time>
      </trkpt>
      <trkpt lat="45.44245" lon="5.91808">
        <ele>1530.223067428</ele>
        <time>2015-05-06T18:54:12Z</time>
      </trkpt>
      <trkpt lat="45.4425" lon="5.91806">
        <ele>1530.223067428</ele>
        <time>2015-05-06T18:54:18Z</time>
      </trkpt>
      <trkpt lat="45.4425" lon="5.91806">
        <ele>1530.223067428</ele>
        <time>2015-05-06T18:54:22Z</time>
      </trkpt>
      <trkpt lat="45.44248" lon="5.91802">
        <ele>1530.223067428</ele>
        <time>2015-05-06T18:54:28Z</time>
      </trkpt>
      <trkpt lat="45.44248" lon="5.91801">
        <ele>1527.348605855</ele>
        <time>2015-05-06T18:54:32Z</time>
      </trkpt>
      <trkpt lat="45.44248" lon="5.91796">
        <ele>1527.348605855</ele>
        <time>2015-05-06T18:54:38Z</time>
      </trkpt>
      <trkpt lat="45.44249" lon="5.91793">
        <ele>1527.348605855</ele>
        <time>2015-05-06T18:54:42Z</time>
      </trkpt>
      <trkpt lat="45.44246" lon="5.91787">
        <ele>1524.507047839</ele>
        <time>2015-05-06T18:54:48Z</time>
      </trkpt>
      <trkpt lat="45.44242" lon="5.9178">
        <ele>1524.507047839</ele>
        <time>2015-05-06T18:54:52Z</time>
      </trkpt>
      <trkpt lat="45.44239" lon="5.91776">
        <ele>1521.273047104</ele>
        <time>2015-05-06T18:54:58Z</time>
      </trkpt>
      <trkpt lat="45.44237" lon="5.91773">
        <ele>1521.273047104</ele>
        <time>2015-05-06T18:55:02Z</time>
      </trkpt>
      <trkpt lat="45.44236" lon="5.91772">
        <ele>1521.273047104</ele>
        <time>2015-05-06T18:55:08Z</time>
      </trkpt>
      <trkpt lat="45.44239" lon="5.91771">
        <ele>1521.273047104</ele>
        <time>2015-05-06T18:55:12Z</time>
      </trkpt>
      <trkpt lat="45.44241" lon="5.91773">
        <ele>1517.541788891</ele>
        <time>2015-05-06T18:55:16Z</time>
      </trkpt>
      <trkpt lat="45.44244" lon="5.91777">
        <ele>1517.541788891</ele>
        <time>2015-05-06T18:55:22Z</time>
      </trkpt>
      <trkpt lat="45.44245" lon="5.91779">
        <ele>1517.541788891</ele>
        <time>2015-05-06T18:55:28Z</time>
      </trkpt>
      <trkpt lat="45.44245" lon="5.91778">
        <ele>1517.541788891</ele>
        <time>2015-05-06T18:55:32Z</time>
      </trkpt>
      <trkpt lat="45.44246" lon="5.91778">
        <ele>1517.541788891</ele>
        <time>2015-05-06T18:55:38Z</time>
      </trkpt>
      <trkpt lat="45.44246" lon="5.91778">
        <ele>1517.541788891</ele>
        <time>2015-05-06T18:55:42Z</time>
      </trkpt>
      <trkpt lat="45.44246" lon="5.91778">
        <ele>1517.541788891</ele>
        <time>2015-05-06T18:55:48Z</time>
      </trkpt>
      <trkpt lat="45.44246" lon="5.91778">
        <ele>1517.541788891</ele>
        <time>2015-05-06T18:55:52Z</time>
      </trkpt>
      <trkpt lat="45.44246" lon="5.91778">
        <ele>1517.541788891</ele>
        <time>2015-05-06T18:55:58Z</time>
      </trkpt>
      <trkpt lat="45.44246" lon="5.91778">
        <ele>1517.541788891</ele>
        <time>2015-05-06T18:56:02Z</time>
      </trkpt>
      <trkpt lat="45.44246" lon="5.91778">
        <ele>1517.541788891</ele>
        <time>2015-05-06T18:56:08Z</time>
      </trkpt>
      <trkpt lat="45.44255" lon="5.91785">
        <ele>1513.793931151</ele>
        <time>2015-05-06T18:56:12Z</time>
      </trkpt>
      <trkpt lat="45.44272" lon="5.91791">
        <ele>1510.474775285</ele>
        <time>2015-05-06T18:56:17Z</time>
      </trkpt>
      <trkpt lat="45.44277" lon="5.91798">
        <ele>1510.474775285</ele>
        <time>2015-05-06T18:56:23Z</time>
      </trkpt>
      <trkpt lat="45.44273" lon="5.91801">
        <ele>1507.419143691</ele>
        <time>2015-05-06T18:56:27Z</time>
      </trkpt>
      <trkpt lat="45.44272" lon="5.91802">
        <ele>1507.419143691</ele>
        <time>2015-05-06T18:56:33Z</time>
      </trkpt>
      <trkpt lat="45.44272" lon="5.91802">
        <ele>1507.419143691</ele>
        <time>2015-05-06T18:56:37Z</time>
      </trkpt>
      <trkpt lat="45.44272" lon="5.91803">
        <ele>1507.419143691</ele>
        <time>2015-05-06T18:56:43Z</time>
      </trkpt>
      <trkpt lat="45.44272" lon="5.91803">
        <ele>1507.419143691</ele>
        <time>2015-05-06T18:56:47Z</time>
      </trkpt>
      <trkpt lat="45.44272" lon="5.91803">
        <ele>1507.419143691</ele>
        <time>2015-05-06T18:56:53Z</time>
      </trkpt>
      <trkpt lat="45.44272" lon="5.91803">
        <ele>1507.419143691</ele>
        <time>2015-05-06T18:56:57Z</time>
      </trkpt>
      <trkpt lat="45.44272" lon="5.91803">
        <ele>1507.419143691</ele>
        <time>2015-05-06T18:57:02Z</time>
      </trkpt>
      <trkpt lat="45.44272" lon="5.91803">
        <ele>1507.419143691</ele>
        <time>2015-05-06T18:57:08Z</time>
      </trkpt>
      <trkpt lat="45.44272" lon="5.91803">
        <ele>1507.419143691</ele>
        <time>2015-05-06T18:57:12Z</time>
      </trkpt>
      <trkpt lat="45.44272" lon="5.91803">
        <ele>1507.419143691</ele>
        <time>2015-05-06T18:57:18Z</time>
      </trkpt>
      <trkpt lat="45.44272" lon="5.91803">
        <ele>1507.419143691</ele>
        <time>2015-05-06T18:57:22Z</time>
      </trkpt>
      <trkpt lat="45.44272" lon="5.91803">
        <ele>1507.419143691</ele>
        <time>2015-05-06T18:57:28Z</time>
      </trkpt>
      <trkpt lat="45.44272" lon="5.91803">
        <ele>1507.419143691</ele>
        <time>2015-05-06T18:57:32Z</time>
      </trkpt>
      <trkpt lat="45.44272" lon="5.91803">
        <ele>1507.419143691</ele>
        <time>2015-05-06T18:57:38Z</time>
      </trkpt>
      <trkpt lat="45.44271" lon="5.9181">
        <ele>1507.419143691</ele>
        <time>2015-05-06T18:57:42Z</time>
      </trkpt>
      <trkpt lat="45.44292" lon="5.91822">
        <ele>1503.752553342</ele>
        <time>2015-05-06T18:57:48Z</time>
      </trkpt>
      <trkpt lat="45.44291" lon="5.91832">
        <ele>1503.752553342</ele>
        <time>2015-05-06T18:57:52Z</time>
      </trkpt>
      <trkpt lat="45.44294" lon="5.91838">
        <ele>1499.098640515</ele>
        <time>2015-05-06T18:57:58Z</time>
      </trkpt>
      <trkpt lat="45.44296" lon="5.91841">
        <ele>1499.098640515</ele>
        <time>2015-05-06T18:58:02Z</time>
      </trkpt>
      <trkpt lat="45.44295" lon="5.91843">
        <ele>1499.098640515</ele>
        <time>2015-05-06T18:58:08Z</time>
      </trkpt>
      <trkpt lat="45.44294" lon="5.91843">
        <ele>1499.098640515</ele>
        <time>2015-05-06T18:58:12Z</time>
      </trkpt>
      <trkpt lat="45.44294" lon="5.91843">
        <ele>1499.098640515</ele>
        <time>2015-05-06T18:58:17Z</time>
      </trkpt>
      <trkpt lat="45.44294" lon="5.91843">
        <ele>1499.098640515</ele>
        <time>2015-05-06T18:58:22Z</time>
      </trkpt>
      <trkpt lat="45.44294" lon="5.91843">
        <ele>1499.098640515</ele>
        <time>2015-05-06T18:58:26Z</time>
      </trkpt>
      <trkpt lat="45.44294" lon="5.91843">
        <ele>1499.098640515</ele>
        <time>2015-05-06T18:58:32Z</time>
      </trkpt>
      <trkpt lat="45.44294" lon="5.91843">
        <ele>1499.098640515</ele>
        <time>2015-05-06T18:58:38Z</time>
      </trkpt>
      <trkpt lat="45.44294" lon="5.91843">
        <ele>1499.098640515</ele>
        <time>2015-05-06T18:58:42Z</time>
      </trkpt>
      <trkpt lat="45.44294" lon="5.91843">
        <ele>1499.098640515</ele>
        <time>2015-05-06T18:58:48Z</time>
      </trkpt>
      <trkpt lat="45.44294" lon="5.91843">
        <ele>1499.098640515</ele>
        <time>2015-05-06T18:58:52Z</time>
      </trkpt>
      <trkpt lat="45.44294" lon="5.91843">
        <ele>1499.098640515</ele>
        <time>2015-05-06T18:58:58Z</time>
      </trkpt>
      <trkpt lat="45.44295" lon="5.91843">
        <ele>1499.098640515</ele>
        <time>2015-05-06T18:59:02Z</time>
      </trkpt>
      <trkpt lat="45.44295" lon="5.91843">
        <ele>1499.098640515</ele>
        <time>2015-05-06T18:59:08Z</time>
      </trkpt>
      <trkpt lat="45.44295" lon="5.91843">
        <ele>1499.098640515</ele>
        <time>2015-05-06T18:59:12Z</time>
      </trkpt>
      <trkpt lat="45.44295" lon="5.91843">
        <ele>1498.735547495</ele>
        <time>2015-05-06T18:59:18Z</time>
      </trkpt>
      <trkpt lat="45.44295" lon="5.91843">
        <ele>1498.372454476</ele>
        <time>2015-05-06T18:59:22Z</time>
      </trkpt>
      <trkpt lat="45.44295" lon="5.91843">
        <ele>1498.009361456</ele>
        <time>2015-05-06T18:59:28Z</time>
      </trkpt>
      <trkpt lat="45.44295" lon="5.91843">
        <ele>1497.646268437</ele>
        <time>2015-05-06T18:59:32Z</time>
      </trkpt>
      <trkpt lat="45.44295" lon="5.91843">
        <ele>1497.283175417</ele>
        <time>2015-05-06T18:59:38Z</time>
      </trkpt>
      <trkpt lat="45.44295" lon="5.91843">
        <ele>1496.920082398</ele>
        <time>2015-05-06T18:59:42Z</time>
      </trkpt>
      <trkpt lat="45.44295" lon="5.91843">
        <ele>1496.556989378</ele>
        <time>2015-05-06T18:59:48Z</time>
      </trkpt>
      <trkpt lat="45.44295" lon="5.91843">
        <ele>1496.193896359</ele>
        <time>2015-05-06T18:59:52Z</time>
      </trkpt>
      <trkpt lat="45.44295" lon="5.91843">
        <ele>1495.83080334</ele>
        <time>2015-05-06T18:59:58Z</time>
      </trkpt>
      <trkpt lat="45.44295" lon="5.91842">
        <ele>1495.46771032</ele>
        <time>2015-05-06T19:00:48Z</time>
      </trkpt>
      <trkpt lat="45.44295" lon="5.91842">
        <ele>1495.104617301</ele>
        <time>2015-05-06T19:00:52Z</time>
      </trkpt>
      <trkpt lat="45.44295" lon="5.91842">
        <ele>1494.741524281</ele>
        <time>2015-05-06T19:00:58Z</time>
      </trkpt>
      <trkpt lat="45.44295" lon="5.91842">
        <ele>1494.378431262</ele>
        <time>2015-05-06T19:01:02Z</time>
      </trkpt>
      <trkpt lat="45.44295" lon="5.91842">
        <ele>1494.015338242</ele>
        <time>2015-05-06T19:01:08Z</time>
      </trkpt>
      <trkpt lat="45.44296" lon="5.91842">
        <ele>1493.652245223</ele>
        <time>2015-05-06T19:01:12Z</time>
      </trkpt>
      <trkpt lat="45.44296" lon="5.91842">
        <ele>1493.289152203</ele>
        <time>2015-05-06T19:01:18Z</time>
      </trkpt>
      <trkpt lat="45.44296" lon="5.91842">
        <ele>1492.926059184</ele>
        <time>2015-05-06T19:01:22Z</time>
      </trkpt>
      <trkpt lat="45.44296" lon="5.91842">
        <ele>1492.562966165</ele>
        <time>2015-05-06T19:01:26Z</time>
      </trkpt>
      <trkpt lat="45.44448" lon="5.91815">
        <ele>1492.199873145</ele>
        <time>2015-05-06T19:04:37Z</time>
      </trkpt>
      <trkpt lat="45.44454" lon="5.91811">
        <ele>1491.836780126</ele>
        <time>2015-05-06T19:04:43Z</time>
      </trkpt>
      <trkpt lat="45.44461" lon="5.91811">
        <ele>1491.473687106</ele>
        <time>2015-05-06T19:04:47Z</time>
      </trkpt>
      <trkpt lat="45.44466" lon="5.91811">
        <ele>1491.110594087</ele>
        <time>2015-05-06T19:04:53Z</time>
      </trkpt>
      <trkpt lat="45.4446" lon="5.91806">
        <ele>1490.747501067</ele>
        <time>2015-05-06T19:04:57Z</time>
      </trkpt>
      <trkpt lat="45.44443" lon="5.91796">
        <ele>1490.384408048</ele>
        <time>2015-05-06T19:05:03Z</time>
      </trkpt>
      <trkpt lat="45.44453" lon="5.91789">
        <ele>1490.021315028</ele>
        <time>2015-05-06T19:05:07Z</time>
      </trkpt>
      <trkpt lat="45.44454" lon="5.9178">
        <ele>1489.658222009</ele>
        <time>2015-05-06T19:05:13Z</time>
      </trkpt>
      <trkpt lat="45.44455" lon="5.9177">
        <ele>1489.29512899</ele>
        <time>2015-05-06T19:05:17Z</time>
      </trkpt>
      <trkpt lat="45.44457" lon="5.91767">
        <ele>1488.93203597</ele>
        <time>2015-05-06T19:05:23Z</time>
      </trkpt>
      <trkpt lat="45.44446" lon="5.91763">
        <ele>1488.315391978</ele>
        <time>2015-05-06T19:05:27Z</time>
      </trkpt>
      <trkpt lat="45.44438" lon="5.91759">
        <ele>1487.698747985</ele>
        <time>2015-05-06T19:05:33Z</time>
      </trkpt>
      <trkpt lat="45.44448" lon="5.91753">
        <ele>1487.082103993</ele>
        <time>2015-05-06T19:05:37Z</time>
      </trkpt>
      <trkpt lat="45.44445" lon="5.91745">
        <ele>1486.46546</ele>
        <time>2015-05-06T19:05:42Z</time>
      </trkpt>
      <trkpt lat="45.44443" lon="5.91739">
        <ele>1485.848816008</ele>
        <time>2015-05-06T19:05:48Z</time>
      </trkpt>
      <trkpt lat="45.44434" lon="5.91724">
        <ele>1485.232172015</ele>
        <time>2015-05-06T19:05:52Z</time>
      </trkpt>
      <trkpt lat="45.44443" lon="5.9172">
        <ele>1484.615528023</ele>
        <time>2015-05-06T19:05:58Z</time>
      </trkpt>
      <trkpt lat="45.44444" lon="5.91711">
        <ele>1483.99888403</ele>
        <time>2015-05-06T19:06:02Z</time>
      </trkpt>
      <trkpt lat="45.44448" lon="5.91704">
        <ele>1483.382240038</ele>
        <time>2015-05-06T19:06:08Z</time>
      </trkpt>
      <trkpt lat="45.44446" lon="5.91699">
        <ele>1482.765596045</ele>
        <time>2015-05-06T19:06:12Z</time>
      </trkpt>
      <trkpt lat="45.44441" lon="5.91695">
        <ele>1479.886957207</ele>
        <time>2015-05-06T19:06:18Z</time>
      </trkpt>
      <trkpt lat="45.44439" lon="5.9169">
        <ele>1477.008318369</ele>
        <time>2015-05-06T19:06:22Z</time>
      </trkpt>
      <trkpt lat="45.4443" lon="5.91689">
        <ele>1471.357875549</ele>
        <time>2015-05-06T19:06:28Z</time>
      </trkpt>
      <trkpt lat="45.44421" lon="5.9169">
        <ele>1471.357875549</ele>
        <time>2015-05-06T19:06:32Z</time>
      </trkpt>
      <trkpt lat="45.44412" lon="5.91688">
        <ele>1464.957067164</ele>
        <time>2015-05-06T19:06:38Z</time>
      </trkpt>
      <trkpt lat="45.44401" lon="5.91687">
        <ele>1459.030963102</ele>
        <time>2015-05-06T19:06:42Z</time>
      </trkpt>
      <trkpt lat="45.44386" lon="5.91685">
        <ele>1453.271816508</ele>
        <time>2015-05-06T19:06:48Z</time>
      </trkpt>
      <trkpt lat="45.4438" lon="5.91684">
        <ele>1453.271816508</ele>
        <time>2015-05-06T19:06:52Z</time>
      </trkpt>
      <trkpt lat="45.44377" lon="5.91682">
        <ele>1451.658156187</ele>
        <time>2015-05-06T19:06:58Z</time>
      </trkpt>
      <trkpt lat="45.44375" lon="5.91682">
        <ele>1450.044495867</ele>
        <time>2015-05-06T19:07:02Z</time>
      </trkpt>
      <trkpt lat="45.44375" lon="5.91682">
        <ele>1448.430835547</ele>
        <time>2015-05-06T19:07:08Z</time>
      </trkpt>
      <trkpt lat="45.44375" lon="5.91681">
        <ele>1446.817175226</ele>
        <time>2015-05-06T19:07:12Z</time>
      </trkpt>
      <trkpt lat="45.44374" lon="5.91681">
        <ele>1446.817175226</ele>
        <time>2015-05-06T19:07:18Z</time>
      </trkpt>
      <trkpt lat="45.44381" lon="5.91674">
        <ele>1446.817175226</ele>
        <time>2015-05-06T19:07:21Z</time>
      </trkpt>
      <trkpt lat="45.44389" lon="5.91669">
        <ele>1440.887034742</ele>
        <time>2015-05-06T19:07:27Z</time>
      </trkpt>
      <trkpt lat="45.44394" lon="5.91665">
        <ele>1440.887034742</ele>
        <time>2015-05-06T19:07:33Z</time>
      </trkpt>
      <trkpt lat="45.44394" lon="5.91661">
        <ele>1440.887034742</ele>
        <time>2015-05-06T19:07:37Z</time>
      </trkpt>
      <trkpt lat="45.44397" lon="5.91659">
        <ele>1435.312871041</ele>
        <time>2015-05-06T19:07:42Z</time>
      </trkpt>
      <trkpt lat="45.44396" lon="5.91652">
        <ele>1435.312871041</ele>
        <time>2015-05-06T19:07:48Z</time>
      </trkpt>
      <trkpt lat="45.4439" lon="5.91649">
        <ele>1432.271983146</ele>
        <time>2015-05-06T19:07:52Z</time>
      </trkpt>
      <trkpt lat="45.44369" lon="5.91655">
        <ele>1429.23109525</ele>
        <time>2015-05-06T19:07:58Z</time>
      </trkpt>
      <trkpt lat="45.44348" lon="5.91651">
        <ele>1426.190207355</ele>
        <time>2015-05-06T19:08:03Z</time>
      </trkpt>
      <trkpt lat="45.4434" lon="5.91649">
        <ele>1426.190207355</ele>
        <time>2015-05-06T19:08:08Z</time>
      </trkpt>
      <trkpt lat="45.44339" lon="5.91649">
        <ele>1417.404662463</ele>
        <time>2015-05-06T19:08:12Z</time>
      </trkpt>
      <trkpt lat="45.44336" lon="5.91649">
        <ele>1417.404662463</ele>
        <time>2015-05-06T19:08:17Z</time>
      </trkpt>
      <trkpt lat="45.44335" lon="5.91649">
        <ele>1417.404662463</ele>
        <time>2015-05-06T19:08:23Z</time>
      </trkpt>
      <trkpt lat="45.44335" lon="5.91649">
        <ele>1417.404662463</ele>
        <time>2015-05-06T19:08:27Z</time>
      </trkpt>
      <trkpt lat="45.44337" lon="5.91644">
        <ele>1417.404662463</ele>
        <time>2015-05-06T19:08:33Z</time>
      </trkpt>
      <trkpt lat="45.44326" lon="5.91642">
        <ele>1408.663992928</ele>
        <time>2015-05-06T19:08:38Z</time>
      </trkpt>
      <trkpt lat="45.44317" lon="5.91644">
        <ele>1399.840906383</ele>
        <time>2015-05-06T19:08:42Z</time>
      </trkpt>
      <trkpt lat="45.44312" lon="5.91641">
        <ele>1399.840906383</ele>
        <time>2015-05-06T19:08:48Z</time>
      </trkpt>
      <trkpt lat="45.4431" lon="5.9164">
        <ele>1399.840906383</ele>
        <time>2015-05-06T19:08:52Z</time>
      </trkpt>
      <trkpt lat="45.4431" lon="5.9164">
        <ele>1399.840906383</ele>
        <time>2015-05-06T19:08:58Z</time>
      </trkpt>
      <trkpt lat="45.4431" lon="5.9164">
        <ele>1399.840906383</ele>
        <time>2015-05-06T19:09:02Z</time>
      </trkpt>
      <trkpt lat="45.4431" lon="5.9164">
        <ele>1399.840906383</ele>
        <time>2015-05-06T19:09:08Z</time>
      </trkpt>
      <trkpt lat="45.44306" lon="5.9164">
        <ele>1391.105389297</ele>
        <time>2015-05-06T19:09:12Z</time>
      </trkpt>
      <trkpt lat="45.44302" lon="5.91638">
        <ele>1391.105389297</ele>
        <time>2015-05-06T19:09:18Z</time>
      </trkpt>
      <trkpt lat="45.44295" lon="5.91637">
        <ele>1382.181816601</ele>
        <time>2015-05-06T19:09:23Z</time>
      </trkpt>
      <trkpt lat="45.44291" lon="5.91638">
        <ele>1382.181816601</ele>
        <time>2015-05-06T19:09:27Z</time>
      </trkpt>
      <trkpt lat="45.44295" lon="5.9164">
        <ele>1382.181816601</ele>
        <time>2015-05-06T19:09:33Z</time>
      </trkpt>
      <trkpt lat="45.4429" lon="5.9164">
        <ele>1372.6706638</ele>
        <time>2015-05-06T19:09:37Z</time>
      </trkpt>
      <trkpt lat="45.44286" lon="5.9164">
        <ele>1372.6706638</ele>
        <time>2015-05-06T19:09:43Z</time>
      </trkpt>
      <trkpt lat="45.44281" lon="5.91641">
        <ele>1362.779268663</ele>
        <time>2015-05-06T19:09:47Z</time>
      </trkpt>
      <trkpt lat="45.44283" lon="5.91639">
        <ele>1362.779268663</ele>
        <time>2015-05-06T19:09:53Z</time>
      </trkpt>
      <trkpt lat="45.44279" lon="5.9164">
        <ele>1361.339611144</ele>
        <time>2015-05-06T19:09:57Z</time>
      </trkpt>
      <trkpt lat="45.44262" lon="5.9164">
        <ele>1359.899953624</ele>
        <time>2015-05-06T19:10:03Z</time>
      </trkpt>
      <trkpt lat="45.44253" lon="5.91637">
        <ele>1358.460296105</ele>
        <time>2015-05-06T19:10:07Z</time>
      </trkpt>
      <trkpt lat="45.44243" lon="5.91635">
        <ele>1357.020638586</ele>
        <time>2015-05-06T19:10:13Z</time>
      </trkpt>
      <trkpt lat="45.4426" lon="5.91622">
        <ele>1355.580981067</ele>
        <time>2015-05-06T19:10:17Z</time>
      </trkpt>
      <trkpt lat="45.44263" lon="5.91621">
        <ele>1354.141323548</ele>
        <time>2015-05-06T19:10:21Z</time>
      </trkpt>
      <trkpt lat="45.44268" lon="5.91617">
        <ele>1354.141323548</ele>
        <time>2015-05-06T19:10:28Z</time>
      </trkpt>
      <trkpt lat="45.4427" lon="5.91615">
        <ele>1354.141323548</ele>
        <time>2015-05-06T19:10:32Z</time>
      </trkpt>
      <trkpt lat="45.4427" lon="5.91614">
        <ele>1354.141323548</ele>
        <time>2015-05-06T19:10:38Z</time>
      </trkpt>
      <trkpt lat="45.44268" lon="5.91613">
        <ele>1346.969392618</ele>
        <time>2015-05-06T19:10:42Z</time>
      </trkpt>
      <trkpt lat="45.44268" lon="5.91613">
        <ele>1346.969392618</ele>
        <time>2015-05-06T19:10:48Z</time>
      </trkpt>
      <trkpt lat="45.44268" lon="5.91613">
        <ele>1346.969392618</ele>
        <time>2015-05-06T19:10:52Z</time>
      </trkpt>
      <trkpt lat="45.44268" lon="5.91613">
        <ele>1346.969392618</ele>
        <time>2015-05-06T19:10:58Z</time>
      </trkpt>
      <trkpt lat="45.44268" lon="5.91613">
        <ele>1346.969392618</ele>
        <time>2015-05-06T19:11:02Z</time>
      </trkpt>
      <trkpt lat="45.44268" lon="5.91613">
        <ele>1346.969392618</ele>
        <time>2015-05-06T19:11:08Z</time>
      </trkpt>
      <trkpt lat="45.44261" lon="5.91607">
        <ele>1339.582262735</ele>
        <time>2015-05-06T19:11:12Z</time>
      </trkpt>
      <trkpt lat="45.44261" lon="5.91602">
        <ele>1339.582262735</ele>
        <time>2015-05-06T19:11:18Z</time>
      </trkpt>
      <trkpt lat="45.44257" lon="5.91597">
        <ele>1339.582262735</ele>
        <time>2015-05-06T19:11:22Z</time>
      </trkpt>
      <trkpt lat="45.44257" lon="5.91593">
        <ele>1330.710443858</ele>
        <time>2015-05-06T19:11:28Z</time>
      </trkpt>
      <trkpt lat="45.44262" lon="5.91587">
        <ele>1330.710443858</ele>
        <time>2015-05-06T19:11:31Z</time>
      </trkpt>
      <trkpt lat="45.44266" lon="5.91582">
        <ele>1321.919380162</ele>
        <time>2015-05-06T19:11:36Z</time>
      </trkpt>
      <trkpt lat="45.44264" lon="5.9158">
        <ele>1321.919380162</ele>
        <time>2015-05-06T19:11:43Z</time>
      </trkpt>
      <trkpt lat="45.44263" lon="5.91581">
        <ele>1321.919380162</ele>
        <time>2015-05-06T19:11:47Z</time>
      </trkpt>
      <trkpt lat="45.44263" lon="5.9158">
        <ele>1321.919380162</ele>
        <time>2015-05-06T19:11:53Z</time>
      </trkpt>
      <trkpt lat="45.44263" lon="5.9158">
        <ele>1321.919380162</ele>
        <time>2015-05-06T19:11:57Z</time>
      </trkpt>
      <trkpt lat="45.44263" lon="5.9158">
        <ele>1321.919380162</ele>
        <time>2015-05-06T19:12:01Z</time>
      </trkpt>
      <trkpt lat="45.44263" lon="5.9158">
        <ele>1321.919380162</ele>
        <time>2015-05-06T19:12:06Z</time>
      </trkpt>
      <trkpt lat="45.44263" lon="5.9158">
        <ele>1321.919380162</ele>
        <time>2015-05-06T19:12:13Z</time>
      </trkpt>
      <trkpt lat="45.44268" lon="5.9157">
        <ele>1313.073475802</ele>
        <time>2015-05-06T19:12:17Z</time>
      </trkpt>
      <trkpt lat="45.44273" lon="5.91553">
        <ele>1304.911326865</ele>
        <time>2015-05-06T19:12:23Z</time>
      </trkpt>
      <trkpt lat="45.44282" lon="5.91547">
        <ele>1297.970660475</ele>
        <time>2015-05-06T19:12:27Z</time>
      </trkpt>
      <trkpt lat="45.44283" lon="5.91544">
        <ele>1297.970660475</ele>
        <time>2015-05-06T19:12:33Z</time>
      </trkpt>
      <trkpt lat="45.44285" lon="5.91541">
        <ele>1297.970660475</ele>
        <time>2015-05-06T19:12:37Z</time>
      </trkpt>
      <trkpt lat="45.44285" lon="5.9154">
        <ele>1297.970660475</ele>
        <time>2015-05-06T19:12:43Z</time>
      </trkpt>
      <trkpt lat="45.44285" lon="5.9154">
        <ele>1297.970660475</ele>
        <time>2015-05-06T19:12:47Z</time>
      </trkpt>
      <trkpt lat="45.44286" lon="5.9154">
        <ele>1297.970660475</ele>
        <time>2015-05-06T19:12:53Z</time>
      </trkpt>
      <trkpt lat="45.44286" lon="5.9154">
        <ele>1297.970660475</ele>
        <time>2015-05-06T19:12:57Z</time>
      </trkpt>
      <trkpt lat="45.44286" lon="5.91539">
        <ele>1297.970660475</ele>
        <time>2015-05-06T19:13:03Z</time>
      </trkpt>
      <trkpt lat="45.44286" lon="5.91539">
        <ele>1297.970660475</ele>
        <time>2015-05-06T19:13:07Z</time>
      </trkpt>
      <trkpt lat="45.44286" lon="5.91539">
        <ele>1297.970660475</ele>
        <time>2015-05-06T19:13:13Z</time>
      </trkpt>
      <trkpt lat="45.44293" lon="5.9152">
        <ele>1290.439924654</ele>
        <time>2015-05-06T19:13:17Z</time>
      </trkpt>
      <trkpt lat="45.44298" lon="5.91511">
        <ele>1290.439924654</ele>
        <time>2015-05-06T19:13:21Z</time>
      </trkpt>
      <trkpt lat="45.44307" lon="5.91496">
        <ele>1282.947518412</ele>
        <time>2015-05-06T19:13:26Z</time>
      </trkpt>
      <trkpt lat="45.4431" lon="5.91486">
        <ele>1282.947518412</ele>
        <time>2015-05-06T19:13:31Z</time>
      </trkpt>
      <trkpt lat="45.4431" lon="5.91482">
        <ele>1276.939699439</ele>
        <time>2015-05-06T19:13:36Z</time>
      </trkpt>
      <trkpt lat="45.44305" lon="5.9147">
        <ele>1271.734247813</ele>
        <time>2015-05-06T19:13:41Z</time>
      </trkpt>
      <trkpt lat="45.44313" lon="5.91469">
        <ele>1271.734247813</ele>
        <time>2015-05-06T19:13:46Z</time>
      </trkpt>
      <trkpt lat="45.44326" lon="5.91465">
        <ele>1267.27276565</ele>
        <time>2015-05-06T19:13:52Z</time>
      </trkpt>
      <trkpt lat="45.44324" lon="5.91462">
        <ele>1267.27276565</ele>
        <time>2015-05-06T19:13:58Z</time>
      </trkpt>
      <trkpt lat="45.44322" lon="5.91457">
        <ele>1267.27276565</ele>
        <time>2015-05-06T19:14:02Z</time>
      </trkpt>
      <trkpt lat="45.44323" lon="5.91453">
        <ele>1262.489825029</ele>
        <time>2015-05-06T19:14:08Z</time>
      </trkpt>
      <trkpt lat="45.44335" lon="5.91453">
        <ele>1258.416304535</ele>
        <time>2015-05-06T19:14:12Z</time>
      </trkpt>
      <trkpt lat="45.44329" lon="5.91447">
        <ele>1258.416304535</ele>
        <time>2015-05-06T19:14:18Z</time>
      </trkpt>
      <trkpt lat="45.4433" lon="5.91441">
        <ele>1254.996209201</ele>
        <time>2015-05-06T19:14:22Z</time>
      </trkpt>
      <trkpt lat="45.44331" lon="5.91437">
        <ele>1254.996209201</ele>
        <time>2015-05-06T19:14:28Z</time>
      </trkpt>
      <trkpt lat="45.44323" lon="5.91432">
        <ele>1251.743154236</ele>
        <time>2015-05-06T19:14:32Z</time>
      </trkpt>
      <trkpt lat="45.44323" lon="5.91434">
        <ele>1251.743154236</ele>
        <time>2015-05-06T19:14:38Z</time>
      </trkpt>
      <trkpt lat="45.44323" lon="5.91424">
        <ele>1251.743154236</ele>
        <time>2015-05-06T19:14:42Z</time>
      </trkpt>
      <trkpt lat="45.44324" lon="5.91417">
        <ele>1248.061608593</ele>
        <time>2015-05-06T19:14:48Z</time>
      </trkpt>
      <trkpt lat="45.44321" lon="5.91413">
        <ele>1248.061608593</ele>
        <time>2015-05-06T19:14:52Z</time>
      </trkpt>
      <trkpt lat="45.44323" lon="5.91407">
        <ele>1248.061608593</ele>
        <time>2015-05-06T19:14:58Z</time>
      </trkpt>
      <trkpt lat="45.4432" lon="5.91399">
        <ele>1244.121290413</ele>
        <time>2015-05-06T19:15:02Z</time>
      </trkpt>
      <trkpt lat="45.44319" lon="5.91388">
        <ele>1244.121290413</ele>
        <time>2015-05-06T19:15:08Z</time>
      </trkpt>
      <trkpt lat="45.44326" lon="5.91383">
        <ele>1240.224069264</ele>
        <time>2015-05-06T19:15:12Z</time>
      </trkpt>
      <trkpt lat="45.44328" lon="5.91377">
        <ele>1240.224069264</ele>
        <time>2015-05-06T19:15:18Z</time>
      </trkpt>
      <trkpt lat="45.44336" lon="5.91382">
        <ele>1237.081669645</ele>
        <time>2015-05-06T19:15:22Z</time>
      </trkpt>
      <trkpt lat="45.44326" lon="5.91372">
        <ele>1234.486600729</ele>
        <time>2015-05-06T19:15:26Z</time>
      </trkpt>
      <trkpt lat="45.44331" lon="5.91371">
        <ele>1234.486600729</ele>
        <time>2015-05-06T19:15:31Z</time>
      </trkpt>
      <trkpt lat="45.44333" lon="5.91368">
        <ele>1234.486600729</ele>
        <time>2015-05-06T19:15:36Z</time>
      </trkpt>
      <trkpt lat="45.44333" lon="5.91368">
        <ele>1234.486600729</ele>
        <time>2015-05-06T19:15:41Z</time>
      </trkpt>
      <trkpt lat="45.44332" lon="5.91368">
        <ele>1234.486600729</ele>
        <time>2015-05-06T19:15:48Z</time>
      </trkpt>
      <trkpt lat="45.44332" lon="5.91368">
        <ele>1234.486600729</ele>
        <time>2015-05-06T19:15:51Z</time>
      </trkpt>
      <trkpt lat="45.44332" lon="5.91367">
        <ele>1234.486600729</ele>
        <time>2015-05-06T19:15:56Z</time>
      </trkpt>
      <trkpt lat="45.44332" lon="5.91367">
        <ele>1234.486600729</ele>
        <time>2015-05-06T19:16:01Z</time>
      </trkpt>
      <trkpt lat="45.44332" lon="5.91367">
        <ele>1234.486600729</ele>
        <time>2015-05-06T19:16:06Z</time>
      </trkpt>
      <trkpt lat="45.44342" lon="5.91339">
        <ele>1231.812631198</ele>
        <time>2015-05-06T19:16:13Z</time>
      </trkpt>
      <trkpt lat="45.4435" lon="5.91327">
        <ele>1229.056119022</ele>
        <time>2015-05-06T19:16:16Z</time>
      </trkpt>
      <trkpt lat="45.44358" lon="5.91322">
        <ele>1226.357987103</ele>
        <time>2015-05-06T19:16:21Z</time>
      </trkpt>
      <trkpt lat="45.4437" lon="5.9132">
        <ele>1223.272183809</ele>
        <time>2015-05-06T19:16:26Z</time>
      </trkpt>
      <trkpt lat="45.44378" lon="5.91304">
        <ele>1220.827638849</ele>
        <time>2015-05-06T19:16:31Z</time>
      </trkpt>
      <trkpt lat="45.44384" lon="5.91296">
        <ele>1220.827638849</ele>
        <time>2015-05-06T19:16:38Z</time>
      </trkpt>
      <trkpt lat="45.44391" lon="5.91301">
        <ele>1219.97594388</ele>
        <time>2015-05-06T19:16:42Z</time>
      </trkpt>
      <trkpt lat="45.44382" lon="5.9129">
        <ele>1219.14450475</ele>
        <time>2015-05-06T19:16:46Z</time>
      </trkpt>
      <trkpt lat="45.44382" lon="5.91282">
        <ele>1219.14450475</ele>
        <time>2015-05-06T19:16:51Z</time>
      </trkpt>
      <trkpt lat="45.44383" lon="5.91286">
        <ele>1219.14450475</ele>
        <time>2015-05-06T19:16:56Z</time>
      </trkpt>
      <trkpt lat="45.44381" lon="5.9128">
        <ele>1218.89385733</ele>
        <time>2015-05-06T19:17:01Z</time>
      </trkpt>
      <trkpt lat="45.44381" lon="5.91283">
        <ele>1218.89385733</ele>
        <time>2015-05-06T19:17:08Z</time>
      </trkpt>
      <trkpt lat="45.44382" lon="5.91284">
        <ele>1218.89385733</ele>
        <time>2015-05-06T19:17:11Z</time>
      </trkpt>
      <trkpt lat="45.44382" lon="5.91284">
        <ele>1218.89385733</ele>
        <time>2015-05-06T19:17:16Z</time>
      </trkpt>
      <trkpt lat="45.44382" lon="5.91285">
        <ele>1218.89385733</ele>
        <time>2015-05-06T19:17:21Z</time>
      </trkpt>
      <trkpt lat="45.44382" lon="5.91285">
        <ele>1218.89385733</ele>
        <time>2015-05-06T19:17:26Z</time>
      </trkpt>
      <trkpt lat="45.44382" lon="5.91285">
        <ele>1218.89385733</ele>
        <time>2015-05-06T19:17:33Z</time>
      </trkpt>
      <trkpt lat="45.44382" lon="5.91285">
        <ele>1218.89385733</ele>
        <time>2015-05-06T19:17:36Z</time>
      </trkpt>
      <trkpt lat="45.44382" lon="5.91285">
        <ele>1218.89385733</ele>
        <time>2015-05-06T19:17:41Z</time>
      </trkpt>
      <trkpt lat="45.44382" lon="5.91285">
        <ele>1218.89385733</ele>
        <time>2015-05-06T19:17:46Z</time>
      </trkpt>
      <trkpt lat="45.44387" lon="5.91278">
        <ele>1218.156651474</ele>
        <time>2015-05-06T19:17:51Z</time>
      </trkpt>
      <trkpt lat="45.44392" lon="5.9127">
        <ele>1218.156651474</ele>
        <time>2015-05-06T19:17:57Z</time>
      </trkpt>
      <trkpt lat="45.44392" lon="5.91266">
        <ele>1218.539488356</ele>
        <time>2015-05-06T19:18:01Z</time>
      </trkpt>
      <trkpt lat="45.44392" lon="5.91265">
        <ele>1218.539488356</ele>
        <time>2015-05-06T19:18:06Z</time>
      </trkpt>
      <trkpt lat="45.44392" lon="5.91263">
        <ele>1218.539488356</ele>
        <time>2015-05-06T19:18:11Z</time>
      </trkpt>
      <trkpt lat="45.44398" lon="5.91263">
        <ele>1218.539488356</ele>
        <time>2015-05-06T19:18:17Z</time>
      </trkpt>
      <trkpt lat="45.44389" lon="5.91268">
        <ele>1218.213461682</ele>
        <time>2015-05-06T19:18:21Z</time>
      </trkpt>
      <trkpt lat="45.44386" lon="5.91265">
        <ele>1218.213461682</ele>
        <time>2015-05-06T19:18:26Z</time>
      </trkpt>
      <trkpt lat="45.44384" lon="5.91262">
        <ele>1218.213461682</ele>
        <time>2015-05-06T19:18:31Z</time>
      </trkpt>
      <trkpt lat="45.44384" lon="5.91258">
        <ele>1218.213461682</ele>
        <time>2015-05-06T19:18:37Z</time>
      </trkpt>
      <trkpt lat="45.44383" lon="5.91257">
        <ele>1218.080247769</ele>
        <time>2015-05-06T19:18:41Z</time>
      </trkpt>
      <trkpt lat="45.44383" lon="5.91257">
        <ele>1218.080247769</ele>
        <time>2015-05-06T19:18:46Z</time>
      </trkpt>
      <trkpt lat="45.44383" lon="5.91257">
        <ele>1218.080247769</ele>
        <time>2015-05-06T19:18:51Z</time>
      </trkpt>
      <trkpt lat="45.44383" lon="5.91257">
        <ele>1218.080247769</ele>
        <time>2015-05-06T19:18:57Z</time>
      </trkpt>
      <trkpt lat="45.44378" lon="5.91256">
        <ele>1218.080247769</ele>
        <time>2015-05-06T19:19:01Z</time>
      </trkpt>
      <trkpt lat="45.44364" lon="5.91251">
        <ele>1218.39857274</ele>
        <time>2015-05-06T19:19:06Z</time>
      </trkpt>
      <trkpt lat="45.44365" lon="5.91249">
        <ele>1218.39857274</ele>
        <time>2015-05-06T19:19:11Z</time>
      </trkpt>
      <trkpt lat="45.44364" lon="5.91244">
        <ele>1218.39857274</ele>
        <time>2015-05-06T19:19:16Z</time>
      </trkpt>
      <trkpt lat="45.44364" lon="5.91245">
        <ele>1218.39857274</ele>
        <time>2015-05-06T19:19:21Z</time>
      </trkpt>
      <trkpt lat="45.44364" lon="5.91244">
        <ele>1218.39857274</ele>
        <time>2015-05-06T19:19:26Z</time>
      </trkpt>
      <trkpt lat="45.44364" lon="5.91244">
        <ele>1218.39857274</ele>
        <time>2015-05-06T19:19:31Z</time>
      </trkpt>
      <trkpt lat="45.44364" lon="5.91244">
        <ele>1218.39857274</ele>
        <time>2015-05-06T19:19:36Z</time>
      </trkpt>
      <trkpt lat="45.44364" lon="5.91244">
        <ele>1218.39857274</ele>
        <time>2015-05-06T19:19:41Z</time>
      </trkpt>
      <trkpt lat="45.44365" lon="5.91244">
        <ele>1218.39857274</ele>
        <time>2015-05-06T19:19:46Z</time>
      </trkpt>
      <trkpt lat="45.44364" lon="5.91244">
        <ele>1218.39857274</ele>
        <time>2015-05-06T19:19:51Z</time>
      </trkpt>
      <trkpt lat="45.44364" lon="5.91243">
        <ele>1218.39857274</ele>
        <time>2015-05-06T19:19:56Z</time>
      </trkpt>
      <trkpt lat="45.44364" lon="5.91243">
        <ele>1218.39857274</ele>
        <time>2015-05-06T19:20:01Z</time>
      </trkpt>
      <trkpt lat="45.44364" lon="5.91243">
        <ele>1218.39857274</ele>
        <time>2015-05-06T19:20:06Z</time>
      </trkpt>
      <trkpt lat="45.44364" lon="5.91243">
        <ele>1218.39857274</ele>
        <time>2015-05-06T19:20:11Z</time>
      </trkpt>
      <trkpt lat="45.4436" lon="5.91239">
        <ele>1218.830745025</ele>
        <time>2015-05-06T19:20:16Z</time>
      </trkpt>
      <trkpt lat="45.44353" lon="5.91234">
        <ele>1218.830745025</ele>
        <time>2015-05-06T19:20:21Z</time>
      </trkpt>
      <trkpt lat="45.44341" lon="5.91227">
        <ele>1219.640330224</ele>
        <time>2015-05-06T19:20:26Z</time>
      </trkpt>
      <trkpt lat="45.44339" lon="5.91218">
        <ele>1219.640330224</ele>
        <time>2015-05-06T19:20:31Z</time>
      </trkpt>
      <trkpt lat="45.44337" lon="5.91214">
        <ele>1219.629710654</ele>
        <time>2015-05-06T19:20:36Z</time>
      </trkpt>
      <trkpt lat="45.44337" lon="5.91212">
        <ele>1219.629710654</ele>
        <time>2015-05-06T19:20:41Z</time>
      </trkpt>
      <trkpt lat="45.44337" lon="5.91212">
        <ele>1219.629710654</ele>
        <time>2015-05-06T19:20:46Z</time>
      </trkpt>
      <trkpt lat="45.44337" lon="5.91212">
        <ele>1219.629710654</ele>
        <time>2015-05-06T19:20:51Z</time>
      </trkpt>
      <trkpt lat="45.44337" lon="5.91212">
        <ele>1219.629710654</ele>
        <time>2015-05-06T19:20:56Z</time>
      </trkpt>
      <trkpt lat="45.44337" lon="5.91211">
        <ele>1219.629710654</ele>
        <time>2015-05-06T19:21:01Z</time>
      </trkpt>
      <trkpt lat="45.44337" lon="5.91211">
        <ele>1219.629710654</ele>
        <time>2015-05-06T19:21:06Z</time>
      </trkpt>
      <trkpt lat="45.44337" lon="5.91211">
        <ele>1219.629710654</ele>
        <time>2015-05-06T19:21:11Z</time>
      </trkpt>
      <trkpt lat="45.44337" lon="5.91202">
        <ele>1219.629710654</ele>
        <time>2015-05-06T19:21:16Z</time>
      </trkpt>
      <trkpt lat="45.44333" lon="5.91189">
        <ele>1219.709471762</ele>
        <time>2015-05-06T19:21:21Z</time>
      </trkpt>
      <trkpt lat="45.44328" lon="5.91169">
        <ele>1219.714663393</ele>
        <time>2015-05-06T19:21:26Z</time>
      </trkpt>
      <trkpt lat="45.4431" lon="5.91145">
        <ele>1219.348951113</ele>
        <time>2015-05-06T19:21:31Z</time>
      </trkpt>
      <trkpt lat="45.44303" lon="5.91138">
        <ele>1219.348951113</ele>
        <time>2015-05-06T19:21:36Z</time>
      </trkpt>
      <trkpt lat="45.4431" lon="5.91132">
        <ele>1218.627441376</ele>
        <time>2015-05-06T19:21:41Z</time>
      </trkpt>
      <trkpt lat="45.44308" lon="5.91133">
        <ele>1218.627441376</ele>
        <time>2015-05-06T19:21:46Z</time>
      </trkpt>
      <trkpt lat="45.44306" lon="5.91124">
        <ele>1217.853766551</ele>
        <time>2015-05-06T19:21:51Z</time>
      </trkpt>
      <trkpt lat="45.44306" lon="5.91121">
        <ele>1217.853766551</ele>
        <time>2015-05-06T19:21:56Z</time>
      </trkpt>
      <trkpt lat="45.44302" lon="5.91119">
        <ele>1217.853766551</ele>
        <time>2015-05-06T19:22:01Z</time>
      </trkpt>
      <trkpt lat="45.44305" lon="5.91109">
        <ele>1215.43637018</ele>
        <time>2015-05-06T19:22:06Z</time>
      </trkpt>
      <trkpt lat="45.44305" lon="5.9111">
        <ele>1215.43637018</ele>
        <time>2015-05-06T19:22:11Z</time>
      </trkpt>
      <trkpt lat="45.44307" lon="5.91107">
        <ele>1215.43637018</ele>
        <time>2015-05-06T19:22:16Z</time>
      </trkpt>
      <trkpt lat="45.44308" lon="5.91106">
        <ele>1215.43637018</ele>
        <time>2015-05-06T19:22:21Z</time>
      </trkpt>
      <trkpt lat="45.44308" lon="5.91106">
        <ele>1215.43637018</ele>
        <time>2015-05-06T19:22:26Z</time>
      </trkpt>
      <trkpt lat="45.44308" lon="5.91106">
        <ele>1215.43637018</ele>
        <time>2015-05-06T19:22:31Z</time>
      </trkpt>
      <trkpt lat="45.44308" lon="5.91106">
        <ele>1215.43637018</ele>
        <time>2015-05-06T19:22:36Z</time>
      </trkpt>
      <trkpt lat="45.44308" lon="5.91106">
        <ele>1215.43637018</ele>
        <time>2015-05-06T19:22:41Z</time>
      </trkpt>
      <trkpt lat="45.44308" lon="5.91106">
        <ele>1215.43637018</ele>
        <time>2015-05-06T19:22:46Z</time>
      </trkpt>
      <trkpt lat="45.44308" lon="5.91106">
        <ele>1215.43637018</ele>
        <time>2015-05-06T19:22:51Z</time>
      </trkpt>
      <trkpt lat="45.44308" lon="5.91105">
        <ele>1215.43637018</ele>
        <time>2015-05-06T19:22:56Z</time>
      </trkpt>
      <trkpt lat="45.44308" lon="5.91105">
        <ele>1215.43637018</ele>
        <time>2015-05-06T19:23:01Z</time>
      </trkpt>
      <trkpt lat="45.44308" lon="5.91105">
        <ele>1215.43637018</ele>
        <time>2015-05-06T19:23:06Z</time>
      </trkpt>
      <trkpt lat="45.44308" lon="5.91105">
        <ele>1215.43637018</ele>
        <time>2015-05-06T19:23:11Z</time>
      </trkpt>
      <trkpt lat="45.44308" lon="5.91105">
        <ele>1215.43637018</ele>
        <time>2015-05-06T19:23:16Z</time>
      </trkpt>
      <trkpt lat="45.44308" lon="5.91105">
        <ele>1215.43637018</ele>
        <time>2015-05-06T19:23:21Z</time>
      </trkpt>
      <trkpt lat="45.44318" lon="5.91089">
        <ele>1211.490851301</ele>
        <time>2015-05-06T19:23:26Z</time>
      </trkpt>
      <trkpt lat="45.4432" lon="5.91079">
        <ele>1211.490851301</ele>
        <time>2015-05-06T19:23:31Z</time>
      </trkpt>
      <trkpt lat="45.44324" lon="5.91074">
        <ele>1206.12899366</ele>
        <time>2015-05-06T19:23:36Z</time>
      </trkpt>
      <trkpt lat="45.44326" lon="5.91072">
        <ele>1206.12899366</ele>
        <time>2015-05-06T19:23:41Z</time>
      </trkpt>
      <trkpt lat="45.44326" lon="5.91071">
        <ele>1206.12899366</ele>
        <time>2015-05-06T19:23:46Z</time>
      </trkpt>
      <trkpt lat="45.44326" lon="5.91071">
        <ele>1206.12899366</ele>
        <time>2015-05-06T19:23:51Z</time>
      </trkpt>
      <trkpt lat="45.44326" lon="5.91071">
        <ele>1206.12899366</ele>
        <time>2015-05-06T19:23:56Z</time>
      </trkpt>
      <trkpt lat="45.44326" lon="5.91071">
        <ele>1206.12899366</ele>
        <time>2015-05-06T19:24:01Z</time>
      </trkpt>
      <trkpt lat="45.44327" lon="5.91068">
        <ele>1206.12899366</ele>
        <time>2015-05-06T19:24:06Z</time>
      </trkpt>
      <trkpt lat="45.44341" lon="5.91056">
        <ele>1199.314593403</ele>
        <time>2015-05-06T19:24:11Z</time>
      </trkpt>
      <trkpt lat="45.44342" lon="5.9104">
        <ele>1193.324286044</ele>
        <time>2015-05-06T19:24:16Z</time>
      </trkpt>
      <trkpt lat="45.4435" lon="5.91018">
        <ele>1187.67144037</ele>
        <time>2015-05-06T19:24:21Z</time>
      </trkpt>
      <trkpt lat="45.4435" lon="5.91006">
        <ele>1187.67144037</ele>
        <time>2015-05-06T19:24:26Z</time>
      </trkpt>
      <trkpt lat="45.44352" lon="5.90997">
        <ele>1182.336806111</ele>
        <time>2015-05-06T19:24:31Z</time>
      </trkpt>
      <trkpt lat="45.4436" lon="5.90984">
        <ele>1177.734198857</ele>
        <time>2015-05-06T19:24:36Z</time>
      </trkpt>
      <trkpt lat="45.44365" lon="5.90978">
        <ele>1177.734198857</ele>
        <time>2015-05-06T19:24:41Z</time>
      </trkpt>
      <trkpt lat="45.44367" lon="5.90973">
        <ele>1173.668719138</ele>
        <time>2015-05-06T19:24:46Z</time>
      </trkpt>
      <trkpt lat="45.44373" lon="5.90972">
        <ele>1173.668719138</ele>
        <time>2015-05-06T19:24:51Z</time>
      </trkpt>
      <trkpt lat="45.4437" lon="5.90967">
        <ele>1169.958436171</ele>
        <time>2015-05-06T19:24:56Z</time>
      </trkpt>
      <trkpt lat="45.44369" lon="5.9096">
        <ele>1169.958436171</ele>
        <time>2015-05-06T19:25:01Z</time>
      </trkpt>
      <trkpt lat="45.44362" lon="5.90952">
        <ele>1166.145704327</ele>
        <time>2015-05-06T19:25:06Z</time>
      </trkpt>
      <trkpt lat="45.44368" lon="5.90952">
        <ele>1166.145704327</ele>
        <time>2015-05-06T19:25:11Z</time>
      </trkpt>
      <trkpt lat="45.44367" lon="5.90943">
        <ele>1162.959798335</ele>
        <time>2015-05-06T19:25:16Z</time>
      </trkpt>
      <trkpt lat="45.44362" lon="5.90932">
        <ele>1160.210110044</ele>
        <time>2015-05-06T19:25:21Z</time>
      </trkpt>
      <trkpt lat="45.4436" lon="5.90921">
        <ele>1160.210110044</ele>
        <time>2015-05-06T19:25:26Z</time>
      </trkpt>
      <trkpt lat="45.44366" lon="5.90921">
        <ele>1157.430693803</ele>
        <time>2015-05-06T19:25:31Z</time>
      </trkpt>
      <trkpt lat="45.44375" lon="5.90922">
        <ele>1154.910572537</ele>
        <time>2015-05-06T19:25:36Z</time>
      </trkpt>
      <trkpt lat="45.4437" lon="5.90917">
        <ele>1154.910572537</ele>
        <time>2015-05-06T19:25:41Z</time>
      </trkpt>
      <trkpt lat="45.44371" lon="5.90912">
        <ele>1152.484575009</ele>
        <time>2015-05-06T19:25:46Z</time>
      </trkpt>
      <trkpt lat="45.44367" lon="5.90907">
        <ele>1152.484575009</ele>
        <time>2015-05-06T19:25:51Z</time>
      </trkpt>
      <trkpt lat="45.44369" lon="5.90898">
        <ele>1150.143606885</ele>
        <time>2015-05-06T19:25:56Z</time>
      </trkpt>
      <trkpt lat="45.44371" lon="5.90891">
        <ele>1150.143606885</ele>
        <time>2015-05-06T19:26:01Z</time>
      </trkpt>
      <trkpt lat="45.44374" lon="5.90885">
        <ele>1147.734987319</ele>
        <time>2015-05-06T19:26:06Z</time>
      </trkpt>
      <trkpt lat="45.44378" lon="5.90879">
        <ele>1147.734987319</ele>
        <time>2015-05-06T19:26:11Z</time>
      </trkpt>
      <trkpt lat="45.44374" lon="5.90871">
        <ele>1145.549869261</ele>
        <time>2015-05-06T19:26:16Z</time>
      </trkpt>
      <trkpt lat="45.44374" lon="5.90866">
        <ele>1145.549869261</ele>
        <time>2015-05-06T19:26:21Z</time>
      </trkpt>
      <trkpt lat="45.44379" lon="5.90863">
        <ele>1143.71337461</ele>
        <time>2015-05-06T19:26:26Z</time>
      </trkpt>
      <trkpt lat="45.44378" lon="5.90855">
        <ele>1143.71337461</ele>
        <time>2015-05-06T19:26:31Z</time>
      </trkpt>
      <trkpt lat="45.4438" lon="5.90854">
        <ele>1143.71337461</ele>
        <time>2015-05-06T19:26:36Z</time>
      </trkpt>
      <trkpt lat="45.44383" lon="5.90845">
        <ele>1142.052329839</ele>
        <time>2015-05-06T19:26:41Z</time>
      </trkpt>
      <trkpt lat="45.44382" lon="5.90839">
        <ele>1142.052329839</ele>
        <time>2015-05-06T19:26:46Z</time>
      </trkpt>
      <trkpt lat="45.4438" lon="5.90834">
        <ele>1142.052329839</ele>
        <time>2015-05-06T19:26:51Z</time>
      </trkpt>
      <trkpt lat="45.44378" lon="5.90828">
        <ele>1140.261777523</ele>
        <time>2015-05-06T19:26:56Z</time>
      </trkpt>
      <trkpt lat="45.44379" lon="5.90817">
        <ele>1140.261777523</ele>
        <time>2015-05-06T19:27:01Z</time>
      </trkpt>
      <trkpt lat="45.44385" lon="5.90814">
        <ele>1138.059625744</ele>
        <time>2015-05-06T19:27:06Z</time>
      </trkpt>
      <trkpt lat="45.4439" lon="5.90809">
        <ele>1138.059625744</ele>
        <time>2015-05-06T19:27:11Z</time>
      </trkpt>
      <trkpt lat="45.4439" lon="5.908">
        <ele>1135.329871526</ele>
        <time>2015-05-06T19:27:16Z</time>
      </trkpt>
      <trkpt lat="45.44394" lon="5.90795">
        <ele>1135.329871526</ele>
        <time>2015-05-06T19:27:21Z</time>
      </trkpt>
      <trkpt lat="45.44389" lon="5.90789">
        <ele>1132.39894613</ele>
        <time>2015-05-06T19:27:26Z</time>
      </trkpt>
      <trkpt lat="45.44391" lon="5.90783">
        <ele>1132.39894613</ele>
        <time>2015-05-06T19:27:31Z</time>
      </trkpt>
      <trkpt lat="45.44385" lon="5.90773">
        <ele>1129.569960842</ele>
        <time>2015-05-06T19:27:36Z</time>
      </trkpt>
      <trkpt lat="45.44386" lon="5.90764">
        <ele>1129.569960842</ele>
        <time>2015-05-06T19:27:41Z</time>
      </trkpt>
      <trkpt lat="45.44394" lon="5.90756">
        <ele>1126.54711884</ele>
        <time>2015-05-06T19:27:46Z</time>
      </trkpt>
    </trkseg>
  </trk>
</gpx>